<?xml version="1.0" encoding="UTF-8" standalone="no" ?>
<gpx xmlns="http://www.topografix.com/GPX/1/1" xmlns:xsi="http://www.w3.org/2001/XMLSchema-instance" xsi:schemaLocation="http://www.topografix.com/GPX/1/1 http://www.topografix.com/GPX/1/1/gpx.xsd" version="1.1" creator="VisuGPX - https://www.visugpx.com">
  <metadata>
    <name>Boue'Roger 2019 &amp;amp; Déjantée 2019</name>
    <desc><![CDATA[Afin de comparer les traces de la Déjantée du 07/04/2019 et de la Boue'Roger du 31/03/2019]]></desc>
  </metadata>
  <trk>
    <name><![CDATA[20190408183300-PWZv8]]></name>
    <trkseg>
      <trkpt lat="49.39771" lon="1.03544">
        <ele>34.400001525879</ele>
        <time>2019-04-07T06:05:11.000Z</time>
      </trkpt>
      <trkpt lat="49.39772" lon="1.03544">
        <ele>34.400001525879</ele>
        <time>2019-04-07T06:05:12.000Z</time>
      </trkpt>
      <trkpt lat="49.39765" lon="1.03547">
        <ele>34.599998474121</ele>
        <time>2019-04-07T06:06:40.000Z</time>
      </trkpt>
      <trkpt lat="49.39765" lon="1.03547">
        <ele>34.599998474121</ele>
        <time>2019-04-07T06:06:44.000Z</time>
      </trkpt>
      <trkpt lat="49.39766" lon="1.03546">
        <ele>34.599998474121</ele>
        <time>2019-04-07T06:06:48.000Z</time>
      </trkpt>
      <trkpt lat="49.39766" lon="1.03545">
        <ele>34.599998474121</ele>
        <time>2019-04-07T06:07:00.000Z</time>
      </trkpt>
      <trkpt lat="49.39766" lon="1.03546">
        <ele>34.599998474121</ele>
        <time>2019-04-07T06:07:35.000Z</time>
      </trkpt>
      <trkpt lat="49.39766" lon="1.03545">
        <ele>34.599998474121</ele>
        <time>2019-04-07T06:07:49.000Z</time>
      </trkpt>
      <trkpt lat="49.39766" lon="1.03545">
        <ele>34.599998474121</ele>
        <time>2019-04-07T06:07:51.000Z</time>
      </trkpt>
      <trkpt lat="49.39766" lon="1.03545">
        <ele>34.599998474121</ele>
        <time>2019-04-07T06:07:52.000Z</time>
      </trkpt>
      <trkpt lat="49.39766" lon="1.03546">
        <ele>34.599998474121</ele>
        <time>2019-04-07T06:07:56.000Z</time>
      </trkpt>
      <trkpt lat="49.39766" lon="1.03546">
        <ele>34.599998474121</ele>
        <time>2019-04-07T06:07:57.000Z</time>
      </trkpt>
      <trkpt lat="49.39765" lon="1.03546">
        <ele>34.599998474121</ele>
        <time>2019-04-07T06:07:59.000Z</time>
      </trkpt>
      <trkpt lat="49.39765" lon="1.03545">
        <ele>34.599998474121</ele>
        <time>2019-04-07T06:08:00.000Z</time>
      </trkpt>
      <trkpt lat="49.39768" lon="1.03547">
        <ele>34.400001525879</ele>
        <time>2019-04-07T06:08:40.000Z</time>
      </trkpt>
      <trkpt lat="49.39765" lon="1.03548">
        <ele>34.599998474121</ele>
        <time>2019-04-07T06:09:27.000Z</time>
      </trkpt>
      <trkpt lat="49.39765" lon="1.03547">
        <ele>34.599998474121</ele>
        <time>2019-04-07T06:09:59.000Z</time>
      </trkpt>
      <trkpt lat="49.39765" lon="1.03546">
        <ele>34.599998474121</ele>
        <time>2019-04-07T06:10:11.000Z</time>
      </trkpt>
      <trkpt lat="49.39765" lon="1.03547">
        <ele>34.599998474121</ele>
        <time>2019-04-07T06:10:26.000Z</time>
      </trkpt>
      <trkpt lat="49.39765" lon="1.03546">
        <ele>34.599998474121</ele>
        <time>2019-04-07T06:10:38.000Z</time>
      </trkpt>
      <trkpt lat="49.3977" lon="1.03555">
        <ele>34.400001525879</ele>
        <time>2019-04-07T06:10:57.000Z</time>
      </trkpt>
      <trkpt lat="49.39776" lon="1.03563">
        <ele>34.200000762939</ele>
        <time>2019-04-07T06:11:04.000Z</time>
      </trkpt>
      <trkpt lat="49.39778" lon="1.03566">
        <ele>34.200000762939</ele>
        <time>2019-04-07T06:11:08.000Z</time>
      </trkpt>
      <trkpt lat="49.39781" lon="1.03571">
        <ele>34</ele>
        <time>2019-04-07T06:11:13.000Z</time>
      </trkpt>
      <trkpt lat="49.39782" lon="1.03577">
        <ele>34</ele>
        <time>2019-04-07T06:11:15.000Z</time>
      </trkpt>
      <trkpt lat="49.39784" lon="1.03584">
        <ele>33.799999237061</ele>
        <time>2019-04-07T06:11:17.000Z</time>
      </trkpt>
      <trkpt lat="49.39785" lon="1.03592">
        <ele>33.799999237061</ele>
        <time>2019-04-07T06:11:19.000Z</time>
      </trkpt>
      <trkpt lat="49.39786" lon="1.03596">
        <ele>33.799999237061</ele>
        <time>2019-04-07T06:11:20.000Z</time>
      </trkpt>
      <trkpt lat="49.3979" lon="1.03602">
        <ele>33.599998474121</ele>
        <time>2019-04-07T06:11:22.000Z</time>
      </trkpt>
      <trkpt lat="49.398" lon="1.03609">
        <ele>33.200000762939</ele>
        <time>2019-04-07T06:11:25.000Z</time>
      </trkpt>
      <trkpt lat="49.39823" lon="1.03621">
        <ele>32</ele>
        <time>2019-04-07T06:11:31.000Z</time>
      </trkpt>
      <trkpt lat="49.39862" lon="1.03636">
        <ele>30.200000762939</ele>
        <time>2019-04-07T06:11:43.000Z</time>
      </trkpt>
      <trkpt lat="49.39868" lon="1.03625">
        <ele>30.200000762939</ele>
        <time>2019-04-07T06:11:46.000Z</time>
      </trkpt>
      <trkpt lat="49.39879" lon="1.03583">
        <ele>31</ele>
        <time>2019-04-07T06:11:54.000Z</time>
      </trkpt>
      <trkpt lat="49.39892" lon="1.03585">
        <ele>31.200000762939</ele>
        <time>2019-04-07T06:11:58.000Z</time>
      </trkpt>
      <trkpt lat="49.3991" lon="1.0359">
        <ele>30.799999237061</ele>
        <time>2019-04-07T06:12:04.000Z</time>
      </trkpt>
      <trkpt lat="49.39958" lon="1.03605">
        <ele>31.39999961853</ele>
        <time>2019-04-07T06:12:19.000Z</time>
      </trkpt>
      <trkpt lat="49.39967" lon="1.03588">
        <ele>31.60000038147</ele>
        <time>2019-04-07T06:12:23.000Z</time>
      </trkpt>
      <trkpt lat="49.39978" lon="1.03504">
        <ele>29.200000762939</ele>
        <time>2019-04-07T06:12:34.000Z</time>
      </trkpt>
      <trkpt lat="49.39981" lon="1.03451">
        <ele>27.60000038147</ele>
        <time>2019-04-07T06:12:40.000Z</time>
      </trkpt>
      <trkpt lat="49.3997" lon="1.03395">
        <ele>26.39999961853</ele>
        <time>2019-04-07T06:12:46.000Z</time>
      </trkpt>
      <trkpt lat="49.39939" lon="1.03322">
        <ele>26.200000762939</ele>
        <time>2019-04-07T06:12:54.000Z</time>
      </trkpt>
      <trkpt lat="49.3992" lon="1.03244">
        <ele>25</ele>
        <time>2019-04-07T06:13:01.000Z</time>
      </trkpt>
      <trkpt lat="49.39902" lon="1.03157">
        <ele>24.799999237061</ele>
        <time>2019-04-07T06:13:09.000Z</time>
      </trkpt>
      <trkpt lat="49.399" lon="1.03149">
        <ele>24.60000038147</ele>
        <time>2019-04-07T06:13:10.000Z</time>
      </trkpt>
      <trkpt lat="49.39898" lon="1.03142">
        <ele>24.60000038147</ele>
        <time>2019-04-07T06:13:11.000Z</time>
      </trkpt>
      <trkpt lat="49.39892" lon="1.03128">
        <ele>24.799999237061</ele>
        <time>2019-04-07T06:13:13.000Z</time>
      </trkpt>
      <trkpt lat="49.3989" lon="1.03122">
        <ele>25</ele>
        <time>2019-04-07T06:13:14.000Z</time>
      </trkpt>
      <trkpt lat="49.39886" lon="1.03115">
        <ele>25.200000762939</ele>
        <time>2019-04-07T06:13:15.000Z</time>
      </trkpt>
      <trkpt lat="49.39883" lon="1.0311">
        <ele>25.39999961853</ele>
        <time>2019-04-07T06:13:16.000Z</time>
      </trkpt>
      <trkpt lat="49.3988" lon="1.03105">
        <ele>25.60000038147</ele>
        <time>2019-04-07T06:13:17.000Z</time>
      </trkpt>
      <trkpt lat="49.39876" lon="1.03102">
        <ele>25.799999237061</ele>
        <time>2019-04-07T06:13:18.000Z</time>
      </trkpt>
      <trkpt lat="49.39867" lon="1.03096">
        <ele>26.200000762939</ele>
        <time>2019-04-07T06:13:20.000Z</time>
      </trkpt>
      <trkpt lat="49.39863" lon="1.03095">
        <ele>26.39999961853</ele>
        <time>2019-04-07T06:13:21.000Z</time>
      </trkpt>
      <trkpt lat="49.39854" lon="1.03094">
        <ele>26.60000038147</ele>
        <time>2019-04-07T06:13:23.000Z</time>
      </trkpt>
      <trkpt lat="49.39837" lon="1.03099">
        <ele>26.799999237061</ele>
        <time>2019-04-07T06:13:27.000Z</time>
      </trkpt>
      <trkpt lat="49.39821" lon="1.03107">
        <ele>27.200000762939</ele>
        <time>2019-04-07T06:13:31.000Z</time>
      </trkpt>
      <trkpt lat="49.39769" lon="1.03135">
        <ele>27.799999237061</ele>
        <time>2019-04-07T06:13:43.000Z</time>
      </trkpt>
      <trkpt lat="49.39745" lon="1.03146">
        <ele>28</ele>
        <time>2019-04-07T06:13:48.000Z</time>
      </trkpt>
      <trkpt lat="49.39714" lon="1.03148">
        <ele>28.200000762939</ele>
        <time>2019-04-07T06:13:54.000Z</time>
      </trkpt>
      <trkpt lat="49.39698" lon="1.03141">
        <ele>28</ele>
        <time>2019-04-07T06:13:57.000Z</time>
      </trkpt>
      <trkpt lat="49.39674" lon="1.0312">
        <ele>28.60000038147</ele>
        <time>2019-04-07T06:14:03.000Z</time>
      </trkpt>
      <trkpt lat="49.39671" lon="1.03118">
        <ele>28.60000038147</ele>
        <time>2019-04-07T06:14:04.000Z</time>
      </trkpt>
      <trkpt lat="49.39669" lon="1.03117">
        <ele>28.60000038147</ele>
        <time>2019-04-07T06:14:05.000Z</time>
      </trkpt>
      <trkpt lat="49.39664" lon="1.03117">
        <ele>28.60000038147</ele>
        <time>2019-04-07T06:14:07.000Z</time>
      </trkpt>
      <trkpt lat="49.39659" lon="1.03119">
        <ele>28.39999961853</ele>
        <time>2019-04-07T06:14:09.000Z</time>
      </trkpt>
      <trkpt lat="49.39651" lon="1.03137">
        <ele>27.60000038147</ele>
        <time>2019-04-07T06:14:15.000Z</time>
      </trkpt>
      <trkpt lat="49.3965" lon="1.03141">
        <ele>27.39999961853</ele>
        <time>2019-04-07T06:14:16.000Z</time>
      </trkpt>
      <trkpt lat="49.39646" lon="1.03152">
        <ele>27.39999961853</ele>
        <time>2019-04-07T06:14:19.000Z</time>
      </trkpt>
      <trkpt lat="49.39642" lon="1.03164">
        <ele>27.60000038147</ele>
        <time>2019-04-07T06:14:22.000Z</time>
      </trkpt>
      <trkpt lat="49.39628" lon="1.03187">
        <ele>27.60000038147</ele>
        <time>2019-04-07T06:14:30.000Z</time>
      </trkpt>
      <trkpt lat="49.39626" lon="1.03189">
        <ele>27.799999237061</ele>
        <time>2019-04-07T06:14:31.000Z</time>
      </trkpt>
      <trkpt lat="49.39623" lon="1.03194">
        <ele>27.799999237061</ele>
        <time>2019-04-07T06:14:33.000Z</time>
      </trkpt>
      <trkpt lat="49.39599" lon="1.03228">
        <ele>29.200000762939</ele>
        <time>2019-04-07T06:14:47.000Z</time>
      </trkpt>
      <trkpt lat="49.39581" lon="1.03255">
        <ele>31.60000038147</ele>
        <time>2019-04-07T06:14:56.000Z</time>
      </trkpt>
      <trkpt lat="49.39572" lon="1.03266">
        <ele>32.599998474121</ele>
        <time>2019-04-07T06:15:00.000Z</time>
      </trkpt>
      <trkpt lat="49.3957" lon="1.03269">
        <ele>32.799999237061</ele>
        <time>2019-04-07T06:15:01.000Z</time>
      </trkpt>
      <trkpt lat="49.39564" lon="1.03278">
        <ele>33.799999237061</ele>
        <time>2019-04-07T06:15:04.000Z</time>
      </trkpt>
      <trkpt lat="49.3956" lon="1.03284">
        <ele>34.400001525879</ele>
        <time>2019-04-07T06:15:06.000Z</time>
      </trkpt>
      <trkpt lat="49.3952" lon="1.03346">
        <ele>37.799999237061</ele>
        <time>2019-04-07T06:15:23.000Z</time>
      </trkpt>
      <trkpt lat="49.39497" lon="1.03379">
        <ele>38</ele>
        <time>2019-04-07T06:15:32.000Z</time>
      </trkpt>
      <trkpt lat="49.39484" lon="1.03397">
        <ele>38.599998474121</ele>
        <time>2019-04-07T06:15:37.000Z</time>
      </trkpt>
      <trkpt lat="49.39474" lon="1.03413">
        <ele>38.599998474121</ele>
        <time>2019-04-07T06:15:41.000Z</time>
      </trkpt>
      <trkpt lat="49.39455" lon="1.03445">
        <ele>40</ele>
        <time>2019-04-07T06:15:49.000Z</time>
      </trkpt>
      <trkpt lat="49.39433" lon="1.03481">
        <ele>41</ele>
        <time>2019-04-07T06:15:58.000Z</time>
      </trkpt>
      <trkpt lat="49.39431" lon="1.03485">
        <ele>41</ele>
        <time>2019-04-07T06:15:59.000Z</time>
      </trkpt>
      <trkpt lat="49.39424" lon="1.03497">
        <ele>41</ele>
        <time>2019-04-07T06:16:02.000Z</time>
      </trkpt>
      <trkpt lat="49.39422" lon="1.03501">
        <ele>41</ele>
        <time>2019-04-07T06:16:03.000Z</time>
      </trkpt>
      <trkpt lat="49.3942" lon="1.03505">
        <ele>41</ele>
        <time>2019-04-07T06:16:04.000Z</time>
      </trkpt>
      <trkpt lat="49.39418" lon="1.03509">
        <ele>41</ele>
        <time>2019-04-07T06:16:05.000Z</time>
      </trkpt>
      <trkpt lat="49.39416" lon="1.03513">
        <ele>41</ele>
        <time>2019-04-07T06:16:06.000Z</time>
      </trkpt>
      <trkpt lat="49.39404" lon="1.03536">
        <ele>41.599998474121</ele>
        <time>2019-04-07T06:16:12.000Z</time>
      </trkpt>
      <trkpt lat="49.39401" lon="1.03539">
        <ele>41.599998474121</ele>
        <time>2019-04-07T06:16:13.000Z</time>
      </trkpt>
      <trkpt lat="49.39399" lon="1.03543">
        <ele>41.799999237061</ele>
        <time>2019-04-07T06:16:14.000Z</time>
      </trkpt>
      <trkpt lat="49.39397" lon="1.03546">
        <ele>42</ele>
        <time>2019-04-07T06:16:15.000Z</time>
      </trkpt>
      <trkpt lat="49.39393" lon="1.03554">
        <ele>42.200000762939</ele>
        <time>2019-04-07T06:16:17.000Z</time>
      </trkpt>
      <trkpt lat="49.39383" lon="1.03569">
        <ele>42.799999237061</ele>
        <time>2019-04-07T06:16:21.000Z</time>
      </trkpt>
      <trkpt lat="49.39375" lon="1.03584">
        <ele>43.400001525879</ele>
        <time>2019-04-07T06:16:25.000Z</time>
      </trkpt>
      <trkpt lat="49.3937" lon="1.03592">
        <ele>43.599998474121</ele>
        <time>2019-04-07T06:16:27.000Z</time>
      </trkpt>
      <trkpt lat="49.39351" lon="1.03622">
        <ele>44.400001525879</ele>
        <time>2019-04-07T06:16:35.000Z</time>
      </trkpt>
      <trkpt lat="49.39327" lon="1.03663">
        <ele>44</ele>
        <time>2019-04-07T06:16:45.000Z</time>
      </trkpt>
      <trkpt lat="49.39324" lon="1.03667">
        <ele>44</ele>
        <time>2019-04-07T06:16:46.000Z</time>
      </trkpt>
      <trkpt lat="49.3932" lon="1.03677">
        <ele>44</ele>
        <time>2019-04-07T06:16:48.000Z</time>
      </trkpt>
      <trkpt lat="49.39314" lon="1.03687">
        <ele>44.200000762939</ele>
        <time>2019-04-07T06:16:50.000Z</time>
      </trkpt>
      <trkpt lat="49.39312" lon="1.03692">
        <ele>44.400001525879</ele>
        <time>2019-04-07T06:16:51.000Z</time>
      </trkpt>
      <trkpt lat="49.39309" lon="1.03697">
        <ele>44.599998474121</ele>
        <time>2019-04-07T06:16:52.000Z</time>
      </trkpt>
      <trkpt lat="49.39298" lon="1.03716">
        <ele>45.400001525879</ele>
        <time>2019-04-07T06:16:56.000Z</time>
      </trkpt>
      <trkpt lat="49.39295" lon="1.03721">
        <ele>45.599998474121</ele>
        <time>2019-04-07T06:16:57.000Z</time>
      </trkpt>
      <trkpt lat="49.39292" lon="1.03725">
        <ele>45.799999237061</ele>
        <time>2019-04-07T06:16:58.000Z</time>
      </trkpt>
      <trkpt lat="49.39289" lon="1.0373">
        <ele>46</ele>
        <time>2019-04-07T06:16:59.000Z</time>
      </trkpt>
      <trkpt lat="49.39286" lon="1.03735">
        <ele>46.400001525879</ele>
        <time>2019-04-07T06:17:00.000Z</time>
      </trkpt>
      <trkpt lat="49.39284" lon="1.0374">
        <ele>46.599998474121</ele>
        <time>2019-04-07T06:17:01.000Z</time>
      </trkpt>
      <trkpt lat="49.39281" lon="1.03745">
        <ele>47</ele>
        <time>2019-04-07T06:17:02.000Z</time>
      </trkpt>
      <trkpt lat="49.39278" lon="1.0375">
        <ele>47.200000762939</ele>
        <time>2019-04-07T06:17:03.000Z</time>
      </trkpt>
      <trkpt lat="49.39268" lon="1.03771">
        <ele>48.200000762939</ele>
        <time>2019-04-07T06:17:07.000Z</time>
      </trkpt>
      <trkpt lat="49.39252" lon="1.03801">
        <ele>49.799999237061</ele>
        <time>2019-04-07T06:17:13.000Z</time>
      </trkpt>
      <trkpt lat="49.39247" lon="1.03809">
        <ele>50.400001525879</ele>
        <time>2019-04-07T06:17:15.000Z</time>
      </trkpt>
      <trkpt lat="49.39238" lon="1.03822">
        <ele>50.599998474121</ele>
        <time>2019-04-07T06:17:18.000Z</time>
      </trkpt>
      <trkpt lat="49.39233" lon="1.03831">
        <ele>50.799999237061</ele>
        <time>2019-04-07T06:17:20.000Z</time>
      </trkpt>
      <trkpt lat="49.39222" lon="1.03848">
        <ele>51.400001525879</ele>
        <time>2019-04-07T06:17:24.000Z</time>
      </trkpt>
      <trkpt lat="49.3922" lon="1.03853">
        <ele>51.599998474121</ele>
        <time>2019-04-07T06:17:25.000Z</time>
      </trkpt>
      <trkpt lat="49.39217" lon="1.03858">
        <ele>51.799999237061</ele>
        <time>2019-04-07T06:17:26.000Z</time>
      </trkpt>
      <trkpt lat="49.3921" lon="1.03871">
        <ele>52.200000762939</ele>
        <time>2019-04-07T06:17:29.000Z</time>
      </trkpt>
      <trkpt lat="49.39203" lon="1.03884">
        <ele>52.599998474121</ele>
        <time>2019-04-07T06:17:32.000Z</time>
      </trkpt>
      <trkpt lat="49.39195" lon="1.039">
        <ele>53</ele>
        <time>2019-04-07T06:17:36.000Z</time>
      </trkpt>
      <trkpt lat="49.39169" lon="1.03953">
        <ele>53.599998474121</ele>
        <time>2019-04-07T06:17:48.000Z</time>
      </trkpt>
      <trkpt lat="49.39149" lon="1.03989">
        <ele>55.799999237061</ele>
        <time>2019-04-07T06:17:55.000Z</time>
      </trkpt>
      <trkpt lat="49.39112" lon="1.0405">
        <ele>59.799999237061</ele>
        <time>2019-04-07T06:18:08.000Z</time>
      </trkpt>
      <trkpt lat="49.39103" lon="1.04064">
        <ele>59.799999237061</ele>
        <time>2019-04-07T06:18:11.000Z</time>
      </trkpt>
      <trkpt lat="49.39082" lon="1.04095">
        <ele>58.799999237061</ele>
        <time>2019-04-07T06:18:18.000Z</time>
      </trkpt>
      <trkpt lat="49.39053" lon="1.04142">
        <ele>60.200000762939</ele>
        <time>2019-04-07T06:18:28.000Z</time>
      </trkpt>
      <trkpt lat="49.39014" lon="1.04204">
        <ele>62.400001525879</ele>
        <time>2019-04-07T06:18:40.000Z</time>
      </trkpt>
      <trkpt lat="49.38972" lon="1.04263">
        <ele>63.400001525879</ele>
        <time>2019-04-07T06:18:53.000Z</time>
      </trkpt>
      <trkpt lat="49.38923" lon="1.04286">
        <ele>64.800003051758</ele>
        <time>2019-04-07T06:19:04.000Z</time>
      </trkpt>
      <trkpt lat="49.38913" lon="1.04286">
        <ele>65.199996948242</ele>
        <time>2019-04-07T06:19:06.000Z</time>
      </trkpt>
      <trkpt lat="49.3889" lon="1.04271">
        <ele>65.800003051758</ele>
        <time>2019-04-07T06:19:11.000Z</time>
      </trkpt>
      <trkpt lat="49.38861" lon="1.04254">
        <ele>66.800003051758</ele>
        <time>2019-04-07T06:19:19.000Z</time>
      </trkpt>
      <trkpt lat="49.38814" lon="1.04227">
        <ele>68.800003051758</ele>
        <time>2019-04-07T06:19:29.000Z</time>
      </trkpt>
      <trkpt lat="49.38764" lon="1.04192">
        <ele>70</ele>
        <time>2019-04-07T06:19:39.000Z</time>
      </trkpt>
      <trkpt lat="49.38759" lon="1.04186">
        <ele>70</ele>
        <time>2019-04-07T06:19:40.000Z</time>
      </trkpt>
      <trkpt lat="49.38751" lon="1.04177">
        <ele>69.800003051758</ele>
        <time>2019-04-07T06:19:42.000Z</time>
      </trkpt>
      <trkpt lat="49.38729" lon="1.04166">
        <ele>69.400001525879</ele>
        <time>2019-04-07T06:19:46.000Z</time>
      </trkpt>
      <trkpt lat="49.38706" lon="1.04152">
        <ele>69</ele>
        <time>2019-04-07T06:19:50.000Z</time>
      </trkpt>
      <trkpt lat="49.38696" lon="1.04144">
        <ele>68.800003051758</ele>
        <time>2019-04-07T06:19:52.000Z</time>
      </trkpt>
      <trkpt lat="49.38687" lon="1.04143">
        <ele>68.400001525879</ele>
        <time>2019-04-07T06:19:54.000Z</time>
      </trkpt>
      <trkpt lat="49.38677" lon="1.04142">
        <ele>67.800003051758</ele>
        <time>2019-04-07T06:19:56.000Z</time>
      </trkpt>
      <trkpt lat="49.38639" lon="1.04128">
        <ele>66</ele>
        <time>2019-04-07T06:20:04.000Z</time>
      </trkpt>
      <trkpt lat="49.38629" lon="1.04121">
        <ele>65.599998474121</ele>
        <time>2019-04-07T06:20:06.000Z</time>
      </trkpt>
      <trkpt lat="49.38582" lon="1.04075">
        <ele>63.200000762939</ele>
        <time>2019-04-07T06:20:16.000Z</time>
      </trkpt>
      <trkpt lat="49.38529" lon="1.04036">
        <ele>58.200000762939</ele>
        <time>2019-04-07T06:20:25.000Z</time>
      </trkpt>
      <trkpt lat="49.38476" lon="1.03996">
        <ele>52.799999237061</ele>
        <time>2019-04-07T06:20:33.000Z</time>
      </trkpt>
      <trkpt lat="49.38459" lon="1.03985">
        <ele>51</ele>
        <time>2019-04-07T06:20:36.000Z</time>
      </trkpt>
      <trkpt lat="49.38408" lon="1.03956">
        <ele>53.599998474121</ele>
        <time>2019-04-07T06:20:54.000Z</time>
      </trkpt>
      <trkpt lat="49.38408" lon="1.03947">
        <ele>53.599998474121</ele>
        <time>2019-04-07T06:20:56.000Z</time>
      </trkpt>
      <trkpt lat="49.38403" lon="1.03941">
        <ele>54</ele>
        <time>2019-04-07T06:20:59.000Z</time>
      </trkpt>
      <trkpt lat="49.38364" lon="1.03919">
        <ele>57.400001525879</ele>
        <time>2019-04-07T06:21:29.000Z</time>
      </trkpt>
      <trkpt lat="49.38355" lon="1.03907">
        <ele>58</ele>
        <time>2019-04-07T06:21:58.000Z</time>
      </trkpt>
      <trkpt lat="49.3835" lon="1.03907">
        <ele>58.400001525879</ele>
        <time>2019-04-07T06:22:19.000Z</time>
      </trkpt>
      <trkpt lat="49.3835" lon="1.03907">
        <ele>58.400001525879</ele>
        <time>2019-04-07T06:22:22.000Z</time>
      </trkpt>
      <trkpt lat="49.3835" lon="1.03907">
        <ele>58.400001525879</ele>
        <time>2019-04-07T06:22:24.000Z</time>
      </trkpt>
      <trkpt lat="49.3835" lon="1.03907">
        <ele>58.400001525879</ele>
        <time>2019-04-07T06:22:27.000Z</time>
      </trkpt>
      <trkpt lat="49.3835" lon="1.03908">
        <ele>58.400001525879</ele>
        <time>2019-04-07T06:22:29.000Z</time>
      </trkpt>
      <trkpt lat="49.3835" lon="1.0391">
        <ele>58.400001525879</ele>
        <time>2019-04-07T06:22:42.000Z</time>
      </trkpt>
      <trkpt lat="49.3835" lon="1.03912">
        <ele>58.400001525879</ele>
        <time>2019-04-07T06:22:47.000Z</time>
      </trkpt>
      <trkpt lat="49.3835" lon="1.03913">
        <ele>58.599998474121</ele>
        <time>2019-04-07T06:22:48.000Z</time>
      </trkpt>
      <trkpt lat="49.38349" lon="1.03913">
        <ele>58.599998474121</ele>
        <time>2019-04-07T06:22:49.000Z</time>
      </trkpt>
      <trkpt lat="49.38345" lon="1.03917">
        <ele>59</ele>
        <time>2019-04-07T06:22:55.000Z</time>
      </trkpt>
      <trkpt lat="49.38347" lon="1.03914">
        <ele>58.799999237061</ele>
        <time>2019-04-07T06:23:05.000Z</time>
      </trkpt>
      <trkpt lat="49.38345" lon="1.03914">
        <ele>58.799999237061</ele>
        <time>2019-04-07T06:23:42.000Z</time>
      </trkpt>
      <trkpt lat="49.38345" lon="1.03907">
        <ele>58.799999237061</ele>
        <time>2019-04-07T06:24:13.000Z</time>
      </trkpt>
      <trkpt lat="49.38345" lon="1.03907">
        <ele>58.799999237061</ele>
        <time>2019-04-07T06:24:26.000Z</time>
      </trkpt>
      <trkpt lat="49.38346" lon="1.03906">
        <ele>58.799999237061</ele>
        <time>2019-04-07T06:24:35.000Z</time>
      </trkpt>
      <trkpt lat="49.3835" lon="1.03907">
        <ele>58.400001525879</ele>
        <time>2019-04-07T06:24:50.000Z</time>
      </trkpt>
      <trkpt lat="49.3835" lon="1.03906">
        <ele>58.400001525879</ele>
        <time>2019-04-07T06:24:54.000Z</time>
      </trkpt>
      <trkpt lat="49.3835" lon="1.03906">
        <ele>58.400001525879</ele>
        <time>2019-04-07T06:24:55.000Z</time>
      </trkpt>
      <trkpt lat="49.3835" lon="1.03906">
        <ele>58.400001525879</ele>
        <time>2019-04-07T06:25:03.000Z</time>
      </trkpt>
      <trkpt lat="49.3835" lon="1.03906">
        <ele>58.400001525879</ele>
        <time>2019-04-07T06:25:05.000Z</time>
      </trkpt>
      <trkpt lat="49.38349" lon="1.03905">
        <ele>58.400001525879</ele>
        <time>2019-04-07T06:25:09.000Z</time>
      </trkpt>
      <trkpt lat="49.3835" lon="1.03905">
        <ele>58.400001525879</ele>
        <time>2019-04-07T06:25:11.000Z</time>
      </trkpt>
      <trkpt lat="49.38351" lon="1.03908">
        <ele>58.400001525879</ele>
        <time>2019-04-07T06:25:32.000Z</time>
      </trkpt>
      <trkpt lat="49.38351" lon="1.03909">
        <ele>58.400001525879</ele>
        <time>2019-04-07T06:25:40.000Z</time>
      </trkpt>
      <trkpt lat="49.38348" lon="1.03908">
        <ele>58.599998474121</ele>
        <time>2019-04-07T06:25:47.000Z</time>
      </trkpt>
      <trkpt lat="49.38346" lon="1.03908">
        <ele>58.799999237061</ele>
        <time>2019-04-07T06:26:01.000Z</time>
      </trkpt>
      <trkpt lat="49.38348" lon="1.03911">
        <ele>58.599998474121</ele>
        <time>2019-04-07T06:26:09.000Z</time>
      </trkpt>
      <trkpt lat="49.38348" lon="1.03909">
        <ele>58.599998474121</ele>
        <time>2019-04-07T06:26:18.000Z</time>
      </trkpt>
      <trkpt lat="49.3835" lon="1.03908">
        <ele>58.400001525879</ele>
        <time>2019-04-07T06:26:33.000Z</time>
      </trkpt>
      <trkpt lat="49.3835" lon="1.03907">
        <ele>58.400001525879</ele>
        <time>2019-04-07T06:26:34.000Z</time>
      </trkpt>
      <trkpt lat="49.38349" lon="1.03907">
        <ele>58.599998474121</ele>
        <time>2019-04-07T06:26:37.000Z</time>
      </trkpt>
      <trkpt lat="49.38349" lon="1.03907">
        <ele>58.599998474121</ele>
        <time>2019-04-07T06:26:38.000Z</time>
      </trkpt>
      <trkpt lat="49.38349" lon="1.03907">
        <ele>58.400001525879</ele>
        <time>2019-04-07T06:26:39.000Z</time>
      </trkpt>
      <trkpt lat="49.38349" lon="1.03907">
        <ele>58.400001525879</ele>
        <time>2019-04-07T06:26:44.000Z</time>
      </trkpt>
      <trkpt lat="49.38349" lon="1.03906">
        <ele>58.599998474121</ele>
        <time>2019-04-07T06:26:47.000Z</time>
      </trkpt>
      <trkpt lat="49.38349" lon="1.03906">
        <ele>58.599998474121</ele>
        <time>2019-04-07T06:26:48.000Z</time>
      </trkpt>
      <trkpt lat="49.38347" lon="1.03907">
        <ele>58.599998474121</ele>
        <time>2019-04-07T06:26:56.000Z</time>
      </trkpt>
      <trkpt lat="49.38347" lon="1.03905">
        <ele>58.599998474121</ele>
        <time>2019-04-07T06:27:01.000Z</time>
      </trkpt>
      <trkpt lat="49.38349" lon="1.03903">
        <ele>58.400001525879</ele>
        <time>2019-04-07T06:27:17.000Z</time>
      </trkpt>
      <trkpt lat="49.38347" lon="1.03904">
        <ele>58.599998474121</ele>
        <time>2019-04-07T06:27:20.000Z</time>
      </trkpt>
      <trkpt lat="49.38349" lon="1.03903">
        <ele>58.400001525879</ele>
        <time>2019-04-07T06:28:07.000Z</time>
      </trkpt>
      <trkpt lat="49.38346" lon="1.03901">
        <ele>58.599998474121</ele>
        <time>2019-04-07T06:28:31.000Z</time>
      </trkpt>
      <trkpt lat="49.38347" lon="1.03901">
        <ele>58.599998474121</ele>
        <time>2019-04-07T06:28:34.000Z</time>
      </trkpt>
      <trkpt lat="49.38349" lon="1.039">
        <ele>58.400001525879</ele>
        <time>2019-04-07T06:28:42.000Z</time>
      </trkpt>
      <trkpt lat="49.38348" lon="1.03901">
        <ele>58.599998474121</ele>
        <time>2019-04-07T06:28:54.000Z</time>
      </trkpt>
      <trkpt lat="49.3835" lon="1.03905">
        <ele>58.400001525879</ele>
        <time>2019-04-07T06:29:10.000Z</time>
      </trkpt>
      <trkpt lat="49.38348" lon="1.03906">
        <ele>58.599998474121</ele>
        <time>2019-04-07T06:29:21.000Z</time>
      </trkpt>
      <trkpt lat="49.38346" lon="1.03903">
        <ele>58.599998474121</ele>
        <time>2019-04-07T06:29:37.000Z</time>
      </trkpt>
      <trkpt lat="49.38342" lon="1.03909">
        <ele>59.200000762939</ele>
        <time>2019-04-07T06:30:27.000Z</time>
      </trkpt>
      <trkpt lat="49.38335" lon="1.0391">
        <ele>59.799999237061</ele>
        <time>2019-04-07T06:31:04.000Z</time>
      </trkpt>
      <trkpt lat="49.38339" lon="1.03903">
        <ele>59.200000762939</ele>
        <time>2019-04-07T06:31:26.000Z</time>
      </trkpt>
      <trkpt lat="49.38339" lon="1.03902">
        <ele>59.400001525879</ele>
        <time>2019-04-07T06:31:29.000Z</time>
      </trkpt>
      <trkpt lat="49.38338" lon="1.03903">
        <ele>59.400001525879</ele>
        <time>2019-04-07T06:31:30.000Z</time>
      </trkpt>
      <trkpt lat="49.38337" lon="1.03903">
        <ele>59.400001525879</ele>
        <time>2019-04-07T06:31:31.000Z</time>
      </trkpt>
      <trkpt lat="49.38337" lon="1.03902">
        <ele>59.400001525879</ele>
        <time>2019-04-07T06:31:32.000Z</time>
      </trkpt>
      <trkpt lat="49.38333" lon="1.039">
        <ele>59.799999237061</ele>
        <time>2019-04-07T06:31:36.000Z</time>
      </trkpt>
      <trkpt lat="49.3833" lon="1.03897">
        <ele>60</ele>
        <time>2019-04-07T06:31:40.000Z</time>
      </trkpt>
      <trkpt lat="49.38322" lon="1.03892">
        <ele>60.599998474121</ele>
        <time>2019-04-07T06:31:47.000Z</time>
      </trkpt>
      <trkpt lat="49.3832" lon="1.03891">
        <ele>60.799999237061</ele>
        <time>2019-04-07T06:31:48.000Z</time>
      </trkpt>
      <trkpt lat="49.38312" lon="1.03885">
        <ele>61.200000762939</ele>
        <time>2019-04-07T06:31:54.000Z</time>
      </trkpt>
      <trkpt lat="49.38307" lon="1.03882">
        <ele>61.599998474121</ele>
        <time>2019-04-07T06:31:57.000Z</time>
      </trkpt>
      <trkpt lat="49.38302" lon="1.03878">
        <ele>62</ele>
        <time>2019-04-07T06:32:00.000Z</time>
      </trkpt>
      <trkpt lat="49.38299" lon="1.03875">
        <ele>62.200000762939</ele>
        <time>2019-04-07T06:32:02.000Z</time>
      </trkpt>
      <trkpt lat="49.3825" lon="1.03838">
        <ele>65.400001525879</ele>
        <time>2019-04-07T06:32:29.000Z</time>
      </trkpt>
      <trkpt lat="49.38226" lon="1.03818">
        <ele>66.800003051758</ele>
        <time>2019-04-07T06:32:40.000Z</time>
      </trkpt>
      <trkpt lat="49.38189" lon="1.03793">
        <ele>67.800003051758</ele>
        <time>2019-04-07T06:32:55.000Z</time>
      </trkpt>
      <trkpt lat="49.38186" lon="1.03793">
        <ele>67.800003051758</ele>
        <time>2019-04-07T06:32:56.000Z</time>
      </trkpt>
      <trkpt lat="49.38181" lon="1.03797">
        <ele>68</ele>
        <time>2019-04-07T06:32:58.000Z</time>
      </trkpt>
      <trkpt lat="49.3817" lon="1.0382">
        <ele>68.599998474121</ele>
        <time>2019-04-07T06:33:03.000Z</time>
      </trkpt>
      <trkpt lat="49.38168" lon="1.03825">
        <ele>68.400001525879</ele>
        <time>2019-04-07T06:33:04.000Z</time>
      </trkpt>
      <trkpt lat="49.38167" lon="1.0383">
        <ele>68.400001525879</ele>
        <time>2019-04-07T06:33:05.000Z</time>
      </trkpt>
      <trkpt lat="49.38165" lon="1.03834">
        <ele>68.400001525879</ele>
        <time>2019-04-07T06:33:06.000Z</time>
      </trkpt>
      <trkpt lat="49.38162" lon="1.03845">
        <ele>68.199996948242</ele>
        <time>2019-04-07T06:33:08.000Z</time>
      </trkpt>
      <trkpt lat="49.38161" lon="1.0385">
        <ele>68</ele>
        <time>2019-04-07T06:33:09.000Z</time>
      </trkpt>
      <trkpt lat="49.38159" lon="1.03855">
        <ele>68</ele>
        <time>2019-04-07T06:33:10.000Z</time>
      </trkpt>
      <trkpt lat="49.38157" lon="1.0386">
        <ele>68.400001525879</ele>
        <time>2019-04-07T06:33:11.000Z</time>
      </trkpt>
      <trkpt lat="49.38154" lon="1.03871">
        <ele>68.800003051758</ele>
        <time>2019-04-07T06:33:13.000Z</time>
      </trkpt>
      <trkpt lat="49.38149" lon="1.03886">
        <ele>69.599998474121</ele>
        <time>2019-04-07T06:33:16.000Z</time>
      </trkpt>
      <trkpt lat="49.38147" lon="1.03891">
        <ele>69.800003051758</ele>
        <time>2019-04-07T06:33:17.000Z</time>
      </trkpt>
      <trkpt lat="49.3814" lon="1.03917">
        <ele>70</ele>
        <time>2019-04-07T06:33:22.000Z</time>
      </trkpt>
      <trkpt lat="49.38135" lon="1.03932">
        <ele>70.199996948242</ele>
        <time>2019-04-07T06:33:25.000Z</time>
      </trkpt>
      <trkpt lat="49.38134" lon="1.03937">
        <ele>70.400001525879</ele>
        <time>2019-04-07T06:33:26.000Z</time>
      </trkpt>
      <trkpt lat="49.38132" lon="1.03942">
        <ele>70.400001525879</ele>
        <time>2019-04-07T06:33:27.000Z</time>
      </trkpt>
      <trkpt lat="49.38123" lon="1.03974">
        <ele>70.800003051758</ele>
        <time>2019-04-07T06:33:34.000Z</time>
      </trkpt>
      <trkpt lat="49.38115" lon="1.04">
        <ele>71.199996948242</ele>
        <time>2019-04-07T06:33:39.000Z</time>
      </trkpt>
      <trkpt lat="49.38112" lon="1.0401">
        <ele>71.400001525879</ele>
        <time>2019-04-07T06:33:41.000Z</time>
      </trkpt>
      <trkpt lat="49.38109" lon="1.04021">
        <ele>71.400001525879</ele>
        <time>2019-04-07T06:33:43.000Z</time>
      </trkpt>
      <trkpt lat="49.38107" lon="1.04026">
        <ele>71.599998474121</ele>
        <time>2019-04-07T06:33:44.000Z</time>
      </trkpt>
      <trkpt lat="49.38104" lon="1.04037">
        <ele>71.599998474121</ele>
        <time>2019-04-07T06:33:46.000Z</time>
      </trkpt>
      <trkpt lat="49.381" lon="1.04049">
        <ele>71.800003051758</ele>
        <time>2019-04-07T06:33:48.000Z</time>
      </trkpt>
      <trkpt lat="49.38098" lon="1.04054">
        <ele>71.800003051758</ele>
        <time>2019-04-07T06:33:49.000Z</time>
      </trkpt>
      <trkpt lat="49.38096" lon="1.0406">
        <ele>72</ele>
        <time>2019-04-07T06:33:50.000Z</time>
      </trkpt>
      <trkpt lat="49.38078" lon="1.04126">
        <ele>73.800003051758</ele>
        <time>2019-04-07T06:34:03.000Z</time>
      </trkpt>
      <trkpt lat="49.38077" lon="1.04131">
        <ele>74.199996948242</ele>
        <time>2019-04-07T06:34:04.000Z</time>
      </trkpt>
      <trkpt lat="49.38075" lon="1.04136">
        <ele>74.599998474121</ele>
        <time>2019-04-07T06:34:05.000Z</time>
      </trkpt>
      <trkpt lat="49.38072" lon="1.04146">
        <ele>75</ele>
        <time>2019-04-07T06:34:07.000Z</time>
      </trkpt>
      <trkpt lat="49.3807" lon="1.0415">
        <ele>75.199996948242</ele>
        <time>2019-04-07T06:34:08.000Z</time>
      </trkpt>
      <trkpt lat="49.38069" lon="1.04155">
        <ele>75.400001525879</ele>
        <time>2019-04-07T06:34:09.000Z</time>
      </trkpt>
      <trkpt lat="49.38044" lon="1.0423">
        <ele>77.400001525879</ele>
        <time>2019-04-07T06:34:25.000Z</time>
      </trkpt>
      <trkpt lat="49.38039" lon="1.04253">
        <ele>77.400001525879</ele>
        <time>2019-04-07T06:34:29.000Z</time>
      </trkpt>
      <trkpt lat="49.38032" lon="1.04276">
        <ele>77.400001525879</ele>
        <time>2019-04-07T06:34:33.000Z</time>
      </trkpt>
      <trkpt lat="49.38024" lon="1.04302">
        <ele>77.199996948242</ele>
        <time>2019-04-07T06:34:38.000Z</time>
      </trkpt>
      <trkpt lat="49.3802" lon="1.04318">
        <ele>77.599998474121</ele>
        <time>2019-04-07T06:34:41.000Z</time>
      </trkpt>
      <trkpt lat="49.37997" lon="1.04394">
        <ele>77.400001525879</ele>
        <time>2019-04-07T06:34:54.000Z</time>
      </trkpt>
      <trkpt lat="49.37979" lon="1.04433">
        <ele>76</ele>
        <time>2019-04-07T06:35:01.000Z</time>
      </trkpt>
      <trkpt lat="49.37976" lon="1.04447">
        <ele>76</ele>
        <time>2019-04-07T06:35:03.000Z</time>
      </trkpt>
      <trkpt lat="49.3797" lon="1.0447">
        <ele>76</ele>
        <time>2019-04-07T06:35:06.000Z</time>
      </trkpt>
      <trkpt lat="49.37964" lon="1.04477">
        <ele>76.199996948242</ele>
        <time>2019-04-07T06:35:08.000Z</time>
      </trkpt>
      <trkpt lat="49.37927" lon="1.04456">
        <ele>78</ele>
        <time>2019-04-07T06:35:19.000Z</time>
      </trkpt>
      <trkpt lat="49.37882" lon="1.04431">
        <ele>79.599998474121</ele>
        <time>2019-04-07T06:35:33.000Z</time>
      </trkpt>
      <trkpt lat="49.37871" lon="1.04429">
        <ele>80</ele>
        <time>2019-04-07T06:35:36.000Z</time>
      </trkpt>
      <trkpt lat="49.37855" lon="1.04417">
        <ele>80.800003051758</ele>
        <time>2019-04-07T06:35:41.000Z</time>
      </trkpt>
      <trkpt lat="49.37852" lon="1.04407">
        <ele>81.199996948242</ele>
        <time>2019-04-07T06:35:43.000Z</time>
      </trkpt>
      <trkpt lat="49.37837" lon="1.04371">
        <ele>82.800003051758</ele>
        <time>2019-04-07T06:35:50.000Z</time>
      </trkpt>
      <trkpt lat="49.37803" lon="1.04356">
        <ele>84.599998474121</ele>
        <time>2019-04-07T06:36:01.000Z</time>
      </trkpt>
      <trkpt lat="49.37762" lon="1.04341">
        <ele>85.800003051758</ele>
        <time>2019-04-07T06:36:12.000Z</time>
      </trkpt>
      <trkpt lat="49.37752" lon="1.04333">
        <ele>86.199996948242</ele>
        <time>2019-04-07T06:36:15.000Z</time>
      </trkpt>
      <trkpt lat="49.37725" lon="1.04312">
        <ele>86.800003051758</ele>
        <time>2019-04-07T06:36:23.000Z</time>
      </trkpt>
      <trkpt lat="49.37719" lon="1.04308">
        <ele>87</ele>
        <time>2019-04-07T06:36:25.000Z</time>
      </trkpt>
      <trkpt lat="49.37709" lon="1.043">
        <ele>87</ele>
        <time>2019-04-07T06:36:28.000Z</time>
      </trkpt>
      <trkpt lat="49.37684" lon="1.04266">
        <ele>87.400001525879</ele>
        <time>2019-04-07T06:36:37.000Z</time>
      </trkpt>
      <trkpt lat="49.37663" lon="1.0422">
        <ele>87.800003051758</ele>
        <time>2019-04-07T06:36:46.000Z</time>
      </trkpt>
      <trkpt lat="49.37657" lon="1.04214">
        <ele>88</ele>
        <time>2019-04-07T06:36:48.000Z</time>
      </trkpt>
      <trkpt lat="49.37622" lon="1.04205">
        <ele>88.800003051758</ele>
        <time>2019-04-07T06:36:57.000Z</time>
      </trkpt>
      <trkpt lat="49.3759" lon="1.04222">
        <ele>89</ele>
        <time>2019-04-07T06:37:06.000Z</time>
      </trkpt>
      <trkpt lat="49.37569" lon="1.04217">
        <ele>88.800003051758</ele>
        <time>2019-04-07T06:37:11.000Z</time>
      </trkpt>
      <trkpt lat="49.37562" lon="1.04209">
        <ele>88.800003051758</ele>
        <time>2019-04-07T06:37:13.000Z</time>
      </trkpt>
      <trkpt lat="49.37556" lon="1.04197">
        <ele>88.599998474121</ele>
        <time>2019-04-07T06:37:15.000Z</time>
      </trkpt>
      <trkpt lat="49.37544" lon="1.04164">
        <ele>88.199996948242</ele>
        <time>2019-04-07T06:37:19.000Z</time>
      </trkpt>
      <trkpt lat="49.37541" lon="1.04132">
        <ele>87.199996948242</ele>
        <time>2019-04-07T06:37:22.000Z</time>
      </trkpt>
      <trkpt lat="49.37535" lon="1.04114">
        <ele>85.599998474121</ele>
        <time>2019-04-07T06:37:24.000Z</time>
      </trkpt>
      <trkpt lat="49.37527" lon="1.04098">
        <ele>84.599998474121</ele>
        <time>2019-04-07T06:37:26.000Z</time>
      </trkpt>
      <trkpt lat="49.3752" lon="1.04084">
        <ele>84</ele>
        <time>2019-04-07T06:37:29.000Z</time>
      </trkpt>
      <trkpt lat="49.37521" lon="1.04077">
        <ele>83.400001525879</ele>
        <time>2019-04-07T06:37:31.000Z</time>
      </trkpt>
      <trkpt lat="49.37526" lon="1.04073">
        <ele>82.599998474121</ele>
        <time>2019-04-07T06:37:33.000Z</time>
      </trkpt>
      <trkpt lat="49.37535" lon="1.04079">
        <ele>82.800003051758</ele>
        <time>2019-04-07T06:37:36.000Z</time>
      </trkpt>
      <trkpt lat="49.37539" lon="1.04077">
        <ele>82.599998474121</ele>
        <time>2019-04-07T06:37:38.000Z</time>
      </trkpt>
      <trkpt lat="49.37542" lon="1.04064">
        <ele>81.599998474121</ele>
        <time>2019-04-07T06:37:41.000Z</time>
      </trkpt>
      <trkpt lat="49.37544" lon="1.04037">
        <ele>80.599998474121</ele>
        <time>2019-04-07T06:37:46.000Z</time>
      </trkpt>
      <trkpt lat="49.37549" lon="1.04026">
        <ele>80.400001525879</ele>
        <time>2019-04-07T06:37:48.000Z</time>
      </trkpt>
      <trkpt lat="49.3756" lon="1.03996">
        <ele>79.400001525879</ele>
        <time>2019-04-07T06:37:52.000Z</time>
      </trkpt>
      <trkpt lat="49.37566" lon="1.03981">
        <ele>77.800003051758</ele>
        <time>2019-04-07T06:37:54.000Z</time>
      </trkpt>
      <trkpt lat="49.37576" lon="1.03963">
        <ele>77</ele>
        <time>2019-04-07T06:37:57.000Z</time>
      </trkpt>
      <trkpt lat="49.37581" lon="1.03957">
        <ele>76.800003051758</ele>
        <time>2019-04-07T06:37:58.000Z</time>
      </trkpt>
      <trkpt lat="49.37615" lon="1.03932">
        <ele>72.400001525879</ele>
        <time>2019-04-07T06:38:09.000Z</time>
      </trkpt>
      <trkpt lat="49.37617" lon="1.03932">
        <ele>72.400001525879</ele>
        <time>2019-04-07T06:38:10.000Z</time>
      </trkpt>
      <trkpt lat="49.37646" lon="1.03922">
        <ele>72.400001525879</ele>
        <time>2019-04-07T06:38:18.000Z</time>
      </trkpt>
      <trkpt lat="49.37655" lon="1.0391">
        <ele>71</ele>
        <time>2019-04-07T06:38:20.000Z</time>
      </trkpt>
      <trkpt lat="49.37681" lon="1.03904">
        <ele>69.599998474121</ele>
        <time>2019-04-07T06:38:29.000Z</time>
      </trkpt>
      <trkpt lat="49.37704" lon="1.03901">
        <ele>68.800003051758</ele>
        <time>2019-04-07T06:38:36.000Z</time>
      </trkpt>
      <trkpt lat="49.37711" lon="1.03901">
        <ele>68.599998474121</ele>
        <time>2019-04-07T06:38:38.000Z</time>
      </trkpt>
      <trkpt lat="49.37733" lon="1.03911">
        <ele>68.800003051758</ele>
        <time>2019-04-07T06:38:45.000Z</time>
      </trkpt>
      <trkpt lat="49.37764" lon="1.03906">
        <ele>67.199996948242</ele>
        <time>2019-04-07T06:38:53.000Z</time>
      </trkpt>
      <trkpt lat="49.37766" lon="1.03903">
        <ele>66.599998474121</ele>
        <time>2019-04-07T06:38:54.000Z</time>
      </trkpt>
      <trkpt lat="49.37778" lon="1.03881">
        <ele>64</ele>
        <time>2019-04-07T06:38:59.000Z</time>
      </trkpt>
      <trkpt lat="49.37776" lon="1.03871">
        <ele>63.200000762939</ele>
        <time>2019-04-07T06:39:02.000Z</time>
      </trkpt>
      <trkpt lat="49.37743" lon="1.03853">
        <ele>60.400001525879</ele>
        <time>2019-04-07T06:39:15.000Z</time>
      </trkpt>
      <trkpt lat="49.37687" lon="1.03847">
        <ele>61.400001525879</ele>
        <time>2019-04-07T06:39:31.000Z</time>
      </trkpt>
      <trkpt lat="49.37669" lon="1.03845">
        <ele>62</ele>
        <time>2019-04-07T06:39:35.000Z</time>
      </trkpt>
      <trkpt lat="49.37662" lon="1.03838">
        <ele>61.200000762939</ele>
        <time>2019-04-07T06:39:37.000Z</time>
      </trkpt>
      <trkpt lat="49.37658" lon="1.03826">
        <ele>59.599998474121</ele>
        <time>2019-04-07T06:39:39.000Z</time>
      </trkpt>
      <trkpt lat="49.37669" lon="1.03777">
        <ele>56.799999237061</ele>
        <time>2019-04-07T06:39:49.000Z</time>
      </trkpt>
      <trkpt lat="49.37704" lon="1.03712">
        <ele>59.799999237061</ele>
        <time>2019-04-07T06:40:07.000Z</time>
      </trkpt>
      <trkpt lat="49.37706" lon="1.03707">
        <ele>60</ele>
        <time>2019-04-07T06:40:08.000Z</time>
      </trkpt>
      <trkpt lat="49.37721" lon="1.03678">
        <ele>61.599998474121</ele>
        <time>2019-04-07T06:40:14.000Z</time>
      </trkpt>
      <trkpt lat="49.37746" lon="1.03625">
        <ele>61.799999237061</ele>
        <time>2019-04-07T06:40:23.000Z</time>
      </trkpt>
      <trkpt lat="49.37768" lon="1.03596">
        <ele>61</ele>
        <time>2019-04-07T06:40:29.000Z</time>
      </trkpt>
      <trkpt lat="49.37774" lon="1.03585">
        <ele>60.599998474121</ele>
        <time>2019-04-07T06:40:31.000Z</time>
      </trkpt>
      <trkpt lat="49.37787" lon="1.03552">
        <ele>59.599998474121</ele>
        <time>2019-04-07T06:40:36.000Z</time>
      </trkpt>
      <trkpt lat="49.37792" lon="1.03539">
        <ele>59</ele>
        <time>2019-04-07T06:40:38.000Z</time>
      </trkpt>
      <trkpt lat="49.37794" lon="1.03523">
        <ele>58.799999237061</ele>
        <time>2019-04-07T06:40:40.000Z</time>
      </trkpt>
      <trkpt lat="49.37793" lon="1.03509">
        <ele>58.799999237061</ele>
        <time>2019-04-07T06:40:42.000Z</time>
      </trkpt>
      <trkpt lat="49.37787" lon="1.03498">
        <ele>59</ele>
        <time>2019-04-07T06:40:45.000Z</time>
      </trkpt>
      <trkpt lat="49.37776" lon="1.03498">
        <ele>59.599998474121</ele>
        <time>2019-04-07T06:40:48.000Z</time>
      </trkpt>
      <trkpt lat="49.37767" lon="1.03504">
        <ele>60.200000762939</ele>
        <time>2019-04-07T06:40:51.000Z</time>
      </trkpt>
      <trkpt lat="49.37746" lon="1.03548">
        <ele>61.400001525879</ele>
        <time>2019-04-07T06:41:00.000Z</time>
      </trkpt>
      <trkpt lat="49.37719" lon="1.03582">
        <ele>62.400001525879</ele>
        <time>2019-04-07T06:41:08.000Z</time>
      </trkpt>
      <trkpt lat="49.37716" lon="1.03585">
        <ele>62.599998474121</ele>
        <time>2019-04-07T06:41:09.000Z</time>
      </trkpt>
      <trkpt lat="49.37666" lon="1.03566">
        <ele>64.599998474121</ele>
        <time>2019-04-07T06:41:25.000Z</time>
      </trkpt>
      <trkpt lat="49.37619" lon="1.03528">
        <ele>67.199996948242</ele>
        <time>2019-04-07T06:41:42.000Z</time>
      </trkpt>
      <trkpt lat="49.37612" lon="1.03522">
        <ele>67.599998474121</ele>
        <time>2019-04-07T06:41:44.000Z</time>
      </trkpt>
      <trkpt lat="49.37609" lon="1.03519">
        <ele>67.800003051758</ele>
        <time>2019-04-07T06:41:45.000Z</time>
      </trkpt>
      <trkpt lat="49.37606" lon="1.03515">
        <ele>68</ele>
        <time>2019-04-07T06:41:46.000Z</time>
      </trkpt>
      <trkpt lat="49.37578" lon="1.03493">
        <ele>69.599998474121</ele>
        <time>2019-04-07T06:41:56.000Z</time>
      </trkpt>
      <trkpt lat="49.37565" lon="1.03499">
        <ele>70.199996948242</ele>
        <time>2019-04-07T06:42:00.000Z</time>
      </trkpt>
      <trkpt lat="49.37562" lon="1.03503">
        <ele>70.199996948242</ele>
        <time>2019-04-07T06:42:01.000Z</time>
      </trkpt>
      <trkpt lat="49.37557" lon="1.03511">
        <ele>70.400001525879</ele>
        <time>2019-04-07T06:42:04.000Z</time>
      </trkpt>
      <trkpt lat="49.37548" lon="1.03544">
        <ele>71</ele>
        <time>2019-04-07T06:42:11.000Z</time>
      </trkpt>
      <trkpt lat="49.37543" lon="1.0355">
        <ele>71.199996948242</ele>
        <time>2019-04-07T06:42:13.000Z</time>
      </trkpt>
      <trkpt lat="49.37538" lon="1.03558">
        <ele>71.599998474121</ele>
        <time>2019-04-07T06:42:16.000Z</time>
      </trkpt>
      <trkpt lat="49.37532" lon="1.03566">
        <ele>71.800003051758</ele>
        <time>2019-04-07T06:42:19.000Z</time>
      </trkpt>
      <trkpt lat="49.37505" lon="1.03596">
        <ele>70</ele>
        <time>2019-04-07T06:42:30.000Z</time>
      </trkpt>
      <trkpt lat="49.37473" lon="1.03588">
        <ele>69.599998474121</ele>
        <time>2019-04-07T06:42:40.000Z</time>
      </trkpt>
      <trkpt lat="49.37448" lon="1.03593">
        <ele>68.800003051758</ele>
        <time>2019-04-07T06:42:48.000Z</time>
      </trkpt>
      <trkpt lat="49.3744" lon="1.03618">
        <ele>67.599998474121</ele>
        <time>2019-04-07T06:42:53.000Z</time>
      </trkpt>
      <trkpt lat="49.37421" lon="1.03637">
        <ele>68.800003051758</ele>
        <time>2019-04-07T06:43:03.000Z</time>
      </trkpt>
      <trkpt lat="49.37418" lon="1.03666">
        <ele>71</ele>
        <time>2019-04-07T06:43:10.000Z</time>
      </trkpt>
      <trkpt lat="49.37412" lon="1.03679">
        <ele>72.199996948242</ele>
        <time>2019-04-07T06:43:14.000Z</time>
      </trkpt>
      <trkpt lat="49.37404" lon="1.03686">
        <ele>73.599998474121</ele>
        <time>2019-04-07T06:43:20.000Z</time>
      </trkpt>
      <trkpt lat="49.37404" lon="1.0374">
        <ele>80.400001525879</ele>
        <time>2019-04-07T06:43:54.000Z</time>
      </trkpt>
      <trkpt lat="49.37403" lon="1.0374">
        <ele>80.599998474121</ele>
        <time>2019-04-07T06:43:56.000Z</time>
      </trkpt>
      <trkpt lat="49.37405" lon="1.03745">
        <ele>81</ele>
        <time>2019-04-07T06:43:58.000Z</time>
      </trkpt>
      <trkpt lat="49.37395" lon="1.03765">
        <ele>84.599998474121</ele>
        <time>2019-04-07T06:44:25.000Z</time>
      </trkpt>
      <trkpt lat="49.37391" lon="1.03768">
        <ele>85</ele>
        <time>2019-04-07T06:44:32.000Z</time>
      </trkpt>
      <trkpt lat="49.37389" lon="1.03769">
        <ele>85.199996948242</ele>
        <time>2019-04-07T06:44:34.000Z</time>
      </trkpt>
      <trkpt lat="49.37387" lon="1.03772">
        <ele>85.400001525879</ele>
        <time>2019-04-07T06:44:39.000Z</time>
      </trkpt>
      <trkpt lat="49.37387" lon="1.03776">
        <ele>85.800003051758</ele>
        <time>2019-04-07T06:44:58.000Z</time>
      </trkpt>
      <trkpt lat="49.37387" lon="1.03776">
        <ele>85.800003051758</ele>
        <time>2019-04-07T06:45:05.000Z</time>
      </trkpt>
      <trkpt lat="49.37385" lon="1.03776">
        <ele>85.800003051758</ele>
        <time>2019-04-07T06:45:16.000Z</time>
      </trkpt>
      <trkpt lat="49.37384" lon="1.03776">
        <ele>85.800003051758</ele>
        <time>2019-04-07T06:45:17.000Z</time>
      </trkpt>
      <trkpt lat="49.37384" lon="1.03776">
        <ele>85.800003051758</ele>
        <time>2019-04-07T06:45:19.000Z</time>
      </trkpt>
      <trkpt lat="49.37384" lon="1.03776">
        <ele>85.800003051758</ele>
        <time>2019-04-07T06:45:27.000Z</time>
      </trkpt>
      <trkpt lat="49.37383" lon="1.03774">
        <ele>85.800003051758</ele>
        <time>2019-04-07T06:45:31.000Z</time>
      </trkpt>
      <trkpt lat="49.37383" lon="1.03774">
        <ele>85.800003051758</ele>
        <time>2019-04-07T06:45:35.000Z</time>
      </trkpt>
      <trkpt lat="49.37384" lon="1.03773">
        <ele>85.599998474121</ele>
        <time>2019-04-07T06:45:41.000Z</time>
      </trkpt>
      <trkpt lat="49.37384" lon="1.03773">
        <ele>85.599998474121</ele>
        <time>2019-04-07T06:45:45.000Z</time>
      </trkpt>
      <trkpt lat="49.37384" lon="1.03773">
        <ele>85.599998474121</ele>
        <time>2019-04-07T06:45:50.000Z</time>
      </trkpt>
      <trkpt lat="49.37383" lon="1.0377">
        <ele>85.599998474121</ele>
        <time>2019-04-07T06:45:56.000Z</time>
      </trkpt>
      <trkpt lat="49.37381" lon="1.03765">
        <ele>85.400001525879</ele>
        <time>2019-04-07T06:46:00.000Z</time>
      </trkpt>
      <trkpt lat="49.37367" lon="1.03743">
        <ele>85</ele>
        <time>2019-04-07T06:46:07.000Z</time>
      </trkpt>
      <trkpt lat="49.37322" lon="1.03684">
        <ele>81</ele>
        <time>2019-04-07T06:46:24.000Z</time>
      </trkpt>
      <trkpt lat="49.37313" lon="1.03673">
        <ele>80.199996948242</ele>
        <time>2019-04-07T06:46:26.000Z</time>
      </trkpt>
      <trkpt lat="49.37296" lon="1.03658">
        <ele>79.199996948242</ele>
        <time>2019-04-07T06:46:29.000Z</time>
      </trkpt>
      <trkpt lat="49.3729" lon="1.03655">
        <ele>79</ele>
        <time>2019-04-07T06:46:30.000Z</time>
      </trkpt>
      <trkpt lat="49.37284" lon="1.0365">
        <ele>78.599998474121</ele>
        <time>2019-04-07T06:46:31.000Z</time>
      </trkpt>
      <trkpt lat="49.37278" lon="1.03644">
        <ele>78.400001525879</ele>
        <time>2019-04-07T06:46:32.000Z</time>
      </trkpt>
      <trkpt lat="49.37251" lon="1.0362">
        <ele>77.599998474121</ele>
        <time>2019-04-07T06:46:36.000Z</time>
      </trkpt>
      <trkpt lat="49.3721" lon="1.0359">
        <ele>77</ele>
        <time>2019-04-07T06:46:42.000Z</time>
      </trkpt>
      <trkpt lat="49.37204" lon="1.03586">
        <ele>77</ele>
        <time>2019-04-07T06:46:43.000Z</time>
      </trkpt>
      <trkpt lat="49.37184" lon="1.03567">
        <ele>77</ele>
        <time>2019-04-07T06:46:47.000Z</time>
      </trkpt>
      <trkpt lat="49.3717" lon="1.03554">
        <ele>77.199996948242</ele>
        <time>2019-04-07T06:46:50.000Z</time>
      </trkpt>
      <trkpt lat="49.37165" lon="1.03551">
        <ele>77.199996948242</ele>
        <time>2019-04-07T06:46:51.000Z</time>
      </trkpt>
      <trkpt lat="49.37161" lon="1.03547">
        <ele>77.199996948242</ele>
        <time>2019-04-07T06:46:52.000Z</time>
      </trkpt>
      <trkpt lat="49.37152" lon="1.03539">
        <ele>77</ele>
        <time>2019-04-07T06:46:54.000Z</time>
      </trkpt>
      <trkpt lat="49.37121" lon="1.03511">
        <ele>76.599998474121</ele>
        <time>2019-04-07T06:47:01.000Z</time>
      </trkpt>
      <trkpt lat="49.37068" lon="1.03469">
        <ele>73.599998474121</ele>
        <time>2019-04-07T06:47:12.000Z</time>
      </trkpt>
      <trkpt lat="49.37016" lon="1.03424">
        <ele>73.400001525879</ele>
        <time>2019-04-07T06:47:22.000Z</time>
      </trkpt>
      <trkpt lat="49.36974" lon="1.03384">
        <ele>75.599998474121</ele>
        <time>2019-04-07T06:47:31.000Z</time>
      </trkpt>
      <trkpt lat="49.36926" lon="1.03344">
        <ele>80.400001525879</ele>
        <time>2019-04-07T06:47:51.000Z</time>
      </trkpt>
      <trkpt lat="49.36907" lon="1.03329">
        <ele>82.199996948242</ele>
        <time>2019-04-07T06:48:01.000Z</time>
      </trkpt>
      <trkpt lat="49.36888" lon="1.03313">
        <ele>84</ele>
        <time>2019-04-07T06:48:09.000Z</time>
      </trkpt>
      <trkpt lat="49.36885" lon="1.03311">
        <ele>84.199996948242</ele>
        <time>2019-04-07T06:48:10.000Z</time>
      </trkpt>
      <trkpt lat="49.3688" lon="1.03306">
        <ele>84.599998474121</ele>
        <time>2019-04-07T06:48:12.000Z</time>
      </trkpt>
      <trkpt lat="49.36877" lon="1.03304">
        <ele>84.800003051758</ele>
        <time>2019-04-07T06:48:13.000Z</time>
      </trkpt>
      <trkpt lat="49.36874" lon="1.03301">
        <ele>84.800003051758</ele>
        <time>2019-04-07T06:48:14.000Z</time>
      </trkpt>
      <trkpt lat="49.36859" lon="1.03286">
        <ele>85.400001525879</ele>
        <time>2019-04-07T06:48:19.000Z</time>
      </trkpt>
      <trkpt lat="49.36843" lon="1.03273">
        <ele>85.800003051758</ele>
        <time>2019-04-07T06:48:24.000Z</time>
      </trkpt>
      <trkpt lat="49.36821" lon="1.03253">
        <ele>86</ele>
        <time>2019-04-07T06:48:31.000Z</time>
      </trkpt>
      <trkpt lat="49.36818" lon="1.03247">
        <ele>86</ele>
        <time>2019-04-07T06:48:32.000Z</time>
      </trkpt>
      <trkpt lat="49.36814" lon="1.03235">
        <ele>85.800003051758</ele>
        <time>2019-04-07T06:48:34.000Z</time>
      </trkpt>
      <trkpt lat="49.36795" lon="1.03151">
        <ele>82.599998474121</ele>
        <time>2019-04-07T06:48:44.000Z</time>
      </trkpt>
      <trkpt lat="49.3678" lon="1.03075">
        <ele>78.199996948242</ele>
        <time>2019-04-07T06:48:51.000Z</time>
      </trkpt>
      <trkpt lat="49.36773" lon="1.03066">
        <ele>78.199996948242</ele>
        <time>2019-04-07T06:48:53.000Z</time>
      </trkpt>
      <trkpt lat="49.36764" lon="1.03061">
        <ele>78.599998474121</ele>
        <time>2019-04-07T06:48:55.000Z</time>
      </trkpt>
      <trkpt lat="49.3676" lon="1.03059">
        <ele>78.800003051758</ele>
        <time>2019-04-07T06:48:56.000Z</time>
      </trkpt>
      <trkpt lat="49.36754" lon="1.03058">
        <ele>79.199996948242</ele>
        <time>2019-04-07T06:48:57.000Z</time>
      </trkpt>
      <trkpt lat="49.36749" lon="1.03058">
        <ele>79.599998474121</ele>
        <time>2019-04-07T06:48:58.000Z</time>
      </trkpt>
      <trkpt lat="49.36695" lon="1.03053">
        <ele>84.199996948242</ele>
        <time>2019-04-07T06:49:12.000Z</time>
      </trkpt>
      <trkpt lat="49.36648" lon="1.0305">
        <ele>91.400001525879</ele>
        <time>2019-04-07T06:49:27.000Z</time>
      </trkpt>
      <trkpt lat="49.36598" lon="1.03045">
        <ele>97.800003051758</ele>
        <time>2019-04-07T06:49:45.000Z</time>
      </trkpt>
      <trkpt lat="49.36573" lon="1.03043">
        <ele>99.800003051758</ele>
        <time>2019-04-07T06:49:55.000Z</time>
      </trkpt>
      <trkpt lat="49.36518" lon="1.03034">
        <ele>103.80000305176</ele>
        <time>2019-04-07T06:50:17.000Z</time>
      </trkpt>
      <trkpt lat="49.36462" lon="1.03028">
        <ele>107.40000152588</ele>
        <time>2019-04-07T06:50:40.000Z</time>
      </trkpt>
      <trkpt lat="49.36407" lon="1.03026">
        <ele>110.80000305176</ele>
        <time>2019-04-07T06:51:04.000Z</time>
      </trkpt>
      <trkpt lat="49.3635" lon="1.03024">
        <ele>113.40000152588</ele>
        <time>2019-04-07T06:51:24.000Z</time>
      </trkpt>
      <trkpt lat="49.36296" lon="1.03018">
        <ele>113.80000305176</ele>
        <time>2019-04-07T06:51:42.000Z</time>
      </trkpt>
      <trkpt lat="49.3627" lon="1.03017">
        <ele>114.19999694824</ele>
        <time>2019-04-07T06:51:49.000Z</time>
      </trkpt>
      <trkpt lat="49.36213" lon="1.03014">
        <ele>114.80000305176</ele>
        <time>2019-04-07T06:52:03.000Z</time>
      </trkpt>
      <trkpt lat="49.36164" lon="1.03009">
        <ele>114.19999694824</ele>
        <time>2019-04-07T06:52:14.000Z</time>
      </trkpt>
      <trkpt lat="49.3614" lon="1.03006">
        <ele>113.80000305176</ele>
        <time>2019-04-07T06:52:19.000Z</time>
      </trkpt>
      <trkpt lat="49.36115" lon="1.03004">
        <ele>113</ele>
        <time>2019-04-07T06:52:24.000Z</time>
      </trkpt>
      <trkpt lat="49.36094" lon="1.02999">
        <ele>113.80000305176</ele>
        <time>2019-04-07T06:52:28.000Z</time>
      </trkpt>
      <trkpt lat="49.36038" lon="1.02992">
        <ele>116</ele>
        <time>2019-04-07T06:52:38.000Z</time>
      </trkpt>
      <trkpt lat="49.36009" lon="1.02989">
        <ele>116</ele>
        <time>2019-04-07T06:52:43.000Z</time>
      </trkpt>
      <trkpt lat="49.35952" lon="1.02984">
        <ele>116</ele>
        <time>2019-04-07T06:52:56.000Z</time>
      </trkpt>
      <trkpt lat="49.35917" lon="1.02982">
        <ele>116.80000305176</ele>
        <time>2019-04-07T06:53:04.000Z</time>
      </trkpt>
      <trkpt lat="49.3586" lon="1.02976">
        <ele>118</ele>
        <time>2019-04-07T06:53:17.000Z</time>
      </trkpt>
      <trkpt lat="49.35807" lon="1.02969">
        <ele>117.40000152588</ele>
        <time>2019-04-07T06:53:29.000Z</time>
      </trkpt>
      <trkpt lat="49.35752" lon="1.02965">
        <ele>117.80000305176</ele>
        <time>2019-04-07T06:53:41.000Z</time>
      </trkpt>
      <trkpt lat="49.35698" lon="1.0296">
        <ele>119.19999694824</ele>
        <time>2019-04-07T06:53:52.000Z</time>
      </trkpt>
      <trkpt lat="49.35677" lon="1.02957">
        <ele>119.40000152588</ele>
        <time>2019-04-07T06:53:56.000Z</time>
      </trkpt>
      <trkpt lat="49.35623" lon="1.02955">
        <ele>120.19999694824</ele>
        <time>2019-04-07T06:54:06.000Z</time>
      </trkpt>
      <trkpt lat="49.35583" lon="1.02952">
        <ele>120.40000152588</ele>
        <time>2019-04-07T06:54:14.000Z</time>
      </trkpt>
      <trkpt lat="49.35527" lon="1.0295">
        <ele>120</ele>
        <time>2019-04-07T06:54:26.000Z</time>
      </trkpt>
      <trkpt lat="49.35499" lon="1.02947">
        <ele>120</ele>
        <time>2019-04-07T06:54:31.000Z</time>
      </trkpt>
      <trkpt lat="49.35465" lon="1.02935">
        <ele>120.80000305176</ele>
        <time>2019-04-07T06:54:38.000Z</time>
      </trkpt>
      <trkpt lat="49.35459" lon="1.02926">
        <ele>121</ele>
        <time>2019-04-07T06:54:40.000Z</time>
      </trkpt>
      <trkpt lat="49.35459" lon="1.02914">
        <ele>121.40000152588</ele>
        <time>2019-04-07T06:54:42.000Z</time>
      </trkpt>
      <trkpt lat="49.35462" lon="1.02899">
        <ele>121.80000305176</ele>
        <time>2019-04-07T06:54:44.000Z</time>
      </trkpt>
      <trkpt lat="49.35484" lon="1.02821">
        <ele>124.19999694824</ele>
        <time>2019-04-07T06:54:55.000Z</time>
      </trkpt>
      <trkpt lat="49.35504" lon="1.02743">
        <ele>124</ele>
        <time>2019-04-07T06:55:06.000Z</time>
      </trkpt>
      <trkpt lat="49.35517" lon="1.02669">
        <ele>124</ele>
        <time>2019-04-07T06:55:14.000Z</time>
      </trkpt>
      <trkpt lat="49.35511" lon="1.02582">
        <ele>123.59999847412</ele>
        <time>2019-04-07T06:55:22.000Z</time>
      </trkpt>
      <trkpt lat="49.35507" lon="1.02498">
        <ele>124.40000152588</ele>
        <time>2019-04-07T06:55:30.000Z</time>
      </trkpt>
      <trkpt lat="49.35506" lon="1.02487">
        <ele>124.40000152588</ele>
        <time>2019-04-07T06:55:31.000Z</time>
      </trkpt>
      <trkpt lat="49.35502" lon="1.02468">
        <ele>124.59999847412</ele>
        <time>2019-04-07T06:55:33.000Z</time>
      </trkpt>
      <trkpt lat="49.35496" lon="1.02452">
        <ele>124.59999847412</ele>
        <time>2019-04-07T06:55:35.000Z</time>
      </trkpt>
      <trkpt lat="49.35488" lon="1.02441">
        <ele>124.59999847412</ele>
        <time>2019-04-07T06:55:37.000Z</time>
      </trkpt>
      <trkpt lat="49.3548" lon="1.02434">
        <ele>124.80000305176</ele>
        <time>2019-04-07T06:55:39.000Z</time>
      </trkpt>
      <trkpt lat="49.35467" lon="1.02423">
        <ele>125</ele>
        <time>2019-04-07T06:55:42.000Z</time>
      </trkpt>
      <trkpt lat="49.3546" lon="1.02412">
        <ele>125</ele>
        <time>2019-04-07T06:55:44.000Z</time>
      </trkpt>
      <trkpt lat="49.35445" lon="1.0237">
        <ele>124.80000305176</ele>
        <time>2019-04-07T06:55:50.000Z</time>
      </trkpt>
      <trkpt lat="49.35418" lon="1.02298">
        <ele>125</ele>
        <time>2019-04-07T06:56:00.000Z</time>
      </trkpt>
      <trkpt lat="49.35409" lon="1.02272">
        <ele>125.40000152588</ele>
        <time>2019-04-07T06:56:04.000Z</time>
      </trkpt>
      <trkpt lat="49.35409" lon="1.02258">
        <ele>125.59999847412</ele>
        <time>2019-04-07T06:56:06.000Z</time>
      </trkpt>
      <trkpt lat="49.35414" lon="1.02246">
        <ele>125.59999847412</ele>
        <time>2019-04-07T06:56:08.000Z</time>
      </trkpt>
      <trkpt lat="49.35444" lon="1.02172">
        <ele>126.19999694824</ele>
        <time>2019-04-07T06:56:19.000Z</time>
      </trkpt>
      <trkpt lat="49.35447" lon="1.02167">
        <ele>126.40000152588</ele>
        <time>2019-04-07T06:56:20.000Z</time>
      </trkpt>
      <trkpt lat="49.35455" lon="1.02162">
        <ele>126.59999847412</ele>
        <time>2019-04-07T06:56:22.000Z</time>
      </trkpt>
      <trkpt lat="49.35464" lon="1.02165">
        <ele>126.40000152588</ele>
        <time>2019-04-07T06:56:24.000Z</time>
      </trkpt>
      <trkpt lat="49.35514" lon="1.02204">
        <ele>125.59999847412</ele>
        <time>2019-04-07T06:56:34.000Z</time>
      </trkpt>
      <trkpt lat="49.35537" lon="1.02222">
        <ele>125.40000152588</ele>
        <time>2019-04-07T06:56:39.000Z</time>
      </trkpt>
      <trkpt lat="49.35588" lon="1.02258">
        <ele>125.40000152588</ele>
        <time>2019-04-07T06:56:49.000Z</time>
      </trkpt>
      <trkpt lat="49.35619" lon="1.0228">
        <ele>125.40000152588</ele>
        <time>2019-04-07T06:56:55.000Z</time>
      </trkpt>
      <trkpt lat="49.3567" lon="1.02319">
        <ele>124.59999847412</ele>
        <time>2019-04-07T06:57:05.000Z</time>
      </trkpt>
      <trkpt lat="49.35716" lon="1.02354">
        <ele>124.40000152588</ele>
        <time>2019-04-07T06:57:14.000Z</time>
      </trkpt>
      <trkpt lat="49.35768" lon="1.02393">
        <ele>124</ele>
        <time>2019-04-07T06:57:24.000Z</time>
      </trkpt>
      <trkpt lat="49.35819" lon="1.02427">
        <ele>122.80000305176</ele>
        <time>2019-04-07T06:57:33.000Z</time>
      </trkpt>
      <trkpt lat="49.35867" lon="1.02466">
        <ele>121.40000152588</ele>
        <time>2019-04-07T06:57:42.000Z</time>
      </trkpt>
      <trkpt lat="49.35917" lon="1.02504">
        <ele>120.59999847412</ele>
        <time>2019-04-07T06:57:51.000Z</time>
      </trkpt>
      <trkpt lat="49.35968" lon="1.02543">
        <ele>120.19999694824</ele>
        <time>2019-04-07T06:58:01.000Z</time>
      </trkpt>
      <trkpt lat="49.36019" lon="1.0258">
        <ele>120</ele>
        <time>2019-04-07T06:58:10.000Z</time>
      </trkpt>
      <trkpt lat="49.36073" lon="1.02613">
        <ele>119.40000152588</ele>
        <time>2019-04-07T06:58:19.000Z</time>
      </trkpt>
      <trkpt lat="49.36125" lon="1.0265">
        <ele>118.59999847412</ele>
        <time>2019-04-07T06:58:28.000Z</time>
      </trkpt>
      <trkpt lat="49.36131" lon="1.02652">
        <ele>118.19999694824</ele>
        <time>2019-04-07T06:58:29.000Z</time>
      </trkpt>
      <trkpt lat="49.3614" lon="1.0265">
        <ele>117.40000152588</ele>
        <time>2019-04-07T06:58:31.000Z</time>
      </trkpt>
      <trkpt lat="49.36146" lon="1.0264">
        <ele>116.59999847412</ele>
        <time>2019-04-07T06:58:33.000Z</time>
      </trkpt>
      <trkpt lat="49.36172" lon="1.02564">
        <ele>115.19999694824</ele>
        <time>2019-04-07T06:58:42.000Z</time>
      </trkpt>
      <trkpt lat="49.36194" lon="1.02487">
        <ele>115</ele>
        <time>2019-04-07T06:58:49.000Z</time>
      </trkpt>
      <trkpt lat="49.36213" lon="1.02426">
        <ele>114.40000152588</ele>
        <time>2019-04-07T06:58:56.000Z</time>
      </trkpt>
      <trkpt lat="49.36211" lon="1.02412">
        <ele>114.80000305176</ele>
        <time>2019-04-07T06:58:58.000Z</time>
      </trkpt>
      <trkpt lat="49.36195" lon="1.02387">
        <ele>116.19999694824</ele>
        <time>2019-04-07T06:59:03.000Z</time>
      </trkpt>
      <trkpt lat="49.36183" lon="1.02375">
        <ele>116.80000305176</ele>
        <time>2019-04-07T06:59:06.000Z</time>
      </trkpt>
      <trkpt lat="49.36178" lon="1.02315">
        <ele>118.40000152588</ele>
        <time>2019-04-07T06:59:18.000Z</time>
      </trkpt>
      <trkpt lat="49.36191" lon="1.02291">
        <ele>118</ele>
        <time>2019-04-07T06:59:22.000Z</time>
      </trkpt>
      <trkpt lat="49.36202" lon="1.02263">
        <ele>116</ele>
        <time>2019-04-07T06:59:27.000Z</time>
      </trkpt>
      <trkpt lat="49.36196" lon="1.0225">
        <ele>116</ele>
        <time>2019-04-07T06:59:29.000Z</time>
      </trkpt>
      <trkpt lat="49.36162" lon="1.02177">
        <ele>118</ele>
        <time>2019-04-07T06:59:39.000Z</time>
      </trkpt>
      <trkpt lat="49.36156" lon="1.02161">
        <ele>118.19999694824</ele>
        <time>2019-04-07T06:59:41.000Z</time>
      </trkpt>
      <trkpt lat="49.36133" lon="1.02102">
        <ele>118.19999694824</ele>
        <time>2019-04-07T06:59:49.000Z</time>
      </trkpt>
      <trkpt lat="49.36099" lon="1.02028">
        <ele>117</ele>
        <time>2019-04-07T06:59:59.000Z</time>
      </trkpt>
      <trkpt lat="49.36088" lon="1.02006">
        <ele>116.40000152588</ele>
        <time>2019-04-07T07:00:02.000Z</time>
      </trkpt>
      <trkpt lat="49.36079" lon="1.01996">
        <ele>116.80000305176</ele>
        <time>2019-04-07T07:00:04.000Z</time>
      </trkpt>
      <trkpt lat="49.36037" lon="1.01961">
        <ele>119.59999847412</ele>
        <time>2019-04-07T07:00:14.000Z</time>
      </trkpt>
      <trkpt lat="49.35986" lon="1.0192">
        <ele>120.40000152588</ele>
        <time>2019-04-07T07:00:27.000Z</time>
      </trkpt>
      <trkpt lat="49.35947" lon="1.01895">
        <ele>121.19999694824</ele>
        <time>2019-04-07T07:00:38.000Z</time>
      </trkpt>
      <trkpt lat="49.35896" lon="1.01861">
        <ele>121.19999694824</ele>
        <time>2019-04-07T07:00:52.000Z</time>
      </trkpt>
      <trkpt lat="49.35859" lon="1.0184">
        <ele>121.59999847412</ele>
        <time>2019-04-07T07:01:01.000Z</time>
      </trkpt>
      <trkpt lat="49.35815" lon="1.01824">
        <ele>124.19999694824</ele>
        <time>2019-04-07T07:01:14.000Z</time>
      </trkpt>
      <trkpt lat="49.35798" lon="1.01813">
        <ele>124.80000305176</ele>
        <time>2019-04-07T07:01:19.000Z</time>
      </trkpt>
      <trkpt lat="49.3575" lon="1.01772">
        <ele>125.40000152588</ele>
        <time>2019-04-07T07:01:34.000Z</time>
      </trkpt>
      <trkpt lat="49.35699" lon="1.01746">
        <ele>126.40000152588</ele>
        <time>2019-04-07T07:01:53.000Z</time>
      </trkpt>
      <trkpt lat="49.35674" lon="1.01734">
        <ele>126.19999694824</ele>
        <time>2019-04-07T07:02:01.000Z</time>
      </trkpt>
      <trkpt lat="49.35646" lon="1.01723">
        <ele>125.80000305176</ele>
        <time>2019-04-07T07:02:08.000Z</time>
      </trkpt>
      <trkpt lat="49.35642" lon="1.01722">
        <ele>125.59999847412</ele>
        <time>2019-04-07T07:02:09.000Z</time>
      </trkpt>
      <trkpt lat="49.35588" lon="1.01715">
        <ele>124.59999847412</ele>
        <time>2019-04-07T07:02:20.000Z</time>
      </trkpt>
      <trkpt lat="49.35563" lon="1.01716">
        <ele>124.80000305176</ele>
        <time>2019-04-07T07:02:25.000Z</time>
      </trkpt>
      <trkpt lat="49.35539" lon="1.01773">
        <ele>128.80000305176</ele>
        <time>2019-04-07T07:02:39.000Z</time>
      </trkpt>
      <trkpt lat="49.35536" lon="1.01788">
        <ele>129.80000305176</ele>
        <time>2019-04-07T07:02:42.000Z</time>
      </trkpt>
      <trkpt lat="49.35528" lon="1.01824">
        <ele>131.19999694824</ele>
        <time>2019-04-07T07:02:49.000Z</time>
      </trkpt>
      <trkpt lat="49.35513" lon="1.01909">
        <ele>132.60000610352</ele>
        <time>2019-04-07T07:03:03.000Z</time>
      </trkpt>
      <trkpt lat="49.35505" lon="1.01965">
        <ele>132.60000610352</ele>
        <time>2019-04-07T07:03:12.000Z</time>
      </trkpt>
      <trkpt lat="49.35504" lon="1.01976">
        <ele>132.39999389648</ele>
        <time>2019-04-07T07:03:14.000Z</time>
      </trkpt>
      <trkpt lat="49.35496" lon="1.01986">
        <ele>132.19999694824</ele>
        <time>2019-04-07T07:03:17.000Z</time>
      </trkpt>
      <trkpt lat="49.35485" lon="1.01986">
        <ele>132.39999389648</ele>
        <time>2019-04-07T07:03:20.000Z</time>
      </trkpt>
      <trkpt lat="49.35427" lon="1.01979">
        <ele>132</ele>
        <time>2019-04-07T07:03:34.000Z</time>
      </trkpt>
      <trkpt lat="49.35413" lon="1.01975">
        <ele>131.80000305176</ele>
        <time>2019-04-07T07:03:37.000Z</time>
      </trkpt>
      <trkpt lat="49.35363" lon="1.01955">
        <ele>131.19999694824</ele>
        <time>2019-04-07T07:03:50.000Z</time>
      </trkpt>
      <trkpt lat="49.35312" lon="1.01983">
        <ele>132.19999694824</ele>
        <time>2019-04-07T07:04:03.000Z</time>
      </trkpt>
      <trkpt lat="49.35309" lon="1.01979">
        <ele>132.39999389648</ele>
        <time>2019-04-07T07:04:04.000Z</time>
      </trkpt>
      <trkpt lat="49.35279" lon="1.01905">
        <ele>134</ele>
        <time>2019-04-07T07:04:17.000Z</time>
      </trkpt>
      <trkpt lat="49.35277" lon="1.019">
        <ele>134</ele>
        <time>2019-04-07T07:04:18.000Z</time>
      </trkpt>
      <trkpt lat="49.35269" lon="1.01895">
        <ele>134</ele>
        <time>2019-04-07T07:04:20.000Z</time>
      </trkpt>
      <trkpt lat="49.35263" lon="1.01901">
        <ele>134</ele>
        <time>2019-04-07T07:04:22.000Z</time>
      </trkpt>
      <trkpt lat="49.35239" lon="1.01957">
        <ele>134.80000305176</ele>
        <time>2019-04-07T07:04:31.000Z</time>
      </trkpt>
      <trkpt lat="49.35231" lon="1.01979">
        <ele>135.80000305176</ele>
        <time>2019-04-07T07:04:35.000Z</time>
      </trkpt>
      <trkpt lat="49.3522" lon="1.01992">
        <ele>135.80000305176</ele>
        <time>2019-04-07T07:04:39.000Z</time>
      </trkpt>
      <trkpt lat="49.35211" lon="1.0199">
        <ele>136.19999694824</ele>
        <time>2019-04-07T07:04:41.000Z</time>
      </trkpt>
      <trkpt lat="49.35163" lon="1.01963">
        <ele>137.19999694824</ele>
        <time>2019-04-07T07:04:53.000Z</time>
      </trkpt>
      <trkpt lat="49.35153" lon="1.01949">
        <ele>137</ele>
        <time>2019-04-07T07:04:56.000Z</time>
      </trkpt>
      <trkpt lat="49.35103" lon="1.01913">
        <ele>136.39999389648</ele>
        <time>2019-04-07T07:05:07.000Z</time>
      </trkpt>
      <trkpt lat="49.35085" lon="1.01898">
        <ele>136.19999694824</ele>
        <time>2019-04-07T07:05:11.000Z</time>
      </trkpt>
      <trkpt lat="49.35071" lon="1.01888">
        <ele>136</ele>
        <time>2019-04-07T07:05:14.000Z</time>
      </trkpt>
      <trkpt lat="49.35021" lon="1.01853">
        <ele>135.19999694824</ele>
        <time>2019-04-07T07:05:24.000Z</time>
      </trkpt>
      <trkpt lat="49.34993" lon="1.01835">
        <ele>134.39999389648</ele>
        <time>2019-04-07T07:05:30.000Z</time>
      </trkpt>
      <trkpt lat="49.34945" lon="1.01794">
        <ele>131.39999389648</ele>
        <time>2019-04-07T07:05:42.000Z</time>
      </trkpt>
      <trkpt lat="49.34945" lon="1.01788">
        <ele>131</ele>
        <time>2019-04-07T07:05:43.000Z</time>
      </trkpt>
      <trkpt lat="49.34964" lon="1.01716">
        <ele>125.80000305176</ele>
        <time>2019-04-07T07:05:59.000Z</time>
      </trkpt>
      <trkpt lat="49.34959" lon="1.0171">
        <ele>124.59999847412</ele>
        <time>2019-04-07T07:06:01.000Z</time>
      </trkpt>
      <trkpt lat="49.34934" lon="1.01707">
        <ele>122.40000152588</ele>
        <time>2019-04-07T07:06:09.000Z</time>
      </trkpt>
      <trkpt lat="49.34932" lon="1.01703">
        <ele>121.59999847412</ele>
        <time>2019-04-07T07:06:11.000Z</time>
      </trkpt>
      <trkpt lat="49.34933" lon="1.01692">
        <ele>120.19999694824</ele>
        <time>2019-04-07T07:06:14.000Z</time>
      </trkpt>
      <trkpt lat="49.3494" lon="1.01641">
        <ele>113.40000152588</ele>
        <time>2019-04-07T07:06:25.000Z</time>
      </trkpt>
      <trkpt lat="49.34962" lon="1.0161">
        <ele>110.40000152588</ele>
        <time>2019-04-07T07:06:31.000Z</time>
      </trkpt>
      <trkpt lat="49.34996" lon="1.01545">
        <ele>104.80000305176</ele>
        <time>2019-04-07T07:06:45.000Z</time>
      </trkpt>
      <trkpt lat="49.35007" lon="1.0152">
        <ele>102</ele>
        <time>2019-04-07T07:06:56.000Z</time>
      </trkpt>
      <trkpt lat="49.35004" lon="1.01516">
        <ele>101.19999694824</ele>
        <time>2019-04-07T07:06:57.000Z</time>
      </trkpt>
      <trkpt lat="49.34982" lon="1.01505">
        <ele>97.800003051758</ele>
        <time>2019-04-07T07:07:06.000Z</time>
      </trkpt>
      <trkpt lat="49.34982" lon="1.015">
        <ele>96.800003051758</ele>
        <time>2019-04-07T07:07:08.000Z</time>
      </trkpt>
      <trkpt lat="49.34997" lon="1.01481">
        <ele>93.400001525879</ele>
        <time>2019-04-07T07:07:16.000Z</time>
      </trkpt>
      <trkpt lat="49.35004" lon="1.01474">
        <ele>92.599998474121</ele>
        <time>2019-04-07T07:07:18.000Z</time>
      </trkpt>
      <trkpt lat="49.35015" lon="1.01459">
        <ele>92.199996948242</ele>
        <time>2019-04-07T07:07:22.000Z</time>
      </trkpt>
      <trkpt lat="49.35033" lon="1.01434">
        <ele>87.599998474121</ele>
        <time>2019-04-07T07:07:30.000Z</time>
      </trkpt>
      <trkpt lat="49.35036" lon="1.01433">
        <ele>87.400001525879</ele>
        <time>2019-04-07T07:07:31.000Z</time>
      </trkpt>
      <trkpt lat="49.3504" lon="1.01431">
        <ele>87.199996948242</ele>
        <time>2019-04-07T07:07:32.000Z</time>
      </trkpt>
      <trkpt lat="49.35046" lon="1.01428">
        <ele>86.599998474121</ele>
        <time>2019-04-07T07:07:34.000Z</time>
      </trkpt>
      <trkpt lat="49.35063" lon="1.01417">
        <ele>84.599998474121</ele>
        <time>2019-04-07T07:07:39.000Z</time>
      </trkpt>
      <trkpt lat="49.35065" lon="1.01414">
        <ele>84</ele>
        <time>2019-04-07T07:07:41.000Z</time>
      </trkpt>
      <trkpt lat="49.35044" lon="1.01396">
        <ele>81.199996948242</ele>
        <time>2019-04-07T07:07:49.000Z</time>
      </trkpt>
      <trkpt lat="49.35044" lon="1.01383">
        <ele>80.800003051758</ele>
        <time>2019-04-07T07:07:52.000Z</time>
      </trkpt>
      <trkpt lat="49.35073" lon="1.01367">
        <ele>80.199996948242</ele>
        <time>2019-04-07T07:07:58.000Z</time>
      </trkpt>
      <trkpt lat="49.3511" lon="1.01332">
        <ele>70</ele>
        <time>2019-04-07T07:08:09.000Z</time>
      </trkpt>
      <trkpt lat="49.35096" lon="1.01306">
        <ele>70.400001525879</ele>
        <time>2019-04-07T07:08:19.000Z</time>
      </trkpt>
      <trkpt lat="49.35093" lon="1.01298">
        <ele>72</ele>
        <time>2019-04-07T07:08:21.000Z</time>
      </trkpt>
      <trkpt lat="49.35092" lon="1.01294">
        <ele>72.599998474121</ele>
        <time>2019-04-07T07:08:22.000Z</time>
      </trkpt>
      <trkpt lat="49.35063" lon="1.01227">
        <ele>84.599998474121</ele>
        <time>2019-04-07T07:08:43.000Z</time>
      </trkpt>
      <trkpt lat="49.35053" lon="1.01207">
        <ele>86.800003051758</ele>
        <time>2019-04-07T07:08:50.000Z</time>
      </trkpt>
      <trkpt lat="49.35049" lon="1.01195">
        <ele>87.400001525879</ele>
        <time>2019-04-07T07:08:54.000Z</time>
      </trkpt>
      <trkpt lat="49.35048" lon="1.01193">
        <ele>87.599998474121</ele>
        <time>2019-04-07T07:08:55.000Z</time>
      </trkpt>
      <trkpt lat="49.35047" lon="1.0119">
        <ele>87.800003051758</ele>
        <time>2019-04-07T07:08:56.000Z</time>
      </trkpt>
      <trkpt lat="49.35045" lon="1.01188">
        <ele>88</ele>
        <time>2019-04-07T07:08:57.000Z</time>
      </trkpt>
      <trkpt lat="49.35044" lon="1.01185">
        <ele>88.199996948242</ele>
        <time>2019-04-07T07:08:58.000Z</time>
      </trkpt>
      <trkpt lat="49.35039" lon="1.01175">
        <ele>89.199996948242</ele>
        <time>2019-04-07T07:09:02.000Z</time>
      </trkpt>
      <trkpt lat="49.35035" lon="1.01158">
        <ele>89.599998474121</ele>
        <time>2019-04-07T07:09:08.000Z</time>
      </trkpt>
      <trkpt lat="49.35031" lon="1.01144">
        <ele>90</ele>
        <time>2019-04-07T07:09:13.000Z</time>
      </trkpt>
      <trkpt lat="49.35031" lon="1.01139">
        <ele>90</ele>
        <time>2019-04-07T07:09:15.000Z</time>
      </trkpt>
      <trkpt lat="49.35031" lon="1.01137">
        <ele>89.800003051758</ele>
        <time>2019-04-07T07:09:16.000Z</time>
      </trkpt>
      <trkpt lat="49.35032" lon="1.01135">
        <ele>89.400001525879</ele>
        <time>2019-04-07T07:09:17.000Z</time>
      </trkpt>
      <trkpt lat="49.35039" lon="1.01109">
        <ele>87.199996948242</ele>
        <time>2019-04-07T07:09:27.000Z</time>
      </trkpt>
      <trkpt lat="49.35036" lon="1.01105">
        <ele>87.599998474121</ele>
        <time>2019-04-07T07:09:29.000Z</time>
      </trkpt>
      <trkpt lat="49.35034" lon="1.01101">
        <ele>87.800003051758</ele>
        <time>2019-04-07T07:09:31.000Z</time>
      </trkpt>
      <trkpt lat="49.35031" lon="1.01096">
        <ele>88.199996948242</ele>
        <time>2019-04-07T07:09:33.000Z</time>
      </trkpt>
      <trkpt lat="49.35029" lon="1.01091">
        <ele>88.599998474121</ele>
        <time>2019-04-07T07:09:35.000Z</time>
      </trkpt>
      <trkpt lat="49.35029" lon="1.01089">
        <ele>88.599998474121</ele>
        <time>2019-04-07T07:09:36.000Z</time>
      </trkpt>
      <trkpt lat="49.35029" lon="1.01086">
        <ele>88.400001525879</ele>
        <time>2019-04-07T07:09:37.000Z</time>
      </trkpt>
      <trkpt lat="49.3503" lon="1.01083">
        <ele>88</ele>
        <time>2019-04-07T07:09:38.000Z</time>
      </trkpt>
      <trkpt lat="49.35031" lon="1.01081">
        <ele>87.800003051758</ele>
        <time>2019-04-07T07:09:39.000Z</time>
      </trkpt>
      <trkpt lat="49.35037" lon="1.01062">
        <ele>86.199996948242</ele>
        <time>2019-04-07T07:09:47.000Z</time>
      </trkpt>
      <trkpt lat="49.35049" lon="1.00982">
        <ele>88.400001525879</ele>
        <time>2019-04-07T07:10:16.000Z</time>
      </trkpt>
      <trkpt lat="49.35053" lon="1.00965">
        <ele>89.800003051758</ele>
        <time>2019-04-07T07:10:21.000Z</time>
      </trkpt>
      <trkpt lat="49.35053" lon="1.00957">
        <ele>90.400001525879</ele>
        <time>2019-04-07T07:10:23.000Z</time>
      </trkpt>
      <trkpt lat="49.35058" lon="1.00875">
        <ele>95.400001525879</ele>
        <time>2019-04-07T07:10:45.000Z</time>
      </trkpt>
      <trkpt lat="49.35058" lon="1.00867">
        <ele>96</ele>
        <time>2019-04-07T07:10:47.000Z</time>
      </trkpt>
      <trkpt lat="49.35057" lon="1.00863">
        <ele>96.400001525879</ele>
        <time>2019-04-07T07:10:48.000Z</time>
      </trkpt>
      <trkpt lat="49.35056" lon="1.00859">
        <ele>96.599998474121</ele>
        <time>2019-04-07T07:10:49.000Z</time>
      </trkpt>
      <trkpt lat="49.35052" lon="1.00847">
        <ele>97.800003051758</ele>
        <time>2019-04-07T07:10:52.000Z</time>
      </trkpt>
      <trkpt lat="49.35036" lon="1.0079">
        <ele>102.40000152588</ele>
        <time>2019-04-07T07:11:09.000Z</time>
      </trkpt>
      <trkpt lat="49.35026" lon="1.00739">
        <ele>105.80000305176</ele>
        <time>2019-04-07T07:11:26.000Z</time>
      </trkpt>
      <trkpt lat="49.35028" lon="1.00734">
        <ele>105.40000152588</ele>
        <time>2019-04-07T07:11:28.000Z</time>
      </trkpt>
      <trkpt lat="49.3505" lon="1.00701">
        <ele>100</ele>
        <time>2019-04-07T07:11:37.000Z</time>
      </trkpt>
      <trkpt lat="49.35078" lon="1.0065">
        <ele>90.199996948242</ele>
        <time>2019-04-07T07:11:50.000Z</time>
      </trkpt>
      <trkpt lat="49.35072" lon="1.0064">
        <ele>90.199996948242</ele>
        <time>2019-04-07T07:11:52.000Z</time>
      </trkpt>
      <trkpt lat="49.35061" lon="1.006">
        <ele>85.800003051758</ele>
        <time>2019-04-07T07:12:04.000Z</time>
      </trkpt>
      <trkpt lat="49.35062" lon="1.00552">
        <ele>76.599998474121</ele>
        <time>2019-04-07T07:12:12.000Z</time>
      </trkpt>
      <trkpt lat="49.35039" lon="1.00529">
        <ele>77.199996948242</ele>
        <time>2019-04-07T07:12:19.000Z</time>
      </trkpt>
      <trkpt lat="49.35033" lon="1.00524">
        <ele>77.599998474121</ele>
        <time>2019-04-07T07:12:21.000Z</time>
      </trkpt>
      <trkpt lat="49.35027" lon="1.00518">
        <ele>77.599998474121</ele>
        <time>2019-04-07T07:12:23.000Z</time>
      </trkpt>
      <trkpt lat="49.34997" lon="1.00467">
        <ele>74.199996948242</ele>
        <time>2019-04-07T07:12:33.000Z</time>
      </trkpt>
      <trkpt lat="49.3495" lon="1.00421">
        <ele>76</ele>
        <time>2019-04-07T07:12:45.000Z</time>
      </trkpt>
      <trkpt lat="49.34938" lon="1.00415">
        <ele>77.800003051758</ele>
        <time>2019-04-07T07:12:49.000Z</time>
      </trkpt>
      <trkpt lat="49.34909" lon="1.00386">
        <ele>79.400001525879</ele>
        <time>2019-04-07T07:12:59.000Z</time>
      </trkpt>
      <trkpt lat="49.34905" lon="1.00375">
        <ele>78.199996948242</ele>
        <time>2019-04-07T07:13:01.000Z</time>
      </trkpt>
      <trkpt lat="49.34883" lon="1.00347">
        <ele>77.800003051758</ele>
        <time>2019-04-07T07:13:09.000Z</time>
      </trkpt>
      <trkpt lat="49.3485" lon="1.00325">
        <ele>81.400001525879</ele>
        <time>2019-04-07T07:13:20.000Z</time>
      </trkpt>
      <trkpt lat="49.34846" lon="1.00316">
        <ele>80.400001525879</ele>
        <time>2019-04-07T07:13:22.000Z</time>
      </trkpt>
      <trkpt lat="49.34838" lon="1.00289">
        <ele>77.599998474121</ele>
        <time>2019-04-07T07:13:27.000Z</time>
      </trkpt>
      <trkpt lat="49.34801" lon="1.00228">
        <ele>78.199996948242</ele>
        <time>2019-04-07T07:13:37.000Z</time>
      </trkpt>
      <trkpt lat="49.34796" lon="1.00223">
        <ele>78.599998474121</ele>
        <time>2019-04-07T07:13:38.000Z</time>
      </trkpt>
      <trkpt lat="49.34759" lon="1.00182">
        <ele>84.400001525879</ele>
        <time>2019-04-07T07:13:45.000Z</time>
      </trkpt>
      <trkpt lat="49.34752" lon="1.00168">
        <ele>85.199996948242</ele>
        <time>2019-04-07T07:13:47.000Z</time>
      </trkpt>
      <trkpt lat="49.34736" lon="1.00097">
        <ele>76.400001525879</ele>
        <time>2019-04-07T07:13:56.000Z</time>
      </trkpt>
      <trkpt lat="49.3473" lon="1.00084">
        <ele>76</ele>
        <time>2019-04-07T07:13:58.000Z</time>
      </trkpt>
      <trkpt lat="49.34684" lon="1.00033">
        <ele>78.599998474121</ele>
        <time>2019-04-07T07:14:09.000Z</time>
      </trkpt>
      <trkpt lat="49.34643" lon="0.99969">
        <ele>79</ele>
        <time>2019-04-07T07:14:19.000Z</time>
      </trkpt>
      <trkpt lat="49.34637" lon="0.9995">
        <ele>77</ele>
        <time>2019-04-07T07:14:21.000Z</time>
      </trkpt>
      <trkpt lat="49.34627" lon="0.99896">
        <ele>70</ele>
        <time>2019-04-07T07:14:26.000Z</time>
      </trkpt>
      <trkpt lat="49.34615" lon="0.99849">
        <ele>65.800003051758</ele>
        <time>2019-04-07T07:14:30.000Z</time>
      </trkpt>
      <trkpt lat="49.34604" lon="0.9983">
        <ele>63.799999237061</ele>
        <time>2019-04-07T07:14:32.000Z</time>
      </trkpt>
      <trkpt lat="49.34564" lon="0.99778">
        <ele>60.799999237061</ele>
        <time>2019-04-07T07:14:38.000Z</time>
      </trkpt>
      <trkpt lat="49.3452" lon="0.99726">
        <ele>61</ele>
        <time>2019-04-07T07:14:45.000Z</time>
      </trkpt>
      <trkpt lat="49.34515" lon="0.99719">
        <ele>62</ele>
        <time>2019-04-07T07:14:46.000Z</time>
      </trkpt>
      <trkpt lat="49.34511" lon="0.99703">
        <ele>63.599998474121</ele>
        <time>2019-04-07T07:14:48.000Z</time>
      </trkpt>
      <trkpt lat="49.34512" lon="0.99687">
        <ele>64</ele>
        <time>2019-04-07T07:14:50.000Z</time>
      </trkpt>
      <trkpt lat="49.34511" lon="0.99634">
        <ele>65.400001525879</ele>
        <time>2019-04-07T07:15:02.000Z</time>
      </trkpt>
      <trkpt lat="49.34504" lon="0.99619">
        <ele>66</ele>
        <time>2019-04-07T07:15:06.000Z</time>
      </trkpt>
      <trkpt lat="49.34476" lon="0.99545">
        <ele>67.599998474121</ele>
        <time>2019-04-07T07:15:18.000Z</time>
      </trkpt>
      <trkpt lat="49.34452" lon="0.99468">
        <ele>67</ele>
        <time>2019-04-07T07:15:25.000Z</time>
      </trkpt>
      <trkpt lat="49.34439" lon="0.9943">
        <ele>70.199996948242</ele>
        <time>2019-04-07T07:15:29.000Z</time>
      </trkpt>
      <trkpt lat="49.34429" lon="0.99399">
        <ele>73.199996948242</ele>
        <time>2019-04-07T07:15:33.000Z</time>
      </trkpt>
      <trkpt lat="49.34411" lon="0.99347">
        <ele>71.400001525879</ele>
        <time>2019-04-07T07:15:44.000Z</time>
      </trkpt>
      <trkpt lat="49.34395" lon="0.9933">
        <ele>73.599998474121</ele>
        <time>2019-04-07T07:15:50.000Z</time>
      </trkpt>
      <trkpt lat="49.34377" lon="0.99318">
        <ele>76.199996948242</ele>
        <time>2019-04-07T07:15:56.000Z</time>
      </trkpt>
      <trkpt lat="49.3437" lon="0.99314">
        <ele>77.199996948242</ele>
        <time>2019-04-07T07:15:58.000Z</time>
      </trkpt>
      <trkpt lat="49.3432" lon="0.99272">
        <ele>85.800003051758</ele>
        <time>2019-04-07T07:16:11.000Z</time>
      </trkpt>
      <trkpt lat="49.34288" lon="0.99216">
        <ele>88.800003051758</ele>
        <time>2019-04-07T07:16:24.000Z</time>
      </trkpt>
      <trkpt lat="49.34288" lon="0.99139">
        <ele>86</ele>
        <time>2019-04-07T07:16:42.000Z</time>
      </trkpt>
      <trkpt lat="49.34294" lon="0.99086">
        <ele>82.400001525879</ele>
        <time>2019-04-07T07:16:58.000Z</time>
      </trkpt>
      <trkpt lat="49.34245" lon="0.99047">
        <ele>88.400001525879</ele>
        <time>2019-04-07T07:17:20.000Z</time>
      </trkpt>
      <trkpt lat="49.34191" lon="0.99038">
        <ele>97</ele>
        <time>2019-04-07T07:17:37.000Z</time>
      </trkpt>
      <trkpt lat="49.34158" lon="0.99027">
        <ele>105.80000305176</ele>
        <time>2019-04-07T07:17:45.000Z</time>
      </trkpt>
      <trkpt lat="49.34151" lon="0.99019">
        <ele>106.80000305176</ele>
        <time>2019-04-07T07:17:47.000Z</time>
      </trkpt>
      <trkpt lat="49.34138" lon="0.98992">
        <ele>106.19999694824</ele>
        <time>2019-04-07T07:17:52.000Z</time>
      </trkpt>
      <trkpt lat="49.34134" lon="0.9898">
        <ele>104.80000305176</ele>
        <time>2019-04-07T07:17:54.000Z</time>
      </trkpt>
      <trkpt lat="49.34128" lon="0.98929">
        <ele>105.19999694824</ele>
        <time>2019-04-07T07:18:01.000Z</time>
      </trkpt>
      <trkpt lat="49.34128" lon="0.98914">
        <ele>105</ele>
        <time>2019-04-07T07:18:03.000Z</time>
      </trkpt>
      <trkpt lat="49.34133" lon="0.98899">
        <ele>102.59999847412</ele>
        <time>2019-04-07T07:18:05.000Z</time>
      </trkpt>
      <trkpt lat="49.3414" lon="0.98885">
        <ele>99.400001525879</ele>
        <time>2019-04-07T07:18:07.000Z</time>
      </trkpt>
      <trkpt lat="49.3415" lon="0.98869">
        <ele>96.199996948242</ele>
        <time>2019-04-07T07:18:09.000Z</time>
      </trkpt>
      <trkpt lat="49.34184" lon="0.98813">
        <ele>85.800003051758</ele>
        <time>2019-04-07T07:18:15.000Z</time>
      </trkpt>
      <trkpt lat="49.34197" lon="0.98772">
        <ele>82.400001525879</ele>
        <time>2019-04-07T07:18:19.000Z</time>
      </trkpt>
      <trkpt lat="49.34195" lon="0.98751">
        <ele>84</ele>
        <time>2019-04-07T07:18:21.000Z</time>
      </trkpt>
      <trkpt lat="49.34179" lon="0.98694">
        <ele>85.400001525879</ele>
        <time>2019-04-07T07:18:27.000Z</time>
      </trkpt>
      <trkpt lat="49.34167" lon="0.98678">
        <ele>86.800003051758</ele>
        <time>2019-04-07T07:18:29.000Z</time>
      </trkpt>
      <trkpt lat="49.34154" lon="0.98667">
        <ele>88.800003051758</ele>
        <time>2019-04-07T07:18:31.000Z</time>
      </trkpt>
      <trkpt lat="49.34116" lon="0.9864">
        <ele>95.400001525879</ele>
        <time>2019-04-07T07:18:37.000Z</time>
      </trkpt>
      <trkpt lat="49.34106" lon="0.98627">
        <ele>97</ele>
        <time>2019-04-07T07:18:39.000Z</time>
      </trkpt>
      <trkpt lat="49.34098" lon="0.98609">
        <ele>97.199996948242</ele>
        <time>2019-04-07T07:18:41.000Z</time>
      </trkpt>
      <trkpt lat="49.34095" lon="0.986">
        <ele>96.800003051758</ele>
        <time>2019-04-07T07:18:42.000Z</time>
      </trkpt>
      <trkpt lat="49.34088" lon="0.98558">
        <ele>92.599998474121</ele>
        <time>2019-04-07T07:18:46.000Z</time>
      </trkpt>
      <trkpt lat="49.34089" lon="0.98534">
        <ele>92</ele>
        <time>2019-04-07T07:18:48.000Z</time>
      </trkpt>
      <trkpt lat="49.34096" lon="0.98513">
        <ele>90.400001525879</ele>
        <time>2019-04-07T07:18:50.000Z</time>
      </trkpt>
      <trkpt lat="49.34109" lon="0.98496">
        <ele>86.800003051758</ele>
        <time>2019-04-07T07:18:52.000Z</time>
      </trkpt>
      <trkpt lat="49.34123" lon="0.98482">
        <ele>83.800003051758</ele>
        <time>2019-04-07T07:18:54.000Z</time>
      </trkpt>
      <trkpt lat="49.34174" lon="0.98439">
        <ele>76.400001525879</ele>
        <time>2019-04-07T07:19:01.000Z</time>
      </trkpt>
      <trkpt lat="49.34182" lon="0.98424">
        <ele>75.599998474121</ele>
        <time>2019-04-07T07:19:03.000Z</time>
      </trkpt>
      <trkpt lat="49.3419" lon="0.98409">
        <ele>74.599998474121</ele>
        <time>2019-04-07T07:19:08.000Z</time>
      </trkpt>
      <trkpt lat="49.3419" lon="0.98407">
        <ele>74.800003051758</ele>
        <time>2019-04-07T07:19:09.000Z</time>
      </trkpt>
      <trkpt lat="49.34188" lon="0.98379">
        <ele>75.800003051758</ele>
        <time>2019-04-07T07:19:15.000Z</time>
      </trkpt>
      <trkpt lat="49.34187" lon="0.98372">
        <ele>75.800003051758</ele>
        <time>2019-04-07T07:19:16.000Z</time>
      </trkpt>
      <trkpt lat="49.34185" lon="0.9835">
        <ele>76</ele>
        <time>2019-04-07T07:19:19.000Z</time>
      </trkpt>
      <trkpt lat="49.34176" lon="0.98324">
        <ele>77.199996948242</ele>
        <time>2019-04-07T07:19:23.000Z</time>
      </trkpt>
      <trkpt lat="49.34143" lon="0.98283">
        <ele>77.599998474121</ele>
        <time>2019-04-07T07:19:32.000Z</time>
      </trkpt>
      <trkpt lat="49.3413" lon="0.98277">
        <ele>78.800003051758</ele>
        <time>2019-04-07T07:19:35.000Z</time>
      </trkpt>
      <trkpt lat="49.34095" lon="0.98265">
        <ele>85</ele>
        <time>2019-04-07T07:19:44.000Z</time>
      </trkpt>
      <trkpt lat="49.34067" lon="0.9826">
        <ele>92.199996948242</ele>
        <time>2019-04-07T07:19:54.000Z</time>
      </trkpt>
      <trkpt lat="49.34053" lon="0.98258">
        <ele>94.800003051758</ele>
        <time>2019-04-07T07:19:59.000Z</time>
      </trkpt>
      <trkpt lat="49.34034" lon="0.98252">
        <ele>97.599998474121</ele>
        <time>2019-04-07T07:20:06.000Z</time>
      </trkpt>
      <trkpt lat="49.34024" lon="0.98241">
        <ele>99.599998474121</ele>
        <time>2019-04-07T07:20:11.000Z</time>
      </trkpt>
      <trkpt lat="49.34019" lon="0.98228">
        <ele>100.19999694824</ele>
        <time>2019-04-07T07:20:15.000Z</time>
      </trkpt>
      <trkpt lat="49.34011" lon="0.98195">
        <ele>103.19999694824</ele>
        <time>2019-04-07T07:20:25.000Z</time>
      </trkpt>
      <trkpt lat="49.34014" lon="0.98189">
        <ele>102.40000152588</ele>
        <time>2019-04-07T07:20:28.000Z</time>
      </trkpt>
      <trkpt lat="49.34033" lon="0.98188">
        <ele>95.800003051758</ele>
        <time>2019-04-07T07:20:33.000Z</time>
      </trkpt>
      <trkpt lat="49.34058" lon="0.98172">
        <ele>88.599998474121</ele>
        <time>2019-04-07T07:20:39.000Z</time>
      </trkpt>
      <trkpt lat="49.34074" lon="0.98156">
        <ele>83.400001525879</ele>
        <time>2019-04-07T07:20:43.000Z</time>
      </trkpt>
      <trkpt lat="49.34078" lon="0.98151">
        <ele>82.199996948242</ele>
        <time>2019-04-07T07:20:44.000Z</time>
      </trkpt>
      <trkpt lat="49.34081" lon="0.98146">
        <ele>81</ele>
        <time>2019-04-07T07:20:45.000Z</time>
      </trkpt>
      <trkpt lat="49.34089" lon="0.98096">
        <ele>85</ele>
        <time>2019-04-07T07:20:59.000Z</time>
      </trkpt>
      <trkpt lat="49.34088" lon="0.98092">
        <ele>85.599998474121</ele>
        <time>2019-04-07T07:21:00.000Z</time>
      </trkpt>
      <trkpt lat="49.34089" lon="0.98087">
        <ele>85.599998474121</ele>
        <time>2019-04-07T07:21:02.000Z</time>
      </trkpt>
      <trkpt lat="49.3409" lon="0.98079">
        <ele>86.199996948242</ele>
        <time>2019-04-07T07:21:05.000Z</time>
      </trkpt>
      <trkpt lat="49.34089" lon="0.98073">
        <ele>87.400001525879</ele>
        <time>2019-04-07T07:21:07.000Z</time>
      </trkpt>
      <trkpt lat="49.34086" lon="0.98058">
        <ele>90.199996948242</ele>
        <time>2019-04-07T07:21:14.000Z</time>
      </trkpt>
      <trkpt lat="49.34086" lon="0.98055">
        <ele>90.400001525879</ele>
        <time>2019-04-07T07:21:15.000Z</time>
      </trkpt>
      <trkpt lat="49.34088" lon="0.98045">
        <ele>91</ele>
        <time>2019-04-07T07:21:20.000Z</time>
      </trkpt>
      <trkpt lat="49.34089" lon="0.98042">
        <ele>91</ele>
        <time>2019-04-07T07:21:21.000Z</time>
      </trkpt>
      <trkpt lat="49.34091" lon="0.98032">
        <ele>91</ele>
        <time>2019-04-07T07:21:25.000Z</time>
      </trkpt>
      <trkpt lat="49.34092" lon="0.98022">
        <ele>91.400001525879</ele>
        <time>2019-04-07T07:21:29.000Z</time>
      </trkpt>
      <trkpt lat="49.34092" lon="0.98006">
        <ele>92.199996948242</ele>
        <time>2019-04-07T07:21:34.000Z</time>
      </trkpt>
      <trkpt lat="49.34093" lon="0.97986">
        <ele>92.800003051758</ele>
        <time>2019-04-07T07:21:40.000Z</time>
      </trkpt>
      <trkpt lat="49.34061" lon="0.97937">
        <ele>105</ele>
        <time>2019-04-07T07:22:11.000Z</time>
      </trkpt>
      <trkpt lat="49.34044" lon="0.97919">
        <ele>111.19999694824</ele>
        <time>2019-04-07T07:22:24.000Z</time>
      </trkpt>
      <trkpt lat="49.34001" lon="0.97871">
        <ele>117.80000305176</ele>
        <time>2019-04-07T07:22:53.000Z</time>
      </trkpt>
      <trkpt lat="49.33972" lon="0.97834">
        <ele>119.40000152588</ele>
        <time>2019-04-07T07:23:15.000Z</time>
      </trkpt>
      <trkpt lat="49.33971" lon="0.97831">
        <ele>119.19999694824</ele>
        <time>2019-04-07T07:23:17.000Z</time>
      </trkpt>
      <trkpt lat="49.33955" lon="0.97795">
        <ele>119</ele>
        <time>2019-04-07T07:23:36.000Z</time>
      </trkpt>
      <trkpt lat="49.33949" lon="0.97782">
        <ele>120.19999694824</ele>
        <time>2019-04-07T07:23:43.000Z</time>
      </trkpt>
      <trkpt lat="49.33945" lon="0.97777">
        <ele>120.40000152588</ele>
        <time>2019-04-07T07:23:55.000Z</time>
      </trkpt>
      <trkpt lat="49.3394" lon="0.97777">
        <ele>120.19999694824</ele>
        <time>2019-04-07T07:23:59.000Z</time>
      </trkpt>
      <trkpt lat="49.33936" lon="0.97777">
        <ele>120</ele>
        <time>2019-04-07T07:24:02.000Z</time>
      </trkpt>
      <trkpt lat="49.3393" lon="0.97766">
        <ele>119.59999847412</ele>
        <time>2019-04-07T07:24:12.000Z</time>
      </trkpt>
      <trkpt lat="49.33921" lon="0.97734">
        <ele>118.80000305176</ele>
        <time>2019-04-07T07:24:23.000Z</time>
      </trkpt>
      <trkpt lat="49.33889" lon="0.97736">
        <ele>117.40000152588</ele>
        <time>2019-04-07T07:24:41.000Z</time>
      </trkpt>
      <trkpt lat="49.33887" lon="0.97733">
        <ele>117.19999694824</ele>
        <time>2019-04-07T07:24:43.000Z</time>
      </trkpt>
      <trkpt lat="49.33863" lon="0.97658">
        <ele>119.80000305176</ele>
        <time>2019-04-07T07:25:08.000Z</time>
      </trkpt>
      <trkpt lat="49.33861" lon="0.97647">
        <ele>120.40000152588</ele>
        <time>2019-04-07T07:25:11.000Z</time>
      </trkpt>
      <trkpt lat="49.33859" lon="0.97624">
        <ele>121.19999694824</ele>
        <time>2019-04-07T07:25:18.000Z</time>
      </trkpt>
      <trkpt lat="49.33856" lon="0.97612">
        <ele>121.19999694824</ele>
        <time>2019-04-07T07:25:22.000Z</time>
      </trkpt>
      <trkpt lat="49.33849" lon="0.97583">
        <ele>121.59999847412</ele>
        <time>2019-04-07T07:25:32.000Z</time>
      </trkpt>
      <trkpt lat="49.33851" lon="0.97553">
        <ele>122.80000305176</ele>
        <time>2019-04-07T07:25:41.000Z</time>
      </trkpt>
      <trkpt lat="49.3385" lon="0.97542">
        <ele>123.19999694824</ele>
        <time>2019-04-07T07:25:44.000Z</time>
      </trkpt>
      <trkpt lat="49.33844" lon="0.97507">
        <ele>122.40000152588</ele>
        <time>2019-04-07T07:25:53.000Z</time>
      </trkpt>
      <trkpt lat="49.33848" lon="0.97476">
        <ele>122.19999694824</ele>
        <time>2019-04-07T07:26:00.000Z</time>
      </trkpt>
      <trkpt lat="49.33846" lon="0.97459">
        <ele>123</ele>
        <time>2019-04-07T07:26:03.000Z</time>
      </trkpt>
      <trkpt lat="49.33839" lon="0.97433">
        <ele>123</ele>
        <time>2019-04-07T07:26:08.000Z</time>
      </trkpt>
      <trkpt lat="49.3384" lon="0.97424">
        <ele>122.59999847412</ele>
        <time>2019-04-07T07:26:10.000Z</time>
      </trkpt>
      <trkpt lat="49.33842" lon="0.97414">
        <ele>122.40000152588</ele>
        <time>2019-04-07T07:26:12.000Z</time>
      </trkpt>
      <trkpt lat="49.33841" lon="0.97374">
        <ele>122</ele>
        <time>2019-04-07T07:26:19.000Z</time>
      </trkpt>
      <trkpt lat="49.33849" lon="0.97324">
        <ele>121.80000305176</ele>
        <time>2019-04-07T07:26:31.000Z</time>
      </trkpt>
      <trkpt lat="49.3385" lon="0.97319">
        <ele>121.59999847412</ele>
        <time>2019-04-07T07:26:32.000Z</time>
      </trkpt>
      <trkpt lat="49.33856" lon="0.97289">
        <ele>120.80000305176</ele>
        <time>2019-04-07T07:26:39.000Z</time>
      </trkpt>
      <trkpt lat="49.33857" lon="0.97287">
        <ele>120.80000305176</ele>
        <time>2019-04-07T07:26:40.000Z</time>
      </trkpt>
      <trkpt lat="49.33862" lon="0.97271">
        <ele>120.19999694824</ele>
        <time>2019-04-07T07:26:47.000Z</time>
      </trkpt>
      <trkpt lat="49.33874" lon="0.97255">
        <ele>116.40000152588</ele>
        <time>2019-04-07T07:26:53.000Z</time>
      </trkpt>
      <trkpt lat="49.33889" lon="0.97239">
        <ele>112.40000152588</ele>
        <time>2019-04-07T07:26:58.000Z</time>
      </trkpt>
      <trkpt lat="49.33895" lon="0.97229">
        <ele>112.19999694824</ele>
        <time>2019-04-07T07:27:00.000Z</time>
      </trkpt>
      <trkpt lat="49.33904" lon="0.9721">
        <ele>110.80000305176</ele>
        <time>2019-04-07T07:27:05.000Z</time>
      </trkpt>
      <trkpt lat="49.33906" lon="0.97202">
        <ele>110.19999694824</ele>
        <time>2019-04-07T07:27:08.000Z</time>
      </trkpt>
      <trkpt lat="49.33906" lon="0.972">
        <ele>110.19999694824</ele>
        <time>2019-04-07T07:27:09.000Z</time>
      </trkpt>
      <trkpt lat="49.33888" lon="0.97166">
        <ele>113.40000152588</ele>
        <time>2019-04-07T07:27:16.000Z</time>
      </trkpt>
      <trkpt lat="49.33873" lon="0.97126">
        <ele>114.80000305176</ele>
        <time>2019-04-07T07:27:23.000Z</time>
      </trkpt>
      <trkpt lat="49.33871" lon="0.97117">
        <ele>114.59999847412</ele>
        <time>2019-04-07T07:27:24.000Z</time>
      </trkpt>
      <trkpt lat="49.33869" lon="0.97099">
        <ele>113.80000305176</ele>
        <time>2019-04-07T07:27:26.000Z</time>
      </trkpt>
      <trkpt lat="49.33869" lon="0.97076">
        <ele>112.19999694824</ele>
        <time>2019-04-07T07:27:28.000Z</time>
      </trkpt>
      <trkpt lat="49.33867" lon="0.9703">
        <ele>110.80000305176</ele>
        <time>2019-04-07T07:27:33.000Z</time>
      </trkpt>
      <trkpt lat="49.33868" lon="0.97012">
        <ele>109.80000305176</ele>
        <time>2019-04-07T07:27:36.000Z</time>
      </trkpt>
      <trkpt lat="49.3387" lon="0.97003">
        <ele>109.19999694824</ele>
        <time>2019-04-07T07:27:38.000Z</time>
      </trkpt>
      <trkpt lat="49.33876" lon="0.9695">
        <ele>107.19999694824</ele>
        <time>2019-04-07T07:27:54.000Z</time>
      </trkpt>
      <trkpt lat="49.33878" lon="0.96946">
        <ele>106.80000305176</ele>
        <time>2019-04-07T07:27:56.000Z</time>
      </trkpt>
      <trkpt lat="49.3388" lon="0.96941">
        <ele>106.40000152588</ele>
        <time>2019-04-07T07:27:58.000Z</time>
      </trkpt>
      <trkpt lat="49.33881" lon="0.96938">
        <ele>106.19999694824</ele>
        <time>2019-04-07T07:27:59.000Z</time>
      </trkpt>
      <trkpt lat="49.33883" lon="0.96931">
        <ele>105.80000305176</ele>
        <time>2019-04-07T07:28:01.000Z</time>
      </trkpt>
      <trkpt lat="49.33908" lon="0.96862">
        <ele>104</ele>
        <time>2019-04-07T07:28:23.000Z</time>
      </trkpt>
      <trkpt lat="49.33909" lon="0.96859">
        <ele>104</ele>
        <time>2019-04-07T07:28:24.000Z</time>
      </trkpt>
      <trkpt lat="49.33909" lon="0.96854">
        <ele>104</ele>
        <time>2019-04-07T07:28:25.000Z</time>
      </trkpt>
      <trkpt lat="49.33903" lon="0.96805">
        <ele>104.40000152588</ele>
        <time>2019-04-07T07:28:33.000Z</time>
      </trkpt>
      <trkpt lat="49.33902" lon="0.96797">
        <ele>104.19999694824</ele>
        <time>2019-04-07T07:28:34.000Z</time>
      </trkpt>
      <trkpt lat="49.33898" lon="0.96772">
        <ele>103.59999847412</ele>
        <time>2019-04-07T07:28:37.000Z</time>
      </trkpt>
      <trkpt lat="49.33899" lon="0.96747">
        <ele>102</ele>
        <time>2019-04-07T07:28:41.000Z</time>
      </trkpt>
      <trkpt lat="49.33902" lon="0.96724">
        <ele>99.400001525879</ele>
        <time>2019-04-07T07:28:44.000Z</time>
      </trkpt>
      <trkpt lat="49.33902" lon="0.96715">
        <ele>99.400001525879</ele>
        <time>2019-04-07T07:28:45.000Z</time>
      </trkpt>
      <trkpt lat="49.33901" lon="0.96632">
        <ele>99.400001525879</ele>
        <time>2019-04-07T07:29:25.000Z</time>
      </trkpt>
      <trkpt lat="49.33902" lon="0.96621">
        <ele>99.599998474121</ele>
        <time>2019-04-07T07:29:32.000Z</time>
      </trkpt>
      <trkpt lat="49.33913" lon="0.96582">
        <ele>100.40000152588</ele>
        <time>2019-04-07T07:29:53.000Z</time>
      </trkpt>
      <trkpt lat="49.33923" lon="0.96547">
        <ele>102.19999694824</ele>
        <time>2019-04-07T07:30:09.000Z</time>
      </trkpt>
      <trkpt lat="49.33924" lon="0.96546">
        <ele>102</ele>
        <time>2019-04-07T07:30:10.000Z</time>
      </trkpt>
      <trkpt lat="49.33924" lon="0.96545">
        <ele>101.80000305176</ele>
        <time>2019-04-07T07:30:11.000Z</time>
      </trkpt>
      <trkpt lat="49.33927" lon="0.96532">
        <ele>102.19999694824</ele>
        <time>2019-04-07T07:30:24.000Z</time>
      </trkpt>
      <trkpt lat="49.33928" lon="0.96529">
        <ele>102.59999847412</ele>
        <time>2019-04-07T07:30:28.000Z</time>
      </trkpt>
      <trkpt lat="49.33929" lon="0.96528">
        <ele>102.59999847412</ele>
        <time>2019-04-07T07:30:32.000Z</time>
      </trkpt>
      <trkpt lat="49.33928" lon="0.96528">
        <ele>102.59999847412</ele>
        <time>2019-04-07T07:30:33.000Z</time>
      </trkpt>
      <trkpt lat="49.33926" lon="0.96517">
        <ele>104</ele>
        <time>2019-04-07T07:30:45.000Z</time>
      </trkpt>
      <trkpt lat="49.33927" lon="0.96511">
        <ele>104.59999847412</ele>
        <time>2019-04-07T07:30:49.000Z</time>
      </trkpt>
      <trkpt lat="49.3393" lon="0.96507">
        <ele>104.80000305176</ele>
        <time>2019-04-07T07:30:53.000Z</time>
      </trkpt>
      <trkpt lat="49.33932" lon="0.96504">
        <ele>104.80000305176</ele>
        <time>2019-04-07T07:30:56.000Z</time>
      </trkpt>
      <trkpt lat="49.33933" lon="0.96504">
        <ele>104.80000305176</ele>
        <time>2019-04-07T07:30:57.000Z</time>
      </trkpt>
      <trkpt lat="49.33934" lon="0.96503">
        <ele>105</ele>
        <time>2019-04-07T07:30:58.000Z</time>
      </trkpt>
      <trkpt lat="49.33936" lon="0.96499">
        <ele>105.19999694824</ele>
        <time>2019-04-07T07:31:00.000Z</time>
      </trkpt>
      <trkpt lat="49.33938" lon="0.96494">
        <ele>105.59999847412</ele>
        <time>2019-04-07T07:31:02.000Z</time>
      </trkpt>
      <trkpt lat="49.33938" lon="0.96492">
        <ele>105.80000305176</ele>
        <time>2019-04-07T07:31:03.000Z</time>
      </trkpt>
      <trkpt lat="49.3394" lon="0.96481">
        <ele>106.80000305176</ele>
        <time>2019-04-07T07:31:08.000Z</time>
      </trkpt>
      <trkpt lat="49.33949" lon="0.96436">
        <ele>107.59999847412</ele>
        <time>2019-04-07T07:31:19.000Z</time>
      </trkpt>
      <trkpt lat="49.33954" lon="0.96394">
        <ele>107.59999847412</ele>
        <time>2019-04-07T07:31:25.000Z</time>
      </trkpt>
      <trkpt lat="49.33954" lon="0.96378">
        <ele>106.40000152588</ele>
        <time>2019-04-07T07:31:27.000Z</time>
      </trkpt>
      <trkpt lat="49.33957" lon="0.96361">
        <ele>104.19999694824</ele>
        <time>2019-04-07T07:31:29.000Z</time>
      </trkpt>
      <trkpt lat="49.33965" lon="0.96323">
        <ele>99</ele>
        <time>2019-04-07T07:31:35.000Z</time>
      </trkpt>
      <trkpt lat="49.33967" lon="0.96302">
        <ele>97.599998474121</ele>
        <time>2019-04-07T07:31:38.000Z</time>
      </trkpt>
      <trkpt lat="49.33973" lon="0.96287">
        <ele>95.199996948242</ele>
        <time>2019-04-07T07:31:40.000Z</time>
      </trkpt>
      <trkpt lat="49.33978" lon="0.96256">
        <ele>90.800003051758</ele>
        <time>2019-04-07T07:31:43.000Z</time>
      </trkpt>
      <trkpt lat="49.33979" lon="0.96237">
        <ele>89.400001525879</ele>
        <time>2019-04-07T07:31:45.000Z</time>
      </trkpt>
      <trkpt lat="49.33979" lon="0.96229">
        <ele>89</ele>
        <time>2019-04-07T07:31:46.000Z</time>
      </trkpt>
      <trkpt lat="49.3398" lon="0.96216">
        <ele>88.199996948242</ele>
        <time>2019-04-07T07:31:48.000Z</time>
      </trkpt>
      <trkpt lat="49.33982" lon="0.96201">
        <ele>87.400001525879</ele>
        <time>2019-04-07T07:31:50.000Z</time>
      </trkpt>
      <trkpt lat="49.33979" lon="0.96186">
        <ele>86.800003051758</ele>
        <time>2019-04-07T07:31:52.000Z</time>
      </trkpt>
      <trkpt lat="49.33974" lon="0.96181">
        <ele>87</ele>
        <time>2019-04-07T07:31:54.000Z</time>
      </trkpt>
      <trkpt lat="49.33919" lon="0.96221">
        <ele>90.599998474121</ele>
        <time>2019-04-07T07:32:15.000Z</time>
      </trkpt>
      <trkpt lat="49.33915" lon="0.96222">
        <ele>90.599998474121</ele>
        <time>2019-04-07T07:32:16.000Z</time>
      </trkpt>
      <trkpt lat="49.33891" lon="0.9624">
        <ele>92.199996948242</ele>
        <time>2019-04-07T07:32:20.000Z</time>
      </trkpt>
      <trkpt lat="49.33886" lon="0.96244">
        <ele>92.599998474121</ele>
        <time>2019-04-07T07:32:21.000Z</time>
      </trkpt>
      <trkpt lat="49.33867" lon="0.96258">
        <ele>94.400001525879</ele>
        <time>2019-04-07T07:32:25.000Z</time>
      </trkpt>
      <trkpt lat="49.33862" lon="0.9626">
        <ele>94.800003051758</ele>
        <time>2019-04-07T07:32:26.000Z</time>
      </trkpt>
      <trkpt lat="49.33838" lon="0.96277">
        <ele>97.599998474121</ele>
        <time>2019-04-07T07:32:31.000Z</time>
      </trkpt>
      <trkpt lat="49.33829" lon="0.96281">
        <ele>98</ele>
        <time>2019-04-07T07:32:33.000Z</time>
      </trkpt>
      <trkpt lat="49.33824" lon="0.9628">
        <ele>97.800003051758</ele>
        <time>2019-04-07T07:32:34.000Z</time>
      </trkpt>
      <trkpt lat="49.33821" lon="0.96276">
        <ele>97.400001525879</ele>
        <time>2019-04-07T07:32:35.000Z</time>
      </trkpt>
      <trkpt lat="49.3382" lon="0.96261">
        <ele>95.800003051758</ele>
        <time>2019-04-07T07:32:38.000Z</time>
      </trkpt>
      <trkpt lat="49.33826" lon="0.9625">
        <ele>94.400001525879</ele>
        <time>2019-04-07T07:32:40.000Z</time>
      </trkpt>
      <trkpt lat="49.33858" lon="0.96212">
        <ele>89.400001525879</ele>
        <time>2019-04-07T07:32:47.000Z</time>
      </trkpt>
      <trkpt lat="49.33863" lon="0.96198">
        <ele>88.800003051758</ele>
        <time>2019-04-07T07:32:49.000Z</time>
      </trkpt>
      <trkpt lat="49.33873" lon="0.96126">
        <ele>85.199996948242</ele>
        <time>2019-04-07T07:32:59.000Z</time>
      </trkpt>
      <trkpt lat="49.33869" lon="0.96105">
        <ele>83.800003051758</ele>
        <time>2019-04-07T07:33:03.000Z</time>
      </trkpt>
      <trkpt lat="49.3387" lon="0.96101">
        <ele>83.599998474121</ele>
        <time>2019-04-07T07:33:04.000Z</time>
      </trkpt>
      <trkpt lat="49.33872" lon="0.96093">
        <ele>83.199996948242</ele>
        <time>2019-04-07T07:33:07.000Z</time>
      </trkpt>
      <trkpt lat="49.33872" lon="0.96089">
        <ele>83</ele>
        <time>2019-04-07T07:33:08.000Z</time>
      </trkpt>
      <trkpt lat="49.33871" lon="0.96085">
        <ele>82.800003051758</ele>
        <time>2019-04-07T07:33:09.000Z</time>
      </trkpt>
      <trkpt lat="49.33869" lon="0.96078">
        <ele>82.199996948242</ele>
        <time>2019-04-07T07:33:11.000Z</time>
      </trkpt>
      <trkpt lat="49.33867" lon="0.96073">
        <ele>82</ele>
        <time>2019-04-07T07:33:12.000Z</time>
      </trkpt>
      <trkpt lat="49.33864" lon="0.96062">
        <ele>81.199996948242</ele>
        <time>2019-04-07T07:33:14.000Z</time>
      </trkpt>
      <trkpt lat="49.33864" lon="0.96056">
        <ele>81</ele>
        <time>2019-04-07T07:33:15.000Z</time>
      </trkpt>
      <trkpt lat="49.3387" lon="0.96036">
        <ele>80.599998474121</ele>
        <time>2019-04-07T07:33:21.000Z</time>
      </trkpt>
      <trkpt lat="49.33872" lon="0.9603">
        <ele>80.400001525879</ele>
        <time>2019-04-07T07:33:23.000Z</time>
      </trkpt>
      <trkpt lat="49.33873" lon="0.95946">
        <ele>79.800003051758</ele>
        <time>2019-04-07T07:33:44.000Z</time>
      </trkpt>
      <trkpt lat="49.33871" lon="0.95933">
        <ele>79.800003051758</ele>
        <time>2019-04-07T07:33:47.000Z</time>
      </trkpt>
      <trkpt lat="49.33864" lon="0.95846">
        <ele>81.199996948242</ele>
        <time>2019-04-07T07:34:03.000Z</time>
      </trkpt>
      <trkpt lat="49.33862" lon="0.95763">
        <ele>82.800003051758</ele>
        <time>2019-04-07T07:34:18.000Z</time>
      </trkpt>
      <trkpt lat="49.33861" lon="0.95686">
        <ele>85.599998474121</ele>
        <time>2019-04-07T07:34:39.000Z</time>
      </trkpt>
      <trkpt lat="49.33863" lon="0.95664">
        <ele>87.400001525879</ele>
        <time>2019-04-07T07:34:45.000Z</time>
      </trkpt>
      <trkpt lat="49.33865" lon="0.95642">
        <ele>89.199996948242</ele>
        <time>2019-04-07T07:34:52.000Z</time>
      </trkpt>
      <trkpt lat="49.33861" lon="0.95612">
        <ele>90.599998474121</ele>
        <time>2019-04-07T07:35:01.000Z</time>
      </trkpt>
      <trkpt lat="49.33838" lon="0.95535">
        <ele>89.599998474121</ele>
        <time>2019-04-07T07:35:21.000Z</time>
      </trkpt>
      <trkpt lat="49.33829" lon="0.9547">
        <ele>87.599998474121</ele>
        <time>2019-04-07T07:35:33.000Z</time>
      </trkpt>
      <trkpt lat="49.3383" lon="0.95386">
        <ele>90</ele>
        <time>2019-04-07T07:35:47.000Z</time>
      </trkpt>
      <trkpt lat="49.33829" lon="0.95367">
        <ele>89.800003051758</ele>
        <time>2019-04-07T07:35:50.000Z</time>
      </trkpt>
      <trkpt lat="49.33823" lon="0.95283">
        <ele>91.400001525879</ele>
        <time>2019-04-07T07:36:04.000Z</time>
      </trkpt>
      <trkpt lat="49.33814" lon="0.952">
        <ele>92.800003051758</ele>
        <time>2019-04-07T07:36:17.000Z</time>
      </trkpt>
      <trkpt lat="49.33813" lon="0.95156">
        <ele>94.599998474121</ele>
        <time>2019-04-07T07:36:24.000Z</time>
      </trkpt>
      <trkpt lat="49.33813" lon="0.95142">
        <ele>95.199996948242</ele>
        <time>2019-04-07T07:36:26.000Z</time>
      </trkpt>
      <trkpt lat="49.33814" lon="0.95128">
        <ele>96</ele>
        <time>2019-04-07T07:36:28.000Z</time>
      </trkpt>
      <trkpt lat="49.33817" lon="0.95114">
        <ele>97.199996948242</ele>
        <time>2019-04-07T07:36:30.000Z</time>
      </trkpt>
      <trkpt lat="49.33837" lon="0.95073">
        <ele>102.40000152588</ele>
        <time>2019-04-07T07:36:38.000Z</time>
      </trkpt>
      <trkpt lat="49.33841" lon="0.95069">
        <ele>103.19999694824</ele>
        <time>2019-04-07T07:36:39.000Z</time>
      </trkpt>
      <trkpt lat="49.33849" lon="0.95054">
        <ele>104.80000305176</ele>
        <time>2019-04-07T07:36:42.000Z</time>
      </trkpt>
      <trkpt lat="49.33869" lon="0.95032">
        <ele>106.19999694824</ele>
        <time>2019-04-07T07:36:48.000Z</time>
      </trkpt>
      <trkpt lat="49.33896" lon="0.94962">
        <ele>101.80000305176</ele>
        <time>2019-04-07T07:37:10.000Z</time>
      </trkpt>
      <trkpt lat="49.33907" lon="0.94878">
        <ele>105.19999694824</ele>
        <time>2019-04-07T07:37:26.000Z</time>
      </trkpt>
      <trkpt lat="49.33915" lon="0.94797">
        <ele>110.80000305176</ele>
        <time>2019-04-07T07:37:48.000Z</time>
      </trkpt>
      <trkpt lat="49.33916" lon="0.94781">
        <ele>112</ele>
        <time>2019-04-07T07:37:54.000Z</time>
      </trkpt>
      <trkpt lat="49.33916" lon="0.94779">
        <ele>112.19999694824</ele>
        <time>2019-04-07T07:37:55.000Z</time>
      </trkpt>
      <trkpt lat="49.33915" lon="0.94775">
        <ele>112.59999847412</ele>
        <time>2019-04-07T07:37:57.000Z</time>
      </trkpt>
      <trkpt lat="49.33909" lon="0.94772">
        <ele>112.59999847412</ele>
        <time>2019-04-07T07:38:00.000Z</time>
      </trkpt>
      <trkpt lat="49.33894" lon="0.94756">
        <ele>113.40000152588</ele>
        <time>2019-04-07T07:38:07.000Z</time>
      </trkpt>
      <trkpt lat="49.33893" lon="0.94746">
        <ele>114.19999694824</ele>
        <time>2019-04-07T07:38:10.000Z</time>
      </trkpt>
      <trkpt lat="49.33894" lon="0.94663">
        <ele>117.59999847412</ele>
        <time>2019-04-07T07:38:32.000Z</time>
      </trkpt>
      <trkpt lat="49.33895" lon="0.94645">
        <ele>118.40000152588</ele>
        <time>2019-04-07T07:38:37.000Z</time>
      </trkpt>
      <trkpt lat="49.33892" lon="0.94642">
        <ele>118.19999694824</ele>
        <time>2019-04-07T07:38:39.000Z</time>
      </trkpt>
      <trkpt lat="49.33887" lon="0.9464">
        <ele>118.19999694824</ele>
        <time>2019-04-07T07:38:41.000Z</time>
      </trkpt>
      <trkpt lat="49.33885" lon="0.94576">
        <ele>127.80000305176</ele>
        <time>2019-04-07T07:38:57.000Z</time>
      </trkpt>
      <trkpt lat="49.33898" lon="0.94491">
        <ele>130.60000610352</ele>
        <time>2019-04-07T07:39:14.000Z</time>
      </trkpt>
      <trkpt lat="49.33913" lon="0.94409">
        <ele>128.80000305176</ele>
        <time>2019-04-07T07:39:30.000Z</time>
      </trkpt>
      <trkpt lat="49.33921" lon="0.94366">
        <ele>127.40000152588</ele>
        <time>2019-04-07T07:39:37.000Z</time>
      </trkpt>
      <trkpt lat="49.33927" lon="0.94322">
        <ele>127.59999847412</ele>
        <time>2019-04-07T07:39:43.000Z</time>
      </trkpt>
      <trkpt lat="49.33938" lon="0.94271">
        <ele>127.80000305176</ele>
        <time>2019-04-07T07:39:51.000Z</time>
      </trkpt>
      <trkpt lat="49.33946" lon="0.94217">
        <ele>128.19999694824</ele>
        <time>2019-04-07T07:39:59.000Z</time>
      </trkpt>
      <trkpt lat="49.33948" lon="0.94201">
        <ele>128.19999694824</ele>
        <time>2019-04-07T07:40:01.000Z</time>
      </trkpt>
      <trkpt lat="49.33958" lon="0.94117">
        <ele>130.60000610352</ele>
        <time>2019-04-07T07:40:12.000Z</time>
      </trkpt>
      <trkpt lat="49.33974" lon="0.94034">
        <ele>134</ele>
        <time>2019-04-07T07:40:23.000Z</time>
      </trkpt>
      <trkpt lat="49.33985" lon="0.9398">
        <ele>133.39999389648</ele>
        <time>2019-04-07T07:40:30.000Z</time>
      </trkpt>
      <trkpt lat="49.33996" lon="0.93897">
        <ele>131.19999694824</ele>
        <time>2019-04-07T07:40:40.000Z</time>
      </trkpt>
      <trkpt lat="49.34006" lon="0.93833">
        <ele>133</ele>
        <time>2019-04-07T07:40:48.000Z</time>
      </trkpt>
      <trkpt lat="49.34022" lon="0.93746">
        <ele>135.39999389648</ele>
        <time>2019-04-07T07:40:59.000Z</time>
      </trkpt>
      <trkpt lat="49.34028" lon="0.93706">
        <ele>136</ele>
        <time>2019-04-07T07:41:04.000Z</time>
      </trkpt>
      <trkpt lat="49.34034" lon="0.93664">
        <ele>136.60000610352</ele>
        <time>2019-04-07T07:41:09.000Z</time>
      </trkpt>
      <trkpt lat="49.34048" lon="0.93583">
        <ele>135.39999389648</ele>
        <time>2019-04-07T07:41:19.000Z</time>
      </trkpt>
      <trkpt lat="49.34051" lon="0.93558">
        <ele>134.80000305176</ele>
        <time>2019-04-07T07:41:22.000Z</time>
      </trkpt>
      <trkpt lat="49.34063" lon="0.93472">
        <ele>133.80000305176</ele>
        <time>2019-04-07T07:41:33.000Z</time>
      </trkpt>
      <trkpt lat="49.34066" lon="0.93448">
        <ele>132.39999389648</ele>
        <time>2019-04-07T07:41:36.000Z</time>
      </trkpt>
      <trkpt lat="49.34079" lon="0.93362">
        <ele>132.80000305176</ele>
        <time>2019-04-07T07:41:47.000Z</time>
      </trkpt>
      <trkpt lat="49.34083" lon="0.93336">
        <ele>133.19999694824</ele>
        <time>2019-04-07T07:41:50.000Z</time>
      </trkpt>
      <trkpt lat="49.34095" lon="0.9325">
        <ele>133.39999389648</ele>
        <time>2019-04-07T07:42:00.000Z</time>
      </trkpt>
      <trkpt lat="49.34106" lon="0.93181">
        <ele>132</ele>
        <time>2019-04-07T07:42:08.000Z</time>
      </trkpt>
      <trkpt lat="49.34119" lon="0.931">
        <ele>128.19999694824</ele>
        <time>2019-04-07T07:42:17.000Z</time>
      </trkpt>
      <trkpt lat="49.34133" lon="0.93018">
        <ele>125.40000152588</ele>
        <time>2019-04-07T07:42:26.000Z</time>
      </trkpt>
      <trkpt lat="49.34139" lon="0.92975">
        <ele>124.19999694824</ele>
        <time>2019-04-07T07:42:31.000Z</time>
      </trkpt>
      <trkpt lat="49.34139" lon="0.9296">
        <ele>124</ele>
        <time>2019-04-07T07:42:33.000Z</time>
      </trkpt>
      <trkpt lat="49.34128" lon="0.9294">
        <ele>124.59999847412</ele>
        <time>2019-04-07T07:42:36.000Z</time>
      </trkpt>
      <trkpt lat="49.34123" lon="0.92935">
        <ele>124.80000305176</ele>
        <time>2019-04-07T07:42:37.000Z</time>
      </trkpt>
      <trkpt lat="49.34106" lon="0.92911">
        <ele>125.19999694824</ele>
        <time>2019-04-07T07:42:41.000Z</time>
      </trkpt>
      <trkpt lat="49.34099" lon="0.929">
        <ele>125.19999694824</ele>
        <time>2019-04-07T07:42:43.000Z</time>
      </trkpt>
      <trkpt lat="49.34092" lon="0.92888">
        <ele>125</ele>
        <time>2019-04-07T07:42:45.000Z</time>
      </trkpt>
      <trkpt lat="49.3409" lon="0.92869">
        <ele>125.19999694824</ele>
        <time>2019-04-07T07:42:48.000Z</time>
      </trkpt>
      <trkpt lat="49.3409" lon="0.92857">
        <ele>125</ele>
        <time>2019-04-07T07:42:50.000Z</time>
      </trkpt>
      <trkpt lat="49.34089" lon="0.92822">
        <ele>124.19999694824</ele>
        <time>2019-04-07T07:42:57.000Z</time>
      </trkpt>
      <trkpt lat="49.34079" lon="0.92807">
        <ele>124.19999694824</ele>
        <time>2019-04-07T07:43:01.000Z</time>
      </trkpt>
      <trkpt lat="49.34063" lon="0.92723">
        <ele>124.19999694824</ele>
        <time>2019-04-07T07:43:21.000Z</time>
      </trkpt>
      <trkpt lat="49.34063" lon="0.92716">
        <ele>124</ele>
        <time>2019-04-07T07:43:22.000Z</time>
      </trkpt>
      <trkpt lat="49.34063" lon="0.927">
        <ele>123.40000152588</ele>
        <time>2019-04-07T07:43:24.000Z</time>
      </trkpt>
      <trkpt lat="49.34061" lon="0.92667">
        <ele>122.19999694824</ele>
        <time>2019-04-07T07:43:28.000Z</time>
      </trkpt>
      <trkpt lat="49.34064" lon="0.92614">
        <ele>120.80000305176</ele>
        <time>2019-04-07T07:43:34.000Z</time>
      </trkpt>
      <trkpt lat="49.34061" lon="0.92589">
        <ele>120.59999847412</ele>
        <time>2019-04-07T07:43:37.000Z</time>
      </trkpt>
      <trkpt lat="49.34047" lon="0.92545">
        <ele>119.19999694824</ele>
        <time>2019-04-07T07:43:43.000Z</time>
      </trkpt>
      <trkpt lat="49.34033" lon="0.92523">
        <ele>118.80000305176</ele>
        <time>2019-04-07T07:43:47.000Z</time>
      </trkpt>
      <trkpt lat="49.33993" lon="0.92458">
        <ele>116.80000305176</ele>
        <time>2019-04-07T07:43:56.000Z</time>
      </trkpt>
      <trkpt lat="49.33985" lon="0.92444">
        <ele>116.40000152588</ele>
        <time>2019-04-07T07:43:58.000Z</time>
      </trkpt>
      <trkpt lat="49.33941" lon="0.92396">
        <ele>115.59999847412</ele>
        <time>2019-04-07T07:44:08.000Z</time>
      </trkpt>
      <trkpt lat="49.33928" lon="0.92379">
        <ele>115.40000152588</ele>
        <time>2019-04-07T07:44:11.000Z</time>
      </trkpt>
      <trkpt lat="49.33916" lon="0.92354">
        <ele>115</ele>
        <time>2019-04-07T07:44:15.000Z</time>
      </trkpt>
      <trkpt lat="49.33907" lon="0.92315">
        <ele>112.59999847412</ele>
        <time>2019-04-07T07:44:21.000Z</time>
      </trkpt>
      <trkpt lat="49.33902" lon="0.92296">
        <ele>112.19999694824</ele>
        <time>2019-04-07T07:44:23.000Z</time>
      </trkpt>
      <trkpt lat="49.33896" lon="0.9228">
        <ele>112.59999847412</ele>
        <time>2019-04-07T07:44:25.000Z</time>
      </trkpt>
      <trkpt lat="49.33877" lon="0.92219">
        <ele>112</ele>
        <time>2019-04-07T07:44:36.000Z</time>
      </trkpt>
      <trkpt lat="49.33844" lon="0.92155">
        <ele>107.40000152588</ele>
        <time>2019-04-07T07:44:53.000Z</time>
      </trkpt>
      <trkpt lat="49.33797" lon="0.9211">
        <ele>105.59999847412</ele>
        <time>2019-04-07T07:45:10.000Z</time>
      </trkpt>
      <trkpt lat="49.33792" lon="0.92107">
        <ele>105.59999847412</ele>
        <time>2019-04-07T07:45:11.000Z</time>
      </trkpt>
      <trkpt lat="49.33767" lon="0.92096">
        <ele>104.40000152588</ele>
        <time>2019-04-07T07:45:16.000Z</time>
      </trkpt>
      <trkpt lat="49.33763" lon="0.92094">
        <ele>104</ele>
        <time>2019-04-07T07:45:17.000Z</time>
      </trkpt>
      <trkpt lat="49.33759" lon="0.92093">
        <ele>103.59999847412</ele>
        <time>2019-04-07T07:45:18.000Z</time>
      </trkpt>
      <trkpt lat="49.33755" lon="0.92092">
        <ele>103.40000152588</ele>
        <time>2019-04-07T07:45:19.000Z</time>
      </trkpt>
      <trkpt lat="49.33752" lon="0.92092">
        <ele>103.19999694824</ele>
        <time>2019-04-07T07:45:20.000Z</time>
      </trkpt>
      <trkpt lat="49.33725" lon="0.92081">
        <ele>100.40000152588</ele>
        <time>2019-04-07T07:45:27.000Z</time>
      </trkpt>
      <trkpt lat="49.33719" lon="0.92073">
        <ele>98.800003051758</ele>
        <time>2019-04-07T07:45:29.000Z</time>
      </trkpt>
      <trkpt lat="49.33709" lon="0.92069">
        <ele>97.599998474121</ele>
        <time>2019-04-07T07:45:32.000Z</time>
      </trkpt>
      <trkpt lat="49.337" lon="0.92065">
        <ele>96.599998474121</ele>
        <time>2019-04-07T07:45:34.000Z</time>
      </trkpt>
      <trkpt lat="49.33691" lon="0.92061">
        <ele>95</ele>
        <time>2019-04-07T07:45:36.000Z</time>
      </trkpt>
      <trkpt lat="49.33687" lon="0.9206">
        <ele>94.199996948242</ele>
        <time>2019-04-07T07:45:37.000Z</time>
      </trkpt>
      <trkpt lat="49.33673" lon="0.92058">
        <ele>92</ele>
        <time>2019-04-07T07:45:40.000Z</time>
      </trkpt>
      <trkpt lat="49.3366" lon="0.92055">
        <ele>89.800003051758</ele>
        <time>2019-04-07T07:45:43.000Z</time>
      </trkpt>
      <trkpt lat="49.33641" lon="0.92056">
        <ele>87.400001525879</ele>
        <time>2019-04-07T07:45:48.000Z</time>
      </trkpt>
      <trkpt lat="49.33585" lon="0.92061">
        <ele>80</ele>
        <time>2019-04-07T07:46:03.000Z</time>
      </trkpt>
      <trkpt lat="49.3355" lon="0.92124">
        <ele>79.800003051758</ele>
        <time>2019-04-07T07:46:19.000Z</time>
      </trkpt>
      <trkpt lat="49.33507" lon="0.92173">
        <ele>76.800003051758</ele>
        <time>2019-04-07T07:46:35.000Z</time>
      </trkpt>
      <trkpt lat="49.33466" lon="0.92227">
        <ele>72.400001525879</ele>
        <time>2019-04-07T07:46:55.000Z</time>
      </trkpt>
      <trkpt lat="49.33447" lon="0.92241">
        <ele>69</ele>
        <time>2019-04-07T07:47:05.000Z</time>
      </trkpt>
      <trkpt lat="49.33446" lon="0.92242">
        <ele>68.800003051758</ele>
        <time>2019-04-07T07:47:06.000Z</time>
      </trkpt>
      <trkpt lat="49.33434" lon="0.92251">
        <ele>67.800003051758</ele>
        <time>2019-04-07T07:47:14.000Z</time>
      </trkpt>
      <trkpt lat="49.33429" lon="0.92254">
        <ele>67.199996948242</ele>
        <time>2019-04-07T07:47:16.000Z</time>
      </trkpt>
      <trkpt lat="49.3342" lon="0.92257">
        <ele>66</ele>
        <time>2019-04-07T07:47:19.000Z</time>
      </trkpt>
      <trkpt lat="49.33397" lon="0.92275">
        <ele>63.599998474121</ele>
        <time>2019-04-07T07:47:28.000Z</time>
      </trkpt>
      <trkpt lat="49.33377" lon="0.92331">
        <ele>61.400001525879</ele>
        <time>2019-04-07T07:47:45.000Z</time>
      </trkpt>
      <trkpt lat="49.33374" lon="0.9233">
        <ele>61</ele>
        <time>2019-04-07T07:47:47.000Z</time>
      </trkpt>
      <trkpt lat="49.33365" lon="0.92315">
        <ele>60.200000762939</ele>
        <time>2019-04-07T07:47:53.000Z</time>
      </trkpt>
      <trkpt lat="49.33365" lon="0.92302">
        <ele>59.799999237061</ele>
        <time>2019-04-07T07:48:00.000Z</time>
      </trkpt>
      <trkpt lat="49.33364" lon="0.92303">
        <ele>59.799999237061</ele>
        <time>2019-04-07T07:48:01.000Z</time>
      </trkpt>
      <trkpt lat="49.3336" lon="0.92315">
        <ele>60</ele>
        <time>2019-04-07T07:48:06.000Z</time>
      </trkpt>
      <trkpt lat="49.33335" lon="0.92376">
        <ele>60.200000762939</ele>
        <time>2019-04-07T07:48:23.000Z</time>
      </trkpt>
      <trkpt lat="49.33319" lon="0.92371">
        <ele>60.200000762939</ele>
        <time>2019-04-07T07:48:28.000Z</time>
      </trkpt>
      <trkpt lat="49.33333" lon="0.92319">
        <ele>58.599998474121</ele>
        <time>2019-04-07T07:48:38.000Z</time>
      </trkpt>
      <trkpt lat="49.33347" lon="0.92281">
        <ele>58.599998474121</ele>
        <time>2019-04-07T07:48:44.000Z</time>
      </trkpt>
      <trkpt lat="49.33355" lon="0.92264">
        <ele>57.799999237061</ele>
        <time>2019-04-07T07:48:47.000Z</time>
      </trkpt>
      <trkpt lat="49.33393" lon="0.92204">
        <ele>59.799999237061</ele>
        <time>2019-04-07T07:48:58.000Z</time>
      </trkpt>
      <trkpt lat="49.33397" lon="0.92181">
        <ele>59.799999237061</ele>
        <time>2019-04-07T07:49:01.000Z</time>
      </trkpt>
      <trkpt lat="49.33398" lon="0.92167">
        <ele>59.200000762939</ele>
        <time>2019-04-07T07:49:03.000Z</time>
      </trkpt>
      <trkpt lat="49.33389" lon="0.92092">
        <ele>64</ele>
        <time>2019-04-07T07:49:17.000Z</time>
      </trkpt>
      <trkpt lat="49.33344" lon="0.92079">
        <ele>63</ele>
        <time>2019-04-07T07:49:34.000Z</time>
      </trkpt>
      <trkpt lat="49.33342" lon="0.92076">
        <ele>63.200000762939</ele>
        <time>2019-04-07T07:49:35.000Z</time>
      </trkpt>
      <trkpt lat="49.33332" lon="0.92069">
        <ele>64.400001525879</ele>
        <time>2019-04-07T07:49:39.000Z</time>
      </trkpt>
      <trkpt lat="49.33329" lon="0.92067">
        <ele>64.599998474121</ele>
        <time>2019-04-07T07:49:40.000Z</time>
      </trkpt>
      <trkpt lat="49.33317" lon="0.92059">
        <ele>65.599998474121</ele>
        <time>2019-04-07T07:49:44.000Z</time>
      </trkpt>
      <trkpt lat="49.33302" lon="0.92049">
        <ele>67.199996948242</ele>
        <time>2019-04-07T07:49:50.000Z</time>
      </trkpt>
      <trkpt lat="49.33274" lon="0.92014">
        <ele>72.400001525879</ele>
        <time>2019-04-07T07:50:04.000Z</time>
      </trkpt>
      <trkpt lat="49.33266" lon="0.92005">
        <ele>74</ele>
        <time>2019-04-07T07:50:08.000Z</time>
      </trkpt>
      <trkpt lat="49.33226" lon="0.91977">
        <ele>79.400001525879</ele>
        <time>2019-04-07T07:50:25.000Z</time>
      </trkpt>
      <trkpt lat="49.33224" lon="0.91975">
        <ele>79.800003051758</ele>
        <time>2019-04-07T07:50:26.000Z</time>
      </trkpt>
      <trkpt lat="49.33206" lon="0.91955">
        <ele>82.199996948242</ele>
        <time>2019-04-07T07:50:34.000Z</time>
      </trkpt>
      <trkpt lat="49.33178" lon="0.91883">
        <ele>91.599998474121</ele>
        <time>2019-04-07T07:51:01.000Z</time>
      </trkpt>
      <trkpt lat="49.3317" lon="0.91817">
        <ele>96.599998474121</ele>
        <time>2019-04-07T07:51:28.000Z</time>
      </trkpt>
      <trkpt lat="49.33167" lon="0.91777">
        <ele>97.599998474121</ele>
        <time>2019-04-07T07:51:41.000Z</time>
      </trkpt>
      <trkpt lat="49.33168" lon="0.91758">
        <ele>97.400001525879</ele>
        <time>2019-04-07T07:51:48.000Z</time>
      </trkpt>
      <trkpt lat="49.33165" lon="0.91701">
        <ele>97.400001525879</ele>
        <time>2019-04-07T07:52:05.000Z</time>
      </trkpt>
      <trkpt lat="49.33147" lon="0.91674">
        <ele>98.800003051758</ele>
        <time>2019-04-07T07:52:16.000Z</time>
      </trkpt>
      <trkpt lat="49.33112" lon="0.91632">
        <ele>101.80000305176</ele>
        <time>2019-04-07T07:52:32.000Z</time>
      </trkpt>
      <trkpt lat="49.3309" lon="0.91606">
        <ele>103.59999847412</ele>
        <time>2019-04-07T07:52:40.000Z</time>
      </trkpt>
      <trkpt lat="49.33034" lon="0.91594">
        <ele>108.40000152588</ele>
        <time>2019-04-07T07:52:59.000Z</time>
      </trkpt>
      <trkpt lat="49.33027" lon="0.91592">
        <ele>109</ele>
        <time>2019-04-07T07:53:02.000Z</time>
      </trkpt>
      <trkpt lat="49.33005" lon="0.9159">
        <ele>111.59999847412</ele>
        <time>2019-04-07T07:53:13.000Z</time>
      </trkpt>
      <trkpt lat="49.32978" lon="0.91601">
        <ele>114.80000305176</ele>
        <time>2019-04-07T07:53:27.000Z</time>
      </trkpt>
      <trkpt lat="49.32963" lon="0.91591">
        <ele>116.80000305176</ele>
        <time>2019-04-07T07:53:35.000Z</time>
      </trkpt>
      <trkpt lat="49.32949" lon="0.91585">
        <ele>118.40000152588</ele>
        <time>2019-04-07T07:53:45.000Z</time>
      </trkpt>
      <trkpt lat="49.32926" lon="0.91576">
        <ele>119</ele>
        <time>2019-04-07T07:53:59.000Z</time>
      </trkpt>
      <trkpt lat="49.32874" lon="0.9155">
        <ele>119.80000305176</ele>
        <time>2019-04-07T07:54:22.000Z</time>
      </trkpt>
      <trkpt lat="49.32841" lon="0.91545">
        <ele>119.40000152588</ele>
        <time>2019-04-07T07:54:32.000Z</time>
      </trkpt>
      <trkpt lat="49.32829" lon="0.91548">
        <ele>118.59999847412</ele>
        <time>2019-04-07T07:54:35.000Z</time>
      </trkpt>
      <trkpt lat="49.3282" lon="0.91552">
        <ele>118</ele>
        <time>2019-04-07T07:54:38.000Z</time>
      </trkpt>
      <trkpt lat="49.32807" lon="0.9153">
        <ele>118.19999694824</ele>
        <time>2019-04-07T07:54:44.000Z</time>
      </trkpt>
      <trkpt lat="49.32845" lon="0.91481">
        <ele>119.80000305176</ele>
        <time>2019-04-07T07:55:01.000Z</time>
      </trkpt>
      <trkpt lat="49.32849" lon="0.91479">
        <ele>119.80000305176</ele>
        <time>2019-04-07T07:55:02.000Z</time>
      </trkpt>
      <trkpt lat="49.32858" lon="0.91474">
        <ele>120</ele>
        <time>2019-04-07T07:55:05.000Z</time>
      </trkpt>
      <trkpt lat="49.32873" lon="0.91457">
        <ele>120</ele>
        <time>2019-04-07T07:55:10.000Z</time>
      </trkpt>
      <trkpt lat="49.32881" lon="0.91426">
        <ele>120.19999694824</ele>
        <time>2019-04-07T07:55:15.000Z</time>
      </trkpt>
      <trkpt lat="49.32861" lon="0.91352">
        <ele>121</ele>
        <time>2019-04-07T07:55:28.000Z</time>
      </trkpt>
      <trkpt lat="49.32808" lon="0.9133">
        <ele>122.40000152588</ele>
        <time>2019-04-07T07:55:44.000Z</time>
      </trkpt>
      <trkpt lat="49.32791" lon="0.91317">
        <ele>122.80000305176</ele>
        <time>2019-04-07T07:55:49.000Z</time>
      </trkpt>
      <trkpt lat="49.32775" lon="0.91309">
        <ele>123</ele>
        <time>2019-04-07T07:55:54.000Z</time>
      </trkpt>
      <trkpt lat="49.32773" lon="0.91306">
        <ele>123</ele>
        <time>2019-04-07T07:55:55.000Z</time>
      </trkpt>
      <trkpt lat="49.32768" lon="0.91301">
        <ele>123.19999694824</ele>
        <time>2019-04-07T07:55:57.000Z</time>
      </trkpt>
      <trkpt lat="49.32765" lon="0.91297">
        <ele>123.19999694824</ele>
        <time>2019-04-07T07:55:58.000Z</time>
      </trkpt>
      <trkpt lat="49.32738" lon="0.9126">
        <ele>124.59999847412</ele>
        <time>2019-04-07T07:56:10.000Z</time>
      </trkpt>
      <trkpt lat="49.32726" lon="0.91223">
        <ele>125.19999694824</ele>
        <time>2019-04-07T07:56:19.000Z</time>
      </trkpt>
      <trkpt lat="49.32716" lon="0.912">
        <ele>125.19999694824</ele>
        <time>2019-04-07T07:56:25.000Z</time>
      </trkpt>
      <trkpt lat="49.32711" lon="0.91193">
        <ele>125.19999694824</ele>
        <time>2019-04-07T07:56:27.000Z</time>
      </trkpt>
      <trkpt lat="49.32704" lon="0.91185">
        <ele>125.40000152588</ele>
        <time>2019-04-07T07:56:29.000Z</time>
      </trkpt>
      <trkpt lat="49.327" lon="0.91182">
        <ele>125.40000152588</ele>
        <time>2019-04-07T07:56:30.000Z</time>
      </trkpt>
      <trkpt lat="49.32696" lon="0.91179">
        <ele>125.40000152588</ele>
        <time>2019-04-07T07:56:31.000Z</time>
      </trkpt>
      <trkpt lat="49.32693" lon="0.91175">
        <ele>125.59999847412</ele>
        <time>2019-04-07T07:56:32.000Z</time>
      </trkpt>
      <trkpt lat="49.32669" lon="0.91151">
        <ele>126.40000152588</ele>
        <time>2019-04-07T07:56:39.000Z</time>
      </trkpt>
      <trkpt lat="49.32615" lon="0.91124">
        <ele>128.19999694824</ele>
        <time>2019-04-07T07:56:52.000Z</time>
      </trkpt>
      <trkpt lat="49.3259" lon="0.91112">
        <ele>130.19999694824</ele>
        <time>2019-04-07T07:57:00.000Z</time>
      </trkpt>
      <trkpt lat="49.32567" lon="0.91102">
        <ele>132.19999694824</ele>
        <time>2019-04-07T07:57:08.000Z</time>
      </trkpt>
      <trkpt lat="49.32512" lon="0.91081">
        <ele>135.80000305176</ele>
        <time>2019-04-07T07:57:24.000Z</time>
      </trkpt>
      <trkpt lat="49.32489" lon="0.91075">
        <ele>136.39999389648</ele>
        <time>2019-04-07T07:57:30.000Z</time>
      </trkpt>
      <trkpt lat="49.32434" lon="0.91058">
        <ele>137.19999694824</ele>
        <time>2019-04-07T07:57:44.000Z</time>
      </trkpt>
      <trkpt lat="49.32406" lon="0.91046">
        <ele>137.19999694824</ele>
        <time>2019-04-07T07:57:52.000Z</time>
      </trkpt>
      <trkpt lat="49.32396" lon="0.91042">
        <ele>137</ele>
        <time>2019-04-07T07:57:55.000Z</time>
      </trkpt>
      <trkpt lat="49.32342" lon="0.91026">
        <ele>137.39999389648</ele>
        <time>2019-04-07T07:58:08.000Z</time>
      </trkpt>
      <trkpt lat="49.32325" lon="0.91026">
        <ele>138</ele>
        <time>2019-04-07T07:58:12.000Z</time>
      </trkpt>
      <trkpt lat="49.32316" lon="0.91088">
        <ele>140.39999389648</ele>
        <time>2019-04-07T07:58:23.000Z</time>
      </trkpt>
      <trkpt lat="49.32316" lon="0.91096">
        <ele>140.60000610352</ele>
        <time>2019-04-07T07:58:24.000Z</time>
      </trkpt>
      <trkpt lat="49.32311" lon="0.91127">
        <ele>141.60000610352</ele>
        <time>2019-04-07T07:58:28.000Z</time>
      </trkpt>
      <trkpt lat="49.32303" lon="0.91163">
        <ele>142</ele>
        <time>2019-04-07T07:58:32.000Z</time>
      </trkpt>
      <trkpt lat="49.32292" lon="0.91241">
        <ele>141.19999694824</ele>
        <time>2019-04-07T07:58:40.000Z</time>
      </trkpt>
      <trkpt lat="49.3229" lon="0.9125">
        <ele>141</ele>
        <time>2019-04-07T07:58:41.000Z</time>
      </trkpt>
      <trkpt lat="49.32279" lon="0.91321">
        <ele>138.80000305176</ele>
        <time>2019-04-07T07:58:48.000Z</time>
      </trkpt>
      <trkpt lat="49.32271" lon="0.91368">
        <ele>134.80000305176</ele>
        <time>2019-04-07T07:58:53.000Z</time>
      </trkpt>
      <trkpt lat="49.32261" lon="0.91443">
        <ele>131</ele>
        <time>2019-04-07T07:59:02.000Z</time>
      </trkpt>
      <trkpt lat="49.32247" lon="0.91517">
        <ele>130.19999694824</ele>
        <time>2019-04-07T07:59:10.000Z</time>
      </trkpt>
      <trkpt lat="49.32241" lon="0.91559">
        <ele>130</ele>
        <time>2019-04-07T07:59:15.000Z</time>
      </trkpt>
      <trkpt lat="49.32228" lon="0.91643">
        <ele>130</ele>
        <time>2019-04-07T07:59:25.000Z</time>
      </trkpt>
      <trkpt lat="49.32211" lon="0.91728">
        <ele>129.19999694824</ele>
        <time>2019-04-07T07:59:36.000Z</time>
      </trkpt>
      <trkpt lat="49.3221" lon="0.91735">
        <ele>129.19999694824</ele>
        <time>2019-04-07T07:59:37.000Z</time>
      </trkpt>
      <trkpt lat="49.32206" lon="0.91757">
        <ele>129.19999694824</ele>
        <time>2019-04-07T07:59:40.000Z</time>
      </trkpt>
      <trkpt lat="49.32195" lon="0.91828">
        <ele>129</ele>
        <time>2019-04-07T07:59:51.000Z</time>
      </trkpt>
      <trkpt lat="49.32191" lon="0.91859">
        <ele>129.19999694824</ele>
        <time>2019-04-07T07:59:56.000Z</time>
      </trkpt>
      <trkpt lat="49.32189" lon="0.9188">
        <ele>129.19999694824</ele>
        <time>2019-04-07T07:59:59.000Z</time>
      </trkpt>
      <trkpt lat="49.32183" lon="0.91921">
        <ele>128.19999694824</ele>
        <time>2019-04-07T08:00:04.000Z</time>
      </trkpt>
      <trkpt lat="49.32174" lon="0.91971">
        <ele>127</ele>
        <time>2019-04-07T08:00:11.000Z</time>
      </trkpt>
      <trkpt lat="49.32167" lon="0.92027">
        <ele>124.40000152588</ele>
        <time>2019-04-07T08:00:19.000Z</time>
      </trkpt>
      <trkpt lat="49.32158" lon="0.92111">
        <ele>122.80000305176</ele>
        <time>2019-04-07T08:00:30.000Z</time>
      </trkpt>
      <trkpt lat="49.3215" lon="0.9216">
        <ele>122</ele>
        <time>2019-04-07T08:00:37.000Z</time>
      </trkpt>
      <trkpt lat="49.32148" lon="0.92177">
        <ele>122</ele>
        <time>2019-04-07T08:00:40.000Z</time>
      </trkpt>
      <trkpt lat="49.32142" lon="0.92227">
        <ele>120.80000305176</ele>
        <time>2019-04-07T08:00:47.000Z</time>
      </trkpt>
      <trkpt lat="49.32142" lon="0.92245">
        <ele>121</ele>
        <time>2019-04-07T08:00:49.000Z</time>
      </trkpt>
      <trkpt lat="49.32146" lon="0.92276">
        <ele>121.40000152588</ele>
        <time>2019-04-07T08:00:53.000Z</time>
      </trkpt>
      <trkpt lat="49.32133" lon="0.92305">
        <ele>121.40000152588</ele>
        <time>2019-04-07T08:00:59.000Z</time>
      </trkpt>
      <trkpt lat="49.32128" lon="0.9232">
        <ele>121</ele>
        <time>2019-04-07T08:01:01.000Z</time>
      </trkpt>
      <trkpt lat="49.32127" lon="0.92328">
        <ele>120.80000305176</ele>
        <time>2019-04-07T08:01:02.000Z</time>
      </trkpt>
      <trkpt lat="49.32117" lon="0.92381">
        <ele>118.40000152588</ele>
        <time>2019-04-07T08:01:09.000Z</time>
      </trkpt>
      <trkpt lat="49.32113" lon="0.92396">
        <ele>117.80000305176</ele>
        <time>2019-04-07T08:01:11.000Z</time>
      </trkpt>
      <trkpt lat="49.32103" lon="0.92485">
        <ele>115.80000305176</ele>
        <time>2019-04-07T08:01:22.000Z</time>
      </trkpt>
      <trkpt lat="49.32092" lon="0.92555">
        <ele>114.80000305176</ele>
        <time>2019-04-07T08:01:33.000Z</time>
      </trkpt>
      <trkpt lat="49.32078" lon="0.92638">
        <ele>115.80000305176</ele>
        <time>2019-04-07T08:01:45.000Z</time>
      </trkpt>
      <trkpt lat="49.32072" lon="0.92671">
        <ele>115.40000152588</ele>
        <time>2019-04-07T08:01:50.000Z</time>
      </trkpt>
      <trkpt lat="49.32058" lon="0.92751">
        <ele>113.59999847412</ele>
        <time>2019-04-07T08:02:02.000Z</time>
      </trkpt>
      <trkpt lat="49.32052" lon="0.92786">
        <ele>112</ele>
        <time>2019-04-07T08:02:07.000Z</time>
      </trkpt>
      <trkpt lat="49.3204" lon="0.92867">
        <ele>104</ele>
        <time>2019-04-07T08:02:23.000Z</time>
      </trkpt>
      <trkpt lat="49.32028" lon="0.92948">
        <ele>99.199996948242</ele>
        <time>2019-04-07T08:02:33.000Z</time>
      </trkpt>
      <trkpt lat="49.32028" lon="0.92955">
        <ele>98.800003051758</ele>
        <time>2019-04-07T08:02:34.000Z</time>
      </trkpt>
      <trkpt lat="49.32026" lon="0.92976">
        <ele>98.199996948242</ele>
        <time>2019-04-07T08:02:38.000Z</time>
      </trkpt>
      <trkpt lat="49.32028" lon="0.92977">
        <ele>98.599998474121</ele>
        <time>2019-04-07T08:02:39.000Z</time>
      </trkpt>
      <trkpt lat="49.32084" lon="0.92978">
        <ele>98.800003051758</ele>
        <time>2019-04-07T08:02:49.000Z</time>
      </trkpt>
      <trkpt lat="49.3214" lon="0.92991">
        <ele>99</ele>
        <time>2019-04-07T08:02:58.000Z</time>
      </trkpt>
      <trkpt lat="49.32161" lon="0.92998">
        <ele>98.400001525879</ele>
        <time>2019-04-07T08:03:01.000Z</time>
      </trkpt>
      <trkpt lat="49.32201" lon="0.93012">
        <ele>97.400001525879</ele>
        <time>2019-04-07T08:03:07.000Z</time>
      </trkpt>
      <trkpt lat="49.32236" lon="0.93011">
        <ele>96</ele>
        <time>2019-04-07T08:03:12.000Z</time>
      </trkpt>
      <trkpt lat="49.32249" lon="0.93005">
        <ele>94</ele>
        <time>2019-04-07T08:03:14.000Z</time>
      </trkpt>
      <trkpt lat="49.32278" lon="0.92976">
        <ele>85.599998474121</ele>
        <time>2019-04-07T08:03:19.000Z</time>
      </trkpt>
      <trkpt lat="49.32326" lon="0.92931">
        <ele>91.199996948242</ele>
        <time>2019-04-07T08:03:28.000Z</time>
      </trkpt>
      <trkpt lat="49.32377" lon="0.92906">
        <ele>89.199996948242</ele>
        <time>2019-04-07T08:03:36.000Z</time>
      </trkpt>
      <trkpt lat="49.32389" lon="0.92897">
        <ele>88.199996948242</ele>
        <time>2019-04-07T08:03:38.000Z</time>
      </trkpt>
      <trkpt lat="49.32399" lon="0.92885">
        <ele>88</ele>
        <time>2019-04-07T08:03:40.000Z</time>
      </trkpt>
      <trkpt lat="49.32438" lon="0.92822">
        <ele>85</ele>
        <time>2019-04-07T08:03:49.000Z</time>
      </trkpt>
      <trkpt lat="49.32475" lon="0.92765">
        <ele>88.599998474121</ele>
        <time>2019-04-07T08:03:57.000Z</time>
      </trkpt>
      <trkpt lat="49.32499" lon="0.92733">
        <ele>87.800003051758</ele>
        <time>2019-04-07T08:04:03.000Z</time>
      </trkpt>
      <trkpt lat="49.32513" lon="0.92748">
        <ele>89</ele>
        <time>2019-04-07T08:04:08.000Z</time>
      </trkpt>
      <trkpt lat="49.32521" lon="0.92777">
        <ele>91.400001525879</ele>
        <time>2019-04-07T08:04:13.000Z</time>
      </trkpt>
      <trkpt lat="49.32534" lon="0.92818">
        <ele>95.599998474121</ele>
        <time>2019-04-07T08:04:22.000Z</time>
      </trkpt>
      <trkpt lat="49.32537" lon="0.92826">
        <ele>96.800003051758</ele>
        <time>2019-04-07T08:04:24.000Z</time>
      </trkpt>
      <trkpt lat="49.3255" lon="0.92857">
        <ele>101.40000152588</ele>
        <time>2019-04-07T08:04:32.000Z</time>
      </trkpt>
      <trkpt lat="49.32558" lon="0.92885">
        <ele>105.59999847412</ele>
        <time>2019-04-07T08:04:39.000Z</time>
      </trkpt>
      <trkpt lat="49.3256" lon="0.92894">
        <ele>106.80000305176</ele>
        <time>2019-04-07T08:04:41.000Z</time>
      </trkpt>
      <trkpt lat="49.32561" lon="0.92934">
        <ele>110.59999847412</ele>
        <time>2019-04-07T08:04:50.000Z</time>
      </trkpt>
      <trkpt lat="49.32554" lon="0.92977">
        <ele>115.40000152588</ele>
        <time>2019-04-07T08:05:01.000Z</time>
      </trkpt>
      <trkpt lat="49.32544" lon="0.93026">
        <ele>117.19999694824</ele>
        <time>2019-04-07T08:05:14.000Z</time>
      </trkpt>
      <trkpt lat="49.32524" lon="0.93104">
        <ele>117.19999694824</ele>
        <time>2019-04-07T08:05:37.000Z</time>
      </trkpt>
      <trkpt lat="49.32496" lon="0.93175">
        <ele>118</ele>
        <time>2019-04-07T08:05:56.000Z</time>
      </trkpt>
      <trkpt lat="49.32468" lon="0.93247">
        <ele>120.40000152588</ele>
        <time>2019-04-07T08:06:14.000Z</time>
      </trkpt>
      <trkpt lat="49.32466" lon="0.93257">
        <ele>120.19999694824</ele>
        <time>2019-04-07T08:06:29.000Z</time>
      </trkpt>
      <trkpt lat="49.32467" lon="0.93259">
        <ele>120</ele>
        <time>2019-04-07T08:06:31.000Z</time>
      </trkpt>
      <trkpt lat="49.32468" lon="0.93262">
        <ele>119.80000305176</ele>
        <time>2019-04-07T08:06:44.000Z</time>
      </trkpt>
      <trkpt lat="49.32465" lon="0.93264">
        <ele>120</ele>
        <time>2019-04-07T08:07:19.000Z</time>
      </trkpt>
      <trkpt lat="49.32464" lon="0.93263">
        <ele>120</ele>
        <time>2019-04-07T08:07:26.000Z</time>
      </trkpt>
      <trkpt lat="49.32464" lon="0.93263">
        <ele>120</ele>
        <time>2019-04-07T08:07:32.000Z</time>
      </trkpt>
      <trkpt lat="49.32463" lon="0.93263">
        <ele>120</ele>
        <time>2019-04-07T08:07:34.000Z</time>
      </trkpt>
      <trkpt lat="49.32463" lon="0.93263">
        <ele>120</ele>
        <time>2019-04-07T08:07:35.000Z</time>
      </trkpt>
      <trkpt lat="49.32463" lon="0.93263">
        <ele>120</ele>
        <time>2019-04-07T08:07:36.000Z</time>
      </trkpt>
      <trkpt lat="49.32464" lon="0.93263">
        <ele>120</ele>
        <time>2019-04-07T08:07:42.000Z</time>
      </trkpt>
      <trkpt lat="49.32464" lon="0.93263">
        <ele>120</ele>
        <time>2019-04-07T08:07:43.000Z</time>
      </trkpt>
      <trkpt lat="49.32464" lon="0.93263">
        <ele>120</ele>
        <time>2019-04-07T08:07:44.000Z</time>
      </trkpt>
      <trkpt lat="49.32463" lon="0.93265">
        <ele>120</ele>
        <time>2019-04-07T08:08:18.000Z</time>
      </trkpt>
      <trkpt lat="49.32462" lon="0.93267">
        <ele>120</ele>
        <time>2019-04-07T08:08:32.000Z</time>
      </trkpt>
      <trkpt lat="49.32462" lon="0.93268">
        <ele>119.80000305176</ele>
        <time>2019-04-07T08:08:49.000Z</time>
      </trkpt>
      <trkpt lat="49.32461" lon="0.93268">
        <ele>119.80000305176</ele>
        <time>2019-04-07T08:08:52.000Z</time>
      </trkpt>
      <trkpt lat="49.32459" lon="0.93269">
        <ele>120</ele>
        <time>2019-04-07T08:09:06.000Z</time>
      </trkpt>
      <trkpt lat="49.32458" lon="0.9327">
        <ele>120</ele>
        <time>2019-04-07T08:09:25.000Z</time>
      </trkpt>
      <trkpt lat="49.32458" lon="0.9327">
        <ele>120</ele>
        <time>2019-04-07T08:09:33.000Z</time>
      </trkpt>
      <trkpt lat="49.32455" lon="0.9327">
        <ele>120</ele>
        <time>2019-04-07T08:10:06.000Z</time>
      </trkpt>
      <trkpt lat="49.32454" lon="0.93271">
        <ele>120</ele>
        <time>2019-04-07T08:10:28.000Z</time>
      </trkpt>
      <trkpt lat="49.32452" lon="0.93272">
        <ele>120</ele>
        <time>2019-04-07T08:11:14.000Z</time>
      </trkpt>
      <trkpt lat="49.32454" lon="0.93268">
        <ele>120.19999694824</ele>
        <time>2019-04-07T08:12:56.000Z</time>
      </trkpt>
      <trkpt lat="49.32454" lon="0.93268">
        <ele>120.19999694824</ele>
        <time>2019-04-07T08:13:08.000Z</time>
      </trkpt>
      <trkpt lat="49.32455" lon="0.93272">
        <ele>120</ele>
        <time>2019-04-07T08:14:15.000Z</time>
      </trkpt>
      <trkpt lat="49.32455" lon="0.93271">
        <ele>120</ele>
        <time>2019-04-07T08:14:50.000Z</time>
      </trkpt>
      <trkpt lat="49.32455" lon="0.93271">
        <ele>120</ele>
        <time>2019-04-07T08:14:51.000Z</time>
      </trkpt>
      <trkpt lat="49.32455" lon="0.93272">
        <ele>120</ele>
        <time>2019-04-07T08:15:33.000Z</time>
      </trkpt>
      <trkpt lat="49.32455" lon="0.93272">
        <ele>120</ele>
        <time>2019-04-07T08:15:37.000Z</time>
      </trkpt>
      <trkpt lat="49.32455" lon="0.93272">
        <ele>120</ele>
        <time>2019-04-07T08:15:38.000Z</time>
      </trkpt>
      <trkpt lat="49.32455" lon="0.93272">
        <ele>120</ele>
        <time>2019-04-07T08:15:40.000Z</time>
      </trkpt>
      <trkpt lat="49.32455" lon="0.93272">
        <ele>120</ele>
        <time>2019-04-07T08:15:44.000Z</time>
      </trkpt>
      <trkpt lat="49.32455" lon="0.93272">
        <ele>120</ele>
        <time>2019-04-07T08:15:46.000Z</time>
      </trkpt>
      <trkpt lat="49.32455" lon="0.93272">
        <ele>120</ele>
        <time>2019-04-07T08:15:47.000Z</time>
      </trkpt>
      <trkpt lat="49.32455" lon="0.93272">
        <ele>120</ele>
        <time>2019-04-07T08:15:59.000Z</time>
      </trkpt>
      <trkpt lat="49.32455" lon="0.93272">
        <ele>120</ele>
        <time>2019-04-07T08:16:01.000Z</time>
      </trkpt>
      <trkpt lat="49.32455" lon="0.93272">
        <ele>120</ele>
        <time>2019-04-07T08:16:04.000Z</time>
      </trkpt>
      <trkpt lat="49.32455" lon="0.93271">
        <ele>120</ele>
        <time>2019-04-07T08:16:06.000Z</time>
      </trkpt>
      <trkpt lat="49.32456" lon="0.9327">
        <ele>120</ele>
        <time>2019-04-07T08:16:09.000Z</time>
      </trkpt>
      <trkpt lat="49.32457" lon="0.9327">
        <ele>120</ele>
        <time>2019-04-07T08:16:13.000Z</time>
      </trkpt>
      <trkpt lat="49.32457" lon="0.9327">
        <ele>120</ele>
        <time>2019-04-07T08:16:14.000Z</time>
      </trkpt>
      <trkpt lat="49.32457" lon="0.9327">
        <ele>120</ele>
        <time>2019-04-07T08:16:15.000Z</time>
      </trkpt>
      <trkpt lat="49.32457" lon="0.93271">
        <ele>120</ele>
        <time>2019-04-07T08:16:18.000Z</time>
      </trkpt>
      <trkpt lat="49.32458" lon="0.93271">
        <ele>120</ele>
        <time>2019-04-07T08:16:20.000Z</time>
      </trkpt>
      <trkpt lat="49.32458" lon="0.93271">
        <ele>120</ele>
        <time>2019-04-07T08:16:34.000Z</time>
      </trkpt>
      <trkpt lat="49.32458" lon="0.93271">
        <ele>120</ele>
        <time>2019-04-07T08:16:50.000Z</time>
      </trkpt>
      <trkpt lat="49.32458" lon="0.93271">
        <ele>120</ele>
        <time>2019-04-07T08:16:59.000Z</time>
      </trkpt>
      <trkpt lat="49.32458" lon="0.93271">
        <ele>120</ele>
        <time>2019-04-07T08:17:07.000Z</time>
      </trkpt>
      <trkpt lat="49.32458" lon="0.93271">
        <ele>120</ele>
        <time>2019-04-07T08:17:23.000Z</time>
      </trkpt>
      <trkpt lat="49.32453" lon="0.93268">
        <ele>120.19999694824</ele>
        <time>2019-04-07T08:17:53.000Z</time>
      </trkpt>
      <trkpt lat="49.32452" lon="0.93265">
        <ele>120.40000152588</ele>
        <time>2019-04-07T08:18:28.000Z</time>
      </trkpt>
      <trkpt lat="49.32452" lon="0.93264">
        <ele>120.40000152588</ele>
        <time>2019-04-07T08:18:33.000Z</time>
      </trkpt>
      <trkpt lat="49.32452" lon="0.93264">
        <ele>120.40000152588</ele>
        <time>2019-04-07T08:18:36.000Z</time>
      </trkpt>
      <trkpt lat="49.32453" lon="0.93267">
        <ele>120.19999694824</ele>
        <time>2019-04-07T08:19:03.000Z</time>
      </trkpt>
      <trkpt lat="49.32454" lon="0.93267">
        <ele>120.19999694824</ele>
        <time>2019-04-07T08:19:09.000Z</time>
      </trkpt>
      <trkpt lat="49.32455" lon="0.93268">
        <ele>120.19999694824</ele>
        <time>2019-04-07T08:19:27.000Z</time>
      </trkpt>
      <trkpt lat="49.32455" lon="0.93269">
        <ele>120</ele>
        <time>2019-04-07T08:19:38.000Z</time>
      </trkpt>
      <trkpt lat="49.32456" lon="0.9327">
        <ele>120</ele>
        <time>2019-04-07T08:20:08.000Z</time>
      </trkpt>
      <trkpt lat="49.32454" lon="0.93277">
        <ele>119.80000305176</ele>
        <time>2019-04-07T08:20:31.000Z</time>
      </trkpt>
      <trkpt lat="49.32424" lon="0.93349">
        <ele>118.80000305176</ele>
        <time>2019-04-07T08:20:47.000Z</time>
      </trkpt>
      <trkpt lat="49.32417" lon="0.93364">
        <ele>118.40000152588</ele>
        <time>2019-04-07T08:20:50.000Z</time>
      </trkpt>
      <trkpt lat="49.32415" lon="0.9337">
        <ele>118.40000152588</ele>
        <time>2019-04-07T08:20:51.000Z</time>
      </trkpt>
      <trkpt lat="49.32408" lon="0.93385">
        <ele>118.59999847412</ele>
        <time>2019-04-07T08:20:54.000Z</time>
      </trkpt>
      <trkpt lat="49.32406" lon="0.9339">
        <ele>118.40000152588</ele>
        <time>2019-04-07T08:20:55.000Z</time>
      </trkpt>
      <trkpt lat="49.32394" lon="0.93422">
        <ele>119.40000152588</ele>
        <time>2019-04-07T08:21:01.000Z</time>
      </trkpt>
      <trkpt lat="49.32386" lon="0.93442">
        <ele>118.80000305176</ele>
        <time>2019-04-07T08:21:05.000Z</time>
      </trkpt>
      <trkpt lat="49.3238" lon="0.93457">
        <ele>118.19999694824</ele>
        <time>2019-04-07T08:21:08.000Z</time>
      </trkpt>
      <trkpt lat="49.32376" lon="0.93468">
        <ele>117.80000305176</ele>
        <time>2019-04-07T08:21:10.000Z</time>
      </trkpt>
      <trkpt lat="49.32372" lon="0.93479">
        <ele>117.59999847412</ele>
        <time>2019-04-07T08:21:12.000Z</time>
      </trkpt>
      <trkpt lat="49.32365" lon="0.93496">
        <ele>117.19999694824</ele>
        <time>2019-04-07T08:21:15.000Z</time>
      </trkpt>
      <trkpt lat="49.32363" lon="0.93503">
        <ele>117</ele>
        <time>2019-04-07T08:21:16.000Z</time>
      </trkpt>
      <trkpt lat="49.3236" lon="0.93509">
        <ele>116.80000305176</ele>
        <time>2019-04-07T08:21:17.000Z</time>
      </trkpt>
      <trkpt lat="49.32356" lon="0.93521">
        <ele>116.40000152588</ele>
        <time>2019-04-07T08:21:19.000Z</time>
      </trkpt>
      <trkpt lat="49.32354" lon="0.93528">
        <ele>116</ele>
        <time>2019-04-07T08:21:20.000Z</time>
      </trkpt>
      <trkpt lat="49.3235" lon="0.93542">
        <ele>115.59999847412</ele>
        <time>2019-04-07T08:21:22.000Z</time>
      </trkpt>
      <trkpt lat="49.32346" lon="0.93565">
        <ele>115</ele>
        <time>2019-04-07T08:21:25.000Z</time>
      </trkpt>
      <trkpt lat="49.32342" lon="0.93593">
        <ele>114</ele>
        <time>2019-04-07T08:21:28.000Z</time>
      </trkpt>
      <trkpt lat="49.32328" lon="0.93671">
        <ele>112.59999847412</ele>
        <time>2019-04-07T08:21:36.000Z</time>
      </trkpt>
      <trkpt lat="49.32325" lon="0.93693">
        <ele>112.40000152588</ele>
        <time>2019-04-07T08:21:38.000Z</time>
      </trkpt>
      <trkpt lat="49.3232" lon="0.93742">
        <ele>112.19999694824</ele>
        <time>2019-04-07T08:21:43.000Z</time>
      </trkpt>
      <trkpt lat="49.32321" lon="0.93762">
        <ele>111.59999847412</ele>
        <time>2019-04-07T08:21:46.000Z</time>
      </trkpt>
      <trkpt lat="49.32323" lon="0.93773">
        <ele>111.40000152588</ele>
        <time>2019-04-07T08:21:48.000Z</time>
      </trkpt>
      <trkpt lat="49.32324" lon="0.93776">
        <ele>111.19999694824</ele>
        <time>2019-04-07T08:21:49.000Z</time>
      </trkpt>
      <trkpt lat="49.32324" lon="0.93779">
        <ele>111.19999694824</ele>
        <time>2019-04-07T08:21:50.000Z</time>
      </trkpt>
      <trkpt lat="49.32325" lon="0.93781">
        <ele>111.19999694824</ele>
        <time>2019-04-07T08:21:51.000Z</time>
      </trkpt>
      <trkpt lat="49.32326" lon="0.93782">
        <ele>111</ele>
        <time>2019-04-07T08:21:52.000Z</time>
      </trkpt>
      <trkpt lat="49.3233" lon="0.93781">
        <ele>110.80000305176</ele>
        <time>2019-04-07T08:21:54.000Z</time>
      </trkpt>
      <trkpt lat="49.32332" lon="0.9378">
        <ele>110.59999847412</ele>
        <time>2019-04-07T08:21:55.000Z</time>
      </trkpt>
      <trkpt lat="49.32338" lon="0.93782">
        <ele>110.19999694824</ele>
        <time>2019-04-07T08:22:01.000Z</time>
      </trkpt>
      <trkpt lat="49.32338" lon="0.93782">
        <ele>110.19999694824</ele>
        <time>2019-04-07T08:22:02.000Z</time>
      </trkpt>
      <trkpt lat="49.32337" lon="0.9378">
        <ele>110.19999694824</ele>
        <time>2019-04-07T08:22:04.000Z</time>
      </trkpt>
      <trkpt lat="49.32335" lon="0.93779">
        <ele>110.40000152588</ele>
        <time>2019-04-07T08:22:06.000Z</time>
      </trkpt>
      <trkpt lat="49.32334" lon="0.93779">
        <ele>110.40000152588</ele>
        <time>2019-04-07T08:22:07.000Z</time>
      </trkpt>
      <trkpt lat="49.32329" lon="0.93777">
        <ele>110.80000305176</ele>
        <time>2019-04-07T08:22:12.000Z</time>
      </trkpt>
      <trkpt lat="49.32329" lon="0.93777">
        <ele>111</ele>
        <time>2019-04-07T08:22:13.000Z</time>
      </trkpt>
      <trkpt lat="49.32328" lon="0.93777">
        <ele>111</ele>
        <time>2019-04-07T08:22:15.000Z</time>
      </trkpt>
      <trkpt lat="49.32325" lon="0.93777">
        <ele>111.19999694824</ele>
        <time>2019-04-07T08:22:21.000Z</time>
      </trkpt>
      <trkpt lat="49.32324" lon="0.93778">
        <ele>111.19999694824</ele>
        <time>2019-04-07T08:22:45.000Z</time>
      </trkpt>
      <trkpt lat="49.32324" lon="0.93777">
        <ele>111.19999694824</ele>
        <time>2019-04-07T08:22:48.000Z</time>
      </trkpt>
      <trkpt lat="49.32323" lon="0.93777">
        <ele>111.40000152588</ele>
        <time>2019-04-07T08:22:53.000Z</time>
      </trkpt>
      <trkpt lat="49.32323" lon="0.93777">
        <ele>111.40000152588</ele>
        <time>2019-04-07T08:22:57.000Z</time>
      </trkpt>
      <trkpt lat="49.32322" lon="0.93777">
        <ele>111.40000152588</ele>
        <time>2019-04-07T08:23:00.000Z</time>
      </trkpt>
      <trkpt lat="49.32322" lon="0.93777">
        <ele>111.40000152588</ele>
        <time>2019-04-07T08:23:02.000Z</time>
      </trkpt>
      <trkpt lat="49.32322" lon="0.93777">
        <ele>111.40000152588</ele>
        <time>2019-04-07T08:23:04.000Z</time>
      </trkpt>
      <trkpt lat="49.32322" lon="0.93783">
        <ele>111.19999694824</ele>
        <time>2019-04-07T08:23:32.000Z</time>
      </trkpt>
      <trkpt lat="49.32322" lon="0.93784">
        <ele>111.19999694824</ele>
        <time>2019-04-07T08:23:33.000Z</time>
      </trkpt>
      <trkpt lat="49.32323" lon="0.93784">
        <ele>111.19999694824</ele>
        <time>2019-04-07T08:23:36.000Z</time>
      </trkpt>
      <trkpt lat="49.32327" lon="0.93786">
        <ele>110.80000305176</ele>
        <time>2019-04-07T08:24:03.000Z</time>
      </trkpt>
      <trkpt lat="49.32333" lon="0.93785">
        <ele>110.59999847412</ele>
        <time>2019-04-07T08:24:12.000Z</time>
      </trkpt>
      <trkpt lat="49.32332" lon="0.93785">
        <ele>110.59999847412</ele>
        <time>2019-04-07T08:24:13.000Z</time>
      </trkpt>
      <trkpt lat="49.32329" lon="0.93782">
        <ele>110.80000305176</ele>
        <time>2019-04-07T08:24:21.000Z</time>
      </trkpt>
      <trkpt lat="49.32326" lon="0.93783">
        <ele>111</ele>
        <time>2019-04-07T08:24:25.000Z</time>
      </trkpt>
      <trkpt lat="49.32321" lon="0.93787">
        <ele>111.40000152588</ele>
        <time>2019-04-07T08:24:32.000Z</time>
      </trkpt>
      <trkpt lat="49.32321" lon="0.93788">
        <ele>111.19999694824</ele>
        <time>2019-04-07T08:24:36.000Z</time>
      </trkpt>
      <trkpt lat="49.32322" lon="0.93788">
        <ele>111.19999694824</ele>
        <time>2019-04-07T08:24:38.000Z</time>
      </trkpt>
      <trkpt lat="49.32322" lon="0.93788">
        <ele>111.19999694824</ele>
        <time>2019-04-07T08:24:41.000Z</time>
      </trkpt>
      <trkpt lat="49.32322" lon="0.93788">
        <ele>111.19999694824</ele>
        <time>2019-04-07T08:24:42.000Z</time>
      </trkpt>
      <trkpt lat="49.32323" lon="0.93791">
        <ele>111.19999694824</ele>
        <time>2019-04-07T08:24:56.000Z</time>
      </trkpt>
      <trkpt lat="49.32319" lon="0.93794">
        <ele>111.40000152588</ele>
        <time>2019-04-07T08:25:00.000Z</time>
      </trkpt>
      <trkpt lat="49.32307" lon="0.93769">
        <ele>112.59999847412</ele>
        <time>2019-04-07T08:25:07.000Z</time>
      </trkpt>
      <trkpt lat="49.32264" lon="0.93719">
        <ele>115.80000305176</ele>
        <time>2019-04-07T08:25:21.000Z</time>
      </trkpt>
      <trkpt lat="49.32245" lon="0.93706">
        <ele>116.80000305176</ele>
        <time>2019-04-07T08:25:26.000Z</time>
      </trkpt>
      <trkpt lat="49.32215" lon="0.93685">
        <ele>118</ele>
        <time>2019-04-07T08:25:35.000Z</time>
      </trkpt>
      <trkpt lat="49.32164" lon="0.93646">
        <ele>120</ele>
        <time>2019-04-07T08:25:51.000Z</time>
      </trkpt>
      <trkpt lat="49.32115" lon="0.93613">
        <ele>123</ele>
        <time>2019-04-07T08:26:07.000Z</time>
      </trkpt>
      <trkpt lat="49.32112" lon="0.9361">
        <ele>123</ele>
        <time>2019-04-07T08:26:08.000Z</time>
      </trkpt>
      <trkpt lat="49.32109" lon="0.93607">
        <ele>123.19999694824</ele>
        <time>2019-04-07T08:26:09.000Z</time>
      </trkpt>
      <trkpt lat="49.32072" lon="0.93574">
        <ele>124</ele>
        <time>2019-04-07T08:26:21.000Z</time>
      </trkpt>
      <trkpt lat="49.32043" lon="0.93546">
        <ele>124.59999847412</ele>
        <time>2019-04-07T08:26:30.000Z</time>
      </trkpt>
      <trkpt lat="49.3204" lon="0.93543">
        <ele>124.59999847412</ele>
        <time>2019-04-07T08:26:31.000Z</time>
      </trkpt>
      <trkpt lat="49.32031" lon="0.93533">
        <ele>124.80000305176</ele>
        <time>2019-04-07T08:26:34.000Z</time>
      </trkpt>
      <trkpt lat="49.32028" lon="0.9353">
        <ele>124.59999847412</ele>
        <time>2019-04-07T08:26:35.000Z</time>
      </trkpt>
      <trkpt lat="49.32025" lon="0.93526">
        <ele>124.59999847412</ele>
        <time>2019-04-07T08:26:36.000Z</time>
      </trkpt>
      <trkpt lat="49.31981" lon="0.93477">
        <ele>124.59999847412</ele>
        <time>2019-04-07T08:26:49.000Z</time>
      </trkpt>
      <trkpt lat="49.31945" lon="0.93445">
        <ele>125.40000152588</ele>
        <time>2019-04-07T08:26:58.000Z</time>
      </trkpt>
      <trkpt lat="49.31913" lon="0.93414">
        <ele>126.19999694824</ele>
        <time>2019-04-07T08:27:06.000Z</time>
      </trkpt>
      <trkpt lat="49.31898" lon="0.93397">
        <ele>126.59999847412</ele>
        <time>2019-04-07T08:27:10.000Z</time>
      </trkpt>
      <trkpt lat="49.31886" lon="0.93387">
        <ele>126.59999847412</ele>
        <time>2019-04-07T08:27:13.000Z</time>
      </trkpt>
      <trkpt lat="49.31841" lon="0.93339">
        <ele>126.19999694824</ele>
        <time>2019-04-07T08:27:25.000Z</time>
      </trkpt>
      <trkpt lat="49.3181" lon="0.93304">
        <ele>126.19999694824</ele>
        <time>2019-04-07T08:27:33.000Z</time>
      </trkpt>
      <trkpt lat="49.31802" lon="0.93296">
        <ele>126.40000152588</ele>
        <time>2019-04-07T08:27:35.000Z</time>
      </trkpt>
      <trkpt lat="49.31794" lon="0.93287">
        <ele>126.40000152588</ele>
        <time>2019-04-07T08:27:37.000Z</time>
      </trkpt>
      <trkpt lat="49.31752" lon="0.93248">
        <ele>126.59999847412</ele>
        <time>2019-04-07T08:27:47.000Z</time>
      </trkpt>
      <trkpt lat="49.31707" lon="0.93202">
        <ele>126.40000152588</ele>
        <time>2019-04-07T08:27:58.000Z</time>
      </trkpt>
      <trkpt lat="49.31672" lon="0.93163">
        <ele>126.19999694824</ele>
        <time>2019-04-07T08:28:07.000Z</time>
      </trkpt>
      <trkpt lat="49.31668" lon="0.93159">
        <ele>126.19999694824</ele>
        <time>2019-04-07T08:28:08.000Z</time>
      </trkpt>
      <trkpt lat="49.31665" lon="0.93154">
        <ele>126.19999694824</ele>
        <time>2019-04-07T08:28:09.000Z</time>
      </trkpt>
      <trkpt lat="49.31661" lon="0.93149">
        <ele>126</ele>
        <time>2019-04-07T08:28:10.000Z</time>
      </trkpt>
      <trkpt lat="49.31658" lon="0.93144">
        <ele>126</ele>
        <time>2019-04-07T08:28:11.000Z</time>
      </trkpt>
      <trkpt lat="49.31626" lon="0.93105">
        <ele>126.19999694824</ele>
        <time>2019-04-07T08:28:19.000Z</time>
      </trkpt>
      <trkpt lat="49.31617" lon="0.93097">
        <ele>126.40000152588</ele>
        <time>2019-04-07T08:28:21.000Z</time>
      </trkpt>
      <trkpt lat="49.31612" lon="0.93092">
        <ele>126.40000152588</ele>
        <time>2019-04-07T08:28:22.000Z</time>
      </trkpt>
      <trkpt lat="49.31572" lon="0.9306">
        <ele>126.59999847412</ele>
        <time>2019-04-07T08:28:30.000Z</time>
      </trkpt>
      <trkpt lat="49.31527" lon="0.9301">
        <ele>126</ele>
        <time>2019-04-07T08:28:39.000Z</time>
      </trkpt>
      <trkpt lat="49.31494" lon="0.92976">
        <ele>125.40000152588</ele>
        <time>2019-04-07T08:28:46.000Z</time>
      </trkpt>
      <trkpt lat="49.31446" lon="0.92938">
        <ele>125.59999847412</ele>
        <time>2019-04-07T08:28:56.000Z</time>
      </trkpt>
      <trkpt lat="49.31407" lon="0.92905">
        <ele>125.59999847412</ele>
        <time>2019-04-07T08:29:04.000Z</time>
      </trkpt>
      <trkpt lat="49.31399" lon="0.92891">
        <ele>125.59999847412</ele>
        <time>2019-04-07T08:29:06.000Z</time>
      </trkpt>
      <trkpt lat="49.31391" lon="0.92866">
        <ele>125.40000152588</ele>
        <time>2019-04-07T08:29:09.000Z</time>
      </trkpt>
      <trkpt lat="49.31373" lon="0.92784">
        <ele>124.19999694824</ele>
        <time>2019-04-07T08:29:18.000Z</time>
      </trkpt>
      <trkpt lat="49.31364" lon="0.9274">
        <ele>123.40000152588</ele>
        <time>2019-04-07T08:29:23.000Z</time>
      </trkpt>
      <trkpt lat="49.31353" lon="0.92685">
        <ele>122</ele>
        <time>2019-04-07T08:29:29.000Z</time>
      </trkpt>
      <trkpt lat="49.31343" lon="0.92612">
        <ele>119.80000305176</ele>
        <time>2019-04-07T08:29:39.000Z</time>
      </trkpt>
      <trkpt lat="49.31342" lon="0.92611">
        <ele>119.80000305176</ele>
        <time>2019-04-07T08:29:41.000Z</time>
      </trkpt>
      <trkpt lat="49.31287" lon="0.92633">
        <ele>122.40000152588</ele>
        <time>2019-04-07T08:30:04.000Z</time>
      </trkpt>
      <trkpt lat="49.31282" lon="0.92635">
        <ele>122.80000305176</ele>
        <time>2019-04-07T08:30:05.000Z</time>
      </trkpt>
      <trkpt lat="49.31277" lon="0.92637">
        <ele>122.80000305176</ele>
        <time>2019-04-07T08:30:06.000Z</time>
      </trkpt>
      <trkpt lat="49.31224" lon="0.92659">
        <ele>124.40000152588</ele>
        <time>2019-04-07T08:30:20.000Z</time>
      </trkpt>
      <trkpt lat="49.3117" lon="0.92678">
        <ele>125.19999694824</ele>
        <time>2019-04-07T08:30:32.000Z</time>
      </trkpt>
      <trkpt lat="49.31114" lon="0.92701">
        <ele>125.59999847412</ele>
        <time>2019-04-07T08:30:44.000Z</time>
      </trkpt>
      <trkpt lat="49.31062" lon="0.92724">
        <ele>124.59999847412</ele>
        <time>2019-04-07T08:30:55.000Z</time>
      </trkpt>
      <trkpt lat="49.31025" lon="0.92745">
        <ele>123.19999694824</ele>
        <time>2019-04-07T08:31:04.000Z</time>
      </trkpt>
      <trkpt lat="49.31041" lon="0.92826">
        <ele>125</ele>
        <time>2019-04-07T08:31:17.000Z</time>
      </trkpt>
      <trkpt lat="49.31055" lon="0.92912">
        <ele>126</ele>
        <time>2019-04-07T08:31:29.000Z</time>
      </trkpt>
      <trkpt lat="49.31072" lon="0.92996">
        <ele>127.80000305176</ele>
        <time>2019-04-07T08:31:42.000Z</time>
      </trkpt>
      <trkpt lat="49.31096" lon="0.93069">
        <ele>128.80000305176</ele>
        <time>2019-04-07T08:31:54.000Z</time>
      </trkpt>
      <trkpt lat="49.31106" lon="0.93118">
        <ele>128.80000305176</ele>
        <time>2019-04-07T08:32:01.000Z</time>
      </trkpt>
      <trkpt lat="49.3111" lon="0.9318">
        <ele>128</ele>
        <time>2019-04-07T08:32:09.000Z</time>
      </trkpt>
      <trkpt lat="49.31126" lon="0.9326">
        <ele>127.40000152588</ele>
        <time>2019-04-07T08:32:19.000Z</time>
      </trkpt>
      <trkpt lat="49.31127" lon="0.93268">
        <ele>127.40000152588</ele>
        <time>2019-04-07T08:32:20.000Z</time>
      </trkpt>
      <trkpt lat="49.31134" lon="0.93292">
        <ele>127.59999847412</ele>
        <time>2019-04-07T08:32:23.000Z</time>
      </trkpt>
      <trkpt lat="49.31136" lon="0.93311">
        <ele>127.40000152588</ele>
        <time>2019-04-07T08:32:25.000Z</time>
      </trkpt>
      <trkpt lat="49.31141" lon="0.93347">
        <ele>126.80000305176</ele>
        <time>2019-04-07T08:32:29.000Z</time>
      </trkpt>
      <trkpt lat="49.31158" lon="0.93429">
        <ele>126.19999694824</ele>
        <time>2019-04-07T08:32:39.000Z</time>
      </trkpt>
      <trkpt lat="49.31165" lon="0.93461">
        <ele>126.19999694824</ele>
        <time>2019-04-07T08:32:43.000Z</time>
      </trkpt>
      <trkpt lat="49.3117" lon="0.93484">
        <ele>126.19999694824</ele>
        <time>2019-04-07T08:32:46.000Z</time>
      </trkpt>
      <trkpt lat="49.31182" lon="0.93554">
        <ele>126.40000152588</ele>
        <time>2019-04-07T08:32:55.000Z</time>
      </trkpt>
      <trkpt lat="49.31182" lon="0.93562">
        <ele>126.40000152588</ele>
        <time>2019-04-07T08:32:56.000Z</time>
      </trkpt>
      <trkpt lat="49.31183" lon="0.93569">
        <ele>126.19999694824</ele>
        <time>2019-04-07T08:32:57.000Z</time>
      </trkpt>
      <trkpt lat="49.31188" lon="0.93617">
        <ele>125.19999694824</ele>
        <time>2019-04-07T08:33:04.000Z</time>
      </trkpt>
      <trkpt lat="49.31197" lon="0.93672">
        <ele>124.19999694824</ele>
        <time>2019-04-07T08:33:11.000Z</time>
      </trkpt>
      <trkpt lat="49.31199" lon="0.9368">
        <ele>124.19999694824</ele>
        <time>2019-04-07T08:33:12.000Z</time>
      </trkpt>
      <trkpt lat="49.31199" lon="0.93688">
        <ele>124</ele>
        <time>2019-04-07T08:33:13.000Z</time>
      </trkpt>
      <trkpt lat="49.31199" lon="0.93704">
        <ele>123.59999847412</ele>
        <time>2019-04-07T08:33:15.000Z</time>
      </trkpt>
      <trkpt lat="49.312" lon="0.93712">
        <ele>123.40000152588</ele>
        <time>2019-04-07T08:33:16.000Z</time>
      </trkpt>
      <trkpt lat="49.31202" lon="0.9372">
        <ele>123.40000152588</ele>
        <time>2019-04-07T08:33:17.000Z</time>
      </trkpt>
      <trkpt lat="49.31206" lon="0.93744">
        <ele>123.19999694824</ele>
        <time>2019-04-07T08:33:20.000Z</time>
      </trkpt>
      <trkpt lat="49.31209" lon="0.93775">
        <ele>122.59999847412</ele>
        <time>2019-04-07T08:33:24.000Z</time>
      </trkpt>
      <trkpt lat="49.3121" lon="0.93783">
        <ele>122.59999847412</ele>
        <time>2019-04-07T08:33:25.000Z</time>
      </trkpt>
      <trkpt lat="49.31211" lon="0.93791">
        <ele>122.40000152588</ele>
        <time>2019-04-07T08:33:26.000Z</time>
      </trkpt>
      <trkpt lat="49.31212" lon="0.938">
        <ele>122.19999694824</ele>
        <time>2019-04-07T08:33:27.000Z</time>
      </trkpt>
      <trkpt lat="49.31213" lon="0.9381">
        <ele>122</ele>
        <time>2019-04-07T08:33:28.000Z</time>
      </trkpt>
      <trkpt lat="49.31222" lon="0.93898">
        <ele>121.59999847412</ele>
        <time>2019-04-07T08:33:37.000Z</time>
      </trkpt>
      <trkpt lat="49.31224" lon="0.93908">
        <ele>121.40000152588</ele>
        <time>2019-04-07T08:33:38.000Z</time>
      </trkpt>
      <trkpt lat="49.3123" lon="0.93937">
        <ele>121</ele>
        <time>2019-04-07T08:33:41.000Z</time>
      </trkpt>
      <trkpt lat="49.3124" lon="0.93973">
        <ele>121</ele>
        <time>2019-04-07T08:33:45.000Z</time>
      </trkpt>
      <trkpt lat="49.31249" lon="0.94018">
        <ele>119.40000152588</ele>
        <time>2019-04-07T08:33:50.000Z</time>
      </trkpt>
      <trkpt lat="49.3126" lon="0.94065">
        <ele>117.80000305176</ele>
        <time>2019-04-07T08:33:56.000Z</time>
      </trkpt>
      <trkpt lat="49.3129" lon="0.94117">
        <ele>115.59999847412</ele>
        <time>2019-04-07T08:34:04.000Z</time>
      </trkpt>
      <trkpt lat="49.31325" lon="0.9415">
        <ele>116</ele>
        <time>2019-04-07T08:34:10.000Z</time>
      </trkpt>
      <trkpt lat="49.31326" lon="0.94175">
        <ele>118.40000152588</ele>
        <time>2019-04-07T08:34:14.000Z</time>
      </trkpt>
      <trkpt lat="49.31345" lon="0.9422">
        <ele>122.40000152588</ele>
        <time>2019-04-07T08:34:24.000Z</time>
      </trkpt>
      <trkpt lat="49.31351" lon="0.94226">
        <ele>123.19999694824</ele>
        <time>2019-04-07T08:34:27.000Z</time>
      </trkpt>
      <trkpt lat="49.31353" lon="0.94228">
        <ele>123.59999847412</ele>
        <time>2019-04-07T08:34:28.000Z</time>
      </trkpt>
      <trkpt lat="49.31355" lon="0.94231">
        <ele>124</ele>
        <time>2019-04-07T08:34:29.000Z</time>
      </trkpt>
      <trkpt lat="49.31358" lon="0.94233">
        <ele>124.40000152588</ele>
        <time>2019-04-07T08:34:30.000Z</time>
      </trkpt>
      <trkpt lat="49.31373" lon="0.94245">
        <ele>125.59999847412</ele>
        <time>2019-04-07T08:34:35.000Z</time>
      </trkpt>
      <trkpt lat="49.31376" lon="0.94247">
        <ele>125.80000305176</ele>
        <time>2019-04-07T08:34:36.000Z</time>
      </trkpt>
      <trkpt lat="49.3138" lon="0.94249">
        <ele>125.80000305176</ele>
        <time>2019-04-07T08:34:37.000Z</time>
      </trkpt>
      <trkpt lat="49.31383" lon="0.94251">
        <ele>126</ele>
        <time>2019-04-07T08:34:38.000Z</time>
      </trkpt>
      <trkpt lat="49.31387" lon="0.94252">
        <ele>126.19999694824</ele>
        <time>2019-04-07T08:34:39.000Z</time>
      </trkpt>
      <trkpt lat="49.31391" lon="0.94255">
        <ele>126.19999694824</ele>
        <time>2019-04-07T08:34:40.000Z</time>
      </trkpt>
      <trkpt lat="49.31397" lon="0.9426">
        <ele>126.59999847412</ele>
        <time>2019-04-07T08:34:42.000Z</time>
      </trkpt>
      <trkpt lat="49.314" lon="0.94262">
        <ele>126.80000305176</ele>
        <time>2019-04-07T08:34:43.000Z</time>
      </trkpt>
      <trkpt lat="49.31406" lon="0.94266">
        <ele>127</ele>
        <time>2019-04-07T08:34:45.000Z</time>
      </trkpt>
      <trkpt lat="49.31408" lon="0.94268">
        <ele>127.19999694824</ele>
        <time>2019-04-07T08:34:46.000Z</time>
      </trkpt>
      <trkpt lat="49.31413" lon="0.94272">
        <ele>127.40000152588</ele>
        <time>2019-04-07T08:34:48.000Z</time>
      </trkpt>
      <trkpt lat="49.31424" lon="0.94279">
        <ele>127.59999847412</ele>
        <time>2019-04-07T08:34:51.000Z</time>
      </trkpt>
      <trkpt lat="49.31436" lon="0.94291">
        <ele>128.39999389648</ele>
        <time>2019-04-07T08:34:55.000Z</time>
      </trkpt>
      <trkpt lat="49.31439" lon="0.94298">
        <ele>129.19999694824</ele>
        <time>2019-04-07T08:34:57.000Z</time>
      </trkpt>
      <trkpt lat="49.31439" lon="0.94323">
        <ele>130.80000305176</ele>
        <time>2019-04-07T08:35:04.000Z</time>
      </trkpt>
      <trkpt lat="49.31439" lon="0.94349">
        <ele>132</ele>
        <time>2019-04-07T08:35:10.000Z</time>
      </trkpt>
      <trkpt lat="49.31444" lon="0.9438">
        <ele>133.39999389648</ele>
        <time>2019-04-07T08:35:17.000Z</time>
      </trkpt>
      <trkpt lat="49.31447" lon="0.94391">
        <ele>134</ele>
        <time>2019-04-07T08:35:19.000Z</time>
      </trkpt>
      <trkpt lat="49.31449" lon="0.94422">
        <ele>134</ele>
        <time>2019-04-07T08:35:24.000Z</time>
      </trkpt>
      <trkpt lat="49.31454" lon="0.94469">
        <ele>134.19999694824</ele>
        <time>2019-04-07T08:35:32.000Z</time>
      </trkpt>
      <trkpt lat="49.3147" lon="0.94487">
        <ele>134.60000610352</ele>
        <time>2019-04-07T08:35:37.000Z</time>
      </trkpt>
      <trkpt lat="49.31513" lon="0.94508">
        <ele>136</ele>
        <time>2019-04-07T08:35:47.000Z</time>
      </trkpt>
      <trkpt lat="49.31557" lon="0.94532">
        <ele>137.60000610352</ele>
        <time>2019-04-07T08:35:56.000Z</time>
      </trkpt>
      <trkpt lat="49.31562" lon="0.94534">
        <ele>137.80000305176</ele>
        <time>2019-04-07T08:35:57.000Z</time>
      </trkpt>
      <trkpt lat="49.31571" lon="0.9454">
        <ele>138.19999694824</ele>
        <time>2019-04-07T08:35:59.000Z</time>
      </trkpt>
      <trkpt lat="49.31595" lon="0.94557">
        <ele>139.39999389648</ele>
        <time>2019-04-07T08:36:04.000Z</time>
      </trkpt>
      <trkpt lat="49.31604" lon="0.94565">
        <ele>139.39999389648</ele>
        <time>2019-04-07T08:36:06.000Z</time>
      </trkpt>
      <trkpt lat="49.3166" lon="0.94597">
        <ele>137.80000305176</ele>
        <time>2019-04-07T08:36:16.000Z</time>
      </trkpt>
      <trkpt lat="49.31672" lon="0.94603">
        <ele>137.39999389648</ele>
        <time>2019-04-07T08:36:18.000Z</time>
      </trkpt>
      <trkpt lat="49.31706" lon="0.94612">
        <ele>136</ele>
        <time>2019-04-07T08:36:23.000Z</time>
      </trkpt>
      <trkpt lat="49.31712" lon="0.94613">
        <ele>135.80000305176</ele>
        <time>2019-04-07T08:36:24.000Z</time>
      </trkpt>
      <trkpt lat="49.31738" lon="0.94614">
        <ele>134.80000305176</ele>
        <time>2019-04-07T08:36:28.000Z</time>
      </trkpt>
      <trkpt lat="49.31752" lon="0.94613">
        <ele>134.39999389648</ele>
        <time>2019-04-07T08:36:30.000Z</time>
      </trkpt>
      <trkpt lat="49.31765" lon="0.94609">
        <ele>134.19999694824</ele>
        <time>2019-04-07T08:36:32.000Z</time>
      </trkpt>
      <trkpt lat="49.31784" lon="0.94604">
        <ele>133.60000610352</ele>
        <time>2019-04-07T08:36:35.000Z</time>
      </trkpt>
      <trkpt lat="49.31791" lon="0.94603">
        <ele>133</ele>
        <time>2019-04-07T08:36:36.000Z</time>
      </trkpt>
      <trkpt lat="49.31798" lon="0.94602">
        <ele>132.19999694824</ele>
        <time>2019-04-07T08:36:37.000Z</time>
      </trkpt>
      <trkpt lat="49.31805" lon="0.94603">
        <ele>131.60000610352</ele>
        <time>2019-04-07T08:36:38.000Z</time>
      </trkpt>
      <trkpt lat="49.31829" lon="0.94608">
        <ele>129.19999694824</ele>
        <time>2019-04-07T08:36:42.000Z</time>
      </trkpt>
      <trkpt lat="49.31834" lon="0.9461">
        <ele>128.60000610352</ele>
        <time>2019-04-07T08:36:43.000Z</time>
      </trkpt>
      <trkpt lat="49.3184" lon="0.94615">
        <ele>128</ele>
        <time>2019-04-07T08:36:44.000Z</time>
      </trkpt>
      <trkpt lat="49.31845" lon="0.94622">
        <ele>127.19999694824</ele>
        <time>2019-04-07T08:36:45.000Z</time>
      </trkpt>
      <trkpt lat="49.3185" lon="0.94636">
        <ele>126.40000152588</ele>
        <time>2019-04-07T08:36:47.000Z</time>
      </trkpt>
      <trkpt lat="49.31849" lon="0.9464">
        <ele>126.40000152588</ele>
        <time>2019-04-07T08:36:48.000Z</time>
      </trkpt>
      <trkpt lat="49.31846" lon="0.94645">
        <ele>126.40000152588</ele>
        <time>2019-04-07T08:36:50.000Z</time>
      </trkpt>
      <trkpt lat="49.31844" lon="0.94648">
        <ele>126.59999847412</ele>
        <time>2019-04-07T08:36:51.000Z</time>
      </trkpt>
      <trkpt lat="49.31841" lon="0.94656">
        <ele>126.59999847412</ele>
        <time>2019-04-07T08:36:53.000Z</time>
      </trkpt>
      <trkpt lat="49.31838" lon="0.9466">
        <ele>126.59999847412</ele>
        <time>2019-04-07T08:36:54.000Z</time>
      </trkpt>
      <trkpt lat="49.31836" lon="0.94665">
        <ele>126.59999847412</ele>
        <time>2019-04-07T08:36:55.000Z</time>
      </trkpt>
      <trkpt lat="49.31829" lon="0.94675">
        <ele>126.59999847412</ele>
        <time>2019-04-07T08:36:57.000Z</time>
      </trkpt>
      <trkpt lat="49.31827" lon="0.94681">
        <ele>126.59999847412</ele>
        <time>2019-04-07T08:36:58.000Z</time>
      </trkpt>
      <trkpt lat="49.31813" lon="0.94709">
        <ele>125</ele>
        <time>2019-04-07T08:37:02.000Z</time>
      </trkpt>
      <trkpt lat="49.31784" lon="0.94745">
        <ele>123.40000152588</ele>
        <time>2019-04-07T08:37:09.000Z</time>
      </trkpt>
      <trkpt lat="49.31767" lon="0.94761">
        <ele>123</ele>
        <time>2019-04-07T08:37:13.000Z</time>
      </trkpt>
      <trkpt lat="49.31756" lon="0.94776">
        <ele>122.40000152588</ele>
        <time>2019-04-07T08:37:16.000Z</time>
      </trkpt>
      <trkpt lat="49.31753" lon="0.94782">
        <ele>122</ele>
        <time>2019-04-07T08:37:17.000Z</time>
      </trkpt>
      <trkpt lat="49.3175" lon="0.94789">
        <ele>121.19999694824</ele>
        <time>2019-04-07T08:37:18.000Z</time>
      </trkpt>
      <trkpt lat="49.31744" lon="0.94802">
        <ele>119.59999847412</ele>
        <time>2019-04-07T08:37:20.000Z</time>
      </trkpt>
      <trkpt lat="49.31736" lon="0.94814">
        <ele>119</ele>
        <time>2019-04-07T08:37:22.000Z</time>
      </trkpt>
      <trkpt lat="49.31728" lon="0.94825">
        <ele>119</ele>
        <time>2019-04-07T08:37:24.000Z</time>
      </trkpt>
      <trkpt lat="49.31717" lon="0.94841">
        <ele>119.40000152588</ele>
        <time>2019-04-07T08:37:27.000Z</time>
      </trkpt>
      <trkpt lat="49.31708" lon="0.94852">
        <ele>119.80000305176</ele>
        <time>2019-04-07T08:37:29.000Z</time>
      </trkpt>
      <trkpt lat="49.31704" lon="0.94857">
        <ele>120</ele>
        <time>2019-04-07T08:37:30.000Z</time>
      </trkpt>
      <trkpt lat="49.317" lon="0.94863">
        <ele>120.19999694824</ele>
        <time>2019-04-07T08:37:31.000Z</time>
      </trkpt>
      <trkpt lat="49.31683" lon="0.9489">
        <ele>120.80000305176</ele>
        <time>2019-04-07T08:37:36.000Z</time>
      </trkpt>
      <trkpt lat="49.31679" lon="0.94895">
        <ele>121</ele>
        <time>2019-04-07T08:37:37.000Z</time>
      </trkpt>
      <trkpt lat="49.31665" lon="0.94914">
        <ele>121.80000305176</ele>
        <time>2019-04-07T08:37:41.000Z</time>
      </trkpt>
      <trkpt lat="49.31632" lon="0.94959">
        <ele>124</ele>
        <time>2019-04-07T08:37:50.000Z</time>
      </trkpt>
      <trkpt lat="49.3162" lon="0.94963">
        <ele>124.40000152588</ele>
        <time>2019-04-07T08:37:52.000Z</time>
      </trkpt>
      <trkpt lat="49.316" lon="0.94964">
        <ele>125.80000305176</ele>
        <time>2019-04-07T08:37:55.000Z</time>
      </trkpt>
      <trkpt lat="49.31584" lon="0.94967">
        <ele>127</ele>
        <time>2019-04-07T08:38:04.000Z</time>
      </trkpt>
      <trkpt lat="49.31589" lon="0.94973">
        <ele>126.80000305176</ele>
        <time>2019-04-07T08:38:07.000Z</time>
      </trkpt>
      <trkpt lat="49.31588" lon="0.94992">
        <ele>127.19999694824</ele>
        <time>2019-04-07T08:38:11.000Z</time>
      </trkpt>
      <trkpt lat="49.31563" lon="0.95058">
        <ele>130.60000610352</ele>
        <time>2019-04-07T08:38:25.000Z</time>
      </trkpt>
      <trkpt lat="49.3155" lon="0.95091">
        <ele>130.60000610352</ele>
        <time>2019-04-07T08:38:31.000Z</time>
      </trkpt>
      <trkpt lat="49.31521" lon="0.95164">
        <ele>130.19999694824</ele>
        <time>2019-04-07T08:38:44.000Z</time>
      </trkpt>
      <trkpt lat="49.31493" lon="0.95202">
        <ele>130.80000305176</ele>
        <time>2019-04-07T08:38:53.000Z</time>
      </trkpt>
      <trkpt lat="49.31453" lon="0.95263">
        <ele>132.19999694824</ele>
        <time>2019-04-07T08:39:06.000Z</time>
      </trkpt>
      <trkpt lat="49.31446" lon="0.95287">
        <ele>132.80000305176</ele>
        <time>2019-04-07T08:39:09.000Z</time>
      </trkpt>
      <trkpt lat="49.31445" lon="0.95295">
        <ele>132.80000305176</ele>
        <time>2019-04-07T08:39:10.000Z</time>
      </trkpt>
      <trkpt lat="49.31437" lon="0.95318">
        <ele>133.19999694824</ele>
        <time>2019-04-07T08:39:13.000Z</time>
      </trkpt>
      <trkpt lat="49.31432" lon="0.95331">
        <ele>133</ele>
        <time>2019-04-07T08:39:15.000Z</time>
      </trkpt>
      <trkpt lat="49.3141" lon="0.95394">
        <ele>133.39999389648</ele>
        <time>2019-04-07T08:39:24.000Z</time>
      </trkpt>
      <trkpt lat="49.31381" lon="0.95467">
        <ele>133.60000610352</ele>
        <time>2019-04-07T08:39:36.000Z</time>
      </trkpt>
      <trkpt lat="49.31369" lon="0.95501">
        <ele>134</ele>
        <time>2019-04-07T08:39:43.000Z</time>
      </trkpt>
      <trkpt lat="49.3131" lon="0.95486">
        <ele>132.80000305176</ele>
        <time>2019-04-07T08:39:57.000Z</time>
      </trkpt>
      <trkpt lat="49.31256" lon="0.95474">
        <ele>129.60000610352</ele>
        <time>2019-04-07T08:40:07.000Z</time>
      </trkpt>
      <trkpt lat="49.31239" lon="0.9551">
        <ele>128</ele>
        <time>2019-04-07T08:40:13.000Z</time>
      </trkpt>
      <trkpt lat="49.31219" lon="0.95595">
        <ele>126.80000305176</ele>
        <time>2019-04-07T08:40:24.000Z</time>
      </trkpt>
      <trkpt lat="49.31214" lon="0.95621">
        <ele>126.80000305176</ele>
        <time>2019-04-07T08:40:27.000Z</time>
      </trkpt>
      <trkpt lat="49.31201" lon="0.95702">
        <ele>126.40000152588</ele>
        <time>2019-04-07T08:40:36.000Z</time>
      </trkpt>
      <trkpt lat="49.31199" lon="0.95711">
        <ele>126.19999694824</ele>
        <time>2019-04-07T08:40:37.000Z</time>
      </trkpt>
      <trkpt lat="49.31189" lon="0.95755">
        <ele>124.40000152588</ele>
        <time>2019-04-07T08:40:42.000Z</time>
      </trkpt>
      <trkpt lat="49.31191" lon="0.95772">
        <ele>123.59999847412</ele>
        <time>2019-04-07T08:40:45.000Z</time>
      </trkpt>
      <trkpt lat="49.31211" lon="0.95782">
        <ele>124</ele>
        <time>2019-04-07T08:40:50.000Z</time>
      </trkpt>
      <trkpt lat="49.3124" lon="0.95788">
        <ele>125.59999847412</ele>
        <time>2019-04-07T08:40:56.000Z</time>
      </trkpt>
      <trkpt lat="49.31265" lon="0.95797">
        <ele>126.59999847412</ele>
        <time>2019-04-07T08:41:01.000Z</time>
      </trkpt>
      <trkpt lat="49.31274" lon="0.95804">
        <ele>126.80000305176</ele>
        <time>2019-04-07T08:41:03.000Z</time>
      </trkpt>
      <trkpt lat="49.31281" lon="0.95816">
        <ele>126.40000152588</ele>
        <time>2019-04-07T08:41:05.000Z</time>
      </trkpt>
      <trkpt lat="49.31305" lon="0.95867">
        <ele>125.19999694824</ele>
        <time>2019-04-07T08:41:14.000Z</time>
      </trkpt>
      <trkpt lat="49.31323" lon="0.95913">
        <ele>124.59999847412</ele>
        <time>2019-04-07T08:41:20.000Z</time>
      </trkpt>
      <trkpt lat="49.31347" lon="0.95953">
        <ele>125.80000305176</ele>
        <time>2019-04-07T08:41:26.000Z</time>
      </trkpt>
      <trkpt lat="49.31384" lon="0.96014">
        <ele>127</ele>
        <time>2019-04-07T08:41:36.000Z</time>
      </trkpt>
      <trkpt lat="49.31428" lon="0.96071">
        <ele>126.80000305176</ele>
        <time>2019-04-07T08:41:47.000Z</time>
      </trkpt>
      <trkpt lat="49.31469" lon="0.96125">
        <ele>126.19999694824</ele>
        <time>2019-04-07T08:41:57.000Z</time>
      </trkpt>
      <trkpt lat="49.31474" lon="0.96129">
        <ele>126.19999694824</ele>
        <time>2019-04-07T08:41:58.000Z</time>
      </trkpt>
      <trkpt lat="49.31517" lon="0.96186">
        <ele>125.40000152588</ele>
        <time>2019-04-07T08:42:07.000Z</time>
      </trkpt>
      <trkpt lat="49.31538" lon="0.96222">
        <ele>124.80000305176</ele>
        <time>2019-04-07T08:42:13.000Z</time>
      </trkpt>
      <trkpt lat="49.31558" lon="0.96244">
        <ele>123.59999847412</ele>
        <time>2019-04-07T08:42:17.000Z</time>
      </trkpt>
      <trkpt lat="49.31565" lon="0.96259">
        <ele>123</ele>
        <time>2019-04-07T08:42:19.000Z</time>
      </trkpt>
      <trkpt lat="49.31587" lon="0.96306">
        <ele>120.80000305176</ele>
        <time>2019-04-07T08:42:25.000Z</time>
      </trkpt>
      <trkpt lat="49.31598" lon="0.96334">
        <ele>120</ele>
        <time>2019-04-07T08:42:28.000Z</time>
      </trkpt>
      <trkpt lat="49.31636" lon="0.96401">
        <ele>118.59999847412</ele>
        <time>2019-04-07T08:42:36.000Z</time>
      </trkpt>
      <trkpt lat="49.31668" lon="0.96472">
        <ele>116.80000305176</ele>
        <time>2019-04-07T08:42:44.000Z</time>
      </trkpt>
      <trkpt lat="49.31668" lon="0.96493">
        <ele>116</ele>
        <time>2019-04-07T08:42:49.000Z</time>
      </trkpt>
      <trkpt lat="49.31647" lon="0.96494">
        <ele>115.59999847412</ele>
        <time>2019-04-07T08:42:52.000Z</time>
      </trkpt>
      <trkpt lat="49.31629" lon="0.96495">
        <ele>115.19999694824</ele>
        <time>2019-04-07T08:42:55.000Z</time>
      </trkpt>
      <trkpt lat="49.31574" lon="0.96496">
        <ele>114.59999847412</ele>
        <time>2019-04-07T08:43:05.000Z</time>
      </trkpt>
      <trkpt lat="49.31516" lon="0.96496">
        <ele>113.59999847412</ele>
        <time>2019-04-07T08:43:15.000Z</time>
      </trkpt>
      <trkpt lat="49.31487" lon="0.96491">
        <ele>114.40000152588</ele>
        <time>2019-04-07T08:43:20.000Z</time>
      </trkpt>
      <trkpt lat="49.31441" lon="0.96476">
        <ele>116.80000305176</ele>
        <time>2019-04-07T08:43:30.000Z</time>
      </trkpt>
      <trkpt lat="49.31385" lon="0.96459">
        <ele>117.80000305176</ele>
        <time>2019-04-07T08:43:43.000Z</time>
      </trkpt>
      <trkpt lat="49.31342" lon="0.96435">
        <ele>118.40000152588</ele>
        <time>2019-04-07T08:43:53.000Z</time>
      </trkpt>
      <trkpt lat="49.31289" lon="0.96404">
        <ele>118.80000305176</ele>
        <time>2019-04-07T08:44:05.000Z</time>
      </trkpt>
      <trkpt lat="49.31285" lon="0.96401">
        <ele>118.80000305176</ele>
        <time>2019-04-07T08:44:06.000Z</time>
      </trkpt>
      <trkpt lat="49.31236" lon="0.96363">
        <ele>118.40000152588</ele>
        <time>2019-04-07T08:44:16.000Z</time>
      </trkpt>
      <trkpt lat="49.31189" lon="0.96325">
        <ele>117.80000305176</ele>
        <time>2019-04-07T08:44:23.000Z</time>
      </trkpt>
      <trkpt lat="49.31159" lon="0.96311">
        <ele>118.40000152588</ele>
        <time>2019-04-07T08:44:30.000Z</time>
      </trkpt>
      <trkpt lat="49.31138" lon="0.96306">
        <ele>119</ele>
        <time>2019-04-07T08:44:37.000Z</time>
      </trkpt>
      <trkpt lat="49.31105" lon="0.96301">
        <ele>119.80000305176</ele>
        <time>2019-04-07T08:44:47.000Z</time>
      </trkpt>
      <trkpt lat="49.31112" lon="0.96389">
        <ele>122.80000305176</ele>
        <time>2019-04-07T08:45:03.000Z</time>
      </trkpt>
      <trkpt lat="49.31115" lon="0.96417">
        <ele>123.19999694824</ele>
        <time>2019-04-07T08:45:07.000Z</time>
      </trkpt>
      <trkpt lat="49.31118" lon="0.96424">
        <ele>123.19999694824</ele>
        <time>2019-04-07T08:45:08.000Z</time>
      </trkpt>
      <trkpt lat="49.31123" lon="0.96443">
        <ele>123.19999694824</ele>
        <time>2019-04-07T08:45:11.000Z</time>
      </trkpt>
      <trkpt lat="49.31126" lon="0.96449">
        <ele>123.19999694824</ele>
        <time>2019-04-07T08:45:12.000Z</time>
      </trkpt>
      <trkpt lat="49.31156" lon="0.96523">
        <ele>124.59999847412</ele>
        <time>2019-04-07T08:45:25.000Z</time>
      </trkpt>
      <trkpt lat="49.31168" lon="0.96594">
        <ele>125.80000305176</ele>
        <time>2019-04-07T08:45:36.000Z</time>
      </trkpt>
      <trkpt lat="49.31196" lon="0.96671">
        <ele>126.40000152588</ele>
        <time>2019-04-07T08:45:49.000Z</time>
      </trkpt>
      <trkpt lat="49.31217" lon="0.96727">
        <ele>127.19999694824</ele>
        <time>2019-04-07T08:45:58.000Z</time>
      </trkpt>
      <trkpt lat="49.31252" lon="0.96792">
        <ele>128.39999389648</ele>
        <time>2019-04-07T08:46:12.000Z</time>
      </trkpt>
      <trkpt lat="49.313" lon="0.96839">
        <ele>128.19999694824</ele>
        <time>2019-04-07T08:46:25.000Z</time>
      </trkpt>
      <trkpt lat="49.31304" lon="0.96843">
        <ele>128.19999694824</ele>
        <time>2019-04-07T08:46:26.000Z</time>
      </trkpt>
      <trkpt lat="49.31352" lon="0.96891">
        <ele>127</ele>
        <time>2019-04-07T08:46:37.000Z</time>
      </trkpt>
      <trkpt lat="49.31387" lon="0.96928">
        <ele>125.59999847412</ele>
        <time>2019-04-07T08:46:45.000Z</time>
      </trkpt>
      <trkpt lat="49.31399" lon="0.96943">
        <ele>124.80000305176</ele>
        <time>2019-04-07T08:46:48.000Z</time>
      </trkpt>
      <trkpt lat="49.31402" lon="0.96962">
        <ele>124.40000152588</ele>
        <time>2019-04-07T08:46:51.000Z</time>
      </trkpt>
      <trkpt lat="49.31396" lon="0.96973">
        <ele>124.19999694824</ele>
        <time>2019-04-07T08:46:53.000Z</time>
      </trkpt>
      <trkpt lat="49.31352" lon="0.97032">
        <ele>126</ele>
        <time>2019-04-07T08:47:04.000Z</time>
      </trkpt>
      <trkpt lat="49.31309" lon="0.97094">
        <ele>126</ele>
        <time>2019-04-07T08:47:15.000Z</time>
      </trkpt>
      <trkpt lat="49.31268" lon="0.97153">
        <ele>127.19999694824</ele>
        <time>2019-04-07T08:47:26.000Z</time>
      </trkpt>
      <trkpt lat="49.31233" lon="0.97205">
        <ele>127.80000305176</ele>
        <time>2019-04-07T08:47:35.000Z</time>
      </trkpt>
      <trkpt lat="49.31223" lon="0.97224">
        <ele>128</ele>
        <time>2019-04-07T08:47:38.000Z</time>
      </trkpt>
      <trkpt lat="49.31205" lon="0.97246">
        <ele>127.59999847412</ele>
        <time>2019-04-07T08:47:42.000Z</time>
      </trkpt>
      <trkpt lat="49.31179" lon="0.97306">
        <ele>125.40000152588</ele>
        <time>2019-04-07T08:47:50.000Z</time>
      </trkpt>
      <trkpt lat="49.31167" lon="0.97337">
        <ele>124.19999694824</ele>
        <time>2019-04-07T08:47:54.000Z</time>
      </trkpt>
      <trkpt lat="49.31159" lon="0.97361">
        <ele>123.19999694824</ele>
        <time>2019-04-07T08:47:58.000Z</time>
      </trkpt>
      <trkpt lat="49.31163" lon="0.97368">
        <ele>123.19999694824</ele>
        <time>2019-04-07T08:48:00.000Z</time>
      </trkpt>
      <trkpt lat="49.31172" lon="0.97373">
        <ele>123.40000152588</ele>
        <time>2019-04-07T08:48:02.000Z</time>
      </trkpt>
      <trkpt lat="49.31203" lon="0.97392">
        <ele>124.19999694824</ele>
        <time>2019-04-07T08:48:09.000Z</time>
      </trkpt>
      <trkpt lat="49.3126" lon="0.97408">
        <ele>125.59999847412</ele>
        <time>2019-04-07T08:48:20.000Z</time>
      </trkpt>
      <trkpt lat="49.31293" lon="0.97414">
        <ele>126.40000152588</ele>
        <time>2019-04-07T08:48:26.000Z</time>
      </trkpt>
      <trkpt lat="49.3132" lon="0.97426">
        <ele>126.59999847412</ele>
        <time>2019-04-07T08:48:31.000Z</time>
      </trkpt>
      <trkpt lat="49.31326" lon="0.97427">
        <ele>126.59999847412</ele>
        <time>2019-04-07T08:48:32.000Z</time>
      </trkpt>
      <trkpt lat="49.31337" lon="0.97425">
        <ele>126.59999847412</ele>
        <time>2019-04-07T08:48:34.000Z</time>
      </trkpt>
      <trkpt lat="49.31353" lon="0.97417">
        <ele>126.59999847412</ele>
        <time>2019-04-07T08:48:37.000Z</time>
      </trkpt>
      <trkpt lat="49.31369" lon="0.97409">
        <ele>126.80000305176</ele>
        <time>2019-04-07T08:48:40.000Z</time>
      </trkpt>
      <trkpt lat="49.31381" lon="0.97407">
        <ele>126.59999847412</ele>
        <time>2019-04-07T08:48:42.000Z</time>
      </trkpt>
      <trkpt lat="49.31439" lon="0.97419">
        <ele>125.80000305176</ele>
        <time>2019-04-07T08:48:52.000Z</time>
      </trkpt>
      <trkpt lat="49.31492" lon="0.97435">
        <ele>125</ele>
        <time>2019-04-07T08:49:01.000Z</time>
      </trkpt>
      <trkpt lat="49.31498" lon="0.97436">
        <ele>124.80000305176</ele>
        <time>2019-04-07T08:49:02.000Z</time>
      </trkpt>
      <trkpt lat="49.31537" lon="0.97447">
        <ele>124</ele>
        <time>2019-04-07T08:49:08.000Z</time>
      </trkpt>
      <trkpt lat="49.31551" lon="0.97451">
        <ele>123.19999694824</ele>
        <time>2019-04-07T08:49:10.000Z</time>
      </trkpt>
      <trkpt lat="49.31573" lon="0.97458">
        <ele>122.19999694824</ele>
        <time>2019-04-07T08:49:13.000Z</time>
      </trkpt>
      <trkpt lat="49.3162" lon="0.97472">
        <ele>119.59999847412</ele>
        <time>2019-04-07T08:49:19.000Z</time>
      </trkpt>
      <trkpt lat="49.31678" lon="0.97491">
        <ele>116</ele>
        <time>2019-04-07T08:49:25.000Z</time>
      </trkpt>
      <trkpt lat="49.31739" lon="0.9751">
        <ele>111.80000305176</ele>
        <time>2019-04-07T08:49:31.000Z</time>
      </trkpt>
      <trkpt lat="49.31749" lon="0.97514">
        <ele>111</ele>
        <time>2019-04-07T08:49:32.000Z</time>
      </trkpt>
      <trkpt lat="49.31759" lon="0.97517">
        <ele>110.59999847412</ele>
        <time>2019-04-07T08:49:33.000Z</time>
      </trkpt>
      <trkpt lat="49.31806" lon="0.97531">
        <ele>107.80000305176</ele>
        <time>2019-04-07T08:49:38.000Z</time>
      </trkpt>
      <trkpt lat="49.31825" lon="0.97537">
        <ele>106.59999847412</ele>
        <time>2019-04-07T08:49:40.000Z</time>
      </trkpt>
      <trkpt lat="49.31852" lon="0.97545">
        <ele>105</ele>
        <time>2019-04-07T08:49:43.000Z</time>
      </trkpt>
      <trkpt lat="49.31861" lon="0.97549">
        <ele>104.40000152588</ele>
        <time>2019-04-07T08:49:44.000Z</time>
      </trkpt>
      <trkpt lat="49.31902" lon="0.97562">
        <ele>102.40000152588</ele>
        <time>2019-04-07T08:49:49.000Z</time>
      </trkpt>
      <trkpt lat="49.3191" lon="0.97565">
        <ele>102</ele>
        <time>2019-04-07T08:49:50.000Z</time>
      </trkpt>
      <trkpt lat="49.31964" lon="0.97583">
        <ele>100</ele>
        <time>2019-04-07T08:49:57.000Z</time>
      </trkpt>
      <trkpt lat="49.31994" lon="0.97593">
        <ele>99.199996948242</ele>
        <time>2019-04-07T08:50:01.000Z</time>
      </trkpt>
      <trkpt lat="49.3204" lon="0.97609">
        <ele>98</ele>
        <time>2019-04-07T08:50:07.000Z</time>
      </trkpt>
      <trkpt lat="49.32056" lon="0.97614">
        <ele>97.400001525879</ele>
        <time>2019-04-07T08:50:09.000Z</time>
      </trkpt>
      <trkpt lat="49.32064" lon="0.97617">
        <ele>97</ele>
        <time>2019-04-07T08:50:10.000Z</time>
      </trkpt>
      <trkpt lat="49.32072" lon="0.97621">
        <ele>96.800003051758</ele>
        <time>2019-04-07T08:50:11.000Z</time>
      </trkpt>
      <trkpt lat="49.32127" lon="0.97639">
        <ele>94</ele>
        <time>2019-04-07T08:50:18.000Z</time>
      </trkpt>
      <trkpt lat="49.32183" lon="0.97658">
        <ele>87.400001525879</ele>
        <time>2019-04-07T08:50:24.000Z</time>
      </trkpt>
      <trkpt lat="49.32226" lon="0.9767">
        <ele>81.800003051758</ele>
        <time>2019-04-07T08:50:28.000Z</time>
      </trkpt>
      <trkpt lat="49.32272" lon="0.97687">
        <ele>73.400001525879</ele>
        <time>2019-04-07T08:50:33.000Z</time>
      </trkpt>
      <trkpt lat="49.32277" lon="0.97686">
        <ele>72.599998474121</ele>
        <time>2019-04-07T08:50:34.000Z</time>
      </trkpt>
      <trkpt lat="49.32286" lon="0.97681">
        <ele>72.400001525879</ele>
        <time>2019-04-07T08:50:36.000Z</time>
      </trkpt>
      <trkpt lat="49.32296" lon="0.97667">
        <ele>73.199996948242</ele>
        <time>2019-04-07T08:50:39.000Z</time>
      </trkpt>
      <trkpt lat="49.32317" lon="0.97642">
        <ele>71.400001525879</ele>
        <time>2019-04-07T08:50:46.000Z</time>
      </trkpt>
      <trkpt lat="49.32333" lon="0.9756">
        <ele>64.599998474121</ele>
        <time>2019-04-07T08:51:04.000Z</time>
      </trkpt>
      <trkpt lat="49.3233" lon="0.97546">
        <ele>63.200000762939</ele>
        <time>2019-04-07T08:51:07.000Z</time>
      </trkpt>
      <trkpt lat="49.32317" lon="0.97516">
        <ele>60.799999237061</ele>
        <time>2019-04-07T08:51:13.000Z</time>
      </trkpt>
      <trkpt lat="49.32281" lon="0.97454">
        <ele>58.599998474121</ele>
        <time>2019-04-07T08:51:27.000Z</time>
      </trkpt>
      <trkpt lat="49.32236" lon="0.97407">
        <ele>57.799999237061</ele>
        <time>2019-04-07T08:51:41.000Z</time>
      </trkpt>
      <trkpt lat="49.3219" lon="0.97359">
        <ele>57.599998474121</ele>
        <time>2019-04-07T08:51:55.000Z</time>
      </trkpt>
      <trkpt lat="49.32179" lon="0.97347">
        <ele>57.200000762939</ele>
        <time>2019-04-07T08:52:00.000Z</time>
      </trkpt>
      <trkpt lat="49.32128" lon="0.97316">
        <ele>58.599998474121</ele>
        <time>2019-04-07T08:52:17.000Z</time>
      </trkpt>
      <trkpt lat="49.32135" lon="0.97233">
        <ele>54.200000762939</ele>
        <time>2019-04-07T08:52:34.000Z</time>
      </trkpt>
      <trkpt lat="49.32136" lon="0.97212">
        <ele>56</ele>
        <time>2019-04-07T08:52:37.000Z</time>
      </trkpt>
      <trkpt lat="49.32136" lon="0.97205">
        <ele>56.599998474121</ele>
        <time>2019-04-07T08:52:38.000Z</time>
      </trkpt>
      <trkpt lat="49.32137" lon="0.97198">
        <ele>57.200000762939</ele>
        <time>2019-04-07T08:52:39.000Z</time>
      </trkpt>
      <trkpt lat="49.32141" lon="0.97142">
        <ele>61.599998474121</ele>
        <time>2019-04-07T08:52:47.000Z</time>
      </trkpt>
      <trkpt lat="49.3214" lon="0.97135">
        <ele>61.599998474121</ele>
        <time>2019-04-07T08:52:48.000Z</time>
      </trkpt>
      <trkpt lat="49.32142" lon="0.97121">
        <ele>62.200000762939</ele>
        <time>2019-04-07T08:52:50.000Z</time>
      </trkpt>
      <trkpt lat="49.32151" lon="0.97066">
        <ele>62.599998474121</ele>
        <time>2019-04-07T08:53:00.000Z</time>
      </trkpt>
      <trkpt lat="49.32154" lon="0.9706">
        <ele>62.599998474121</ele>
        <time>2019-04-07T08:53:01.000Z</time>
      </trkpt>
      <trkpt lat="49.32182" lon="0.96983">
        <ele>61.200000762939</ele>
        <time>2019-04-07T08:53:14.000Z</time>
      </trkpt>
      <trkpt lat="49.32205" lon="0.96931">
        <ele>61.400001525879</ele>
        <time>2019-04-07T08:53:22.000Z</time>
      </trkpt>
      <trkpt lat="49.32208" lon="0.96924">
        <ele>62</ele>
        <time>2019-04-07T08:53:23.000Z</time>
      </trkpt>
      <trkpt lat="49.32215" lon="0.9691">
        <ele>63</ele>
        <time>2019-04-07T08:53:25.000Z</time>
      </trkpt>
      <trkpt lat="49.32227" lon="0.96873">
        <ele>64.199996948242</ele>
        <time>2019-04-07T08:53:30.000Z</time>
      </trkpt>
      <trkpt lat="49.32234" lon="0.96799">
        <ele>65.400001525879</ele>
        <time>2019-04-07T08:53:39.000Z</time>
      </trkpt>
      <trkpt lat="49.32228" lon="0.96779">
        <ele>64.599998474121</ele>
        <time>2019-04-07T08:53:42.000Z</time>
      </trkpt>
      <trkpt lat="49.32193" lon="0.96707">
        <ele>61.200000762939</ele>
        <time>2019-04-07T08:53:53.000Z</time>
      </trkpt>
      <trkpt lat="49.32185" lon="0.96689">
        <ele>62.799999237061</ele>
        <time>2019-04-07T08:53:56.000Z</time>
      </trkpt>
      <trkpt lat="49.32166" lon="0.96607">
        <ele>66</ele>
        <time>2019-04-07T08:54:08.000Z</time>
      </trkpt>
      <trkpt lat="49.32163" lon="0.9653">
        <ele>68.400001525879</ele>
        <time>2019-04-07T08:54:20.000Z</time>
      </trkpt>
      <trkpt lat="49.32164" lon="0.96497">
        <ele>67.800003051758</ele>
        <time>2019-04-07T08:54:25.000Z</time>
      </trkpt>
      <trkpt lat="49.32178" lon="0.96445">
        <ele>68.199996948242</ele>
        <time>2019-04-07T08:54:33.000Z</time>
      </trkpt>
      <trkpt lat="49.32179" lon="0.96431">
        <ele>68</ele>
        <time>2019-04-07T08:54:35.000Z</time>
      </trkpt>
      <trkpt lat="49.32185" lon="0.96378">
        <ele>67.800003051758</ele>
        <time>2019-04-07T08:54:42.000Z</time>
      </trkpt>
      <trkpt lat="49.32192" lon="0.9632">
        <ele>68.800003051758</ele>
        <time>2019-04-07T08:54:50.000Z</time>
      </trkpt>
      <trkpt lat="49.32189" lon="0.96279">
        <ele>69.400001525879</ele>
        <time>2019-04-07T08:54:56.000Z</time>
      </trkpt>
      <trkpt lat="49.3217" lon="0.962">
        <ele>69.800003051758</ele>
        <time>2019-04-07T08:55:08.000Z</time>
      </trkpt>
      <trkpt lat="49.3216" lon="0.96117">
        <ele>71.400001525879</ele>
        <time>2019-04-07T08:55:20.000Z</time>
      </trkpt>
      <trkpt lat="49.32161" lon="0.96098">
        <ele>71</ele>
        <time>2019-04-07T08:55:23.000Z</time>
      </trkpt>
      <trkpt lat="49.3216" lon="0.96073">
        <ele>71</ele>
        <time>2019-04-07T08:55:27.000Z</time>
      </trkpt>
      <trkpt lat="49.32167" lon="0.96057">
        <ele>71</ele>
        <time>2019-04-07T08:55:30.000Z</time>
      </trkpt>
      <trkpt lat="49.32206" lon="0.95993">
        <ele>72.599998474121</ele>
        <time>2019-04-07T08:55:44.000Z</time>
      </trkpt>
      <trkpt lat="49.32224" lon="0.95972">
        <ele>74.400001525879</ele>
        <time>2019-04-07T08:55:49.000Z</time>
      </trkpt>
      <trkpt lat="49.32256" lon="0.95916">
        <ele>77</ele>
        <time>2019-04-07T08:55:59.000Z</time>
      </trkpt>
      <trkpt lat="49.32264" lon="0.95863">
        <ele>75.400001525879</ele>
        <time>2019-04-07T08:56:07.000Z</time>
      </trkpt>
      <trkpt lat="49.32281" lon="0.95779">
        <ele>75.800003051758</ele>
        <time>2019-04-07T08:56:21.000Z</time>
      </trkpt>
      <trkpt lat="49.323" lon="0.95714">
        <ele>80.800003051758</ele>
        <time>2019-04-07T08:56:31.000Z</time>
      </trkpt>
      <trkpt lat="49.32323" lon="0.95637">
        <ele>84.800003051758</ele>
        <time>2019-04-07T08:56:43.000Z</time>
      </trkpt>
      <trkpt lat="49.32342" lon="0.95556">
        <ele>86.599998474121</ele>
        <time>2019-04-07T08:56:54.000Z</time>
      </trkpt>
      <trkpt lat="49.32341" lon="0.9555">
        <ele>86.599998474121</ele>
        <time>2019-04-07T08:56:55.000Z</time>
      </trkpt>
      <trkpt lat="49.32347" lon="0.95464">
        <ele>85.599998474121</ele>
        <time>2019-04-07T08:57:07.000Z</time>
      </trkpt>
      <trkpt lat="49.32357" lon="0.95381">
        <ele>82.800003051758</ele>
        <time>2019-04-07T08:57:19.000Z</time>
      </trkpt>
      <trkpt lat="49.32368" lon="0.9533">
        <ele>82.400001525879</ele>
        <time>2019-04-07T08:57:26.000Z</time>
      </trkpt>
      <trkpt lat="49.32375" lon="0.95313">
        <ele>83</ele>
        <time>2019-04-07T08:57:29.000Z</time>
      </trkpt>
      <trkpt lat="49.32427" lon="0.95288">
        <ele>88.800003051758</ele>
        <time>2019-04-07T08:57:42.000Z</time>
      </trkpt>
      <trkpt lat="49.32465" lon="0.95257">
        <ele>91.599998474121</ele>
        <time>2019-04-07T08:57:52.000Z</time>
      </trkpt>
      <trkpt lat="49.32494" lon="0.95187">
        <ele>93.400001525879</ele>
        <time>2019-04-07T08:58:04.000Z</time>
      </trkpt>
      <trkpt lat="49.32516" lon="0.95105">
        <ele>91.199996948242</ele>
        <time>2019-04-07T08:58:17.000Z</time>
      </trkpt>
      <trkpt lat="49.32537" lon="0.95026">
        <ele>91.800003051758</ele>
        <time>2019-04-07T08:58:29.000Z</time>
      </trkpt>
      <trkpt lat="49.32563" lon="0.94953">
        <ele>95</ele>
        <time>2019-04-07T08:58:42.000Z</time>
      </trkpt>
      <trkpt lat="49.32582" lon="0.94872">
        <ele>98.599998474121</ele>
        <time>2019-04-07T08:58:57.000Z</time>
      </trkpt>
      <trkpt lat="49.3258" lon="0.9486">
        <ele>99.599998474121</ele>
        <time>2019-04-07T08:59:02.000Z</time>
      </trkpt>
      <trkpt lat="49.32551" lon="0.94851">
        <ele>98.400001525879</ele>
        <time>2019-04-07T08:59:13.000Z</time>
      </trkpt>
      <trkpt lat="49.32528" lon="0.94845">
        <ele>97.599998474121</ele>
        <time>2019-04-07T08:59:27.000Z</time>
      </trkpt>
      <trkpt lat="49.32514" lon="0.94842">
        <ele>99.800003051758</ele>
        <time>2019-04-07T08:59:37.000Z</time>
      </trkpt>
      <trkpt lat="49.32495" lon="0.94837">
        <ele>102.40000152588</ele>
        <time>2019-04-07T08:59:51.000Z</time>
      </trkpt>
      <trkpt lat="49.32488" lon="0.94834">
        <ele>103.59999847412</ele>
        <time>2019-04-07T08:59:56.000Z</time>
      </trkpt>
      <trkpt lat="49.32474" lon="0.94831">
        <ele>105.40000152588</ele>
        <time>2019-04-07T09:00:08.000Z</time>
      </trkpt>
      <trkpt lat="49.32474" lon="0.94832">
        <ele>105.40000152588</ele>
        <time>2019-04-07T09:00:09.000Z</time>
      </trkpt>
      <trkpt lat="49.32474" lon="0.94832">
        <ele>105.40000152588</ele>
        <time>2019-04-07T09:00:10.000Z</time>
      </trkpt>
      <trkpt lat="49.32473" lon="0.94831">
        <ele>105.59999847412</ele>
        <time>2019-04-07T09:00:15.000Z</time>
      </trkpt>
      <trkpt lat="49.32473" lon="0.94831">
        <ele>105.59999847412</ele>
        <time>2019-04-07T09:00:17.000Z</time>
      </trkpt>
      <trkpt lat="49.32473" lon="0.9483">
        <ele>105.80000305176</ele>
        <time>2019-04-07T09:00:20.000Z</time>
      </trkpt>
      <trkpt lat="49.32473" lon="0.9483">
        <ele>105.80000305176</ele>
        <time>2019-04-07T09:00:25.000Z</time>
      </trkpt>
      <trkpt lat="49.32472" lon="0.9483">
        <ele>105.80000305176</ele>
        <time>2019-04-07T09:00:28.000Z</time>
      </trkpt>
      <trkpt lat="49.32472" lon="0.9483">
        <ele>106</ele>
        <time>2019-04-07T09:00:32.000Z</time>
      </trkpt>
      <trkpt lat="49.32472" lon="0.9483">
        <ele>106</ele>
        <time>2019-04-07T09:00:41.000Z</time>
      </trkpt>
      <trkpt lat="49.32471" lon="0.9483">
        <ele>106</ele>
        <time>2019-04-07T09:00:44.000Z</time>
      </trkpt>
      <trkpt lat="49.32471" lon="0.9483">
        <ele>106</ele>
        <time>2019-04-07T09:00:46.000Z</time>
      </trkpt>
      <trkpt lat="49.3247" lon="0.9483">
        <ele>106</ele>
        <time>2019-04-07T09:00:47.000Z</time>
      </trkpt>
      <trkpt lat="49.32467" lon="0.94829">
        <ele>106.59999847412</ele>
        <time>2019-04-07T09:01:06.000Z</time>
      </trkpt>
      <trkpt lat="49.32445" lon="0.94825">
        <ele>110.19999694824</ele>
        <time>2019-04-07T09:01:14.000Z</time>
      </trkpt>
      <trkpt lat="49.32403" lon="0.94823">
        <ele>111.40000152588</ele>
        <time>2019-04-07T09:01:27.000Z</time>
      </trkpt>
      <trkpt lat="49.32383" lon="0.94822">
        <ele>111.80000305176</ele>
        <time>2019-04-07T09:01:33.000Z</time>
      </trkpt>
      <trkpt lat="49.32362" lon="0.9482">
        <ele>112.59999847412</ele>
        <time>2019-04-07T09:01:40.000Z</time>
      </trkpt>
      <trkpt lat="49.3231" lon="0.9481">
        <ele>110.40000152588</ele>
        <time>2019-04-07T09:01:55.000Z</time>
      </trkpt>
      <trkpt lat="49.32283" lon="0.94807">
        <ele>109.19999694824</ele>
        <time>2019-04-07T09:02:01.000Z</time>
      </trkpt>
      <trkpt lat="49.32234" lon="0.94795">
        <ele>108.40000152588</ele>
        <time>2019-04-07T09:02:16.000Z</time>
      </trkpt>
      <trkpt lat="49.32224" lon="0.94799">
        <ele>108</ele>
        <time>2019-04-07T09:02:20.000Z</time>
      </trkpt>
      <trkpt lat="49.32214" lon="0.94791">
        <ele>108</ele>
        <time>2019-04-07T09:02:24.000Z</time>
      </trkpt>
      <trkpt lat="49.32211" lon="0.9479">
        <ele>108</ele>
        <time>2019-04-07T09:02:25.000Z</time>
      </trkpt>
      <trkpt lat="49.32201" lon="0.94788">
        <ele>107.80000305176</ele>
        <time>2019-04-07T09:02:28.000Z</time>
      </trkpt>
      <trkpt lat="49.3217" lon="0.94781">
        <ele>108.19999694824</ele>
        <time>2019-04-07T09:02:35.000Z</time>
      </trkpt>
      <trkpt lat="49.32142" lon="0.94774">
        <ele>107.59999847412</ele>
        <time>2019-04-07T09:02:41.000Z</time>
      </trkpt>
      <trkpt lat="49.32088" lon="0.94761">
        <ele>108.40000152588</ele>
        <time>2019-04-07T09:02:52.000Z</time>
      </trkpt>
      <trkpt lat="49.32032" lon="0.9475">
        <ele>111.19999694824</ele>
        <time>2019-04-07T09:03:04.000Z</time>
      </trkpt>
      <trkpt lat="49.32026" lon="0.94753">
        <ele>111.19999694824</ele>
        <time>2019-04-07T09:03:06.000Z</time>
      </trkpt>
      <trkpt lat="49.32013" lon="0.94788">
        <ele>108</ele>
        <time>2019-04-07T09:03:13.000Z</time>
      </trkpt>
      <trkpt lat="49.31984" lon="0.94867">
        <ele>105.40000152588</ele>
        <time>2019-04-07T09:03:25.000Z</time>
      </trkpt>
      <trkpt lat="49.31956" lon="0.94938">
        <ele>106.19999694824</ele>
        <time>2019-04-07T09:03:33.000Z</time>
      </trkpt>
      <trkpt lat="49.31946" lon="0.94964">
        <ele>107.19999694824</ele>
        <time>2019-04-07T09:03:37.000Z</time>
      </trkpt>
      <trkpt lat="49.31932" lon="0.94993">
        <ele>106.59999847412</ele>
        <time>2019-04-07T09:03:42.000Z</time>
      </trkpt>
      <trkpt lat="49.31917" lon="0.95029">
        <ele>105.80000305176</ele>
        <time>2019-04-07T09:03:48.000Z</time>
      </trkpt>
      <trkpt lat="49.31891" lon="0.95104">
        <ele>106.59999847412</ele>
        <time>2019-04-07T09:03:59.000Z</time>
      </trkpt>
      <trkpt lat="49.31873" lon="0.95157">
        <ele>107.40000152588</ele>
        <time>2019-04-07T09:04:08.000Z</time>
      </trkpt>
      <trkpt lat="49.31868" lon="0.95167">
        <ele>107.19999694824</ele>
        <time>2019-04-07T09:04:10.000Z</time>
      </trkpt>
      <trkpt lat="49.31861" lon="0.95182">
        <ele>107.19999694824</ele>
        <time>2019-04-07T09:04:13.000Z</time>
      </trkpt>
      <trkpt lat="49.31858" lon="0.95188">
        <ele>107.19999694824</ele>
        <time>2019-04-07T09:04:14.000Z</time>
      </trkpt>
      <trkpt lat="49.31854" lon="0.95198">
        <ele>107</ele>
        <time>2019-04-07T09:04:16.000Z</time>
      </trkpt>
      <trkpt lat="49.31853" lon="0.95204">
        <ele>107</ele>
        <time>2019-04-07T09:04:17.000Z</time>
      </trkpt>
      <trkpt lat="49.31849" lon="0.95218">
        <ele>106.59999847412</ele>
        <time>2019-04-07T09:04:19.000Z</time>
      </trkpt>
      <trkpt lat="49.31825" lon="0.95298">
        <ele>105</ele>
        <time>2019-04-07T09:04:31.000Z</time>
      </trkpt>
      <trkpt lat="49.31808" lon="0.95339">
        <ele>103.59999847412</ele>
        <time>2019-04-07T09:04:37.000Z</time>
      </trkpt>
      <trkpt lat="49.31805" lon="0.95341">
        <ele>103.59999847412</ele>
        <time>2019-04-07T09:04:38.000Z</time>
      </trkpt>
      <trkpt lat="49.31801" lon="0.95342">
        <ele>103.59999847412</ele>
        <time>2019-04-07T09:04:40.000Z</time>
      </trkpt>
      <trkpt lat="49.31799" lon="0.95323">
        <ele>103.80000305176</ele>
        <time>2019-04-07T09:04:46.000Z</time>
      </trkpt>
      <trkpt lat="49.31798" lon="0.95301">
        <ele>104.59999847412</ele>
        <time>2019-04-07T09:04:52.000Z</time>
      </trkpt>
      <trkpt lat="49.31798" lon="0.95284">
        <ele>105.40000152588</ele>
        <time>2019-04-07T09:04:56.000Z</time>
      </trkpt>
      <trkpt lat="49.31799" lon="0.9527">
        <ele>106</ele>
        <time>2019-04-07T09:04:59.000Z</time>
      </trkpt>
      <trkpt lat="49.318" lon="0.95262">
        <ele>106.40000152588</ele>
        <time>2019-04-07T09:05:01.000Z</time>
      </trkpt>
      <trkpt lat="49.31799" lon="0.9522">
        <ele>107.80000305176</ele>
        <time>2019-04-07T09:05:12.000Z</time>
      </trkpt>
      <trkpt lat="49.31803" lon="0.95141">
        <ele>110.80000305176</ele>
        <time>2019-04-07T09:05:27.000Z</time>
      </trkpt>
      <trkpt lat="49.31806" lon="0.95053">
        <ele>111.40000152588</ele>
        <time>2019-04-07T09:05:38.000Z</time>
      </trkpt>
      <trkpt lat="49.3181" lon="0.95001">
        <ele>114.19999694824</ele>
        <time>2019-04-07T09:05:47.000Z</time>
      </trkpt>
      <trkpt lat="49.31812" lon="0.94983">
        <ele>114.40000152588</ele>
        <time>2019-04-07T09:05:50.000Z</time>
      </trkpt>
      <trkpt lat="49.31815" lon="0.94972">
        <ele>114.40000152588</ele>
        <time>2019-04-07T09:05:53.000Z</time>
      </trkpt>
      <trkpt lat="49.31816" lon="0.94908">
        <ele>116</ele>
        <time>2019-04-07T09:06:09.000Z</time>
      </trkpt>
      <trkpt lat="49.31829" lon="0.94825">
        <ele>118.19999694824</ele>
        <time>2019-04-07T09:06:26.000Z</time>
      </trkpt>
      <trkpt lat="49.31837" lon="0.94748">
        <ele>121.59999847412</ele>
        <time>2019-04-07T09:06:40.000Z</time>
      </trkpt>
      <trkpt lat="49.31838" lon="0.94738">
        <ele>121.80000305176</ele>
        <time>2019-04-07T09:06:42.000Z</time>
      </trkpt>
      <trkpt lat="49.31839" lon="0.94734">
        <ele>122</ele>
        <time>2019-04-07T09:06:43.000Z</time>
      </trkpt>
      <trkpt lat="49.31844" lon="0.9468">
        <ele>125</ele>
        <time>2019-04-07T09:06:55.000Z</time>
      </trkpt>
      <trkpt lat="49.31846" lon="0.94665">
        <ele>125.59999847412</ele>
        <time>2019-04-07T09:06:58.000Z</time>
      </trkpt>
      <trkpt lat="49.31853" lon="0.9458">
        <ele>128.19999694824</ele>
        <time>2019-04-07T09:07:16.000Z</time>
      </trkpt>
      <trkpt lat="49.31859" lon="0.94513">
        <ele>128.80000305176</ele>
        <time>2019-04-07T09:07:28.000Z</time>
      </trkpt>
      <trkpt lat="49.31871" lon="0.94432">
        <ele>127.59999847412</ele>
        <time>2019-04-07T09:07:41.000Z</time>
      </trkpt>
      <trkpt lat="49.3188" lon="0.94347">
        <ele>126.40000152588</ele>
        <time>2019-04-07T09:07:54.000Z</time>
      </trkpt>
      <trkpt lat="49.31882" lon="0.94306">
        <ele>125.59999847412</ele>
        <time>2019-04-07T09:08:00.000Z</time>
      </trkpt>
      <trkpt lat="49.31886" lon="0.94265">
        <ele>124.80000305176</ele>
        <time>2019-04-07T09:08:07.000Z</time>
      </trkpt>
      <trkpt lat="49.31888" lon="0.94229">
        <ele>124.80000305176</ele>
        <time>2019-04-07T09:08:13.000Z</time>
      </trkpt>
      <trkpt lat="49.31895" lon="0.94195">
        <ele>120.80000305176</ele>
        <time>2019-04-07T09:08:19.000Z</time>
      </trkpt>
      <trkpt lat="49.31903" lon="0.94183">
        <ele>118.59999847412</ele>
        <time>2019-04-07T09:08:22.000Z</time>
      </trkpt>
      <trkpt lat="49.31911" lon="0.94181">
        <ele>118.59999847412</ele>
        <time>2019-04-07T09:08:24.000Z</time>
      </trkpt>
      <trkpt lat="49.3192" lon="0.94177">
        <ele>118.59999847412</ele>
        <time>2019-04-07T09:08:26.000Z</time>
      </trkpt>
      <trkpt lat="49.31934" lon="0.94172">
        <ele>118.59999847412</ele>
        <time>2019-04-07T09:08:29.000Z</time>
      </trkpt>
      <trkpt lat="49.31989" lon="0.94155">
        <ele>122</ele>
        <time>2019-04-07T09:08:42.000Z</time>
      </trkpt>
      <trkpt lat="49.32006" lon="0.9415">
        <ele>123.19999694824</ele>
        <time>2019-04-07T09:08:46.000Z</time>
      </trkpt>
      <trkpt lat="49.3203" lon="0.94143">
        <ele>125.19999694824</ele>
        <time>2019-04-07T09:08:51.000Z</time>
      </trkpt>
      <trkpt lat="49.32081" lon="0.94125">
        <ele>121.40000152588</ele>
        <time>2019-04-07T09:09:00.000Z</time>
      </trkpt>
      <trkpt lat="49.32094" lon="0.94122">
        <ele>120.59999847412</ele>
        <time>2019-04-07T09:09:02.000Z</time>
      </trkpt>
      <trkpt lat="49.3215" lon="0.9411">
        <ele>116.19999694824</ele>
        <time>2019-04-07T09:09:10.000Z</time>
      </trkpt>
      <trkpt lat="49.32209" lon="0.94092">
        <ele>111.80000305176</ele>
        <time>2019-04-07T09:09:20.000Z</time>
      </trkpt>
      <trkpt lat="49.32234" lon="0.94085">
        <ele>110.59999847412</ele>
        <time>2019-04-07T09:09:24.000Z</time>
      </trkpt>
      <trkpt lat="49.32264" lon="0.94075">
        <ele>109</ele>
        <time>2019-04-07T09:09:30.000Z</time>
      </trkpt>
      <trkpt lat="49.32269" lon="0.94068">
        <ele>108.40000152588</ele>
        <time>2019-04-07T09:09:32.000Z</time>
      </trkpt>
      <trkpt lat="49.32271" lon="0.9403">
        <ele>105.59999847412</ele>
        <time>2019-04-07T09:09:39.000Z</time>
      </trkpt>
      <trkpt lat="49.32289" lon="0.93951">
        <ele>105.19999694824</ele>
        <time>2019-04-07T09:09:53.000Z</time>
      </trkpt>
      <trkpt lat="49.32291" lon="0.93928">
        <ele>107.19999694824</ele>
        <time>2019-04-07T09:09:58.000Z</time>
      </trkpt>
      <trkpt lat="49.32289" lon="0.93903">
        <ele>109.19999694824</ele>
        <time>2019-04-07T09:10:03.000Z</time>
      </trkpt>
      <trkpt lat="49.32292" lon="0.93879">
        <ele>110.19999694824</ele>
        <time>2019-04-07T09:10:09.000Z</time>
      </trkpt>
      <trkpt lat="49.32296" lon="0.93838">
        <ele>112</ele>
        <time>2019-04-07T09:10:19.000Z</time>
      </trkpt>
      <trkpt lat="49.3231" lon="0.93797">
        <ele>112</ele>
        <time>2019-04-07T09:10:34.000Z</time>
      </trkpt>
      <trkpt lat="49.3231" lon="0.93794">
        <ele>112</ele>
        <time>2019-04-07T09:10:35.000Z</time>
      </trkpt>
      <trkpt lat="49.32311" lon="0.93792">
        <ele>112</ele>
        <time>2019-04-07T09:10:36.000Z</time>
      </trkpt>
      <trkpt lat="49.32313" lon="0.93791">
        <ele>111.80000305176</ele>
        <time>2019-04-07T09:10:37.000Z</time>
      </trkpt>
      <trkpt lat="49.32323" lon="0.93782">
        <ele>111.19999694824</ele>
        <time>2019-04-07T09:10:49.000Z</time>
      </trkpt>
      <trkpt lat="49.32323" lon="0.93782">
        <ele>111.19999694824</ele>
        <time>2019-04-07T09:11:02.000Z</time>
      </trkpt>
      <trkpt lat="49.32323" lon="0.93782">
        <ele>111.19999694824</ele>
        <time>2019-04-07T09:11:10.000Z</time>
      </trkpt>
      <trkpt lat="49.32321" lon="0.93781">
        <ele>111.40000152588</ele>
        <time>2019-04-07T09:11:19.000Z</time>
      </trkpt>
      <trkpt lat="49.32321" lon="0.93781">
        <ele>111.40000152588</ele>
        <time>2019-04-07T09:11:20.000Z</time>
      </trkpt>
      <trkpt lat="49.32321" lon="0.93781">
        <ele>111.40000152588</ele>
        <time>2019-04-07T09:11:21.000Z</time>
      </trkpt>
      <trkpt lat="49.32321" lon="0.93781">
        <ele>111.40000152588</ele>
        <time>2019-04-07T09:11:22.000Z</time>
      </trkpt>
      <trkpt lat="49.32321" lon="0.93781">
        <ele>111.40000152588</ele>
        <time>2019-04-07T09:11:47.000Z</time>
      </trkpt>
      <trkpt lat="49.32321" lon="0.93781">
        <ele>111.40000152588</ele>
        <time>2019-04-07T09:12:03.000Z</time>
      </trkpt>
      <trkpt lat="49.32321" lon="0.93781">
        <ele>111.40000152588</ele>
        <time>2019-04-07T09:12:12.000Z</time>
      </trkpt>
      <trkpt lat="49.32321" lon="0.93781">
        <ele>111.40000152588</ele>
        <time>2019-04-07T09:12:16.000Z</time>
      </trkpt>
      <trkpt lat="49.32321" lon="0.93781">
        <ele>111.40000152588</ele>
        <time>2019-04-07T09:12:22.000Z</time>
      </trkpt>
      <trkpt lat="49.32321" lon="0.93781">
        <ele>111.40000152588</ele>
        <time>2019-04-07T09:12:25.000Z</time>
      </trkpt>
      <trkpt lat="49.32321" lon="0.93781">
        <ele>111.40000152588</ele>
        <time>2019-04-07T09:12:27.000Z</time>
      </trkpt>
      <trkpt lat="49.32321" lon="0.93781">
        <ele>111.40000152588</ele>
        <time>2019-04-07T09:12:32.000Z</time>
      </trkpt>
      <trkpt lat="49.32322" lon="0.93781">
        <ele>111.40000152588</ele>
        <time>2019-04-07T09:12:45.000Z</time>
      </trkpt>
      <trkpt lat="49.32322" lon="0.93781">
        <ele>111.40000152588</ele>
        <time>2019-04-07T09:12:53.000Z</time>
      </trkpt>
      <trkpt lat="49.32322" lon="0.93781">
        <ele>111.40000152588</ele>
        <time>2019-04-07T09:12:57.000Z</time>
      </trkpt>
      <trkpt lat="49.32322" lon="0.93781">
        <ele>111.40000152588</ele>
        <time>2019-04-07T09:13:01.000Z</time>
      </trkpt>
      <trkpt lat="49.32322" lon="0.93781">
        <ele>111.40000152588</ele>
        <time>2019-04-07T09:13:02.000Z</time>
      </trkpt>
      <trkpt lat="49.32322" lon="0.93781">
        <ele>111.40000152588</ele>
        <time>2019-04-07T09:13:09.000Z</time>
      </trkpt>
      <trkpt lat="49.32322" lon="0.93781">
        <ele>111.40000152588</ele>
        <time>2019-04-07T09:13:12.000Z</time>
      </trkpt>
      <trkpt lat="49.32322" lon="0.93781">
        <ele>111.40000152588</ele>
        <time>2019-04-07T09:13:15.000Z</time>
      </trkpt>
      <trkpt lat="49.32322" lon="0.93781">
        <ele>111.40000152588</ele>
        <time>2019-04-07T09:13:16.000Z</time>
      </trkpt>
      <trkpt lat="49.32322" lon="0.93781">
        <ele>111.40000152588</ele>
        <time>2019-04-07T09:13:22.000Z</time>
      </trkpt>
      <trkpt lat="49.32322" lon="0.93781">
        <ele>111.40000152588</ele>
        <time>2019-04-07T09:13:42.000Z</time>
      </trkpt>
      <trkpt lat="49.32322" lon="0.93781">
        <ele>111.40000152588</ele>
        <time>2019-04-07T09:14:00.000Z</time>
      </trkpt>
      <trkpt lat="49.32322" lon="0.93781">
        <ele>111.40000152588</ele>
        <time>2019-04-07T09:14:03.000Z</time>
      </trkpt>
      <trkpt lat="49.32321" lon="0.9378">
        <ele>111.40000152588</ele>
        <time>2019-04-07T09:14:16.000Z</time>
      </trkpt>
      <trkpt lat="49.32321" lon="0.9378">
        <ele>111.40000152588</ele>
        <time>2019-04-07T09:14:19.000Z</time>
      </trkpt>
      <trkpt lat="49.32322" lon="0.9378">
        <ele>111.40000152588</ele>
        <time>2019-04-07T09:14:25.000Z</time>
      </trkpt>
      <trkpt lat="49.32322" lon="0.93778">
        <ele>111.40000152588</ele>
        <time>2019-04-07T09:14:36.000Z</time>
      </trkpt>
      <trkpt lat="49.32332" lon="0.93771">
        <ele>110.80000305176</ele>
        <time>2019-04-07T09:15:14.000Z</time>
      </trkpt>
      <trkpt lat="49.32332" lon="0.9377">
        <ele>110.80000305176</ele>
        <time>2019-04-07T09:15:20.000Z</time>
      </trkpt>
      <trkpt lat="49.32332" lon="0.93771">
        <ele>110.80000305176</ele>
        <time>2019-04-07T09:15:28.000Z</time>
      </trkpt>
      <trkpt lat="49.32331" lon="0.93772">
        <ele>110.80000305176</ele>
        <time>2019-04-07T09:15:31.000Z</time>
      </trkpt>
      <trkpt lat="49.32331" lon="0.93773">
        <ele>110.80000305176</ele>
        <time>2019-04-07T09:15:33.000Z</time>
      </trkpt>
      <trkpt lat="49.3233" lon="0.93774">
        <ele>110.80000305176</ele>
        <time>2019-04-07T09:15:35.000Z</time>
      </trkpt>
      <trkpt lat="49.32326" lon="0.9378">
        <ele>111</ele>
        <time>2019-04-07T09:15:49.000Z</time>
      </trkpt>
      <trkpt lat="49.32322" lon="0.93789">
        <ele>111.19999694824</ele>
        <time>2019-04-07T09:15:53.000Z</time>
      </trkpt>
      <trkpt lat="49.32329" lon="0.93871">
        <ele>109.19999694824</ele>
        <time>2019-04-07T09:16:11.000Z</time>
      </trkpt>
      <trkpt lat="49.32328" lon="0.93912">
        <ele>108</ele>
        <time>2019-04-07T09:16:18.000Z</time>
      </trkpt>
      <trkpt lat="49.32324" lon="0.93925">
        <ele>108</ele>
        <time>2019-04-07T09:16:20.000Z</time>
      </trkpt>
      <trkpt lat="49.32337" lon="0.94005">
        <ele>105.40000152588</ele>
        <time>2019-04-07T09:16:35.000Z</time>
      </trkpt>
      <trkpt lat="49.32347" lon="0.94016">
        <ele>105.80000305176</ele>
        <time>2019-04-07T09:16:38.000Z</time>
      </trkpt>
      <trkpt lat="49.32393" lon="0.94061">
        <ele>107.19999694824</ele>
        <time>2019-04-07T09:16:53.000Z</time>
      </trkpt>
      <trkpt lat="49.32439" lon="0.94106">
        <ele>105.59999847412</ele>
        <time>2019-04-07T09:17:08.000Z</time>
      </trkpt>
      <trkpt lat="49.32464" lon="0.94122">
        <ele>105.59999847412</ele>
        <time>2019-04-07T09:17:18.000Z</time>
      </trkpt>
      <trkpt lat="49.32494" lon="0.94146">
        <ele>106</ele>
        <time>2019-04-07T09:17:31.000Z</time>
      </trkpt>
      <trkpt lat="49.32537" lon="0.94196">
        <ele>105.80000305176</ele>
        <time>2019-04-07T09:17:50.000Z</time>
      </trkpt>
      <trkpt lat="49.32553" lon="0.94221">
        <ele>105.80000305176</ele>
        <time>2019-04-07T09:17:57.000Z</time>
      </trkpt>
      <trkpt lat="49.32564" lon="0.94255">
        <ele>105</ele>
        <time>2019-04-07T09:18:04.000Z</time>
      </trkpt>
      <trkpt lat="49.32565" lon="0.94259">
        <ele>104.80000305176</ele>
        <time>2019-04-07T09:18:05.000Z</time>
      </trkpt>
      <trkpt lat="49.32566" lon="0.94262">
        <ele>104.80000305176</ele>
        <time>2019-04-07T09:18:06.000Z</time>
      </trkpt>
      <trkpt lat="49.32569" lon="0.94271">
        <ele>104.59999847412</ele>
        <time>2019-04-07T09:18:08.000Z</time>
      </trkpt>
      <trkpt lat="49.3257" lon="0.94276">
        <ele>104.40000152588</ele>
        <time>2019-04-07T09:18:09.000Z</time>
      </trkpt>
      <trkpt lat="49.32571" lon="0.94282">
        <ele>104.40000152588</ele>
        <time>2019-04-07T09:18:10.000Z</time>
      </trkpt>
      <trkpt lat="49.32573" lon="0.94289">
        <ele>104.19999694824</ele>
        <time>2019-04-07T09:18:11.000Z</time>
      </trkpt>
      <trkpt lat="49.32574" lon="0.94296">
        <ele>104</ele>
        <time>2019-04-07T09:18:12.000Z</time>
      </trkpt>
      <trkpt lat="49.32579" lon="0.94305">
        <ele>104</ele>
        <time>2019-04-07T09:18:14.000Z</time>
      </trkpt>
      <trkpt lat="49.3259" lon="0.94318">
        <ele>104.19999694824</ele>
        <time>2019-04-07T09:18:18.000Z</time>
      </trkpt>
      <trkpt lat="49.32592" lon="0.94324">
        <ele>104.19999694824</ele>
        <time>2019-04-07T09:18:20.000Z</time>
      </trkpt>
      <trkpt lat="49.32594" lon="0.94348">
        <ele>103.40000152588</ele>
        <time>2019-04-07T09:18:27.000Z</time>
      </trkpt>
      <trkpt lat="49.32595" lon="0.94352">
        <ele>103.19999694824</ele>
        <time>2019-04-07T09:18:28.000Z</time>
      </trkpt>
      <trkpt lat="49.32597" lon="0.9436">
        <ele>103.19999694824</ele>
        <time>2019-04-07T09:18:30.000Z</time>
      </trkpt>
      <trkpt lat="49.32598" lon="0.94364">
        <ele>103</ele>
        <time>2019-04-07T09:18:31.000Z</time>
      </trkpt>
      <trkpt lat="49.32606" lon="0.94393">
        <ele>102.80000305176</ele>
        <time>2019-04-07T09:18:38.000Z</time>
      </trkpt>
      <trkpt lat="49.32616" lon="0.94434">
        <ele>103.40000152588</ele>
        <time>2019-04-07T09:18:46.000Z</time>
      </trkpt>
      <trkpt lat="49.32617" lon="0.94469">
        <ele>103.59999847412</ele>
        <time>2019-04-07T09:18:53.000Z</time>
      </trkpt>
      <trkpt lat="49.32617" lon="0.94488">
        <ele>103.19999694824</ele>
        <time>2019-04-07T09:18:56.000Z</time>
      </trkpt>
      <trkpt lat="49.32617" lon="0.94495">
        <ele>103</ele>
        <time>2019-04-07T09:18:57.000Z</time>
      </trkpt>
      <trkpt lat="49.32616" lon="0.94543">
        <ele>101.59999847412</ele>
        <time>2019-04-07T09:19:04.000Z</time>
      </trkpt>
      <trkpt lat="49.32618" lon="0.94572">
        <ele>101.40000152588</ele>
        <time>2019-04-07T09:19:08.000Z</time>
      </trkpt>
      <trkpt lat="49.32621" lon="0.94586">
        <ele>101.59999847412</ele>
        <time>2019-04-07T09:19:10.000Z</time>
      </trkpt>
      <trkpt lat="49.32633" lon="0.94656">
        <ele>102.19999694824</ele>
        <time>2019-04-07T09:19:23.000Z</time>
      </trkpt>
      <trkpt lat="49.32638" lon="0.94664">
        <ele>103.19999694824</ele>
        <time>2019-04-07T09:19:26.000Z</time>
      </trkpt>
      <trkpt lat="49.32647" lon="0.94684">
        <ele>104.40000152588</ele>
        <time>2019-04-07T09:19:32.000Z</time>
      </trkpt>
      <trkpt lat="49.32678" lon="0.94748">
        <ele>109.40000152588</ele>
        <time>2019-04-07T09:19:51.000Z</time>
      </trkpt>
      <trkpt lat="49.32693" lon="0.94766">
        <ele>112.19999694824</ele>
        <time>2019-04-07T09:19:59.000Z</time>
      </trkpt>
      <trkpt lat="49.32697" lon="0.94773">
        <ele>113</ele>
        <time>2019-04-07T09:20:02.000Z</time>
      </trkpt>
      <trkpt lat="49.32703" lon="0.94782">
        <ele>113.59999847412</ele>
        <time>2019-04-07T09:20:06.000Z</time>
      </trkpt>
      <trkpt lat="49.32725" lon="0.94809">
        <ele>116</ele>
        <time>2019-04-07T09:20:17.000Z</time>
      </trkpt>
      <trkpt lat="49.32728" lon="0.94812">
        <ele>116.40000152588</ele>
        <time>2019-04-07T09:20:18.000Z</time>
      </trkpt>
      <trkpt lat="49.32774" lon="0.94864">
        <ele>121.19999694824</ele>
        <time>2019-04-07T09:20:32.000Z</time>
      </trkpt>
      <trkpt lat="49.32788" lon="0.94881">
        <ele>122</ele>
        <time>2019-04-07T09:20:36.000Z</time>
      </trkpt>
      <trkpt lat="49.32805" lon="0.94902">
        <ele>122.19999694824</ele>
        <time>2019-04-07T09:20:41.000Z</time>
      </trkpt>
      <trkpt lat="49.32828" lon="0.94931">
        <ele>122.59999847412</ele>
        <time>2019-04-07T09:20:47.000Z</time>
      </trkpt>
      <trkpt lat="49.32863" lon="0.94972">
        <ele>123</ele>
        <time>2019-04-07T09:20:54.000Z</time>
      </trkpt>
      <trkpt lat="49.32895" lon="0.95012">
        <ele>120.59999847412</ele>
        <time>2019-04-07T09:20:59.000Z</time>
      </trkpt>
      <trkpt lat="49.32931" lon="0.95057">
        <ele>118</ele>
        <time>2019-04-07T09:21:04.000Z</time>
      </trkpt>
      <trkpt lat="49.32937" lon="0.95068">
        <ele>117.80000305176</ele>
        <time>2019-04-07T09:21:05.000Z</time>
      </trkpt>
      <trkpt lat="49.32952" lon="0.95098">
        <ele>117</ele>
        <time>2019-04-07T09:21:08.000Z</time>
      </trkpt>
      <trkpt lat="49.32973" lon="0.9512">
        <ele>115.19999694824</ele>
        <time>2019-04-07T09:21:12.000Z</time>
      </trkpt>
      <trkpt lat="49.32979" lon="0.95142">
        <ele>115</ele>
        <time>2019-04-07T09:21:17.000Z</time>
      </trkpt>
      <trkpt lat="49.32972" lon="0.95152">
        <ele>116.59999847412</ele>
        <time>2019-04-07T09:21:23.000Z</time>
      </trkpt>
      <trkpt lat="49.3297" lon="0.95157">
        <ele>117.19999694824</ele>
        <time>2019-04-07T09:21:25.000Z</time>
      </trkpt>
      <trkpt lat="49.3297" lon="0.9516">
        <ele>117.40000152588</ele>
        <time>2019-04-07T09:21:26.000Z</time>
      </trkpt>
      <trkpt lat="49.3297" lon="0.95163">
        <ele>117.59999847412</ele>
        <time>2019-04-07T09:21:27.000Z</time>
      </trkpt>
      <trkpt lat="49.3297" lon="0.95166">
        <ele>117.80000305176</ele>
        <time>2019-04-07T09:21:28.000Z</time>
      </trkpt>
      <trkpt lat="49.32971" lon="0.95173">
        <ele>118.19999694824</ele>
        <time>2019-04-07T09:21:30.000Z</time>
      </trkpt>
      <trkpt lat="49.32971" lon="0.95178">
        <ele>118.40000152588</ele>
        <time>2019-04-07T09:21:32.000Z</time>
      </trkpt>
      <trkpt lat="49.3297" lon="0.95196">
        <ele>119.19999694824</ele>
        <time>2019-04-07T09:21:38.000Z</time>
      </trkpt>
      <trkpt lat="49.32969" lon="0.95199">
        <ele>119.40000152588</ele>
        <time>2019-04-07T09:21:39.000Z</time>
      </trkpt>
      <trkpt lat="49.32969" lon="0.95202">
        <ele>119.59999847412</ele>
        <time>2019-04-07T09:21:40.000Z</time>
      </trkpt>
      <trkpt lat="49.32969" lon="0.95205">
        <ele>119.80000305176</ele>
        <time>2019-04-07T09:21:41.000Z</time>
      </trkpt>
      <trkpt lat="49.32968" lon="0.95208">
        <ele>120</ele>
        <time>2019-04-07T09:21:42.000Z</time>
      </trkpt>
      <trkpt lat="49.32968" lon="0.95212">
        <ele>120.19999694824</ele>
        <time>2019-04-07T09:21:43.000Z</time>
      </trkpt>
      <trkpt lat="49.32967" lon="0.95215">
        <ele>120.40000152588</ele>
        <time>2019-04-07T09:21:44.000Z</time>
      </trkpt>
      <trkpt lat="49.32966" lon="0.95221">
        <ele>120.80000305176</ele>
        <time>2019-04-07T09:21:46.000Z</time>
      </trkpt>
      <trkpt lat="49.32964" lon="0.9523">
        <ele>121.19999694824</ele>
        <time>2019-04-07T09:21:49.000Z</time>
      </trkpt>
      <trkpt lat="49.32964" lon="0.95233">
        <ele>121.59999847412</ele>
        <time>2019-04-07T09:21:50.000Z</time>
      </trkpt>
      <trkpt lat="49.32961" lon="0.9525">
        <ele>122.19999694824</ele>
        <time>2019-04-07T09:21:55.000Z</time>
      </trkpt>
      <trkpt lat="49.32953" lon="0.95332">
        <ele>125</ele>
        <time>2019-04-07T09:22:14.000Z</time>
      </trkpt>
      <trkpt lat="49.32943" lon="0.95413">
        <ele>127.59999847412</ele>
        <time>2019-04-07T09:22:28.000Z</time>
      </trkpt>
      <trkpt lat="49.32941" lon="0.95433">
        <ele>127.40000152588</ele>
        <time>2019-04-07T09:22:31.000Z</time>
      </trkpt>
      <trkpt lat="49.32935" lon="0.95478">
        <ele>126.59999847412</ele>
        <time>2019-04-07T09:22:37.000Z</time>
      </trkpt>
      <trkpt lat="49.32934" lon="0.95485">
        <ele>125.59999847412</ele>
        <time>2019-04-07T09:22:38.000Z</time>
      </trkpt>
      <trkpt lat="49.32933" lon="0.955">
        <ele>124</ele>
        <time>2019-04-07T09:22:40.000Z</time>
      </trkpt>
      <trkpt lat="49.32932" lon="0.95508">
        <ele>123.19999694824</ele>
        <time>2019-04-07T09:22:41.000Z</time>
      </trkpt>
      <trkpt lat="49.32918" lon="0.95592">
        <ele>116.80000305176</ele>
        <time>2019-04-07T09:22:51.000Z</time>
      </trkpt>
      <trkpt lat="49.32911" lon="0.95636">
        <ele>115.40000152588</ele>
        <time>2019-04-07T09:22:56.000Z</time>
      </trkpt>
      <trkpt lat="49.32904" lon="0.95704">
        <ele>114.40000152588</ele>
        <time>2019-04-07T09:23:04.000Z</time>
      </trkpt>
      <trkpt lat="49.32909" lon="0.9572">
        <ele>113.59999847412</ele>
        <time>2019-04-07T09:23:06.000Z</time>
      </trkpt>
      <trkpt lat="49.32914" lon="0.95736">
        <ele>112.59999847412</ele>
        <time>2019-04-07T09:23:08.000Z</time>
      </trkpt>
      <trkpt lat="49.3294" lon="0.9582">
        <ele>107.59999847412</ele>
        <time>2019-04-07T09:23:17.000Z</time>
      </trkpt>
      <trkpt lat="49.32967" lon="0.959">
        <ele>102.59999847412</ele>
        <time>2019-04-07T09:23:25.000Z</time>
      </trkpt>
      <trkpt lat="49.3299" lon="0.95975">
        <ele>100</ele>
        <time>2019-04-07T09:23:32.000Z</time>
      </trkpt>
      <trkpt lat="49.33" lon="0.96006">
        <ele>98.599998474121</ele>
        <time>2019-04-07T09:23:35.000Z</time>
      </trkpt>
      <trkpt lat="49.3301" lon="0.96039">
        <ele>97.599998474121</ele>
        <time>2019-04-07T09:23:38.000Z</time>
      </trkpt>
      <trkpt lat="49.33035" lon="0.96114">
        <ele>89.400001525879</ele>
        <time>2019-04-07T09:23:45.000Z</time>
      </trkpt>
      <trkpt lat="49.33046" lon="0.96144">
        <ele>84.800003051758</ele>
        <time>2019-04-07T09:23:48.000Z</time>
      </trkpt>
      <trkpt lat="49.33068" lon="0.9622">
        <ele>75.800003051758</ele>
        <time>2019-04-07T09:23:58.000Z</time>
      </trkpt>
      <trkpt lat="49.33095" lon="0.96299">
        <ele>71.199996948242</ele>
        <time>2019-04-07T09:24:06.000Z</time>
      </trkpt>
      <trkpt lat="49.33117" lon="0.96367">
        <ele>79.599998474121</ele>
        <time>2019-04-07T09:24:12.000Z</time>
      </trkpt>
      <trkpt lat="49.33127" lon="0.96405">
        <ele>85</ele>
        <time>2019-04-07T09:24:17.000Z</time>
      </trkpt>
      <trkpt lat="49.33132" lon="0.96425">
        <ele>87.800003051758</ele>
        <time>2019-04-07T09:24:20.000Z</time>
      </trkpt>
      <trkpt lat="49.33147" lon="0.96497">
        <ele>94.800003051758</ele>
        <time>2019-04-07T09:24:32.000Z</time>
      </trkpt>
      <trkpt lat="49.33162" lon="0.96544">
        <ele>94.199996948242</ele>
        <time>2019-04-07T09:24:40.000Z</time>
      </trkpt>
      <trkpt lat="49.33169" lon="0.96571">
        <ele>94.199996948242</ele>
        <time>2019-04-07T09:24:45.000Z</time>
      </trkpt>
      <trkpt lat="49.33197" lon="0.96647">
        <ele>92.800003051758</ele>
        <time>2019-04-07T09:24:54.000Z</time>
      </trkpt>
      <trkpt lat="49.33207" lon="0.96672">
        <ele>89</ele>
        <time>2019-04-07T09:24:57.000Z</time>
      </trkpt>
      <trkpt lat="49.3322" lon="0.96695">
        <ele>83.800003051758</ele>
        <time>2019-04-07T09:25:00.000Z</time>
      </trkpt>
      <trkpt lat="49.33241" lon="0.96734">
        <ele>76.199996948242</ele>
        <time>2019-04-07T09:25:04.000Z</time>
      </trkpt>
      <trkpt lat="49.33271" lon="0.96807">
        <ele>66.400001525879</ele>
        <time>2019-04-07T09:25:10.000Z</time>
      </trkpt>
      <trkpt lat="49.33284" lon="0.96834">
        <ele>62.599998474121</ele>
        <time>2019-04-07T09:25:13.000Z</time>
      </trkpt>
      <trkpt lat="49.33288" lon="0.96851">
        <ele>61.599998474121</ele>
        <time>2019-04-07T09:25:15.000Z</time>
      </trkpt>
      <trkpt lat="49.33289" lon="0.96867">
        <ele>61</ele>
        <time>2019-04-07T09:25:17.000Z</time>
      </trkpt>
      <trkpt lat="49.33286" lon="0.96876">
        <ele>61</ele>
        <time>2019-04-07T09:25:19.000Z</time>
      </trkpt>
      <trkpt lat="49.33273" lon="0.9692">
        <ele>61.599998474121</ele>
        <time>2019-04-07T09:25:26.000Z</time>
      </trkpt>
      <trkpt lat="49.3327" lon="0.96928">
        <ele>61.799999237061</ele>
        <time>2019-04-07T09:25:27.000Z</time>
      </trkpt>
      <trkpt lat="49.33251" lon="0.97007">
        <ele>61.400001525879</ele>
        <time>2019-04-07T09:25:39.000Z</time>
      </trkpt>
      <trkpt lat="49.33241" lon="0.97046">
        <ele>60.400001525879</ele>
        <time>2019-04-07T09:25:47.000Z</time>
      </trkpt>
      <trkpt lat="49.3321" lon="0.97097">
        <ele>61</ele>
        <time>2019-04-07T09:26:01.000Z</time>
      </trkpt>
      <trkpt lat="49.33208" lon="0.97103">
        <ele>60.599998474121</ele>
        <time>2019-04-07T09:26:03.000Z</time>
      </trkpt>
      <trkpt lat="49.33205" lon="0.97128">
        <ele>58.400001525879</ele>
        <time>2019-04-07T09:26:08.000Z</time>
      </trkpt>
      <trkpt lat="49.33213" lon="0.97146">
        <ele>55.599998474121</ele>
        <time>2019-04-07T09:26:13.000Z</time>
      </trkpt>
      <trkpt lat="49.33226" lon="0.97156">
        <ele>53</ele>
        <time>2019-04-07T09:26:19.000Z</time>
      </trkpt>
      <trkpt lat="49.33226" lon="0.97164">
        <ele>52.400001525879</ele>
        <time>2019-04-07T09:26:21.000Z</time>
      </trkpt>
      <trkpt lat="49.33207" lon="0.97203">
        <ele>45.400001525879</ele>
        <time>2019-04-07T09:26:28.000Z</time>
      </trkpt>
      <trkpt lat="49.33203" lon="0.97211">
        <ele>43.799999237061</ele>
        <time>2019-04-07T09:26:29.000Z</time>
      </trkpt>
      <trkpt lat="49.33184" lon="0.97254">
        <ele>39.400001525879</ele>
        <time>2019-04-07T09:26:35.000Z</time>
      </trkpt>
      <trkpt lat="49.33168" lon="0.97275">
        <ele>38.599998474121</ele>
        <time>2019-04-07T09:26:39.000Z</time>
      </trkpt>
      <trkpt lat="49.33155" lon="0.97289">
        <ele>37.200000762939</ele>
        <time>2019-04-07T09:26:42.000Z</time>
      </trkpt>
      <trkpt lat="49.33148" lon="0.97305">
        <ele>35.200000762939</ele>
        <time>2019-04-07T09:26:44.000Z</time>
      </trkpt>
      <trkpt lat="49.33141" lon="0.97318">
        <ele>35.200000762939</ele>
        <time>2019-04-07T09:26:46.000Z</time>
      </trkpt>
      <trkpt lat="49.33127" lon="0.97333">
        <ele>35</ele>
        <time>2019-04-07T09:26:49.000Z</time>
      </trkpt>
      <trkpt lat="49.33117" lon="0.97344">
        <ele>34</ele>
        <time>2019-04-07T09:26:51.000Z</time>
      </trkpt>
      <trkpt lat="49.33105" lon="0.97363">
        <ele>32.599998474121</ele>
        <time>2019-04-07T09:26:54.000Z</time>
      </trkpt>
      <trkpt lat="49.33095" lon="0.9737">
        <ele>32.200000762939</ele>
        <time>2019-04-07T09:26:56.000Z</time>
      </trkpt>
      <trkpt lat="49.33081" lon="0.97378">
        <ele>31.200000762939</ele>
        <time>2019-04-07T09:26:59.000Z</time>
      </trkpt>
      <trkpt lat="49.33074" lon="0.9739">
        <ele>30.200000762939</ele>
        <time>2019-04-07T09:27:01.000Z</time>
      </trkpt>
      <trkpt lat="49.33047" lon="0.97428">
        <ele>30.60000038147</ele>
        <time>2019-04-07T09:27:09.000Z</time>
      </trkpt>
      <trkpt lat="49.3308" lon="0.97484">
        <ele>34.400001525879</ele>
        <time>2019-04-07T09:27:24.000Z</time>
      </trkpt>
      <trkpt lat="49.3309" lon="0.97478">
        <ele>34.599998474121</ele>
        <time>2019-04-07T09:27:27.000Z</time>
      </trkpt>
      <trkpt lat="49.3314" lon="0.97453">
        <ele>35.599998474121</ele>
        <time>2019-04-07T09:27:45.000Z</time>
      </trkpt>
      <trkpt lat="49.33172" lon="0.97414">
        <ele>34.799999237061</ele>
        <time>2019-04-07T09:27:53.000Z</time>
      </trkpt>
      <trkpt lat="49.33176" lon="0.97409">
        <ele>34.799999237061</ele>
        <time>2019-04-07T09:27:54.000Z</time>
      </trkpt>
      <trkpt lat="49.33197" lon="0.97386">
        <ele>35</ele>
        <time>2019-04-07T09:27:59.000Z</time>
      </trkpt>
      <trkpt lat="49.33206" lon="0.97376">
        <ele>35.200000762939</ele>
        <time>2019-04-07T09:28:01.000Z</time>
      </trkpt>
      <trkpt lat="49.33255" lon="0.97339">
        <ele>37.599998474121</ele>
        <time>2019-04-07T09:28:15.000Z</time>
      </trkpt>
      <trkpt lat="49.33263" lon="0.97333">
        <ele>37.799999237061</ele>
        <time>2019-04-07T09:28:20.000Z</time>
      </trkpt>
      <trkpt lat="49.33306" lon="0.97225">
        <ele>42</ele>
        <time>2019-04-07T09:29:06.000Z</time>
      </trkpt>
      <trkpt lat="49.33321" lon="0.97232">
        <ele>42.599998474121</ele>
        <time>2019-04-07T09:29:11.000Z</time>
      </trkpt>
      <trkpt lat="49.33325" lon="0.9723">
        <ele>42.799999237061</ele>
        <time>2019-04-07T09:29:15.000Z</time>
      </trkpt>
      <trkpt lat="49.33329" lon="0.97234">
        <ele>43</ele>
        <time>2019-04-07T09:29:18.000Z</time>
      </trkpt>
      <trkpt lat="49.33332" lon="0.97234">
        <ele>43</ele>
        <time>2019-04-07T09:29:20.000Z</time>
      </trkpt>
      <trkpt lat="49.33339" lon="0.97238">
        <ele>43.400001525879</ele>
        <time>2019-04-07T09:29:24.000Z</time>
      </trkpt>
      <trkpt lat="49.33388" lon="0.97203">
        <ele>45.799999237061</ele>
        <time>2019-04-07T09:29:42.000Z</time>
      </trkpt>
      <trkpt lat="49.33411" lon="0.97169">
        <ele>46.200000762939</ele>
        <time>2019-04-07T09:29:51.000Z</time>
      </trkpt>
      <trkpt lat="49.33447" lon="0.97107">
        <ele>45.200000762939</ele>
        <time>2019-04-07T09:30:07.000Z</time>
      </trkpt>
      <trkpt lat="49.33449" lon="0.97089">
        <ele>45</ele>
        <time>2019-04-07T09:30:10.000Z</time>
      </trkpt>
      <trkpt lat="49.33451" lon="0.97057">
        <ele>44.400001525879</ele>
        <time>2019-04-07T09:30:16.000Z</time>
      </trkpt>
      <trkpt lat="49.33497" lon="0.97007">
        <ele>51</ele>
        <time>2019-04-07T09:30:31.000Z</time>
      </trkpt>
      <trkpt lat="49.33518" lon="0.96962">
        <ele>48.799999237061</ele>
        <time>2019-04-07T09:30:42.000Z</time>
      </trkpt>
      <trkpt lat="49.33531" lon="0.9693">
        <ele>48.400001525879</ele>
        <time>2019-04-07T09:30:51.000Z</time>
      </trkpt>
      <trkpt lat="49.33532" lon="0.9692">
        <ele>48.799999237061</ele>
        <time>2019-04-07T09:30:54.000Z</time>
      </trkpt>
      <trkpt lat="49.33533" lon="0.9691">
        <ele>48.799999237061</ele>
        <time>2019-04-07T09:30:57.000Z</time>
      </trkpt>
      <trkpt lat="49.3354" lon="0.96867">
        <ele>50.200000762939</ele>
        <time>2019-04-07T09:31:11.000Z</time>
      </trkpt>
      <trkpt lat="49.33542" lon="0.96837">
        <ele>50.200000762939</ele>
        <time>2019-04-07T09:31:20.000Z</time>
      </trkpt>
      <trkpt lat="49.33543" lon="0.96831">
        <ele>50.400001525879</ele>
        <time>2019-04-07T09:31:22.000Z</time>
      </trkpt>
      <trkpt lat="49.33552" lon="0.96805">
        <ele>52.400001525879</ele>
        <time>2019-04-07T09:31:35.000Z</time>
      </trkpt>
      <trkpt lat="49.33574" lon="0.96728">
        <ele>56.599998474121</ele>
        <time>2019-04-07T09:32:11.000Z</time>
      </trkpt>
      <trkpt lat="49.33582" lon="0.96691">
        <ele>58.599998474121</ele>
        <time>2019-04-07T09:32:27.000Z</time>
      </trkpt>
      <trkpt lat="49.33582" lon="0.96688">
        <ele>58.599998474121</ele>
        <time>2019-04-07T09:32:28.000Z</time>
      </trkpt>
      <trkpt lat="49.33582" lon="0.96675">
        <ele>58.599998474121</ele>
        <time>2019-04-07T09:32:32.000Z</time>
      </trkpt>
      <trkpt lat="49.33584" lon="0.96669">
        <ele>59.400001525879</ele>
        <time>2019-04-07T09:32:35.000Z</time>
      </trkpt>
      <trkpt lat="49.33585" lon="0.96661">
        <ele>59.599998474121</ele>
        <time>2019-04-07T09:32:39.000Z</time>
      </trkpt>
      <trkpt lat="49.33589" lon="0.96626">
        <ele>61.400001525879</ele>
        <time>2019-04-07T09:32:52.000Z</time>
      </trkpt>
      <trkpt lat="49.33589" lon="0.96581">
        <ele>62</ele>
        <time>2019-04-07T09:33:08.000Z</time>
      </trkpt>
      <trkpt lat="49.33592" lon="0.96539">
        <ele>64.599998474121</ele>
        <time>2019-04-07T09:33:24.000Z</time>
      </trkpt>
      <trkpt lat="49.33591" lon="0.96489">
        <ele>67.199996948242</ele>
        <time>2019-04-07T09:33:39.000Z</time>
      </trkpt>
      <trkpt lat="49.33601" lon="0.96408">
        <ele>74.599998474121</ele>
        <time>2019-04-07T09:34:05.000Z</time>
      </trkpt>
      <trkpt lat="49.3361" lon="0.96394">
        <ele>77</ele>
        <time>2019-04-07T09:34:13.000Z</time>
      </trkpt>
      <trkpt lat="49.33613" lon="0.96399">
        <ele>77.400001525879</ele>
        <time>2019-04-07T09:34:17.000Z</time>
      </trkpt>
      <trkpt lat="49.33612" lon="0.9642">
        <ele>76.199996948242</ele>
        <time>2019-04-07T09:34:24.000Z</time>
      </trkpt>
      <trkpt lat="49.3362" lon="0.965">
        <ele>74</ele>
        <time>2019-04-07T09:34:47.000Z</time>
      </trkpt>
      <trkpt lat="49.33628" lon="0.96551">
        <ele>73</ele>
        <time>2019-04-07T09:34:58.000Z</time>
      </trkpt>
      <trkpt lat="49.33624" lon="0.96582">
        <ele>71.599998474121</ele>
        <time>2019-04-07T09:35:02.000Z</time>
      </trkpt>
      <trkpt lat="49.33631" lon="0.96658">
        <ele>73.400001525879</ele>
        <time>2019-04-07T09:35:13.000Z</time>
      </trkpt>
      <trkpt lat="49.33628" lon="0.96681">
        <ele>72.800003051758</ele>
        <time>2019-04-07T09:35:16.000Z</time>
      </trkpt>
      <trkpt lat="49.33628" lon="0.96701">
        <ele>72.599998474121</ele>
        <time>2019-04-07T09:35:18.000Z</time>
      </trkpt>
      <trkpt lat="49.33632" lon="0.96741">
        <ele>73.400001525879</ele>
        <time>2019-04-07T09:35:23.000Z</time>
      </trkpt>
      <trkpt lat="49.33638" lon="0.96751">
        <ele>74.800003051758</ele>
        <time>2019-04-07T09:35:27.000Z</time>
      </trkpt>
      <trkpt lat="49.33644" lon="0.96769">
        <ele>76.199996948242</ele>
        <time>2019-04-07T09:35:34.000Z</time>
      </trkpt>
      <trkpt lat="49.33638" lon="0.96777">
        <ele>74.800003051758</ele>
        <time>2019-04-07T09:35:37.000Z</time>
      </trkpt>
      <trkpt lat="49.3363" lon="0.96788">
        <ele>72.800003051758</ele>
        <time>2019-04-07T09:35:40.000Z</time>
      </trkpt>
      <trkpt lat="49.33628" lon="0.96795">
        <ele>72.400001525879</ele>
        <time>2019-04-07T09:35:41.000Z</time>
      </trkpt>
      <trkpt lat="49.33622" lon="0.9688">
        <ele>72</ele>
        <time>2019-04-07T09:35:57.000Z</time>
      </trkpt>
      <trkpt lat="49.33619" lon="0.96903">
        <ele>71.599998474121</ele>
        <time>2019-04-07T09:36:01.000Z</time>
      </trkpt>
      <trkpt lat="49.33612" lon="0.96924">
        <ele>70.199996948242</ele>
        <time>2019-04-07T09:36:05.000Z</time>
      </trkpt>
      <trkpt lat="49.336" lon="0.96952">
        <ele>67.599998474121</ele>
        <time>2019-04-07T09:36:09.000Z</time>
      </trkpt>
      <trkpt lat="49.33595" lon="0.96966">
        <ele>66.599998474121</ele>
        <time>2019-04-07T09:36:11.000Z</time>
      </trkpt>
      <trkpt lat="49.33588" lon="0.96993">
        <ele>65.400001525879</ele>
        <time>2019-04-07T09:36:15.000Z</time>
      </trkpt>
      <trkpt lat="49.33587" lon="0.96999">
        <ele>65</ele>
        <time>2019-04-07T09:36:16.000Z</time>
      </trkpt>
      <trkpt lat="49.33581" lon="0.97023">
        <ele>64.199996948242</ele>
        <time>2019-04-07T09:36:20.000Z</time>
      </trkpt>
      <trkpt lat="49.3357" lon="0.97077">
        <ele>65</ele>
        <time>2019-04-07T09:36:28.000Z</time>
      </trkpt>
      <trkpt lat="49.33563" lon="0.97107">
        <ele>65.400001525879</ele>
        <time>2019-04-07T09:36:33.000Z</time>
      </trkpt>
      <trkpt lat="49.33557" lon="0.97116">
        <ele>64.400001525879</ele>
        <time>2019-04-07T09:36:35.000Z</time>
      </trkpt>
      <trkpt lat="49.33551" lon="0.97126">
        <ele>63.400001525879</ele>
        <time>2019-04-07T09:36:37.000Z</time>
      </trkpt>
      <trkpt lat="49.33547" lon="0.97139">
        <ele>63</ele>
        <time>2019-04-07T09:36:39.000Z</time>
      </trkpt>
      <trkpt lat="49.3354" lon="0.97163">
        <ele>63.400001525879</ele>
        <time>2019-04-07T09:36:43.000Z</time>
      </trkpt>
      <trkpt lat="49.33527" lon="0.97195">
        <ele>64.400001525879</ele>
        <time>2019-04-07T09:36:48.000Z</time>
      </trkpt>
      <trkpt lat="49.33524" lon="0.97202">
        <ele>64.599998474121</ele>
        <time>2019-04-07T09:36:49.000Z</time>
      </trkpt>
      <trkpt lat="49.33514" lon="0.97219">
        <ele>64.400001525879</ele>
        <time>2019-04-07T09:36:52.000Z</time>
      </trkpt>
      <trkpt lat="49.33504" lon="0.9723">
        <ele>63</ele>
        <time>2019-04-07T09:36:55.000Z</time>
      </trkpt>
      <trkpt lat="49.33486" lon="0.97243">
        <ele>60.200000762939</ele>
        <time>2019-04-07T09:36:59.000Z</time>
      </trkpt>
      <trkpt lat="49.33476" lon="0.97253">
        <ele>58.599998474121</ele>
        <time>2019-04-07T09:37:01.000Z</time>
      </trkpt>
      <trkpt lat="49.33444" lon="0.97285">
        <ele>54.599998474121</ele>
        <time>2019-04-07T09:37:29.000Z</time>
      </trkpt>
      <trkpt lat="49.33446" lon="0.97314">
        <ele>56</ele>
        <time>2019-04-07T09:37:54.000Z</time>
      </trkpt>
      <trkpt lat="49.33453" lon="0.97335">
        <ele>57.400001525879</ele>
        <time>2019-04-07T09:38:02.000Z</time>
      </trkpt>
      <trkpt lat="49.33462" lon="0.97353">
        <ele>58.799999237061</ele>
        <time>2019-04-07T09:38:10.000Z</time>
      </trkpt>
      <trkpt lat="49.33471" lon="0.97367">
        <ele>60.200000762939</ele>
        <time>2019-04-07T09:38:21.000Z</time>
      </trkpt>
      <trkpt lat="49.33472" lon="0.97367">
        <ele>60.400001525879</ele>
        <time>2019-04-07T09:38:22.000Z</time>
      </trkpt>
      <trkpt lat="49.33479" lon="0.97366">
        <ele>61.200000762939</ele>
        <time>2019-04-07T09:38:30.000Z</time>
      </trkpt>
      <trkpt lat="49.3348" lon="0.97368">
        <ele>61.400001525879</ele>
        <time>2019-04-07T09:38:31.000Z</time>
      </trkpt>
      <trkpt lat="49.33483" lon="0.9737">
        <ele>61.799999237061</ele>
        <time>2019-04-07T09:38:33.000Z</time>
      </trkpt>
      <trkpt lat="49.33487" lon="0.97377">
        <ele>62.400001525879</ele>
        <time>2019-04-07T09:38:37.000Z</time>
      </trkpt>
      <trkpt lat="49.33494" lon="0.97393">
        <ele>63.599998474121</ele>
        <time>2019-04-07T09:38:45.000Z</time>
      </trkpt>
      <trkpt lat="49.33509" lon="0.97409">
        <ele>65.599998474121</ele>
        <time>2019-04-07T09:38:51.000Z</time>
      </trkpt>
      <trkpt lat="49.33542" lon="0.97437">
        <ele>70.199996948242</ele>
        <time>2019-04-07T09:39:07.000Z</time>
      </trkpt>
      <trkpt lat="49.33556" lon="0.97446">
        <ele>72.400001525879</ele>
        <time>2019-04-07T09:39:14.000Z</time>
      </trkpt>
      <trkpt lat="49.33581" lon="0.9746">
        <ele>76</ele>
        <time>2019-04-07T09:39:26.000Z</time>
      </trkpt>
      <trkpt lat="49.33601" lon="0.97471">
        <ele>79.199996948242</ele>
        <time>2019-04-07T09:39:38.000Z</time>
      </trkpt>
      <trkpt lat="49.33602" lon="0.97513">
        <ele>83</ele>
        <time>2019-04-07T09:39:51.000Z</time>
      </trkpt>
      <trkpt lat="49.33601" lon="0.97529">
        <ele>84.400001525879</ele>
        <time>2019-04-07T09:39:56.000Z</time>
      </trkpt>
      <trkpt lat="49.3361" lon="0.97543">
        <ele>87</ele>
        <time>2019-04-07T09:40:01.000Z</time>
      </trkpt>
      <trkpt lat="49.33614" lon="0.97553">
        <ele>88.400001525879</ele>
        <time>2019-04-07T09:40:06.000Z</time>
      </trkpt>
      <trkpt lat="49.33584" lon="0.97569">
        <ele>86.599998474121</ele>
        <time>2019-04-07T09:40:23.000Z</time>
      </trkpt>
      <trkpt lat="49.33579" lon="0.97568">
        <ele>85.599998474121</ele>
        <time>2019-04-07T09:40:25.000Z</time>
      </trkpt>
      <trkpt lat="49.33563" lon="0.9756">
        <ele>82.400001525879</ele>
        <time>2019-04-07T09:40:31.000Z</time>
      </trkpt>
      <trkpt lat="49.33534" lon="0.97562">
        <ele>79</ele>
        <time>2019-04-07T09:40:44.000Z</time>
      </trkpt>
      <trkpt lat="49.33519" lon="0.97548">
        <ele>75.800003051758</ele>
        <time>2019-04-07T09:40:49.000Z</time>
      </trkpt>
      <trkpt lat="49.3351" lon="0.97544">
        <ele>74.400001525879</ele>
        <time>2019-04-07T09:40:51.000Z</time>
      </trkpt>
      <trkpt lat="49.33456" lon="0.97569">
        <ele>69.800003051758</ele>
        <time>2019-04-07T09:41:03.000Z</time>
      </trkpt>
      <trkpt lat="49.33424" lon="0.97593">
        <ele>65.199996948242</ele>
        <time>2019-04-07T09:41:09.000Z</time>
      </trkpt>
      <trkpt lat="49.33412" lon="0.97619">
        <ele>64.199996948242</ele>
        <time>2019-04-07T09:41:14.000Z</time>
      </trkpt>
      <trkpt lat="49.33411" lon="0.97628">
        <ele>64.599998474121</ele>
        <time>2019-04-07T09:41:16.000Z</time>
      </trkpt>
      <trkpt lat="49.33413" lon="0.97656">
        <ele>66</ele>
        <time>2019-04-07T09:41:28.000Z</time>
      </trkpt>
      <trkpt lat="49.3341" lon="0.97678">
        <ele>66.400001525879</ele>
        <time>2019-04-07T09:41:34.000Z</time>
      </trkpt>
      <trkpt lat="49.33412" lon="0.97694">
        <ele>67</ele>
        <time>2019-04-07T09:41:38.000Z</time>
      </trkpt>
      <trkpt lat="49.33413" lon="0.977">
        <ele>67.199996948242</ele>
        <time>2019-04-07T09:41:40.000Z</time>
      </trkpt>
      <trkpt lat="49.33413" lon="0.97705">
        <ele>67</ele>
        <time>2019-04-07T09:41:42.000Z</time>
      </trkpt>
      <trkpt lat="49.33414" lon="0.97728">
        <ele>67</ele>
        <time>2019-04-07T09:41:48.000Z</time>
      </trkpt>
      <trkpt lat="49.33412" lon="0.97747">
        <ele>67</ele>
        <time>2019-04-07T09:41:53.000Z</time>
      </trkpt>
      <trkpt lat="49.33412" lon="0.97768">
        <ele>67</ele>
        <time>2019-04-07T09:41:58.000Z</time>
      </trkpt>
      <trkpt lat="49.33404" lon="0.97816">
        <ele>66.400001525879</ele>
        <time>2019-04-07T09:42:10.000Z</time>
      </trkpt>
      <trkpt lat="49.33402" lon="0.97832">
        <ele>67.199996948242</ele>
        <time>2019-04-07T09:42:14.000Z</time>
      </trkpt>
      <trkpt lat="49.33392" lon="0.9786">
        <ele>67.199996948242</ele>
        <time>2019-04-07T09:42:21.000Z</time>
      </trkpt>
      <trkpt lat="49.33382" lon="0.97888">
        <ele>66.599998474121</ele>
        <time>2019-04-07T09:42:28.000Z</time>
      </trkpt>
      <trkpt lat="49.33362" lon="0.97919">
        <ele>64.800003051758</ele>
        <time>2019-04-07T09:42:37.000Z</time>
      </trkpt>
      <trkpt lat="49.33345" lon="0.97995">
        <ele>70.800003051758</ele>
        <time>2019-04-07T09:42:55.000Z</time>
      </trkpt>
      <trkpt lat="49.33348" lon="0.98024">
        <ele>72.800003051758</ele>
        <time>2019-04-07T09:43:06.000Z</time>
      </trkpt>
      <trkpt lat="49.33347" lon="0.98042">
        <ele>74.199996948242</ele>
        <time>2019-04-07T09:43:14.000Z</time>
      </trkpt>
      <trkpt lat="49.33347" lon="0.98045">
        <ele>74.599998474121</ele>
        <time>2019-04-07T09:43:15.000Z</time>
      </trkpt>
      <trkpt lat="49.33338" lon="0.98092">
        <ele>80</ele>
        <time>2019-04-07T09:43:34.000Z</time>
      </trkpt>
      <trkpt lat="49.33338" lon="0.98156">
        <ele>85.599998474121</ele>
        <time>2019-04-07T09:43:52.000Z</time>
      </trkpt>
      <trkpt lat="49.33337" lon="0.98176">
        <ele>87</ele>
        <time>2019-04-07T09:43:57.000Z</time>
      </trkpt>
      <trkpt lat="49.33336" lon="0.98178">
        <ele>87.199996948242</ele>
        <time>2019-04-07T09:43:58.000Z</time>
      </trkpt>
      <trkpt lat="49.33336" lon="0.98186">
        <ele>87.599998474121</ele>
        <time>2019-04-07T09:44:00.000Z</time>
      </trkpt>
      <trkpt lat="49.33337" lon="0.98198">
        <ele>88.400001525879</ele>
        <time>2019-04-07T09:44:03.000Z</time>
      </trkpt>
      <trkpt lat="49.33337" lon="0.98201">
        <ele>88.800003051758</ele>
        <time>2019-04-07T09:44:04.000Z</time>
      </trkpt>
      <trkpt lat="49.33333" lon="0.98218">
        <ele>91.800003051758</ele>
        <time>2019-04-07T09:44:10.000Z</time>
      </trkpt>
      <trkpt lat="49.33331" lon="0.98237">
        <ele>94.800003051758</ele>
        <time>2019-04-07T09:44:17.000Z</time>
      </trkpt>
      <trkpt lat="49.33332" lon="0.98238">
        <ele>94.800003051758</ele>
        <time>2019-04-07T09:44:18.000Z</time>
      </trkpt>
      <trkpt lat="49.33334" lon="0.9824">
        <ele>94.599998474121</ele>
        <time>2019-04-07T09:44:19.000Z</time>
      </trkpt>
      <trkpt lat="49.33336" lon="0.98241">
        <ele>94.400001525879</ele>
        <time>2019-04-07T09:44:20.000Z</time>
      </trkpt>
      <trkpt lat="49.33338" lon="0.98242">
        <ele>94.199996948242</ele>
        <time>2019-04-07T09:44:21.000Z</time>
      </trkpt>
      <trkpt lat="49.3334" lon="0.98242">
        <ele>93.800003051758</ele>
        <time>2019-04-07T09:44:22.000Z</time>
      </trkpt>
      <trkpt lat="49.33354" lon="0.98244">
        <ele>91</ele>
        <time>2019-04-07T09:44:29.000Z</time>
      </trkpt>
      <trkpt lat="49.33407" lon="0.98267">
        <ele>92.199996948242</ele>
        <time>2019-04-07T09:44:56.000Z</time>
      </trkpt>
      <trkpt lat="49.3345" lon="0.98285">
        <ele>96.400001525879</ele>
        <time>2019-04-07T09:45:13.000Z</time>
      </trkpt>
      <trkpt lat="49.33501" lon="0.98314">
        <ele>101.59999847412</ele>
        <time>2019-04-07T09:45:40.000Z</time>
      </trkpt>
      <trkpt lat="49.3351" lon="0.98319">
        <ele>102.59999847412</ele>
        <time>2019-04-07T09:45:45.000Z</time>
      </trkpt>
      <trkpt lat="49.33517" lon="0.98325">
        <ele>103.40000152588</ele>
        <time>2019-04-07T09:45:51.000Z</time>
      </trkpt>
      <trkpt lat="49.33526" lon="0.98338">
        <ele>104.80000305176</ele>
        <time>2019-04-07T09:45:58.000Z</time>
      </trkpt>
      <trkpt lat="49.33571" lon="0.98373">
        <ele>110.59999847412</ele>
        <time>2019-04-07T09:46:24.000Z</time>
      </trkpt>
      <trkpt lat="49.33619" lon="0.98411">
        <ele>117.40000152588</ele>
        <time>2019-04-07T09:46:55.000Z</time>
      </trkpt>
      <trkpt lat="49.33626" lon="0.98434">
        <ele>120</ele>
        <time>2019-04-07T09:47:10.000Z</time>
      </trkpt>
      <trkpt lat="49.33622" lon="0.98484">
        <ele>124.80000305176</ele>
        <time>2019-04-07T09:47:36.000Z</time>
      </trkpt>
      <trkpt lat="49.33627" lon="0.98515">
        <ele>127.40000152588</ele>
        <time>2019-04-07T09:47:49.000Z</time>
      </trkpt>
      <trkpt lat="49.33629" lon="0.98518">
        <ele>127.59999847412</ele>
        <time>2019-04-07T09:47:51.000Z</time>
      </trkpt>
      <trkpt lat="49.33646" lon="0.98553">
        <ele>130.60000610352</ele>
        <time>2019-04-07T09:48:08.000Z</time>
      </trkpt>
      <trkpt lat="49.33663" lon="0.98589">
        <ele>132.39999389648</ele>
        <time>2019-04-07T09:48:26.000Z</time>
      </trkpt>
      <trkpt lat="49.33665" lon="0.98594">
        <ele>132.80000305176</ele>
        <time>2019-04-07T09:48:28.000Z</time>
      </trkpt>
      <trkpt lat="49.33669" lon="0.98605">
        <ele>133.19999694824</ele>
        <time>2019-04-07T09:48:32.000Z</time>
      </trkpt>
      <trkpt lat="49.33669" lon="0.98607">
        <ele>133.39999389648</ele>
        <time>2019-04-07T09:48:33.000Z</time>
      </trkpt>
      <trkpt lat="49.33681" lon="0.98686">
        <ele>138.19999694824</ele>
        <time>2019-04-07T09:48:59.000Z</time>
      </trkpt>
      <trkpt lat="49.33694" lon="0.98714">
        <ele>140.19999694824</ele>
        <time>2019-04-07T09:49:07.000Z</time>
      </trkpt>
      <trkpt lat="49.33704" lon="0.9876">
        <ele>142</ele>
        <time>2019-04-07T09:49:19.000Z</time>
      </trkpt>
      <trkpt lat="49.33711" lon="0.98799">
        <ele>143</ele>
        <time>2019-04-07T09:49:29.000Z</time>
      </trkpt>
      <trkpt lat="49.33714" lon="0.98812">
        <ele>143.39999389648</ele>
        <time>2019-04-07T09:49:32.000Z</time>
      </trkpt>
      <trkpt lat="49.3372" lon="0.98828">
        <ele>143.60000610352</ele>
        <time>2019-04-07T09:49:36.000Z</time>
      </trkpt>
      <trkpt lat="49.33723" lon="0.98835">
        <ele>143.80000305176</ele>
        <time>2019-04-07T09:49:38.000Z</time>
      </trkpt>
      <trkpt lat="49.33736" lon="0.98876">
        <ele>143.80000305176</ele>
        <time>2019-04-07T09:49:48.000Z</time>
      </trkpt>
      <trkpt lat="49.33741" lon="0.98885">
        <ele>143.80000305176</ele>
        <time>2019-04-07T09:49:51.000Z</time>
      </trkpt>
      <trkpt lat="49.33756" lon="0.98918">
        <ele>144.60000610352</ele>
        <time>2019-04-07T09:50:01.000Z</time>
      </trkpt>
      <trkpt lat="49.33799" lon="0.98962">
        <ele>143.80000305176</ele>
        <time>2019-04-07T09:50:19.000Z</time>
      </trkpt>
      <trkpt lat="49.33806" lon="0.99041">
        <ele>144</ele>
        <time>2019-04-07T09:50:34.000Z</time>
      </trkpt>
      <trkpt lat="49.33807" lon="0.99123">
        <ele>143.19999694824</ele>
        <time>2019-04-07T09:50:50.000Z</time>
      </trkpt>
      <trkpt lat="49.33812" lon="0.99174">
        <ele>143</ele>
        <time>2019-04-07T09:51:00.000Z</time>
      </trkpt>
      <trkpt lat="49.33799" lon="0.99215">
        <ele>144.60000610352</ele>
        <time>2019-04-07T09:51:08.000Z</time>
      </trkpt>
      <trkpt lat="49.33794" lon="0.99229">
        <ele>145.19999694824</ele>
        <time>2019-04-07T09:51:12.000Z</time>
      </trkpt>
      <trkpt lat="49.33789" lon="0.99253">
        <ele>145.80000305176</ele>
        <time>2019-04-07T09:51:17.000Z</time>
      </trkpt>
      <trkpt lat="49.33792" lon="0.99306">
        <ele>146.39999389648</ele>
        <time>2019-04-07T09:51:27.000Z</time>
      </trkpt>
      <trkpt lat="49.33791" lon="0.99387">
        <ele>146.39999389648</ele>
        <time>2019-04-07T09:51:40.000Z</time>
      </trkpt>
      <trkpt lat="49.33786" lon="0.99453">
        <ele>147.39999389648</ele>
        <time>2019-04-07T09:51:51.000Z</time>
      </trkpt>
      <trkpt lat="49.3378" lon="0.9954">
        <ele>146.39999389648</ele>
        <time>2019-04-07T09:52:05.000Z</time>
      </trkpt>
      <trkpt lat="49.33771" lon="0.9962">
        <ele>143.80000305176</ele>
        <time>2019-04-07T09:52:19.000Z</time>
      </trkpt>
      <trkpt lat="49.33743" lon="0.99686">
        <ele>140.80000305176</ele>
        <time>2019-04-07T09:52:35.000Z</time>
      </trkpt>
      <trkpt lat="49.33716" lon="0.99691">
        <ele>140.19999694824</ele>
        <time>2019-04-07T09:52:44.000Z</time>
      </trkpt>
      <trkpt lat="49.33715" lon="0.99699">
        <ele>139.80000305176</ele>
        <time>2019-04-07T09:52:48.000Z</time>
      </trkpt>
      <trkpt lat="49.33713" lon="0.99727">
        <ele>138.19999694824</ele>
        <time>2019-04-07T09:52:56.000Z</time>
      </trkpt>
      <trkpt lat="49.33714" lon="0.99769">
        <ele>137.19999694824</ele>
        <time>2019-04-07T09:53:08.000Z</time>
      </trkpt>
      <trkpt lat="49.33714" lon="0.99778">
        <ele>137</ele>
        <time>2019-04-07T09:53:12.000Z</time>
      </trkpt>
      <trkpt lat="49.33713" lon="0.99799">
        <ele>136.39999389648</ele>
        <time>2019-04-07T09:53:19.000Z</time>
      </trkpt>
      <trkpt lat="49.3371" lon="0.99819">
        <ele>136.19999694824</ele>
        <time>2019-04-07T09:53:25.000Z</time>
      </trkpt>
      <trkpt lat="49.33698" lon="0.99843">
        <ele>134.80000305176</ele>
        <time>2019-04-07T09:53:35.000Z</time>
      </trkpt>
      <trkpt lat="49.33695" lon="0.99843">
        <ele>134.80000305176</ele>
        <time>2019-04-07T09:53:37.000Z</time>
      </trkpt>
      <trkpt lat="49.33691" lon="0.99856">
        <ele>134.19999694824</ele>
        <time>2019-04-07T09:53:42.000Z</time>
      </trkpt>
      <trkpt lat="49.33679" lon="0.99869">
        <ele>133.60000610352</ele>
        <time>2019-04-07T09:53:48.000Z</time>
      </trkpt>
      <trkpt lat="49.33695" lon="0.99932">
        <ele>132</ele>
        <time>2019-04-07T09:54:01.000Z</time>
      </trkpt>
      <trkpt lat="49.33706" lon="1.00014">
        <ele>131.19999694824</ele>
        <time>2019-04-07T09:54:14.000Z</time>
      </trkpt>
      <trkpt lat="49.33687" lon="1.00093">
        <ele>130.39999389648</ele>
        <time>2019-04-07T09:54:26.000Z</time>
      </trkpt>
      <trkpt lat="49.33685" lon="1.001">
        <ele>130.60000610352</ele>
        <time>2019-04-07T09:54:27.000Z</time>
      </trkpt>
      <trkpt lat="49.33676" lon="1.0013">
        <ele>130.60000610352</ele>
        <time>2019-04-07T09:54:31.000Z</time>
      </trkpt>
      <trkpt lat="49.33674" lon="1.00136">
        <ele>130.39999389648</ele>
        <time>2019-04-07T09:54:32.000Z</time>
      </trkpt>
      <trkpt lat="49.33656" lon="1.00185">
        <ele>130.60000610352</ele>
        <time>2019-04-07T09:54:40.000Z</time>
      </trkpt>
      <trkpt lat="49.33651" lon="1.00198">
        <ele>130.39999389648</ele>
        <time>2019-04-07T09:54:42.000Z</time>
      </trkpt>
      <trkpt lat="49.33641" lon="1.00238">
        <ele>130.19999694824</ele>
        <time>2019-04-07T09:54:48.000Z</time>
      </trkpt>
      <trkpt lat="49.33641" lon="1.00272">
        <ele>131.39999389648</ele>
        <time>2019-04-07T09:54:53.000Z</time>
      </trkpt>
      <trkpt lat="49.33643" lon="1.00285">
        <ele>131.80000305176</ele>
        <time>2019-04-07T09:54:55.000Z</time>
      </trkpt>
      <trkpt lat="49.33675" lon="1.00354">
        <ele>135</ele>
        <time>2019-04-07T09:55:07.000Z</time>
      </trkpt>
      <trkpt lat="49.33694" lon="1.00395">
        <ele>137.19999694824</ele>
        <time>2019-04-07T09:55:15.000Z</time>
      </trkpt>
      <trkpt lat="49.33709" lon="1.00438">
        <ele>137.19999694824</ele>
        <time>2019-04-07T09:55:22.000Z</time>
      </trkpt>
      <trkpt lat="49.33716" lon="1.00514">
        <ele>137.60000610352</ele>
        <time>2019-04-07T09:55:33.000Z</time>
      </trkpt>
      <trkpt lat="49.33708" lon="1.00597">
        <ele>138</ele>
        <time>2019-04-07T09:55:44.000Z</time>
      </trkpt>
      <trkpt lat="49.33697" lon="1.0068">
        <ele>137</ele>
        <time>2019-04-07T09:55:55.000Z</time>
      </trkpt>
      <trkpt lat="49.33689" lon="1.00768">
        <ele>137</ele>
        <time>2019-04-07T09:56:07.000Z</time>
      </trkpt>
      <trkpt lat="49.33688" lon="1.00796">
        <ele>137.39999389648</ele>
        <time>2019-04-07T09:56:11.000Z</time>
      </trkpt>
      <trkpt lat="49.33693" lon="1.00867">
        <ele>137.19999694824</ele>
        <time>2019-04-07T09:56:21.000Z</time>
      </trkpt>
      <trkpt lat="49.33697" lon="1.00921">
        <ele>138.39999389648</ele>
        <time>2019-04-07T09:56:28.000Z</time>
      </trkpt>
      <trkpt lat="49.33691" lon="1.0093">
        <ele>139.39999389648</ele>
        <time>2019-04-07T09:56:30.000Z</time>
      </trkpt>
      <trkpt lat="49.33681" lon="1.00935">
        <ele>140.39999389648</ele>
        <time>2019-04-07T09:56:32.000Z</time>
      </trkpt>
      <trkpt lat="49.33663" lon="1.00943">
        <ele>142.19999694824</ele>
        <time>2019-04-07T09:56:36.000Z</time>
      </trkpt>
      <trkpt lat="49.33641" lon="1.00956">
        <ele>142.60000610352</ele>
        <time>2019-04-07T09:56:42.000Z</time>
      </trkpt>
      <trkpt lat="49.33637" lon="1.00961">
        <ele>142.60000610352</ele>
        <time>2019-04-07T09:56:43.000Z</time>
      </trkpt>
      <trkpt lat="49.33609" lon="1.00991">
        <ele>142.60000610352</ele>
        <time>2019-04-07T09:56:50.000Z</time>
      </trkpt>
      <trkpt lat="49.33568" lon="1.01023">
        <ele>141.39999389648</ele>
        <time>2019-04-07T09:57:02.000Z</time>
      </trkpt>
      <trkpt lat="49.33545" lon="1.01042">
        <ele>140.60000610352</ele>
        <time>2019-04-07T09:57:08.000Z</time>
      </trkpt>
      <trkpt lat="49.33534" lon="1.01058">
        <ele>140</ele>
        <time>2019-04-07T09:57:11.000Z</time>
      </trkpt>
      <trkpt lat="49.33504" lon="1.01131">
        <ele>133.19999694824</ele>
        <time>2019-04-07T09:57:22.000Z</time>
      </trkpt>
      <trkpt lat="49.33488" lon="1.01186">
        <ele>132.19999694824</ele>
        <time>2019-04-07T09:57:38.000Z</time>
      </trkpt>
      <trkpt lat="49.33487" lon="1.01192">
        <ele>132.60000610352</ele>
        <time>2019-04-07T09:57:41.000Z</time>
      </trkpt>
      <trkpt lat="49.33477" lon="1.01247">
        <ele>134.60000610352</ele>
        <time>2019-04-07T09:57:53.000Z</time>
      </trkpt>
      <trkpt lat="49.33463" lon="1.01296">
        <ele>136</ele>
        <time>2019-04-07T09:58:04.000Z</time>
      </trkpt>
      <trkpt lat="49.33425" lon="1.01282">
        <ele>137.80000305176</ele>
        <time>2019-04-07T09:58:22.000Z</time>
      </trkpt>
      <trkpt lat="49.33408" lon="1.01246">
        <ele>138.19999694824</ele>
        <time>2019-04-07T09:58:30.000Z</time>
      </trkpt>
      <trkpt lat="49.33407" lon="1.01241">
        <ele>138.19999694824</ele>
        <time>2019-04-07T09:58:31.000Z</time>
      </trkpt>
      <trkpt lat="49.33405" lon="1.01236">
        <ele>138.19999694824</ele>
        <time>2019-04-07T09:58:32.000Z</time>
      </trkpt>
      <trkpt lat="49.33402" lon="1.0123">
        <ele>138.19999694824</ele>
        <time>2019-04-07T09:58:33.000Z</time>
      </trkpt>
      <trkpt lat="49.334" lon="1.01225">
        <ele>138.19999694824</ele>
        <time>2019-04-07T09:58:34.000Z</time>
      </trkpt>
      <trkpt lat="49.33398" lon="1.01219">
        <ele>137.80000305176</ele>
        <time>2019-04-07T09:58:35.000Z</time>
      </trkpt>
      <trkpt lat="49.33396" lon="1.01214">
        <ele>137.60000610352</ele>
        <time>2019-04-07T09:58:36.000Z</time>
      </trkpt>
      <trkpt lat="49.33377" lon="1.01189">
        <ele>136.19999694824</ele>
        <time>2019-04-07T09:58:42.000Z</time>
      </trkpt>
      <trkpt lat="49.33346" lon="1.01169">
        <ele>135.80000305176</ele>
        <time>2019-04-07T09:58:50.000Z</time>
      </trkpt>
      <trkpt lat="49.33292" lon="1.01148">
        <ele>135.19999694824</ele>
        <time>2019-04-07T09:59:01.000Z</time>
      </trkpt>
      <trkpt lat="49.33286" lon="1.01152">
        <ele>135.19999694824</ele>
        <time>2019-04-07T09:59:03.000Z</time>
      </trkpt>
      <trkpt lat="49.3328" lon="1.01169">
        <ele>134.60000610352</ele>
        <time>2019-04-07T09:59:06.000Z</time>
      </trkpt>
      <trkpt lat="49.33274" lon="1.01177">
        <ele>134.19999694824</ele>
        <time>2019-04-07T09:59:08.000Z</time>
      </trkpt>
      <trkpt lat="49.33271" lon="1.01181">
        <ele>133.80000305176</ele>
        <time>2019-04-07T09:59:09.000Z</time>
      </trkpt>
      <trkpt lat="49.33257" lon="1.01195">
        <ele>132.60000610352</ele>
        <time>2019-04-07T09:59:13.000Z</time>
      </trkpt>
      <trkpt lat="49.33239" lon="1.01209">
        <ele>131.80000305176</ele>
        <time>2019-04-07T09:59:18.000Z</time>
      </trkpt>
      <trkpt lat="49.3324" lon="1.01219">
        <ele>132</ele>
        <time>2019-04-07T09:59:20.000Z</time>
      </trkpt>
      <trkpt lat="49.33254" lon="1.01278">
        <ele>130.80000305176</ele>
        <time>2019-04-07T09:59:31.000Z</time>
      </trkpt>
      <trkpt lat="49.33255" lon="1.01283">
        <ele>130.80000305176</ele>
        <time>2019-04-07T09:59:32.000Z</time>
      </trkpt>
      <trkpt lat="49.33257" lon="1.01289">
        <ele>130.80000305176</ele>
        <time>2019-04-07T09:59:33.000Z</time>
      </trkpt>
      <trkpt lat="49.33268" lon="1.0132">
        <ele>130.80000305176</ele>
        <time>2019-04-07T09:59:39.000Z</time>
      </trkpt>
      <trkpt lat="49.33271" lon="1.01331">
        <ele>130.60000610352</ele>
        <time>2019-04-07T09:59:41.000Z</time>
      </trkpt>
      <trkpt lat="49.33276" lon="1.01347">
        <ele>130.39999389648</ele>
        <time>2019-04-07T09:59:44.000Z</time>
      </trkpt>
      <trkpt lat="49.33277" lon="1.01352">
        <ele>130.39999389648</ele>
        <time>2019-04-07T09:59:45.000Z</time>
      </trkpt>
      <trkpt lat="49.33276" lon="1.01358">
        <ele>130.39999389648</ele>
        <time>2019-04-07T09:59:46.000Z</time>
      </trkpt>
      <trkpt lat="49.33266" lon="1.01373">
        <ele>130</ele>
        <time>2019-04-07T09:59:50.000Z</time>
      </trkpt>
      <trkpt lat="49.33259" lon="1.01382">
        <ele>129.80000305176</ele>
        <time>2019-04-07T09:59:52.000Z</time>
      </trkpt>
      <trkpt lat="49.33252" lon="1.01392">
        <ele>129.39999389648</ele>
        <time>2019-04-07T09:59:54.000Z</time>
      </trkpt>
      <trkpt lat="49.33229" lon="1.01429">
        <ele>128.39999389648</ele>
        <time>2019-04-07T10:00:01.000Z</time>
      </trkpt>
      <trkpt lat="49.33219" lon="1.01443">
        <ele>128.19999694824</ele>
        <time>2019-04-07T10:00:04.000Z</time>
      </trkpt>
      <trkpt lat="49.33213" lon="1.01454">
        <ele>128.19999694824</ele>
        <time>2019-04-07T10:00:06.000Z</time>
      </trkpt>
      <trkpt lat="49.33189" lon="1.01493">
        <ele>128.39999389648</ele>
        <time>2019-04-07T10:00:13.000Z</time>
      </trkpt>
      <trkpt lat="49.33178" lon="1.01504">
        <ele>128.60000610352</ele>
        <time>2019-04-07T10:00:16.000Z</time>
      </trkpt>
      <trkpt lat="49.33171" lon="1.01513">
        <ele>129</ele>
        <time>2019-04-07T10:00:18.000Z</time>
      </trkpt>
      <trkpt lat="49.33165" lon="1.01522">
        <ele>129.19999694824</ele>
        <time>2019-04-07T10:00:20.000Z</time>
      </trkpt>
      <trkpt lat="49.3315" lon="1.01555">
        <ele>130</ele>
        <time>2019-04-07T10:00:26.000Z</time>
      </trkpt>
      <trkpt lat="49.33144" lon="1.01569">
        <ele>130.19999694824</ele>
        <time>2019-04-07T10:00:28.000Z</time>
      </trkpt>
      <trkpt lat="49.33151" lon="1.0164">
        <ele>130</ele>
        <time>2019-04-07T10:00:39.000Z</time>
      </trkpt>
      <trkpt lat="49.33156" lon="1.01661">
        <ele>130.19999694824</ele>
        <time>2019-04-07T10:00:42.000Z</time>
      </trkpt>
      <trkpt lat="49.33162" lon="1.01688">
        <ele>130.80000305176</ele>
        <time>2019-04-07T10:00:46.000Z</time>
      </trkpt>
      <trkpt lat="49.33167" lon="1.01707">
        <ele>131</ele>
        <time>2019-04-07T10:00:49.000Z</time>
      </trkpt>
      <trkpt lat="49.33173" lon="1.01725">
        <ele>131.39999389648</ele>
        <time>2019-04-07T10:00:52.000Z</time>
      </trkpt>
      <trkpt lat="49.33178" lon="1.01738">
        <ele>131.39999389648</ele>
        <time>2019-04-07T10:00:54.000Z</time>
      </trkpt>
      <trkpt lat="49.33185" lon="1.01757">
        <ele>131.39999389648</ele>
        <time>2019-04-07T10:00:57.000Z</time>
      </trkpt>
      <trkpt lat="49.33191" lon="1.01769">
        <ele>131.39999389648</ele>
        <time>2019-04-07T10:00:59.000Z</time>
      </trkpt>
      <trkpt lat="49.33205" lon="1.01803">
        <ele>131.19999694824</ele>
        <time>2019-04-07T10:01:05.000Z</time>
      </trkpt>
      <trkpt lat="49.33208" lon="1.01808">
        <ele>131.19999694824</ele>
        <time>2019-04-07T10:01:06.000Z</time>
      </trkpt>
      <trkpt lat="49.33212" lon="1.01812">
        <ele>131.19999694824</ele>
        <time>2019-04-07T10:01:07.000Z</time>
      </trkpt>
      <trkpt lat="49.3322" lon="1.01831">
        <ele>131.19999694824</ele>
        <time>2019-04-07T10:01:10.000Z</time>
      </trkpt>
      <trkpt lat="49.33227" lon="1.01842">
        <ele>131.39999389648</ele>
        <time>2019-04-07T10:01:12.000Z</time>
      </trkpt>
      <trkpt lat="49.33254" lon="1.01898">
        <ele>131.39999389648</ele>
        <time>2019-04-07T10:01:21.000Z</time>
      </trkpt>
      <trkpt lat="49.33276" lon="1.01938">
        <ele>130.39999389648</ele>
        <time>2019-04-07T10:01:28.000Z</time>
      </trkpt>
      <trkpt lat="49.33273" lon="1.01964">
        <ele>129.39999389648</ele>
        <time>2019-04-07T10:01:41.000Z</time>
      </trkpt>
      <trkpt lat="49.33273" lon="1.01964">
        <ele>129.39999389648</ele>
        <time>2019-04-07T10:01:48.000Z</time>
      </trkpt>
      <trkpt lat="49.33273" lon="1.01964">
        <ele>129.39999389648</ele>
        <time>2019-04-07T10:01:58.000Z</time>
      </trkpt>
      <trkpt lat="49.33273" lon="1.01964">
        <ele>129.39999389648</ele>
        <time>2019-04-07T10:02:05.000Z</time>
      </trkpt>
      <trkpt lat="49.33273" lon="1.01964">
        <ele>129.39999389648</ele>
        <time>2019-04-07T10:02:16.000Z</time>
      </trkpt>
      <trkpt lat="49.33273" lon="1.01964">
        <ele>129.39999389648</ele>
        <time>2019-04-07T10:02:23.000Z</time>
      </trkpt>
      <trkpt lat="49.33273" lon="1.01964">
        <ele>129.39999389648</ele>
        <time>2019-04-07T10:02:30.000Z</time>
      </trkpt>
      <trkpt lat="49.33273" lon="1.01964">
        <ele>129.39999389648</ele>
        <time>2019-04-07T10:02:39.000Z</time>
      </trkpt>
      <trkpt lat="49.33273" lon="1.01964">
        <ele>129.39999389648</ele>
        <time>2019-04-07T10:02:51.000Z</time>
      </trkpt>
      <trkpt lat="49.33273" lon="1.01964">
        <ele>129.39999389648</ele>
        <time>2019-04-07T10:03:06.000Z</time>
      </trkpt>
      <trkpt lat="49.33273" lon="1.01963">
        <ele>129.39999389648</ele>
        <time>2019-04-07T10:03:43.000Z</time>
      </trkpt>
      <trkpt lat="49.33273" lon="1.01963">
        <ele>129.39999389648</ele>
        <time>2019-04-07T10:03:49.000Z</time>
      </trkpt>
      <trkpt lat="49.33273" lon="1.01963">
        <ele>129.39999389648</ele>
        <time>2019-04-07T10:03:57.000Z</time>
      </trkpt>
      <trkpt lat="49.33273" lon="1.01964">
        <ele>129.39999389648</ele>
        <time>2019-04-07T10:04:12.000Z</time>
      </trkpt>
      <trkpt lat="49.33273" lon="1.01963">
        <ele>129.39999389648</ele>
        <time>2019-04-07T10:04:30.000Z</time>
      </trkpt>
      <trkpt lat="49.33273" lon="1.01963">
        <ele>129.39999389648</ele>
        <time>2019-04-07T10:04:42.000Z</time>
      </trkpt>
      <trkpt lat="49.33273" lon="1.01963">
        <ele>129.39999389648</ele>
        <time>2019-04-07T10:04:45.000Z</time>
      </trkpt>
      <trkpt lat="49.33273" lon="1.01964">
        <ele>129.39999389648</ele>
        <time>2019-04-07T10:04:55.000Z</time>
      </trkpt>
      <trkpt lat="49.33273" lon="1.01964">
        <ele>129.39999389648</ele>
        <time>2019-04-07T10:05:09.000Z</time>
      </trkpt>
      <trkpt lat="49.33273" lon="1.01964">
        <ele>129.39999389648</ele>
        <time>2019-04-07T10:05:11.000Z</time>
      </trkpt>
      <trkpt lat="49.33273" lon="1.01964">
        <ele>129.39999389648</ele>
        <time>2019-04-07T10:05:13.000Z</time>
      </trkpt>
      <trkpt lat="49.33273" lon="1.01964">
        <ele>129.39999389648</ele>
        <time>2019-04-07T10:05:14.000Z</time>
      </trkpt>
      <trkpt lat="49.33273" lon="1.01964">
        <ele>129.39999389648</ele>
        <time>2019-04-07T10:05:17.000Z</time>
      </trkpt>
      <trkpt lat="49.33273" lon="1.01964">
        <ele>129.39999389648</ele>
        <time>2019-04-07T10:05:46.000Z</time>
      </trkpt>
      <trkpt lat="49.33273" lon="1.01965">
        <ele>129.19999694824</ele>
        <time>2019-04-07T10:05:58.000Z</time>
      </trkpt>
      <trkpt lat="49.33272" lon="1.01966">
        <ele>129.19999694824</ele>
        <time>2019-04-07T10:06:11.000Z</time>
      </trkpt>
      <trkpt lat="49.33273" lon="1.01963">
        <ele>129.39999389648</ele>
        <time>2019-04-07T10:06:46.000Z</time>
      </trkpt>
      <trkpt lat="49.33274" lon="1.01961">
        <ele>129.39999389648</ele>
        <time>2019-04-07T10:07:04.000Z</time>
      </trkpt>
      <trkpt lat="49.33274" lon="1.0196">
        <ele>129.39999389648</ele>
        <time>2019-04-07T10:07:09.000Z</time>
      </trkpt>
      <trkpt lat="49.33271" lon="1.01961">
        <ele>129.39999389648</ele>
        <time>2019-04-07T10:07:24.000Z</time>
      </trkpt>
      <trkpt lat="49.33269" lon="1.01961">
        <ele>129.39999389648</ele>
        <time>2019-04-07T10:07:25.000Z</time>
      </trkpt>
      <trkpt lat="49.33261" lon="1.01957">
        <ele>129.39999389648</ele>
        <time>2019-04-07T10:07:36.000Z</time>
      </trkpt>
      <trkpt lat="49.33244" lon="1.01961">
        <ele>129.39999389648</ele>
        <time>2019-04-07T10:07:43.000Z</time>
      </trkpt>
      <trkpt lat="49.33212" lon="1.01963">
        <ele>129.19999694824</ele>
        <time>2019-04-07T10:07:51.000Z</time>
      </trkpt>
      <trkpt lat="49.3316" lon="1.01932">
        <ele>130.39999389648</ele>
        <time>2019-04-07T10:08:05.000Z</time>
      </trkpt>
      <trkpt lat="49.33105" lon="1.01921">
        <ele>131.19999694824</ele>
        <time>2019-04-07T10:08:19.000Z</time>
      </trkpt>
      <trkpt lat="49.33082" lon="1.01918">
        <ele>131.80000305176</ele>
        <time>2019-04-07T10:08:24.000Z</time>
      </trkpt>
      <trkpt lat="49.33063" lon="1.01912">
        <ele>132.39999389648</ele>
        <time>2019-04-07T10:08:28.000Z</time>
      </trkpt>
      <trkpt lat="49.33044" lon="1.01907">
        <ele>133.19999694824</ele>
        <time>2019-04-07T10:08:32.000Z</time>
      </trkpt>
      <trkpt lat="49.33027" lon="1.01902">
        <ele>133.60000610352</ele>
        <time>2019-04-07T10:08:36.000Z</time>
      </trkpt>
      <trkpt lat="49.33023" lon="1.01901">
        <ele>133.60000610352</ele>
        <time>2019-04-07T10:08:37.000Z</time>
      </trkpt>
      <trkpt lat="49.33013" lon="1.01903">
        <ele>133.39999389648</ele>
        <time>2019-04-07T10:08:39.000Z</time>
      </trkpt>
      <trkpt lat="49.33005" lon="1.01909">
        <ele>133</ele>
        <time>2019-04-07T10:08:41.000Z</time>
      </trkpt>
      <trkpt lat="49.33001" lon="1.01913">
        <ele>132.80000305176</ele>
        <time>2019-04-07T10:08:42.000Z</time>
      </trkpt>
      <trkpt lat="49.32997" lon="1.01918">
        <ele>132.60000610352</ele>
        <time>2019-04-07T10:08:43.000Z</time>
      </trkpt>
      <trkpt lat="49.32993" lon="1.01922">
        <ele>132.39999389648</ele>
        <time>2019-04-07T10:08:44.000Z</time>
      </trkpt>
      <trkpt lat="49.32983" lon="1.01934">
        <ele>132</ele>
        <time>2019-04-07T10:08:47.000Z</time>
      </trkpt>
      <trkpt lat="49.32981" lon="1.0194">
        <ele>132</ele>
        <time>2019-04-07T10:08:48.000Z</time>
      </trkpt>
      <trkpt lat="49.3298" lon="1.01946">
        <ele>132</ele>
        <time>2019-04-07T10:08:49.000Z</time>
      </trkpt>
      <trkpt lat="49.32979" lon="1.01952">
        <ele>131.80000305176</ele>
        <time>2019-04-07T10:08:50.000Z</time>
      </trkpt>
      <trkpt lat="49.32979" lon="1.01959">
        <ele>131.80000305176</ele>
        <time>2019-04-07T10:08:51.000Z</time>
      </trkpt>
      <trkpt lat="49.3298" lon="1.01966">
        <ele>131.80000305176</ele>
        <time>2019-04-07T10:08:52.000Z</time>
      </trkpt>
      <trkpt lat="49.32982" lon="1.01972">
        <ele>131.60000610352</ele>
        <time>2019-04-07T10:08:53.000Z</time>
      </trkpt>
      <trkpt lat="49.32991" lon="1.02014">
        <ele>131</ele>
        <time>2019-04-07T10:09:00.000Z</time>
      </trkpt>
      <trkpt lat="49.32993" lon="1.02022">
        <ele>131</ele>
        <time>2019-04-07T10:09:01.000Z</time>
      </trkpt>
      <trkpt lat="49.32996" lon="1.0203">
        <ele>131</ele>
        <time>2019-04-07T10:09:02.000Z</time>
      </trkpt>
      <trkpt lat="49.32999" lon="1.02039">
        <ele>130.80000305176</ele>
        <time>2019-04-07T10:09:03.000Z</time>
      </trkpt>
      <trkpt lat="49.33005" lon="1.02054">
        <ele>130.80000305176</ele>
        <time>2019-04-07T10:09:05.000Z</time>
      </trkpt>
      <trkpt lat="49.33008" lon="1.02062">
        <ele>130.80000305176</ele>
        <time>2019-04-07T10:09:06.000Z</time>
      </trkpt>
      <trkpt lat="49.33011" lon="1.0207">
        <ele>130.39999389648</ele>
        <time>2019-04-07T10:09:07.000Z</time>
      </trkpt>
      <trkpt lat="49.3302" lon="1.02095">
        <ele>129.39999389648</ele>
        <time>2019-04-07T10:09:10.000Z</time>
      </trkpt>
      <trkpt lat="49.33023" lon="1.02104">
        <ele>129.19999694824</ele>
        <time>2019-04-07T10:09:11.000Z</time>
      </trkpt>
      <trkpt lat="49.33026" lon="1.02112">
        <ele>128.80000305176</ele>
        <time>2019-04-07T10:09:12.000Z</time>
      </trkpt>
      <trkpt lat="49.33029" lon="1.02121">
        <ele>128.60000610352</ele>
        <time>2019-04-07T10:09:13.000Z</time>
      </trkpt>
      <trkpt lat="49.33035" lon="1.02139">
        <ele>128</ele>
        <time>2019-04-07T10:09:15.000Z</time>
      </trkpt>
      <trkpt lat="49.33038" lon="1.02147">
        <ele>127.80000305176</ele>
        <time>2019-04-07T10:09:16.000Z</time>
      </trkpt>
      <trkpt lat="49.33044" lon="1.02165">
        <ele>127.59999847412</ele>
        <time>2019-04-07T10:09:18.000Z</time>
      </trkpt>
      <trkpt lat="49.33049" lon="1.02182">
        <ele>127.40000152588</ele>
        <time>2019-04-07T10:09:20.000Z</time>
      </trkpt>
      <trkpt lat="49.33051" lon="1.02191">
        <ele>127.19999694824</ele>
        <time>2019-04-07T10:09:21.000Z</time>
      </trkpt>
      <trkpt lat="49.33063" lon="1.02225">
        <ele>126.59999847412</ele>
        <time>2019-04-07T10:09:25.000Z</time>
      </trkpt>
      <trkpt lat="49.33065" lon="1.02233">
        <ele>126.59999847412</ele>
        <time>2019-04-07T10:09:26.000Z</time>
      </trkpt>
      <trkpt lat="49.33068" lon="1.02242">
        <ele>126.80000305176</ele>
        <time>2019-04-07T10:09:27.000Z</time>
      </trkpt>
      <trkpt lat="49.33073" lon="1.02258">
        <ele>126.80000305176</ele>
        <time>2019-04-07T10:09:29.000Z</time>
      </trkpt>
      <trkpt lat="49.33095" lon="1.02324">
        <ele>127.19999694824</ele>
        <time>2019-04-07T10:09:37.000Z</time>
      </trkpt>
      <trkpt lat="49.3312" lon="1.024">
        <ele>127.80000305176</ele>
        <time>2019-04-07T10:09:46.000Z</time>
      </trkpt>
      <trkpt lat="49.33139" lon="1.0246">
        <ele>127.59999847412</ele>
        <time>2019-04-07T10:09:53.000Z</time>
      </trkpt>
      <trkpt lat="49.33145" lon="1.02485">
        <ele>127.59999847412</ele>
        <time>2019-04-07T10:09:56.000Z</time>
      </trkpt>
      <trkpt lat="49.33146" lon="1.02503">
        <ele>127.80000305176</ele>
        <time>2019-04-07T10:09:58.000Z</time>
      </trkpt>
      <trkpt lat="49.33141" lon="1.02531">
        <ele>127.59999847412</ele>
        <time>2019-04-07T10:10:01.000Z</time>
      </trkpt>
      <trkpt lat="49.3314" lon="1.02569">
        <ele>127.59999847412</ele>
        <time>2019-04-07T10:10:05.000Z</time>
      </trkpt>
      <trkpt lat="49.33128" lon="1.02643">
        <ele>127.80000305176</ele>
        <time>2019-04-07T10:10:13.000Z</time>
      </trkpt>
      <trkpt lat="49.33123" lon="1.02715">
        <ele>129.60000610352</ele>
        <time>2019-04-07T10:10:21.000Z</time>
      </trkpt>
      <trkpt lat="49.33114" lon="1.02747">
        <ele>129.19999694824</ele>
        <time>2019-04-07T10:10:25.000Z</time>
      </trkpt>
      <trkpt lat="49.33108" lon="1.02761">
        <ele>128.80000305176</ele>
        <time>2019-04-07T10:10:27.000Z</time>
      </trkpt>
      <trkpt lat="49.33106" lon="1.02769">
        <ele>128.60000610352</ele>
        <time>2019-04-07T10:10:28.000Z</time>
      </trkpt>
      <trkpt lat="49.33105" lon="1.02777">
        <ele>128.19999694824</ele>
        <time>2019-04-07T10:10:29.000Z</time>
      </trkpt>
      <trkpt lat="49.33102" lon="1.02794">
        <ele>127.59999847412</ele>
        <time>2019-04-07T10:10:31.000Z</time>
      </trkpt>
      <trkpt lat="49.33099" lon="1.02811">
        <ele>128</ele>
        <time>2019-04-07T10:10:33.000Z</time>
      </trkpt>
      <trkpt lat="49.33095" lon="1.02846">
        <ele>128</ele>
        <time>2019-04-07T10:10:37.000Z</time>
      </trkpt>
      <trkpt lat="49.33082" lon="1.02927">
        <ele>126.40000152588</ele>
        <time>2019-04-07T10:10:46.000Z</time>
      </trkpt>
      <trkpt lat="49.33076" lon="1.02953">
        <ele>125.19999694824</ele>
        <time>2019-04-07T10:10:49.000Z</time>
      </trkpt>
      <trkpt lat="49.33068" lon="1.03024">
        <ele>123.40000152588</ele>
        <time>2019-04-07T10:10:57.000Z</time>
      </trkpt>
      <trkpt lat="49.33057" lon="1.03055">
        <ele>125</ele>
        <time>2019-04-07T10:11:01.000Z</time>
      </trkpt>
      <trkpt lat="49.33053" lon="1.03081">
        <ele>124.59999847412</ele>
        <time>2019-04-07T10:11:04.000Z</time>
      </trkpt>
      <trkpt lat="49.33045" lon="1.0311">
        <ele>125.19999694824</ele>
        <time>2019-04-07T10:11:08.000Z</time>
      </trkpt>
      <trkpt lat="49.33037" lon="1.03131">
        <ele>125.59999847412</ele>
        <time>2019-04-07T10:11:11.000Z</time>
      </trkpt>
      <trkpt lat="49.33035" lon="1.03139">
        <ele>125.80000305176</ele>
        <time>2019-04-07T10:11:12.000Z</time>
      </trkpt>
      <trkpt lat="49.33033" lon="1.03147">
        <ele>125.80000305176</ele>
        <time>2019-04-07T10:11:13.000Z</time>
      </trkpt>
      <trkpt lat="49.33019" lon="1.03197">
        <ele>124.80000305176</ele>
        <time>2019-04-07T10:11:19.000Z</time>
      </trkpt>
      <trkpt lat="49.33003" lon="1.03244">
        <ele>123.80000305176</ele>
        <time>2019-04-07T10:11:25.000Z</time>
      </trkpt>
      <trkpt lat="49.32998" lon="1.03267">
        <ele>124.19999694824</ele>
        <time>2019-04-07T10:11:28.000Z</time>
      </trkpt>
      <trkpt lat="49.32998" lon="1.03282">
        <ele>124.59999847412</ele>
        <time>2019-04-07T10:11:30.000Z</time>
      </trkpt>
      <trkpt lat="49.33003" lon="1.03295">
        <ele>124.59999847412</ele>
        <time>2019-04-07T10:11:32.000Z</time>
      </trkpt>
      <trkpt lat="49.33011" lon="1.03304">
        <ele>124.59999847412</ele>
        <time>2019-04-07T10:11:34.000Z</time>
      </trkpt>
      <trkpt lat="49.33015" lon="1.03316">
        <ele>124.59999847412</ele>
        <time>2019-04-07T10:11:36.000Z</time>
      </trkpt>
      <trkpt lat="49.33013" lon="1.03328">
        <ele>124.80000305176</ele>
        <time>2019-04-07T10:11:38.000Z</time>
      </trkpt>
      <trkpt lat="49.33012" lon="1.03342">
        <ele>125</ele>
        <time>2019-04-07T10:11:40.000Z</time>
      </trkpt>
      <trkpt lat="49.33013" lon="1.03356">
        <ele>125.19999694824</ele>
        <time>2019-04-07T10:11:42.000Z</time>
      </trkpt>
      <trkpt lat="49.33017" lon="1.0337">
        <ele>125.19999694824</ele>
        <time>2019-04-07T10:11:44.000Z</time>
      </trkpt>
      <trkpt lat="49.33055" lon="1.03441">
        <ele>126.80000305176</ele>
        <time>2019-04-07T10:11:55.000Z</time>
      </trkpt>
      <trkpt lat="49.33089" lon="1.0351">
        <ele>128</ele>
        <time>2019-04-07T10:12:05.000Z</time>
      </trkpt>
      <trkpt lat="49.33105" lon="1.03537">
        <ele>127.80000305176</ele>
        <time>2019-04-07T10:12:09.000Z</time>
      </trkpt>
      <trkpt lat="49.33108" lon="1.03545">
        <ele>127.80000305176</ele>
        <time>2019-04-07T10:12:10.000Z</time>
      </trkpt>
      <trkpt lat="49.33128" lon="1.03591">
        <ele>127.19999694824</ele>
        <time>2019-04-07T10:12:16.000Z</time>
      </trkpt>
      <trkpt lat="49.33153" lon="1.03664">
        <ele>126.80000305176</ele>
        <time>2019-04-07T10:12:25.000Z</time>
      </trkpt>
      <trkpt lat="49.33161" lon="1.03689">
        <ele>127.19999694824</ele>
        <time>2019-04-07T10:12:28.000Z</time>
      </trkpt>
      <trkpt lat="49.33163" lon="1.03697">
        <ele>127</ele>
        <time>2019-04-07T10:12:29.000Z</time>
      </trkpt>
      <trkpt lat="49.33165" lon="1.03706">
        <ele>127</ele>
        <time>2019-04-07T10:12:30.000Z</time>
      </trkpt>
      <trkpt lat="49.33172" lon="1.0375">
        <ele>127.40000152588</ele>
        <time>2019-04-07T10:12:35.000Z</time>
      </trkpt>
      <trkpt lat="49.33182" lon="1.03799">
        <ele>128.39999389648</ele>
        <time>2019-04-07T10:12:41.000Z</time>
      </trkpt>
      <trkpt lat="49.33207" lon="1.03874">
        <ele>128.60000610352</ele>
        <time>2019-04-07T10:12:50.000Z</time>
      </trkpt>
      <trkpt lat="49.33228" lon="1.03957">
        <ele>129.39999389648</ele>
        <time>2019-04-07T10:13:00.000Z</time>
      </trkpt>
      <trkpt lat="49.33231" lon="1.03974">
        <ele>129.60000610352</ele>
        <time>2019-04-07T10:13:02.000Z</time>
      </trkpt>
      <trkpt lat="49.33233" lon="1.03983">
        <ele>129.60000610352</ele>
        <time>2019-04-07T10:13:03.000Z</time>
      </trkpt>
      <trkpt lat="49.33236" lon="1.04001">
        <ele>129.80000305176</ele>
        <time>2019-04-07T10:13:05.000Z</time>
      </trkpt>
      <trkpt lat="49.33237" lon="1.04009">
        <ele>130</ele>
        <time>2019-04-07T10:13:06.000Z</time>
      </trkpt>
      <trkpt lat="49.33237" lon="1.04027">
        <ele>129.80000305176</ele>
        <time>2019-04-07T10:13:08.000Z</time>
      </trkpt>
      <trkpt lat="49.33238" lon="1.04093">
        <ele>129</ele>
        <time>2019-04-07T10:13:16.000Z</time>
      </trkpt>
      <trkpt lat="49.33238" lon="1.04101">
        <ele>129</ele>
        <time>2019-04-07T10:13:17.000Z</time>
      </trkpt>
      <trkpt lat="49.33233" lon="1.04191">
        <ele>130</ele>
        <time>2019-04-07T10:13:28.000Z</time>
      </trkpt>
      <trkpt lat="49.33238" lon="1.04278">
        <ele>131.19999694824</ele>
        <time>2019-04-07T10:13:38.000Z</time>
      </trkpt>
      <trkpt lat="49.33245" lon="1.04344">
        <ele>129.80000305176</ele>
        <time>2019-04-07T10:13:46.000Z</time>
      </trkpt>
      <trkpt lat="49.33242" lon="1.04428">
        <ele>127.59999847412</ele>
        <time>2019-04-07T10:13:56.000Z</time>
      </trkpt>
      <trkpt lat="49.3324" lon="1.0449">
        <ele>125.59999847412</ele>
        <time>2019-04-07T10:14:03.000Z</time>
      </trkpt>
      <trkpt lat="49.33242" lon="1.04507">
        <ele>125</ele>
        <time>2019-04-07T10:14:05.000Z</time>
      </trkpt>
      <trkpt lat="49.33247" lon="1.04523">
        <ele>124.40000152588</ele>
        <time>2019-04-07T10:14:07.000Z</time>
      </trkpt>
      <trkpt lat="49.33256" lon="1.04546">
        <ele>123.80000305176</ele>
        <time>2019-04-07T10:14:10.000Z</time>
      </trkpt>
      <trkpt lat="49.33272" lon="1.04582">
        <ele>124</ele>
        <time>2019-04-07T10:14:15.000Z</time>
      </trkpt>
      <trkpt lat="49.33303" lon="1.04655">
        <ele>125.59999847412</ele>
        <time>2019-04-07T10:14:25.000Z</time>
      </trkpt>
      <trkpt lat="49.33306" lon="1.04664">
        <ele>125.80000305176</ele>
        <time>2019-04-07T10:14:26.000Z</time>
      </trkpt>
      <trkpt lat="49.33317" lon="1.04707">
        <ele>127</ele>
        <time>2019-04-07T10:14:31.000Z</time>
      </trkpt>
      <trkpt lat="49.33318" lon="1.04716">
        <ele>127.19999694824</ele>
        <time>2019-04-07T10:14:32.000Z</time>
      </trkpt>
      <trkpt lat="49.33319" lon="1.04755">
        <ele>126.40000152588</ele>
        <time>2019-04-07T10:14:36.000Z</time>
      </trkpt>
      <trkpt lat="49.3332" lon="1.04764">
        <ele>126</ele>
        <time>2019-04-07T10:14:37.000Z</time>
      </trkpt>
      <trkpt lat="49.33319" lon="1.04791">
        <ele>125.80000305176</ele>
        <time>2019-04-07T10:14:40.000Z</time>
      </trkpt>
      <trkpt lat="49.33314" lon="1.04835">
        <ele>125</ele>
        <time>2019-04-07T10:14:45.000Z</time>
      </trkpt>
      <trkpt lat="49.33312" lon="1.04852">
        <ele>124.59999847412</ele>
        <time>2019-04-07T10:14:47.000Z</time>
      </trkpt>
      <trkpt lat="49.33303" lon="1.04942">
        <ele>123.40000152588</ele>
        <time>2019-04-07T10:14:57.000Z</time>
      </trkpt>
      <trkpt lat="49.333" lon="1.05034">
        <ele>123.59999847412</ele>
        <time>2019-04-07T10:15:07.000Z</time>
      </trkpt>
      <trkpt lat="49.33299" lon="1.0509">
        <ele>123.59999847412</ele>
        <time>2019-04-07T10:15:13.000Z</time>
      </trkpt>
      <trkpt lat="49.33302" lon="1.05108">
        <ele>123.40000152588</ele>
        <time>2019-04-07T10:15:15.000Z</time>
      </trkpt>
      <trkpt lat="49.33322" lon="1.0517">
        <ele>122.59999847412</ele>
        <time>2019-04-07T10:15:23.000Z</time>
      </trkpt>
      <trkpt lat="49.33328" lon="1.05184">
        <ele>122.59999847412</ele>
        <time>2019-04-07T10:15:25.000Z</time>
      </trkpt>
      <trkpt lat="49.33351" lon="1.05265">
        <ele>121.40000152588</ele>
        <time>2019-04-07T10:15:34.000Z</time>
      </trkpt>
      <trkpt lat="49.33369" lon="1.05329">
        <ele>120</ele>
        <time>2019-04-07T10:15:41.000Z</time>
      </trkpt>
      <trkpt lat="49.33381" lon="1.05361">
        <ele>118.80000305176</ele>
        <time>2019-04-07T10:15:45.000Z</time>
      </trkpt>
      <trkpt lat="49.33391" lon="1.0537">
        <ele>118.59999847412</ele>
        <time>2019-04-07T10:15:47.000Z</time>
      </trkpt>
      <trkpt lat="49.33408" lon="1.05382">
        <ele>118.80000305176</ele>
        <time>2019-04-07T10:15:50.000Z</time>
      </trkpt>
      <trkpt lat="49.33417" lon="1.05394">
        <ele>118.40000152588</ele>
        <time>2019-04-07T10:15:52.000Z</time>
      </trkpt>
      <trkpt lat="49.33424" lon="1.05409">
        <ele>117.40000152588</ele>
        <time>2019-04-07T10:15:54.000Z</time>
      </trkpt>
      <trkpt lat="49.33431" lon="1.05422">
        <ele>116.80000305176</ele>
        <time>2019-04-07T10:15:56.000Z</time>
      </trkpt>
      <trkpt lat="49.33441" lon="1.05429">
        <ele>116.59999847412</ele>
        <time>2019-04-07T10:15:58.000Z</time>
      </trkpt>
      <trkpt lat="49.33457" lon="1.05438">
        <ele>116.59999847412</ele>
        <time>2019-04-07T10:16:01.000Z</time>
      </trkpt>
      <trkpt lat="49.33481" lon="1.05464">
        <ele>115.59999847412</ele>
        <time>2019-04-07T10:16:06.000Z</time>
      </trkpt>
      <trkpt lat="49.33492" lon="1.05469">
        <ele>115.80000305176</ele>
        <time>2019-04-07T10:16:08.000Z</time>
      </trkpt>
      <trkpt lat="49.33512" lon="1.05466">
        <ele>117</ele>
        <time>2019-04-07T10:16:12.000Z</time>
      </trkpt>
      <trkpt lat="49.33535" lon="1.05454">
        <ele>117.59999847412</ele>
        <time>2019-04-07T10:16:17.000Z</time>
      </trkpt>
      <trkpt lat="49.33548" lon="1.05446">
        <ele>117.80000305176</ele>
        <time>2019-04-07T10:16:20.000Z</time>
      </trkpt>
      <trkpt lat="49.33566" lon="1.05437">
        <ele>118</ele>
        <time>2019-04-07T10:16:24.000Z</time>
      </trkpt>
      <trkpt lat="49.33576" lon="1.05432">
        <ele>118.19999694824</ele>
        <time>2019-04-07T10:16:26.000Z</time>
      </trkpt>
      <trkpt lat="49.336" lon="1.05419">
        <ele>118.80000305176</ele>
        <time>2019-04-07T10:16:31.000Z</time>
      </trkpt>
      <trkpt lat="49.3361" lon="1.05419">
        <ele>119</ele>
        <time>2019-04-07T10:16:33.000Z</time>
      </trkpt>
      <trkpt lat="49.33618" lon="1.05427">
        <ele>118.59999847412</ele>
        <time>2019-04-07T10:16:35.000Z</time>
      </trkpt>
      <trkpt lat="49.33636" lon="1.05453">
        <ele>117</ele>
        <time>2019-04-07T10:16:39.000Z</time>
      </trkpt>
      <trkpt lat="49.33677" lon="1.05511">
        <ele>115.19999694824</ele>
        <time>2019-04-07T10:16:47.000Z</time>
      </trkpt>
      <trkpt lat="49.33719" lon="1.0557">
        <ele>112.80000305176</ele>
        <time>2019-04-07T10:16:54.000Z</time>
      </trkpt>
      <trkpt lat="49.33741" lon="1.05605">
        <ele>110.59999847412</ele>
        <time>2019-04-07T10:16:58.000Z</time>
      </trkpt>
      <trkpt lat="49.33774" lon="1.05659">
        <ele>106.40000152588</ele>
        <time>2019-04-07T10:17:04.000Z</time>
      </trkpt>
      <trkpt lat="49.33817" lon="1.05725">
        <ele>102.59999847412</ele>
        <time>2019-04-07T10:17:11.000Z</time>
      </trkpt>
      <trkpt lat="49.33855" lon="1.05785">
        <ele>100.59999847412</ele>
        <time>2019-04-07T10:17:18.000Z</time>
      </trkpt>
      <trkpt lat="49.3386" lon="1.05792">
        <ele>100.40000152588</ele>
        <time>2019-04-07T10:17:19.000Z</time>
      </trkpt>
      <trkpt lat="49.33872" lon="1.05798">
        <ele>100</ele>
        <time>2019-04-07T10:17:21.000Z</time>
      </trkpt>
      <trkpt lat="49.33879" lon="1.05798">
        <ele>99.800003051758</ele>
        <time>2019-04-07T10:17:22.000Z</time>
      </trkpt>
      <trkpt lat="49.33885" lon="1.05797">
        <ele>99.599998474121</ele>
        <time>2019-04-07T10:17:23.000Z</time>
      </trkpt>
      <trkpt lat="49.33898" lon="1.05791">
        <ele>99.199996948242</ele>
        <time>2019-04-07T10:17:25.000Z</time>
      </trkpt>
      <trkpt lat="49.33954" lon="1.05761">
        <ele>97.199996948242</ele>
        <time>2019-04-07T10:17:33.000Z</time>
      </trkpt>
      <trkpt lat="49.33961" lon="1.05754">
        <ele>96.800003051758</ele>
        <time>2019-04-07T10:17:34.000Z</time>
      </trkpt>
      <trkpt lat="49.34005" lon="1.05701">
        <ele>95</ele>
        <time>2019-04-07T10:17:42.000Z</time>
      </trkpt>
      <trkpt lat="49.34023" lon="1.05693">
        <ele>93.199996948242</ele>
        <time>2019-04-07T10:17:47.000Z</time>
      </trkpt>
      <trkpt lat="49.34028" lon="1.05703">
        <ele>94</ele>
        <time>2019-04-07T10:17:49.000Z</time>
      </trkpt>
      <trkpt lat="49.34033" lon="1.05724">
        <ele>95.199996948242</ele>
        <time>2019-04-07T10:17:52.000Z</time>
      </trkpt>
      <trkpt lat="49.34042" lon="1.0577">
        <ele>91.199996948242</ele>
        <time>2019-04-07T10:17:58.000Z</time>
      </trkpt>
      <trkpt lat="49.34045" lon="1.05788">
        <ele>89.800003051758</ele>
        <time>2019-04-07T10:18:00.000Z</time>
      </trkpt>
      <trkpt lat="49.3405" lon="1.05824">
        <ele>86.800003051758</ele>
        <time>2019-04-07T10:18:03.000Z</time>
      </trkpt>
      <trkpt lat="49.34056" lon="1.05912">
        <ele>80.199996948242</ele>
        <time>2019-04-07T10:18:10.000Z</time>
      </trkpt>
      <trkpt lat="49.34065" lon="1.05922">
        <ele>77.800003051758</ele>
        <time>2019-04-07T10:18:12.000Z</time>
      </trkpt>
      <trkpt lat="49.34081" lon="1.05923">
        <ele>74.400001525879</ele>
        <time>2019-04-07T10:18:14.000Z</time>
      </trkpt>
      <trkpt lat="49.34136" lon="1.0591">
        <ele>66.400001525879</ele>
        <time>2019-04-07T10:18:20.000Z</time>
      </trkpt>
      <trkpt lat="49.34151" lon="1.05904">
        <ele>66.400001525879</ele>
        <time>2019-04-07T10:18:22.000Z</time>
      </trkpt>
      <trkpt lat="49.34171" lon="1.05889">
        <ele>66.800003051758</ele>
        <time>2019-04-07T10:18:25.000Z</time>
      </trkpt>
      <trkpt lat="49.34181" lon="1.05881">
        <ele>67</ele>
        <time>2019-04-07T10:18:27.000Z</time>
      </trkpt>
      <trkpt lat="49.34192" lon="1.05887">
        <ele>66.400001525879</ele>
        <time>2019-04-07T10:18:30.000Z</time>
      </trkpt>
      <trkpt lat="49.34196" lon="1.05904">
        <ele>65.400001525879</ele>
        <time>2019-04-07T10:18:33.000Z</time>
      </trkpt>
      <trkpt lat="49.34203" lon="1.05993">
        <ele>61.400001525879</ele>
        <time>2019-04-07T10:18:43.000Z</time>
      </trkpt>
      <trkpt lat="49.3419" lon="1.06081">
        <ele>57</ele>
        <time>2019-04-07T10:18:52.000Z</time>
      </trkpt>
      <trkpt lat="49.3417" lon="1.06165">
        <ele>56.400001525879</ele>
        <time>2019-04-07T10:19:02.000Z</time>
      </trkpt>
      <trkpt lat="49.34142" lon="1.06244">
        <ele>53.200000762939</ele>
        <time>2019-04-07T10:19:11.000Z</time>
      </trkpt>
      <trkpt lat="49.34115" lon="1.06323">
        <ele>46.200000762939</ele>
        <time>2019-04-07T10:19:20.000Z</time>
      </trkpt>
      <trkpt lat="49.34087" lon="1.06396">
        <ele>48.799999237061</ele>
        <time>2019-04-07T10:19:27.000Z</time>
      </trkpt>
      <trkpt lat="49.3405" lon="1.06465">
        <ele>46.799999237061</ele>
        <time>2019-04-07T10:19:35.000Z</time>
      </trkpt>
      <trkpt lat="49.34047" lon="1.06471">
        <ele>46</ele>
        <time>2019-04-07T10:19:36.000Z</time>
      </trkpt>
      <trkpt lat="49.34027" lon="1.06547">
        <ele>48</ele>
        <time>2019-04-07T10:19:58.000Z</time>
      </trkpt>
      <trkpt lat="49.34006" lon="1.06587">
        <ele>51</ele>
        <time>2019-04-07T10:20:14.000Z</time>
      </trkpt>
      <trkpt lat="49.33998" lon="1.066">
        <ele>52.599998474121</ele>
        <time>2019-04-07T10:20:20.000Z</time>
      </trkpt>
      <trkpt lat="49.3398" lon="1.06628">
        <ele>53.799999237061</ele>
        <time>2019-04-07T10:20:32.000Z</time>
      </trkpt>
      <trkpt lat="49.33974" lon="1.06637">
        <ele>54</ele>
        <time>2019-04-07T10:20:36.000Z</time>
      </trkpt>
      <trkpt lat="49.33968" lon="1.06647">
        <ele>54</ele>
        <time>2019-04-07T10:20:39.000Z</time>
      </trkpt>
      <trkpt lat="49.33924" lon="1.06705">
        <ele>56.200000762939</ele>
        <time>2019-04-07T10:20:57.000Z</time>
      </trkpt>
      <trkpt lat="49.33921" lon="1.0671">
        <ele>55.799999237061</ele>
        <time>2019-04-07T10:20:58.000Z</time>
      </trkpt>
      <trkpt lat="49.33881" lon="1.06772">
        <ele>52</ele>
        <time>2019-04-07T10:21:13.000Z</time>
      </trkpt>
      <trkpt lat="49.33847" lon="1.06838">
        <ele>52.200000762939</ele>
        <time>2019-04-07T10:21:25.000Z</time>
      </trkpt>
      <trkpt lat="49.33836" lon="1.06892">
        <ele>51.599998474121</ele>
        <time>2019-04-07T10:21:36.000Z</time>
      </trkpt>
      <trkpt lat="49.33838" lon="1.06902">
        <ele>51.200000762939</ele>
        <time>2019-04-07T10:21:39.000Z</time>
      </trkpt>
      <trkpt lat="49.33838" lon="1.06911">
        <ele>50.400001525879</ele>
        <time>2019-04-07T10:21:42.000Z</time>
      </trkpt>
      <trkpt lat="49.33839" lon="1.06916">
        <ele>50.400001525879</ele>
        <time>2019-04-07T10:21:44.000Z</time>
      </trkpt>
      <trkpt lat="49.33855" lon="1.0693">
        <ele>52.200000762939</ele>
        <time>2019-04-07T10:21:55.000Z</time>
      </trkpt>
      <trkpt lat="49.33859" lon="1.06934">
        <ele>52.599998474121</ele>
        <time>2019-04-07T10:21:58.000Z</time>
      </trkpt>
      <trkpt lat="49.33865" lon="1.06942">
        <ele>53</ele>
        <time>2019-04-07T10:22:03.000Z</time>
      </trkpt>
      <trkpt lat="49.33872" lon="1.0694">
        <ele>53.400001525879</ele>
        <time>2019-04-07T10:22:07.000Z</time>
      </trkpt>
      <trkpt lat="49.3388" lon="1.06932">
        <ele>54.400001525879</ele>
        <time>2019-04-07T10:22:13.000Z</time>
      </trkpt>
      <trkpt lat="49.33889" lon="1.06918">
        <ele>55.799999237061</ele>
        <time>2019-04-07T10:22:23.000Z</time>
      </trkpt>
      <trkpt lat="49.33891" lon="1.06913">
        <ele>56.400001525879</ele>
        <time>2019-04-07T10:22:26.000Z</time>
      </trkpt>
      <trkpt lat="49.33905" lon="1.06876">
        <ele>58.799999237061</ele>
        <time>2019-04-07T10:22:44.000Z</time>
      </trkpt>
      <trkpt lat="49.33907" lon="1.06875">
        <ele>59</ele>
        <time>2019-04-07T10:22:45.000Z</time>
      </trkpt>
      <trkpt lat="49.3391" lon="1.0687">
        <ele>59</ele>
        <time>2019-04-07T10:22:48.000Z</time>
      </trkpt>
      <trkpt lat="49.3392" lon="1.06857">
        <ele>60</ele>
        <time>2019-04-07T10:22:57.000Z</time>
      </trkpt>
      <trkpt lat="49.33929" lon="1.06838">
        <ele>63.400001525879</ele>
        <time>2019-04-07T10:23:06.000Z</time>
      </trkpt>
      <trkpt lat="49.33972" lon="1.06783">
        <ele>65.400001525879</ele>
        <time>2019-04-07T10:23:31.000Z</time>
      </trkpt>
      <trkpt lat="49.3398" lon="1.06769">
        <ele>63.799999237061</ele>
        <time>2019-04-07T10:23:34.000Z</time>
      </trkpt>
      <trkpt lat="49.34017" lon="1.06714">
        <ele>66</ele>
        <time>2019-04-07T10:23:49.000Z</time>
      </trkpt>
      <trkpt lat="49.34034" lon="1.06688">
        <ele>67.199996948242</ele>
        <time>2019-04-07T10:23:56.000Z</time>
      </trkpt>
      <trkpt lat="49.34044" lon="1.0667">
        <ele>66.400001525879</ele>
        <time>2019-04-07T10:24:02.000Z</time>
      </trkpt>
      <trkpt lat="49.34083" lon="1.06608">
        <ele>60.799999237061</ele>
        <time>2019-04-07T10:24:20.000Z</time>
      </trkpt>
      <trkpt lat="49.34116" lon="1.06538">
        <ele>65.599998474121</ele>
        <time>2019-04-07T10:24:37.000Z</time>
      </trkpt>
      <trkpt lat="49.34144" lon="1.06468">
        <ele>64.599998474121</ele>
        <time>2019-04-07T10:24:52.000Z</time>
      </trkpt>
      <trkpt lat="49.34173" lon="1.06401">
        <ele>64</ele>
        <time>2019-04-07T10:25:09.000Z</time>
      </trkpt>
      <trkpt lat="49.34188" lon="1.06366">
        <ele>65.400001525879</ele>
        <time>2019-04-07T10:25:18.000Z</time>
      </trkpt>
      <trkpt lat="49.34191" lon="1.06358">
        <ele>65.800003051758</ele>
        <time>2019-04-07T10:25:21.000Z</time>
      </trkpt>
      <trkpt lat="49.34191" lon="1.06354">
        <ele>65.599998474121</ele>
        <time>2019-04-07T10:25:22.000Z</time>
      </trkpt>
      <trkpt lat="49.34198" lon="1.06322">
        <ele>65.800003051758</ele>
        <time>2019-04-07T10:25:30.000Z</time>
      </trkpt>
      <trkpt lat="49.34226" lon="1.06259">
        <ele>68</ele>
        <time>2019-04-07T10:25:52.000Z</time>
      </trkpt>
      <trkpt lat="49.34228" lon="1.06247">
        <ele>68.400001525879</ele>
        <time>2019-04-07T10:25:56.000Z</time>
      </trkpt>
      <trkpt lat="49.34229" lon="1.06242">
        <ele>68.400001525879</ele>
        <time>2019-04-07T10:25:58.000Z</time>
      </trkpt>
      <trkpt lat="49.34252" lon="1.06164">
        <ele>70</ele>
        <time>2019-04-07T10:26:23.000Z</time>
      </trkpt>
      <trkpt lat="49.34261" lon="1.06117">
        <ele>71.400001525879</ele>
        <time>2019-04-07T10:26:37.000Z</time>
      </trkpt>
      <trkpt lat="49.34266" lon="1.06082">
        <ele>72</ele>
        <time>2019-04-07T10:26:48.000Z</time>
      </trkpt>
      <trkpt lat="49.34271" lon="1.06042">
        <ele>73.199996948242</ele>
        <time>2019-04-07T10:26:57.000Z</time>
      </trkpt>
      <trkpt lat="49.34277" lon="1.05991">
        <ele>74.400001525879</ele>
        <time>2019-04-07T10:27:12.000Z</time>
      </trkpt>
      <trkpt lat="49.34279" lon="1.05969">
        <ele>74.800003051758</ele>
        <time>2019-04-07T10:27:19.000Z</time>
      </trkpt>
      <trkpt lat="49.34282" lon="1.05912">
        <ele>76.800003051758</ele>
        <time>2019-04-07T10:27:38.000Z</time>
      </trkpt>
      <trkpt lat="49.34288" lon="1.05892">
        <ele>78.400001525879</ele>
        <time>2019-04-07T10:27:48.000Z</time>
      </trkpt>
      <trkpt lat="49.34292" lon="1.05866">
        <ele>81.199996948242</ele>
        <time>2019-04-07T10:27:58.000Z</time>
      </trkpt>
      <trkpt lat="49.34291" lon="1.0583">
        <ele>83.599998474121</ele>
        <time>2019-04-07T10:28:10.000Z</time>
      </trkpt>
      <trkpt lat="49.34293" lon="1.05825">
        <ele>84.199996948242</ele>
        <time>2019-04-07T10:28:12.000Z</time>
      </trkpt>
      <trkpt lat="49.34292" lon="1.05821">
        <ele>84.599998474121</ele>
        <time>2019-04-07T10:28:14.000Z</time>
      </trkpt>
      <trkpt lat="49.34289" lon="1.05811">
        <ele>84.199996948242</ele>
        <time>2019-04-07T10:28:17.000Z</time>
      </trkpt>
      <trkpt lat="49.34287" lon="1.0579">
        <ele>85.400001525879</ele>
        <time>2019-04-07T10:28:22.000Z</time>
      </trkpt>
      <trkpt lat="49.34288" lon="1.05765">
        <ele>87.199996948242</ele>
        <time>2019-04-07T10:28:28.000Z</time>
      </trkpt>
      <trkpt lat="49.34288" lon="1.05754">
        <ele>88</ele>
        <time>2019-04-07T10:28:31.000Z</time>
      </trkpt>
      <trkpt lat="49.34289" lon="1.05745">
        <ele>88.800003051758</ele>
        <time>2019-04-07T10:28:34.000Z</time>
      </trkpt>
      <trkpt lat="49.34286" lon="1.05708">
        <ele>90.400001525879</ele>
        <time>2019-04-07T10:28:45.000Z</time>
      </trkpt>
      <trkpt lat="49.34291" lon="1.05681">
        <ele>92.199996948242</ele>
        <time>2019-04-07T10:28:54.000Z</time>
      </trkpt>
      <trkpt lat="49.34293" lon="1.05645">
        <ele>93.599998474121</ele>
        <time>2019-04-07T10:29:06.000Z</time>
      </trkpt>
      <trkpt lat="49.34285" lon="1.05564">
        <ele>96</ele>
        <time>2019-04-07T10:29:28.000Z</time>
      </trkpt>
      <trkpt lat="49.34283" lon="1.05482">
        <ele>101.80000305176</ele>
        <time>2019-04-07T10:29:46.000Z</time>
      </trkpt>
      <trkpt lat="49.34287" lon="1.05398">
        <ele>106</ele>
        <time>2019-04-07T10:30:04.000Z</time>
      </trkpt>
      <trkpt lat="49.3428" lon="1.05312">
        <ele>110.80000305176</ele>
        <time>2019-04-07T10:30:21.000Z</time>
      </trkpt>
      <trkpt lat="49.3428" lon="1.0526">
        <ele>114</ele>
        <time>2019-04-07T10:30:31.000Z</time>
      </trkpt>
      <trkpt lat="49.34297" lon="1.05177">
        <ele>116.59999847412</ele>
        <time>2019-04-07T10:30:47.000Z</time>
      </trkpt>
      <trkpt lat="49.34296" lon="1.05092">
        <ele>118.59999847412</ele>
        <time>2019-04-07T10:31:01.000Z</time>
      </trkpt>
      <trkpt lat="49.34299" lon="1.05066">
        <ele>118.80000305176</ele>
        <time>2019-04-07T10:31:05.000Z</time>
      </trkpt>
      <trkpt lat="49.34299" lon="1.05004">
        <ele>118.80000305176</ele>
        <time>2019-04-07T10:31:15.000Z</time>
      </trkpt>
      <trkpt lat="49.34303" lon="1.0498">
        <ele>119</ele>
        <time>2019-04-07T10:31:19.000Z</time>
      </trkpt>
      <trkpt lat="49.34303" lon="1.04973">
        <ele>119</ele>
        <time>2019-04-07T10:31:20.000Z</time>
      </trkpt>
      <trkpt lat="49.34304" lon="1.04886">
        <ele>118.40000152588</ele>
        <time>2019-04-07T10:31:33.000Z</time>
      </trkpt>
      <trkpt lat="49.34304" lon="1.04865">
        <ele>118.80000305176</ele>
        <time>2019-04-07T10:31:36.000Z</time>
      </trkpt>
      <trkpt lat="49.34304" lon="1.04859">
        <ele>119</ele>
        <time>2019-04-07T10:31:37.000Z</time>
      </trkpt>
      <trkpt lat="49.34304" lon="1.04851">
        <ele>119.19999694824</ele>
        <time>2019-04-07T10:31:38.000Z</time>
      </trkpt>
      <trkpt lat="49.34303" lon="1.04844">
        <ele>119.40000152588</ele>
        <time>2019-04-07T10:31:39.000Z</time>
      </trkpt>
      <trkpt lat="49.34303" lon="1.0483">
        <ele>119.59999847412</ele>
        <time>2019-04-07T10:31:41.000Z</time>
      </trkpt>
      <trkpt lat="49.34304" lon="1.04791">
        <ele>119.80000305176</ele>
        <time>2019-04-07T10:31:47.000Z</time>
      </trkpt>
      <trkpt lat="49.34305" lon="1.04773">
        <ele>120</ele>
        <time>2019-04-07T10:31:50.000Z</time>
      </trkpt>
      <trkpt lat="49.34306" lon="1.04762">
        <ele>120</ele>
        <time>2019-04-07T10:31:52.000Z</time>
      </trkpt>
      <trkpt lat="49.34307" lon="1.04744">
        <ele>120.19999694824</ele>
        <time>2019-04-07T10:31:55.000Z</time>
      </trkpt>
      <trkpt lat="49.34307" lon="1.04701">
        <ele>120.40000152588</ele>
        <time>2019-04-07T10:32:02.000Z</time>
      </trkpt>
      <trkpt lat="49.34306" lon="1.04683">
        <ele>120.80000305176</ele>
        <time>2019-04-07T10:32:05.000Z</time>
      </trkpt>
      <trkpt lat="49.34306" lon="1.04665">
        <ele>121</ele>
        <time>2019-04-07T10:32:08.000Z</time>
      </trkpt>
      <trkpt lat="49.34309" lon="1.04579">
        <ele>122.59999847412</ele>
        <time>2019-04-07T10:32:22.000Z</time>
      </trkpt>
      <trkpt lat="49.34307" lon="1.04526">
        <ele>124.19999694824</ele>
        <time>2019-04-07T10:32:30.000Z</time>
      </trkpt>
      <trkpt lat="49.34306" lon="1.04501">
        <ele>124.40000152588</ele>
        <time>2019-04-07T10:32:34.000Z</time>
      </trkpt>
      <trkpt lat="49.34306" lon="1.04483">
        <ele>124.40000152588</ele>
        <time>2019-04-07T10:32:37.000Z</time>
      </trkpt>
      <trkpt lat="49.34308" lon="1.04423">
        <ele>124.40000152588</ele>
        <time>2019-04-07T10:32:48.000Z</time>
      </trkpt>
      <trkpt lat="49.34304" lon="1.04368">
        <ele>124</ele>
        <time>2019-04-07T10:32:58.000Z</time>
      </trkpt>
      <trkpt lat="49.34306" lon="1.04279">
        <ele>123.80000305176</ele>
        <time>2019-04-07T10:33:12.000Z</time>
      </trkpt>
      <trkpt lat="49.34304" lon="1.04216">
        <ele>124.40000152588</ele>
        <time>2019-04-07T10:33:21.000Z</time>
      </trkpt>
      <trkpt lat="49.34306" lon="1.04138">
        <ele>127</ele>
        <time>2019-04-07T10:33:33.000Z</time>
      </trkpt>
      <trkpt lat="49.34302" lon="1.04064">
        <ele>129.80000305176</ele>
        <time>2019-04-07T10:33:47.000Z</time>
      </trkpt>
      <trkpt lat="49.34252" lon="1.04023">
        <ele>131.80000305176</ele>
        <time>2019-04-07T10:33:59.000Z</time>
      </trkpt>
      <trkpt lat="49.34216" lon="1.03998">
        <ele>133.39999389648</ele>
        <time>2019-04-07T10:34:07.000Z</time>
      </trkpt>
      <trkpt lat="49.34212" lon="1.03994">
        <ele>133.60000610352</ele>
        <time>2019-04-07T10:34:08.000Z</time>
      </trkpt>
      <trkpt lat="49.34162" lon="1.03953">
        <ele>134.19999694824</ele>
        <time>2019-04-07T10:34:22.000Z</time>
      </trkpt>
      <trkpt lat="49.34113" lon="1.03918">
        <ele>134.39999389648</ele>
        <time>2019-04-07T10:34:35.000Z</time>
      </trkpt>
      <trkpt lat="49.34069" lon="1.03872">
        <ele>135.60000610352</ele>
        <time>2019-04-07T10:34:48.000Z</time>
      </trkpt>
      <trkpt lat="49.34072" lon="1.03851">
        <ele>135</ele>
        <time>2019-04-07T10:34:52.000Z</time>
      </trkpt>
      <trkpt lat="49.34089" lon="1.03773">
        <ele>135.80000305176</ele>
        <time>2019-04-07T10:35:07.000Z</time>
      </trkpt>
      <trkpt lat="49.34094" lon="1.0375">
        <ele>136</ele>
        <time>2019-04-07T10:35:11.000Z</time>
      </trkpt>
      <trkpt lat="49.34113" lon="1.03679">
        <ele>136.60000610352</ele>
        <time>2019-04-07T10:35:23.000Z</time>
      </trkpt>
      <trkpt lat="49.34126" lon="1.03623">
        <ele>137.80000305176</ele>
        <time>2019-04-07T10:35:31.000Z</time>
      </trkpt>
      <trkpt lat="49.34139" lon="1.03557">
        <ele>138.60000610352</ele>
        <time>2019-04-07T10:35:40.000Z</time>
      </trkpt>
      <trkpt lat="49.34151" lon="1.03507">
        <ele>138.39999389648</ele>
        <time>2019-04-07T10:35:47.000Z</time>
      </trkpt>
      <trkpt lat="49.34158" lon="1.03501">
        <ele>137.80000305176</ele>
        <time>2019-04-07T10:35:49.000Z</time>
      </trkpt>
      <trkpt lat="49.34165" lon="1.03501">
        <ele>137.39999389648</ele>
        <time>2019-04-07T10:35:51.000Z</time>
      </trkpt>
      <trkpt lat="49.34193" lon="1.03511">
        <ele>136.39999389648</ele>
        <time>2019-04-07T10:35:58.000Z</time>
      </trkpt>
      <trkpt lat="49.34213" lon="1.03519">
        <ele>135.19999694824</ele>
        <time>2019-04-07T10:36:03.000Z</time>
      </trkpt>
      <trkpt lat="49.34268" lon="1.03542">
        <ele>131.39999389648</ele>
        <time>2019-04-07T10:36:19.000Z</time>
      </trkpt>
      <trkpt lat="49.34282" lon="1.03545">
        <ele>130.39999389648</ele>
        <time>2019-04-07T10:36:23.000Z</time>
      </trkpt>
      <trkpt lat="49.34301" lon="1.03548">
        <ele>130.60000610352</ele>
        <time>2019-04-07T10:36:29.000Z</time>
      </trkpt>
      <trkpt lat="49.34303" lon="1.03542">
        <ele>130.39999389648</ele>
        <time>2019-04-07T10:36:31.000Z</time>
      </trkpt>
      <trkpt lat="49.34308" lon="1.03527">
        <ele>129.80000305176</ele>
        <time>2019-04-07T10:36:33.000Z</time>
      </trkpt>
      <trkpt lat="49.3431" lon="1.0351">
        <ele>129.19999694824</ele>
        <time>2019-04-07T10:36:35.000Z</time>
      </trkpt>
      <trkpt lat="49.34309" lon="1.03494">
        <ele>128.60000610352</ele>
        <time>2019-04-07T10:36:37.000Z</time>
      </trkpt>
      <trkpt lat="49.34311" lon="1.03479">
        <ele>127.80000305176</ele>
        <time>2019-04-07T10:36:39.000Z</time>
      </trkpt>
      <trkpt lat="49.3432" lon="1.03441">
        <ele>126.59999847412</ele>
        <time>2019-04-07T10:36:45.000Z</time>
      </trkpt>
      <trkpt lat="49.34329" lon="1.03396">
        <ele>126</ele>
        <time>2019-04-07T10:36:52.000Z</time>
      </trkpt>
      <trkpt lat="49.34336" lon="1.0336">
        <ele>126.40000152588</ele>
        <time>2019-04-07T10:36:57.000Z</time>
      </trkpt>
      <trkpt lat="49.34354" lon="1.03278">
        <ele>127</ele>
        <time>2019-04-07T10:37:09.000Z</time>
      </trkpt>
      <trkpt lat="49.34362" lon="1.03238">
        <ele>127</ele>
        <time>2019-04-07T10:37:15.000Z</time>
      </trkpt>
      <trkpt lat="49.34364" lon="1.03196">
        <ele>127</ele>
        <time>2019-04-07T10:37:21.000Z</time>
      </trkpt>
      <trkpt lat="49.34376" lon="1.03129">
        <ele>127.19999694824</ele>
        <time>2019-04-07T10:37:36.000Z</time>
      </trkpt>
      <trkpt lat="49.34376" lon="1.03125">
        <ele>127.19999694824</ele>
        <time>2019-04-07T10:37:37.000Z</time>
      </trkpt>
      <trkpt lat="49.34382" lon="1.03095">
        <ele>127.59999847412</ele>
        <time>2019-04-07T10:37:51.000Z</time>
      </trkpt>
      <trkpt lat="49.34382" lon="1.03096">
        <ele>127.59999847412</ele>
        <time>2019-04-07T10:38:22.000Z</time>
      </trkpt>
      <trkpt lat="49.34382" lon="1.03096">
        <ele>127.59999847412</ele>
        <time>2019-04-07T10:38:26.000Z</time>
      </trkpt>
      <trkpt lat="49.34382" lon="1.03096">
        <ele>127.59999847412</ele>
        <time>2019-04-07T10:38:35.000Z</time>
      </trkpt>
      <trkpt lat="49.34382" lon="1.03096">
        <ele>127.59999847412</ele>
        <time>2019-04-07T10:38:38.000Z</time>
      </trkpt>
      <trkpt lat="49.34382" lon="1.03096">
        <ele>127.59999847412</ele>
        <time>2019-04-07T10:38:42.000Z</time>
      </trkpt>
      <trkpt lat="49.34382" lon="1.03096">
        <ele>127.59999847412</ele>
        <time>2019-04-07T10:38:47.000Z</time>
      </trkpt>
      <trkpt lat="49.34382" lon="1.03096">
        <ele>127.59999847412</ele>
        <time>2019-04-07T10:38:53.000Z</time>
      </trkpt>
      <trkpt lat="49.34382" lon="1.03095">
        <ele>127.59999847412</ele>
        <time>2019-04-07T10:38:54.000Z</time>
      </trkpt>
      <trkpt lat="49.34397" lon="1.03008">
        <ele>128.80000305176</ele>
        <time>2019-04-07T10:39:07.000Z</time>
      </trkpt>
      <trkpt lat="49.344" lon="1.03002">
        <ele>129</ele>
        <time>2019-04-07T10:39:08.000Z</time>
      </trkpt>
      <trkpt lat="49.34402" lon="1.02995">
        <ele>129.39999389648</ele>
        <time>2019-04-07T10:39:09.000Z</time>
      </trkpt>
      <trkpt lat="49.34406" lon="1.0298">
        <ele>129.80000305176</ele>
        <time>2019-04-07T10:39:11.000Z</time>
      </trkpt>
      <trkpt lat="49.34407" lon="1.02965">
        <ele>130</ele>
        <time>2019-04-07T10:39:13.000Z</time>
      </trkpt>
      <trkpt lat="49.34407" lon="1.0295">
        <ele>129.80000305176</ele>
        <time>2019-04-07T10:39:15.000Z</time>
      </trkpt>
      <trkpt lat="49.34407" lon="1.02942">
        <ele>129.60000610352</ele>
        <time>2019-04-07T10:39:16.000Z</time>
      </trkpt>
      <trkpt lat="49.34411" lon="1.02926">
        <ele>129.80000305176</ele>
        <time>2019-04-07T10:39:18.000Z</time>
      </trkpt>
      <trkpt lat="49.34417" lon="1.02904">
        <ele>130.19999694824</ele>
        <time>2019-04-07T10:39:21.000Z</time>
      </trkpt>
      <trkpt lat="49.34419" lon="1.02897">
        <ele>130.39999389648</ele>
        <time>2019-04-07T10:39:22.000Z</time>
      </trkpt>
      <trkpt lat="49.34421" lon="1.02889">
        <ele>130.39999389648</ele>
        <time>2019-04-07T10:39:23.000Z</time>
      </trkpt>
      <trkpt lat="49.34423" lon="1.02882">
        <ele>130.39999389648</ele>
        <time>2019-04-07T10:39:24.000Z</time>
      </trkpt>
      <trkpt lat="49.34425" lon="1.02874">
        <ele>130.39999389648</ele>
        <time>2019-04-07T10:39:25.000Z</time>
      </trkpt>
      <trkpt lat="49.34426" lon="1.02866">
        <ele>130.39999389648</ele>
        <time>2019-04-07T10:39:26.000Z</time>
      </trkpt>
      <trkpt lat="49.34436" lon="1.02808">
        <ele>130.39999389648</ele>
        <time>2019-04-07T10:39:33.000Z</time>
      </trkpt>
      <trkpt lat="49.34455" lon="1.02728">
        <ele>128.80000305176</ele>
        <time>2019-04-07T10:39:44.000Z</time>
      </trkpt>
      <trkpt lat="49.34459" lon="1.02708">
        <ele>129.19999694824</ele>
        <time>2019-04-07T10:39:47.000Z</time>
      </trkpt>
      <trkpt lat="49.34463" lon="1.02678">
        <ele>129.60000610352</ele>
        <time>2019-04-07T10:39:51.000Z</time>
      </trkpt>
      <trkpt lat="49.34472" lon="1.02635">
        <ele>130.19999694824</ele>
        <time>2019-04-07T10:39:57.000Z</time>
      </trkpt>
      <trkpt lat="49.34475" lon="1.02614">
        <ele>130</ele>
        <time>2019-04-07T10:40:00.000Z</time>
      </trkpt>
      <trkpt lat="49.34477" lon="1.02609">
        <ele>130</ele>
        <time>2019-04-07T10:40:01.000Z</time>
      </trkpt>
      <trkpt lat="49.3448" lon="1.02604">
        <ele>130.19999694824</ele>
        <time>2019-04-07T10:40:02.000Z</time>
      </trkpt>
      <trkpt lat="49.34483" lon="1.02601">
        <ele>130.39999389648</ele>
        <time>2019-04-07T10:40:03.000Z</time>
      </trkpt>
      <trkpt lat="49.34487" lon="1.026">
        <ele>130.80000305176</ele>
        <time>2019-04-07T10:40:04.000Z</time>
      </trkpt>
      <trkpt lat="49.34495" lon="1.02602">
        <ele>131.19999694824</ele>
        <time>2019-04-07T10:40:06.000Z</time>
      </trkpt>
      <trkpt lat="49.34547" lon="1.02629">
        <ele>134</ele>
        <time>2019-04-07T10:40:18.000Z</time>
      </trkpt>
      <trkpt lat="49.34561" lon="1.02631">
        <ele>133.60000610352</ele>
        <time>2019-04-07T10:40:21.000Z</time>
      </trkpt>
      <trkpt lat="49.34585" lon="1.02643">
        <ele>133.39999389648</ele>
        <time>2019-04-07T10:40:26.000Z</time>
      </trkpt>
      <trkpt lat="49.34635" lon="1.02685">
        <ele>132.19999694824</ele>
        <time>2019-04-07T10:40:38.000Z</time>
      </trkpt>
      <trkpt lat="49.34639" lon="1.02689">
        <ele>132.19999694824</ele>
        <time>2019-04-07T10:40:39.000Z</time>
      </trkpt>
      <trkpt lat="49.34647" lon="1.02699">
        <ele>132.19999694824</ele>
        <time>2019-04-07T10:40:41.000Z</time>
      </trkpt>
      <trkpt lat="49.34656" lon="1.02705">
        <ele>132.19999694824</ele>
        <time>2019-04-07T10:40:43.000Z</time>
      </trkpt>
      <trkpt lat="49.34666" lon="1.02712">
        <ele>132.19999694824</ele>
        <time>2019-04-07T10:40:45.000Z</time>
      </trkpt>
      <trkpt lat="49.3469" lon="1.02735">
        <ele>132.19999694824</ele>
        <time>2019-04-07T10:40:50.000Z</time>
      </trkpt>
      <trkpt lat="49.3474" lon="1.02769">
        <ele>132.60000610352</ele>
        <time>2019-04-07T10:41:00.000Z</time>
      </trkpt>
      <trkpt lat="49.34751" lon="1.02776">
        <ele>132.60000610352</ele>
        <time>2019-04-07T10:41:02.000Z</time>
      </trkpt>
      <trkpt lat="49.34792" lon="1.02804">
        <ele>132.39999389648</ele>
        <time>2019-04-07T10:41:10.000Z</time>
      </trkpt>
      <trkpt lat="49.34826" lon="1.02833">
        <ele>131.60000610352</ele>
        <time>2019-04-07T10:41:17.000Z</time>
      </trkpt>
      <trkpt lat="49.3488" lon="1.02859">
        <ele>130.60000610352</ele>
        <time>2019-04-07T10:41:27.000Z</time>
      </trkpt>
      <trkpt lat="49.3491" lon="1.02883">
        <ele>131.19999694824</ele>
        <time>2019-04-07T10:41:33.000Z</time>
      </trkpt>
      <trkpt lat="49.34915" lon="1.02886">
        <ele>131.19999694824</ele>
        <time>2019-04-07T10:41:34.000Z</time>
      </trkpt>
      <trkpt lat="49.3492" lon="1.02889">
        <ele>131.19999694824</ele>
        <time>2019-04-07T10:41:35.000Z</time>
      </trkpt>
      <trkpt lat="49.3493" lon="1.02894">
        <ele>131.19999694824</ele>
        <time>2019-04-07T10:41:37.000Z</time>
      </trkpt>
      <trkpt lat="49.34941" lon="1.029">
        <ele>131</ele>
        <time>2019-04-07T10:41:39.000Z</time>
      </trkpt>
      <trkpt lat="49.34946" lon="1.02904">
        <ele>131</ele>
        <time>2019-04-07T10:41:40.000Z</time>
      </trkpt>
      <trkpt lat="49.34951" lon="1.02908">
        <ele>130.80000305176</ele>
        <time>2019-04-07T10:41:41.000Z</time>
      </trkpt>
      <trkpt lat="49.34956" lon="1.02911">
        <ele>130.39999389648</ele>
        <time>2019-04-07T10:41:42.000Z</time>
      </trkpt>
      <trkpt lat="49.34961" lon="1.02914">
        <ele>130</ele>
        <time>2019-04-07T10:41:43.000Z</time>
      </trkpt>
      <trkpt lat="49.34981" lon="1.02927">
        <ele>128.60000610352</ele>
        <time>2019-04-07T10:41:47.000Z</time>
      </trkpt>
      <trkpt lat="49.35007" lon="1.0294">
        <ele>127</ele>
        <time>2019-04-07T10:41:52.000Z</time>
      </trkpt>
      <trkpt lat="49.35018" lon="1.02942">
        <ele>126.40000152588</ele>
        <time>2019-04-07T10:41:54.000Z</time>
      </trkpt>
      <trkpt lat="49.3503" lon="1.02941">
        <ele>125.80000305176</ele>
        <time>2019-04-07T10:41:56.000Z</time>
      </trkpt>
      <trkpt lat="49.35035" lon="1.02943">
        <ele>125.80000305176</ele>
        <time>2019-04-07T10:41:57.000Z</time>
      </trkpt>
      <trkpt lat="49.35043" lon="1.0295">
        <ele>126</ele>
        <time>2019-04-07T10:41:59.000Z</time>
      </trkpt>
      <trkpt lat="49.35047" lon="1.02954">
        <ele>126</ele>
        <time>2019-04-07T10:42:00.000Z</time>
      </trkpt>
      <trkpt lat="49.3505" lon="1.02957">
        <ele>126</ele>
        <time>2019-04-07T10:42:01.000Z</time>
      </trkpt>
      <trkpt lat="49.35054" lon="1.02958">
        <ele>126</ele>
        <time>2019-04-07T10:42:02.000Z</time>
      </trkpt>
      <trkpt lat="49.35057" lon="1.02957">
        <ele>126</ele>
        <time>2019-04-07T10:42:03.000Z</time>
      </trkpt>
      <trkpt lat="49.35064" lon="1.02949">
        <ele>126.40000152588</ele>
        <time>2019-04-07T10:42:05.000Z</time>
      </trkpt>
      <trkpt lat="49.35072" lon="1.02932">
        <ele>127</ele>
        <time>2019-04-07T10:42:08.000Z</time>
      </trkpt>
      <trkpt lat="49.35075" lon="1.02926">
        <ele>126.80000305176</ele>
        <time>2019-04-07T10:42:09.000Z</time>
      </trkpt>
      <trkpt lat="49.35085" lon="1.02903">
        <ele>126</ele>
        <time>2019-04-07T10:42:13.000Z</time>
      </trkpt>
      <trkpt lat="49.35099" lon="1.02856">
        <ele>125</ele>
        <time>2019-04-07T10:42:20.000Z</time>
      </trkpt>
      <trkpt lat="49.35106" lon="1.02847">
        <ele>125</ele>
        <time>2019-04-07T10:42:22.000Z</time>
      </trkpt>
      <trkpt lat="49.35115" lon="1.02846">
        <ele>125</ele>
        <time>2019-04-07T10:42:24.000Z</time>
      </trkpt>
      <trkpt lat="49.35123" lon="1.02849">
        <ele>125.19999694824</ele>
        <time>2019-04-07T10:42:26.000Z</time>
      </trkpt>
      <trkpt lat="49.35142" lon="1.02866">
        <ele>125.59999847412</ele>
        <time>2019-04-07T10:42:33.000Z</time>
      </trkpt>
      <trkpt lat="49.35148" lon="1.02878">
        <ele>125.80000305176</ele>
        <time>2019-04-07T10:42:38.000Z</time>
      </trkpt>
      <trkpt lat="49.3516" lon="1.02877">
        <ele>126</ele>
        <time>2019-04-07T10:42:43.000Z</time>
      </trkpt>
      <trkpt lat="49.35168" lon="1.02866">
        <ele>126.19999694824</ele>
        <time>2019-04-07T10:42:46.000Z</time>
      </trkpt>
      <trkpt lat="49.35174" lon="1.02843">
        <ele>125.59999847412</ele>
        <time>2019-04-07T10:42:50.000Z</time>
      </trkpt>
      <trkpt lat="49.35176" lon="1.02838">
        <ele>125.19999694824</ele>
        <time>2019-04-07T10:42:51.000Z</time>
      </trkpt>
      <trkpt lat="49.35179" lon="1.02833">
        <ele>125</ele>
        <time>2019-04-07T10:42:52.000Z</time>
      </trkpt>
      <trkpt lat="49.35182" lon="1.02828">
        <ele>124.80000305176</ele>
        <time>2019-04-07T10:42:53.000Z</time>
      </trkpt>
      <trkpt lat="49.35185" lon="1.02824">
        <ele>124.80000305176</ele>
        <time>2019-04-07T10:42:54.000Z</time>
      </trkpt>
      <trkpt lat="49.35188" lon="1.0282">
        <ele>124.59999847412</ele>
        <time>2019-04-07T10:42:55.000Z</time>
      </trkpt>
      <trkpt lat="49.35191" lon="1.02816">
        <ele>124.40000152588</ele>
        <time>2019-04-07T10:42:56.000Z</time>
      </trkpt>
      <trkpt lat="49.35219" lon="1.0278">
        <ele>123.40000152588</ele>
        <time>2019-04-07T10:43:05.000Z</time>
      </trkpt>
      <trkpt lat="49.35264" lon="1.02724">
        <ele>123.80000305176</ele>
        <time>2019-04-07T10:43:18.000Z</time>
      </trkpt>
      <trkpt lat="49.35271" lon="1.02715">
        <ele>123.80000305176</ele>
        <time>2019-04-07T10:43:20.000Z</time>
      </trkpt>
      <trkpt lat="49.35291" lon="1.02694">
        <ele>124</ele>
        <time>2019-04-07T10:43:25.000Z</time>
      </trkpt>
      <trkpt lat="49.353" lon="1.02689">
        <ele>124</ele>
        <time>2019-04-07T10:43:27.000Z</time>
      </trkpt>
      <trkpt lat="49.3531" lon="1.0269">
        <ele>124</ele>
        <time>2019-04-07T10:43:29.000Z</time>
      </trkpt>
      <trkpt lat="49.35325" lon="1.02694">
        <ele>124</ele>
        <time>2019-04-07T10:43:32.000Z</time>
      </trkpt>
      <trkpt lat="49.35336" lon="1.0269">
        <ele>124</ele>
        <time>2019-04-07T10:43:34.000Z</time>
      </trkpt>
      <trkpt lat="49.35344" lon="1.0268">
        <ele>124.40000152588</ele>
        <time>2019-04-07T10:43:36.000Z</time>
      </trkpt>
      <trkpt lat="49.35348" lon="1.02664">
        <ele>124.59999847412</ele>
        <time>2019-04-07T10:43:38.000Z</time>
      </trkpt>
      <trkpt lat="49.35347" lon="1.02649">
        <ele>124.80000305176</ele>
        <time>2019-04-07T10:43:40.000Z</time>
      </trkpt>
      <trkpt lat="49.35343" lon="1.02636">
        <ele>125</ele>
        <time>2019-04-07T10:43:42.000Z</time>
      </trkpt>
      <trkpt lat="49.35334" lon="1.02627">
        <ele>125.40000152588</ele>
        <time>2019-04-07T10:43:44.000Z</time>
      </trkpt>
      <trkpt lat="49.35323" lon="1.02625">
        <ele>125.40000152588</ele>
        <time>2019-04-07T10:43:46.000Z</time>
      </trkpt>
      <trkpt lat="49.35303" lon="1.0263">
        <ele>124.80000305176</ele>
        <time>2019-04-07T10:43:50.000Z</time>
      </trkpt>
      <trkpt lat="49.35251" lon="1.02609">
        <ele>124.59999847412</ele>
        <time>2019-04-07T10:43:58.000Z</time>
      </trkpt>
      <trkpt lat="49.35244" lon="1.02607">
        <ele>124.40000152588</ele>
        <time>2019-04-07T10:43:59.000Z</time>
      </trkpt>
      <trkpt lat="49.35197" lon="1.026">
        <ele>123.59999847412</ele>
        <time>2019-04-07T10:44:06.000Z</time>
      </trkpt>
      <trkpt lat="49.35186" lon="1.0259">
        <ele>123.80000305176</ele>
        <time>2019-04-07T10:44:08.000Z</time>
      </trkpt>
      <trkpt lat="49.35171" lon="1.02569">
        <ele>124.40000152588</ele>
        <time>2019-04-07T10:44:11.000Z</time>
      </trkpt>
      <trkpt lat="49.35139" lon="1.02516">
        <ele>124.19999694824</ele>
        <time>2019-04-07T10:44:19.000Z</time>
      </trkpt>
      <trkpt lat="49.35137" lon="1.02499">
        <ele>124.19999694824</ele>
        <time>2019-04-07T10:44:21.000Z</time>
      </trkpt>
      <trkpt lat="49.35139" lon="1.02481">
        <ele>125</ele>
        <time>2019-04-07T10:44:23.000Z</time>
      </trkpt>
      <trkpt lat="49.35153" lon="1.02395">
        <ele>127</ele>
        <time>2019-04-07T10:44:34.000Z</time>
      </trkpt>
      <trkpt lat="49.35158" lon="1.02358">
        <ele>129.60000610352</ele>
        <time>2019-04-07T10:44:40.000Z</time>
      </trkpt>
      <trkpt lat="49.35161" lon="1.02285">
        <ele>132.19999694824</ele>
        <time>2019-04-07T10:44:49.000Z</time>
      </trkpt>
      <trkpt lat="49.35177" lon="1.02206">
        <ele>136</ele>
        <time>2019-04-07T10:45:00.000Z</time>
      </trkpt>
      <trkpt lat="49.3518" lon="1.02185">
        <ele>136.19999694824</ele>
        <time>2019-04-07T10:45:03.000Z</time>
      </trkpt>
      <trkpt lat="49.35183" lon="1.02162">
        <ele>136.60000610352</ele>
        <time>2019-04-07T10:45:06.000Z</time>
      </trkpt>
      <trkpt lat="49.35187" lon="1.0215">
        <ele>136.80000305176</ele>
        <time>2019-04-07T10:45:08.000Z</time>
      </trkpt>
      <trkpt lat="49.35214" lon="1.02071">
        <ele>136.19999694824</ele>
        <time>2019-04-07T10:45:19.000Z</time>
      </trkpt>
      <trkpt lat="49.35219" lon="1.0205">
        <ele>135.80000305176</ele>
        <time>2019-04-07T10:45:22.000Z</time>
      </trkpt>
      <trkpt lat="49.35226" lon="1.02039">
        <ele>135.39999389648</ele>
        <time>2019-04-07T10:45:24.000Z</time>
      </trkpt>
      <trkpt lat="49.35236" lon="1.02036">
        <ele>134.80000305176</ele>
        <time>2019-04-07T10:45:26.000Z</time>
      </trkpt>
      <trkpt lat="49.35245" lon="1.02037">
        <ele>134.19999694824</ele>
        <time>2019-04-07T10:45:28.000Z</time>
      </trkpt>
      <trkpt lat="49.35276" lon="1.02048">
        <ele>132.39999389648</ele>
        <time>2019-04-07T10:45:35.000Z</time>
      </trkpt>
      <trkpt lat="49.35329" lon="1.02076">
        <ele>128.80000305176</ele>
        <time>2019-04-07T10:45:45.000Z</time>
      </trkpt>
      <trkpt lat="49.35334" lon="1.0208">
        <ele>128.60000610352</ele>
        <time>2019-04-07T10:45:46.000Z</time>
      </trkpt>
      <trkpt lat="49.35342" lon="1.02091">
        <ele>128</ele>
        <time>2019-04-07T10:45:48.000Z</time>
      </trkpt>
      <trkpt lat="49.35357" lon="1.02133">
        <ele>126.59999847412</ele>
        <time>2019-04-07T10:45:54.000Z</time>
      </trkpt>
      <trkpt lat="49.35359" lon="1.02141">
        <ele>126.40000152588</ele>
        <time>2019-04-07T10:45:55.000Z</time>
      </trkpt>
      <trkpt lat="49.35387" lon="1.02219">
        <ele>126.40000152588</ele>
        <time>2019-04-07T10:46:06.000Z</time>
      </trkpt>
      <trkpt lat="49.35405" lon="1.0227">
        <ele>125.59999847412</ele>
        <time>2019-04-07T10:46:13.000Z</time>
      </trkpt>
      <trkpt lat="49.35414" lon="1.02292">
        <ele>125.19999694824</ele>
        <time>2019-04-07T10:46:16.000Z</time>
      </trkpt>
      <trkpt lat="49.35417" lon="1.02299">
        <ele>125.19999694824</ele>
        <time>2019-04-07T10:46:17.000Z</time>
      </trkpt>
      <trkpt lat="49.35445" lon="1.02374">
        <ele>124.80000305176</ele>
        <time>2019-04-07T10:46:27.000Z</time>
      </trkpt>
      <trkpt lat="49.35464" lon="1.02427">
        <ele>125</ele>
        <time>2019-04-07T10:46:34.000Z</time>
      </trkpt>
      <trkpt lat="49.35472" lon="1.02438">
        <ele>125</ele>
        <time>2019-04-07T10:46:36.000Z</time>
      </trkpt>
      <trkpt lat="49.35498" lon="1.02463">
        <ele>124.59999847412</ele>
        <time>2019-04-07T10:46:41.000Z</time>
      </trkpt>
      <trkpt lat="49.35506" lon="1.02481">
        <ele>124.59999847412</ele>
        <time>2019-04-07T10:46:43.000Z</time>
      </trkpt>
      <trkpt lat="49.35509" lon="1.02501">
        <ele>124.19999694824</ele>
        <time>2019-04-07T10:46:45.000Z</time>
      </trkpt>
      <trkpt lat="49.35513" lon="1.02545">
        <ele>123.59999847412</ele>
        <time>2019-04-07T10:46:49.000Z</time>
      </trkpt>
      <trkpt lat="49.35517" lon="1.02591">
        <ele>123.59999847412</ele>
        <time>2019-04-07T10:46:53.000Z</time>
      </trkpt>
      <trkpt lat="49.35519" lon="1.02673">
        <ele>124</ele>
        <time>2019-04-07T10:47:01.000Z</time>
      </trkpt>
      <trkpt lat="49.35519" lon="1.02691">
        <ele>124</ele>
        <time>2019-04-07T10:47:03.000Z</time>
      </trkpt>
      <trkpt lat="49.35512" lon="1.02729">
        <ele>124</ele>
        <time>2019-04-07T10:47:08.000Z</time>
      </trkpt>
      <trkpt lat="49.35499" lon="1.02775">
        <ele>124</ele>
        <time>2019-04-07T10:47:15.000Z</time>
      </trkpt>
      <trkpt lat="49.35478" lon="1.02842">
        <ele>123.80000305176</ele>
        <time>2019-04-07T10:47:25.000Z</time>
      </trkpt>
      <trkpt lat="49.35463" lon="1.02901">
        <ele>121.59999847412</ele>
        <time>2019-04-07T10:47:33.000Z</time>
      </trkpt>
      <trkpt lat="49.3546" lon="1.02918">
        <ele>121.19999694824</ele>
        <time>2019-04-07T10:47:35.000Z</time>
      </trkpt>
      <trkpt lat="49.35461" lon="1.02933">
        <ele>120.80000305176</ele>
        <time>2019-04-07T10:47:37.000Z</time>
      </trkpt>
      <trkpt lat="49.35471" lon="1.02946">
        <ele>120.40000152588</ele>
        <time>2019-04-07T10:47:40.000Z</time>
      </trkpt>
      <trkpt lat="49.35479" lon="1.02952">
        <ele>120.19999694824</ele>
        <time>2019-04-07T10:47:42.000Z</time>
      </trkpt>
      <trkpt lat="49.35489" lon="1.02956">
        <ele>120</ele>
        <time>2019-04-07T10:47:44.000Z</time>
      </trkpt>
      <trkpt lat="49.35549" lon="1.02954">
        <ele>120</ele>
        <time>2019-04-07T10:47:54.000Z</time>
      </trkpt>
      <trkpt lat="49.35605" lon="1.02963">
        <ele>120.19999694824</ele>
        <time>2019-04-07T10:48:05.000Z</time>
      </trkpt>
      <trkpt lat="49.35664" lon="1.02966">
        <ele>119.59999847412</ele>
        <time>2019-04-07T10:48:14.000Z</time>
      </trkpt>
      <trkpt lat="49.35719" lon="1.02971">
        <ele>118.59999847412</ele>
        <time>2019-04-07T10:48:23.000Z</time>
      </trkpt>
      <trkpt lat="49.35773" lon="1.02977">
        <ele>117.19999694824</ele>
        <time>2019-04-07T10:48:32.000Z</time>
      </trkpt>
      <trkpt lat="49.35831" lon="1.02985">
        <ele>117.80000305176</ele>
        <time>2019-04-07T10:48:41.000Z</time>
      </trkpt>
      <trkpt lat="49.3585" lon="1.02988">
        <ele>118.19999694824</ele>
        <time>2019-04-07T10:48:44.000Z</time>
      </trkpt>
      <trkpt lat="49.35906" lon="1.02993">
        <ele>117.19999694824</ele>
        <time>2019-04-07T10:48:52.000Z</time>
      </trkpt>
      <trkpt lat="49.35941" lon="1.02994">
        <ele>116.40000152588</ele>
        <time>2019-04-07T10:48:57.000Z</time>
      </trkpt>
      <trkpt lat="49.35998" lon="1.02997">
        <ele>116</ele>
        <time>2019-04-07T10:49:05.000Z</time>
      </trkpt>
      <trkpt lat="49.36057" lon="1.03002">
        <ele>115.59999847412</ele>
        <time>2019-04-07T10:49:13.000Z</time>
      </trkpt>
      <trkpt lat="49.36078" lon="1.03002">
        <ele>114.80000305176</ele>
        <time>2019-04-07T10:49:16.000Z</time>
      </trkpt>
      <trkpt lat="49.36136" lon="1.03008">
        <ele>113.59999847412</ele>
        <time>2019-04-07T10:49:26.000Z</time>
      </trkpt>
      <trkpt lat="49.36162" lon="1.03012">
        <ele>114.40000152588</ele>
        <time>2019-04-07T10:49:31.000Z</time>
      </trkpt>
      <trkpt lat="49.36184" lon="1.03013">
        <ele>114.59999847412</ele>
        <time>2019-04-07T10:49:35.000Z</time>
      </trkpt>
      <trkpt lat="49.36221" lon="1.03018">
        <ele>115</ele>
        <time>2019-04-07T10:49:43.000Z</time>
      </trkpt>
      <trkpt lat="49.36236" lon="1.0302">
        <ele>115.19999694824</ele>
        <time>2019-04-07T10:49:46.000Z</time>
      </trkpt>
      <trkpt lat="49.3629" lon="1.0303">
        <ele>114.80000305176</ele>
        <time>2019-04-07T10:49:56.000Z</time>
      </trkpt>
      <trkpt lat="49.36344" lon="1.03033">
        <ele>113.80000305176</ele>
        <time>2019-04-07T10:50:04.000Z</time>
      </trkpt>
      <trkpt lat="49.36398" lon="1.03034">
        <ele>111.80000305176</ele>
        <time>2019-04-07T10:50:11.000Z</time>
      </trkpt>
      <trkpt lat="49.36442" lon="1.03035">
        <ele>109.19999694824</ele>
        <time>2019-04-07T10:50:16.000Z</time>
      </trkpt>
      <trkpt lat="49.36501" lon="1.03043">
        <ele>105.40000152588</ele>
        <time>2019-04-07T10:50:22.000Z</time>
      </trkpt>
      <trkpt lat="49.36557" lon="1.0305">
        <ele>101.40000152588</ele>
        <time>2019-04-07T10:50:27.000Z</time>
      </trkpt>
      <trkpt lat="49.36612" lon="1.03055">
        <ele>97</ele>
        <time>2019-04-07T10:50:32.000Z</time>
      </trkpt>
      <trkpt lat="49.36675" lon="1.03063">
        <ele>87.800003051758</ele>
        <time>2019-04-07T10:50:38.000Z</time>
      </trkpt>
      <trkpt lat="49.36737" lon="1.03066">
        <ele>81.199996948242</ele>
        <time>2019-04-07T10:50:44.000Z</time>
      </trkpt>
      <trkpt lat="49.36772" lon="1.03072">
        <ele>78.800003051758</ele>
        <time>2019-04-07T10:50:48.000Z</time>
      </trkpt>
      <trkpt lat="49.36784" lon="1.0308">
        <ele>78.400001525879</ele>
        <time>2019-04-07T10:50:50.000Z</time>
      </trkpt>
      <trkpt lat="49.36789" lon="1.03096">
        <ele>79.199996948242</ele>
        <time>2019-04-07T10:50:52.000Z</time>
      </trkpt>
      <trkpt lat="49.36791" lon="1.03119">
        <ele>80.800003051758</ele>
        <time>2019-04-07T10:50:55.000Z</time>
      </trkpt>
      <trkpt lat="49.36793" lon="1.03132">
        <ele>81.599998474121</ele>
        <time>2019-04-07T10:50:57.000Z</time>
      </trkpt>
      <trkpt lat="49.36793" lon="1.0314">
        <ele>82</ele>
        <time>2019-04-07T10:50:58.000Z</time>
      </trkpt>
      <trkpt lat="49.36809" lon="1.0322">
        <ele>85.400001525879</ele>
        <time>2019-04-07T10:51:13.000Z</time>
      </trkpt>
      <trkpt lat="49.36828" lon="1.03302">
        <ele>88.199996948242</ele>
        <time>2019-04-07T10:51:29.000Z</time>
      </trkpt>
      <trkpt lat="49.3683" lon="1.03307">
        <ele>88.400001525879</ele>
        <time>2019-04-07T10:51:30.000Z</time>
      </trkpt>
      <trkpt lat="49.36832" lon="1.03313">
        <ele>88.400001525879</ele>
        <time>2019-04-07T10:51:31.000Z</time>
      </trkpt>
      <trkpt lat="49.36837" lon="1.03332">
        <ele>88</ele>
        <time>2019-04-07T10:51:34.000Z</time>
      </trkpt>
      <trkpt lat="49.36851" lon="1.03403">
        <ele>86.800003051758</ele>
        <time>2019-04-07T10:51:44.000Z</time>
      </trkpt>
      <trkpt lat="49.36853" lon="1.03412">
        <ele>86.599998474121</ele>
        <time>2019-04-07T10:51:45.000Z</time>
      </trkpt>
      <trkpt lat="49.36855" lon="1.0342">
        <ele>86.199996948242</ele>
        <time>2019-04-07T10:51:46.000Z</time>
      </trkpt>
      <trkpt lat="49.36874" lon="1.03509">
        <ele>82.400001525879</ele>
        <time>2019-04-07T10:51:54.000Z</time>
      </trkpt>
      <trkpt lat="49.36885" lon="1.03552">
        <ele>80.400001525879</ele>
        <time>2019-04-07T10:51:57.000Z</time>
      </trkpt>
      <trkpt lat="49.36892" lon="1.03576">
        <ele>81</ele>
        <time>2019-04-07T10:51:59.000Z</time>
      </trkpt>
      <trkpt lat="49.36908" lon="1.03658">
        <ele>83.800003051758</ele>
        <time>2019-04-07T10:52:12.000Z</time>
      </trkpt>
      <trkpt lat="49.3691" lon="1.03672">
        <ele>84.599998474121</ele>
        <time>2019-04-07T10:52:16.000Z</time>
      </trkpt>
      <trkpt lat="49.36913" lon="1.03681">
        <ele>85.199996948242</ele>
        <time>2019-04-07T10:52:19.000Z</time>
      </trkpt>
      <trkpt lat="49.36918" lon="1.03703">
        <ele>86.199996948242</ele>
        <time>2019-04-07T10:52:27.000Z</time>
      </trkpt>
      <trkpt lat="49.36921" lon="1.03715">
        <ele>86.800003051758</ele>
        <time>2019-04-07T10:52:32.000Z</time>
      </trkpt>
      <trkpt lat="49.3693" lon="1.03766">
        <ele>89.599998474121</ele>
        <time>2019-04-07T10:52:48.000Z</time>
      </trkpt>
      <trkpt lat="49.36948" lon="1.03847">
        <ele>94.400001525879</ele>
        <time>2019-04-07T10:53:08.000Z</time>
      </trkpt>
      <trkpt lat="49.36964" lon="1.03923">
        <ele>95.599998474121</ele>
        <time>2019-04-07T10:53:22.000Z</time>
      </trkpt>
      <trkpt lat="49.36979" lon="1.03985">
        <ele>95</ele>
        <time>2019-04-07T10:53:32.000Z</time>
      </trkpt>
      <trkpt lat="49.36997" lon="1.04067">
        <ele>95</ele>
        <time>2019-04-07T10:53:44.000Z</time>
      </trkpt>
      <trkpt lat="49.37018" lon="1.0415">
        <ele>94.599998474121</ele>
        <time>2019-04-07T10:53:57.000Z</time>
      </trkpt>
      <trkpt lat="49.37022" lon="1.04159">
        <ele>94.400001525879</ele>
        <time>2019-04-07T10:53:59.000Z</time>
      </trkpt>
      <trkpt lat="49.37036" lon="1.04148">
        <ele>95</ele>
        <time>2019-04-07T10:54:03.000Z</time>
      </trkpt>
      <trkpt lat="49.37038" lon="1.04143">
        <ele>95</ele>
        <time>2019-04-07T10:54:04.000Z</time>
      </trkpt>
      <trkpt lat="49.37054" lon="1.04097">
        <ele>94.800003051758</ele>
        <time>2019-04-07T10:54:14.000Z</time>
      </trkpt>
      <trkpt lat="49.37055" lon="1.04093">
        <ele>94.800003051758</ele>
        <time>2019-04-07T10:54:15.000Z</time>
      </trkpt>
      <trkpt lat="49.37056" lon="1.0409">
        <ele>94.599998474121</ele>
        <time>2019-04-07T10:54:16.000Z</time>
      </trkpt>
      <trkpt lat="49.3706" lon="1.04082">
        <ele>94.800003051758</ele>
        <time>2019-04-07T10:54:18.000Z</time>
      </trkpt>
      <trkpt lat="49.37061" lon="1.04078">
        <ele>95</ele>
        <time>2019-04-07T10:54:19.000Z</time>
      </trkpt>
      <trkpt lat="49.37073" lon="1.04045">
        <ele>95.400001525879</ele>
        <time>2019-04-07T10:54:26.000Z</time>
      </trkpt>
      <trkpt lat="49.37096" lon="1.0397">
        <ele>95.800003051758</ele>
        <time>2019-04-07T10:54:39.000Z</time>
      </trkpt>
      <trkpt lat="49.37107" lon="1.03931">
        <ele>96</ele>
        <time>2019-04-07T10:54:45.000Z</time>
      </trkpt>
      <trkpt lat="49.37108" lon="1.03925">
        <ele>96</ele>
        <time>2019-04-07T10:54:46.000Z</time>
      </trkpt>
      <trkpt lat="49.37131" lon="1.03859">
        <ele>95</ele>
        <time>2019-04-07T10:54:56.000Z</time>
      </trkpt>
      <trkpt lat="49.37147" lon="1.0381">
        <ele>92.800003051758</ele>
        <time>2019-04-07T10:55:02.000Z</time>
      </trkpt>
      <trkpt lat="49.37173" lon="1.03724">
        <ele>87.199996948242</ele>
        <time>2019-04-07T10:55:10.000Z</time>
      </trkpt>
      <trkpt lat="49.37195" lon="1.03656">
        <ele>82.800003051758</ele>
        <time>2019-04-07T10:55:16.000Z</time>
      </trkpt>
      <trkpt lat="49.37201" lon="1.03633">
        <ele>81</ele>
        <time>2019-04-07T10:55:18.000Z</time>
      </trkpt>
      <trkpt lat="49.37206" lon="1.03615">
        <ele>79.400001525879</ele>
        <time>2019-04-07T10:55:20.000Z</time>
      </trkpt>
      <trkpt lat="49.37212" lon="1.03605">
        <ele>78.199996948242</ele>
        <time>2019-04-07T10:55:22.000Z</time>
      </trkpt>
      <trkpt lat="49.37222" lon="1.03606">
        <ele>77.800003051758</ele>
        <time>2019-04-07T10:55:24.000Z</time>
      </trkpt>
      <trkpt lat="49.37249" lon="1.03628">
        <ele>78.400001525879</ele>
        <time>2019-04-07T10:55:30.000Z</time>
      </trkpt>
      <trkpt lat="49.37265" lon="1.03646">
        <ele>79.199996948242</ele>
        <time>2019-04-07T10:55:35.000Z</time>
      </trkpt>
      <trkpt lat="49.3728" lon="1.03664">
        <ele>80.199996948242</ele>
        <time>2019-04-07T10:55:41.000Z</time>
      </trkpt>
      <trkpt lat="49.37302" lon="1.03682">
        <ele>81.400001525879</ele>
        <time>2019-04-07T10:55:49.000Z</time>
      </trkpt>
      <trkpt lat="49.37304" lon="1.03685">
        <ele>81.599998474121</ele>
        <time>2019-04-07T10:55:50.000Z</time>
      </trkpt>
      <trkpt lat="49.37349" lon="1.03737">
        <ele>85</ele>
        <time>2019-04-07T10:56:06.000Z</time>
      </trkpt>
      <trkpt lat="49.37351" lon="1.03741">
        <ele>85.199996948242</ele>
        <time>2019-04-07T10:56:07.000Z</time>
      </trkpt>
      <trkpt lat="49.37354" lon="1.03744">
        <ele>85.400001525879</ele>
        <time>2019-04-07T10:56:08.000Z</time>
      </trkpt>
      <trkpt lat="49.37356" lon="1.03748">
        <ele>85.599998474121</ele>
        <time>2019-04-07T10:56:09.000Z</time>
      </trkpt>
      <trkpt lat="49.37358" lon="1.03752">
        <ele>85.800003051758</ele>
        <time>2019-04-07T10:56:10.000Z</time>
      </trkpt>
      <trkpt lat="49.3736" lon="1.03757">
        <ele>86</ele>
        <time>2019-04-07T10:56:11.000Z</time>
      </trkpt>
      <trkpt lat="49.37375" lon="1.03777">
        <ele>86.400001525879</ele>
        <time>2019-04-07T10:56:16.000Z</time>
      </trkpt>
      <trkpt lat="49.37425" lon="1.03816">
        <ele>85.800003051758</ele>
        <time>2019-04-07T10:56:31.000Z</time>
      </trkpt>
      <trkpt lat="49.37443" lon="1.03829">
        <ele>85.199996948242</ele>
        <time>2019-04-07T10:56:35.000Z</time>
      </trkpt>
      <trkpt lat="49.37462" lon="1.03842">
        <ele>84.199996948242</ele>
        <time>2019-04-07T10:56:38.000Z</time>
      </trkpt>
      <trkpt lat="49.37487" lon="1.03869">
        <ele>83.199996948242</ele>
        <time>2019-04-07T10:56:42.000Z</time>
      </trkpt>
      <trkpt lat="49.37498" lon="1.03883">
        <ele>82.800003051758</ele>
        <time>2019-04-07T10:56:44.000Z</time>
      </trkpt>
      <trkpt lat="49.37507" lon="1.03896">
        <ele>82.199996948242</ele>
        <time>2019-04-07T10:56:46.000Z</time>
      </trkpt>
      <trkpt lat="49.37512" lon="1.03902">
        <ele>81.800003051758</ele>
        <time>2019-04-07T10:56:47.000Z</time>
      </trkpt>
      <trkpt lat="49.37528" lon="1.03922">
        <ele>80</ele>
        <time>2019-04-07T10:56:50.000Z</time>
      </trkpt>
      <trkpt lat="49.37549" lon="1.03968">
        <ele>78.199996948242</ele>
        <time>2019-04-07T10:56:55.000Z</time>
      </trkpt>
      <trkpt lat="49.3755" lon="1.03985">
        <ele>78.800003051758</ele>
        <time>2019-04-07T10:56:58.000Z</time>
      </trkpt>
      <trkpt lat="49.37529" lon="1.0403">
        <ele>80.599998474121</ele>
        <time>2019-04-07T10:57:22.000Z</time>
      </trkpt>
      <trkpt lat="49.37527" lon="1.04033">
        <ele>80.800003051758</ele>
        <time>2019-04-07T10:57:23.000Z</time>
      </trkpt>
      <trkpt lat="49.37524" lon="1.04038">
        <ele>81.199996948242</ele>
        <time>2019-04-07T10:57:26.000Z</time>
      </trkpt>
      <trkpt lat="49.37517" lon="1.04054">
        <ele>82.199996948242</ele>
        <time>2019-04-07T10:57:32.000Z</time>
      </trkpt>
      <trkpt lat="49.37509" lon="1.04069">
        <ele>83.800003051758</ele>
        <time>2019-04-07T10:57:37.000Z</time>
      </trkpt>
      <trkpt lat="49.37486" lon="1.04128">
        <ele>88.800003051758</ele>
        <time>2019-04-07T10:57:56.000Z</time>
      </trkpt>
      <trkpt lat="49.37453" lon="1.0419">
        <ele>89.400001525879</ele>
        <time>2019-04-07T10:58:15.000Z</time>
      </trkpt>
      <trkpt lat="49.37417" lon="1.04253">
        <ele>90.199996948242</ele>
        <time>2019-04-07T10:58:30.000Z</time>
      </trkpt>
      <trkpt lat="49.374" lon="1.04282">
        <ele>90</ele>
        <time>2019-04-07T10:58:36.000Z</time>
      </trkpt>
      <trkpt lat="49.37364" lon="1.04346">
        <ele>88.599998474121</ele>
        <time>2019-04-07T10:58:49.000Z</time>
      </trkpt>
      <trkpt lat="49.37349" lon="1.04389">
        <ele>88.599998474121</ele>
        <time>2019-04-07T10:58:56.000Z</time>
      </trkpt>
      <trkpt lat="49.37352" lon="1.04404">
        <ele>88.800003051758</ele>
        <time>2019-04-07T10:58:58.000Z</time>
      </trkpt>
      <trkpt lat="49.37357" lon="1.04422">
        <ele>89.400001525879</ele>
        <time>2019-04-07T10:59:00.000Z</time>
      </trkpt>
      <trkpt lat="49.37402" lon="1.04476">
        <ele>91</ele>
        <time>2019-04-07T10:59:11.000Z</time>
      </trkpt>
      <trkpt lat="49.37449" lon="1.04516">
        <ele>89.599998474121</ele>
        <time>2019-04-07T10:59:21.000Z</time>
      </trkpt>
      <trkpt lat="49.37483" lon="1.04541">
        <ele>88.199996948242</ele>
        <time>2019-04-07T10:59:28.000Z</time>
      </trkpt>
      <trkpt lat="49.37515" lon="1.04568">
        <ele>87</ele>
        <time>2019-04-07T10:59:35.000Z</time>
      </trkpt>
      <trkpt lat="49.37525" lon="1.04576">
        <ele>86.800003051758</ele>
        <time>2019-04-07T10:59:37.000Z</time>
      </trkpt>
      <trkpt lat="49.37567" lon="1.04607">
        <ele>84.800003051758</ele>
        <time>2019-04-07T10:59:45.000Z</time>
      </trkpt>
      <trkpt lat="49.37583" lon="1.0462">
        <ele>83.800003051758</ele>
        <time>2019-04-07T10:59:48.000Z</time>
      </trkpt>
      <trkpt lat="49.37616" lon="1.04639">
        <ele>82</ele>
        <time>2019-04-07T10:59:53.000Z</time>
      </trkpt>
      <trkpt lat="49.37669" lon="1.04657">
        <ele>80</ele>
        <time>2019-04-07T11:00:00.000Z</time>
      </trkpt>
      <trkpt lat="49.37676" lon="1.04659">
        <ele>79.800003051758</ele>
        <time>2019-04-07T11:00:01.000Z</time>
      </trkpt>
      <trkpt lat="49.37683" lon="1.04662">
        <ele>79.599998474121</ele>
        <time>2019-04-07T11:00:02.000Z</time>
      </trkpt>
      <trkpt lat="49.37698" lon="1.04667">
        <ele>79</ele>
        <time>2019-04-07T11:00:04.000Z</time>
      </trkpt>
      <trkpt lat="49.37751" lon="1.04688">
        <ele>75</ele>
        <time>2019-04-07T11:00:11.000Z</time>
      </trkpt>
      <trkpt lat="49.37773" lon="1.04695">
        <ele>74</ele>
        <time>2019-04-07T11:00:14.000Z</time>
      </trkpt>
      <trkpt lat="49.37828" lon="1.04714">
        <ele>71</ele>
        <time>2019-04-07T11:00:22.000Z</time>
      </trkpt>
      <trkpt lat="49.37888" lon="1.04727">
        <ele>67.400001525879</ele>
        <time>2019-04-07T11:00:32.000Z</time>
      </trkpt>
      <trkpt lat="49.37933" lon="1.04728">
        <ele>64.199996948242</ele>
        <time>2019-04-07T11:00:38.000Z</time>
      </trkpt>
      <trkpt lat="49.37976" lon="1.04721">
        <ele>64.199996948242</ele>
        <time>2019-04-07T11:00:43.000Z</time>
      </trkpt>
      <trkpt lat="49.38012" lon="1.04701">
        <ele>67</ele>
        <time>2019-04-07T11:00:48.000Z</time>
      </trkpt>
      <trkpt lat="49.38054" lon="1.04659">
        <ele>65.599998474121</ele>
        <time>2019-04-07T11:00:56.000Z</time>
      </trkpt>
      <trkpt lat="49.38081" lon="1.04629">
        <ele>65.199996948242</ele>
        <time>2019-04-07T11:01:02.000Z</time>
      </trkpt>
      <trkpt lat="49.38111" lon="1.04601">
        <ele>64.599998474121</ele>
        <time>2019-04-07T11:01:10.000Z</time>
      </trkpt>
      <trkpt lat="49.38116" lon="1.04597">
        <ele>64.599998474121</ele>
        <time>2019-04-07T11:01:11.000Z</time>
      </trkpt>
      <trkpt lat="49.38121" lon="1.04593">
        <ele>64.800003051758</ele>
        <time>2019-04-07T11:01:12.000Z</time>
      </trkpt>
      <trkpt lat="49.38126" lon="1.04588">
        <ele>65</ele>
        <time>2019-04-07T11:01:13.000Z</time>
      </trkpt>
      <trkpt lat="49.38153" lon="1.04556">
        <ele>63.400001525879</ele>
        <time>2019-04-07T11:01:19.000Z</time>
      </trkpt>
      <trkpt lat="49.38165" lon="1.04558">
        <ele>62.599998474121</ele>
        <time>2019-04-07T11:01:23.000Z</time>
      </trkpt>
      <trkpt lat="49.38163" lon="1.04562">
        <ele>62.799999237061</ele>
        <time>2019-04-07T11:01:24.000Z</time>
      </trkpt>
      <trkpt lat="49.38141" lon="1.04605">
        <ele>65</ele>
        <time>2019-04-07T11:01:35.000Z</time>
      </trkpt>
      <trkpt lat="49.38173" lon="1.04646">
        <ele>65.599998474121</ele>
        <time>2019-04-07T11:01:53.000Z</time>
      </trkpt>
      <trkpt lat="49.38174" lon="1.04649">
        <ele>65.800003051758</ele>
        <time>2019-04-07T11:01:54.000Z</time>
      </trkpt>
      <trkpt lat="49.38184" lon="1.04659">
        <ele>66.400001525879</ele>
        <time>2019-04-07T11:02:00.000Z</time>
      </trkpt>
      <trkpt lat="49.38186" lon="1.0466">
        <ele>66.599998474121</ele>
        <time>2019-04-07T11:02:01.000Z</time>
      </trkpt>
      <trkpt lat="49.38189" lon="1.04661">
        <ele>66.599998474121</ele>
        <time>2019-04-07T11:02:02.000Z</time>
      </trkpt>
      <trkpt lat="49.38207" lon="1.04678">
        <ele>68</ele>
        <time>2019-04-07T11:02:13.000Z</time>
      </trkpt>
      <trkpt lat="49.38219" lon="1.04684">
        <ele>68.800003051758</ele>
        <time>2019-04-07T11:02:18.000Z</time>
      </trkpt>
      <trkpt lat="49.38237" lon="1.047">
        <ele>70.199996948242</ele>
        <time>2019-04-07T11:02:28.000Z</time>
      </trkpt>
      <trkpt lat="49.38286" lon="1.04737">
        <ele>73</ele>
        <time>2019-04-07T11:02:50.000Z</time>
      </trkpt>
      <trkpt lat="49.38325" lon="1.04735">
        <ele>73</ele>
        <time>2019-04-07T11:03:01.000Z</time>
      </trkpt>
      <trkpt lat="49.38381" lon="1.04729">
        <ele>73</ele>
        <time>2019-04-07T11:03:14.000Z</time>
      </trkpt>
      <trkpt lat="49.38399" lon="1.04728">
        <ele>73</ele>
        <time>2019-04-07T11:03:18.000Z</time>
      </trkpt>
      <trkpt lat="49.3843" lon="1.04722">
        <ele>73.199996948242</ele>
        <time>2019-04-07T11:03:24.000Z</time>
      </trkpt>
      <trkpt lat="49.3844" lon="1.04716">
        <ele>73.400001525879</ele>
        <time>2019-04-07T11:03:26.000Z</time>
      </trkpt>
      <trkpt lat="49.38447" lon="1.04707">
        <ele>73.599998474121</ele>
        <time>2019-04-07T11:03:28.000Z</time>
      </trkpt>
      <trkpt lat="49.38449" lon="1.04702">
        <ele>73.800003051758</ele>
        <time>2019-04-07T11:03:29.000Z</time>
      </trkpt>
      <trkpt lat="49.38451" lon="1.04695">
        <ele>74</ele>
        <time>2019-04-07T11:03:30.000Z</time>
      </trkpt>
      <trkpt lat="49.38481" lon="1.04615">
        <ele>75.199996948242</ele>
        <time>2019-04-07T11:03:40.000Z</time>
      </trkpt>
      <trkpt lat="49.38495" lon="1.04571">
        <ele>74.800003051758</ele>
        <time>2019-04-07T11:03:45.000Z</time>
      </trkpt>
      <trkpt lat="49.38522" lon="1.04494">
        <ele>72.800003051758</ele>
        <time>2019-04-07T11:03:53.000Z</time>
      </trkpt>
      <trkpt lat="49.38535" lon="1.04454">
        <ele>71</ele>
        <time>2019-04-07T11:03:57.000Z</time>
      </trkpt>
      <trkpt lat="49.38545" lon="1.04418">
        <ele>69</ele>
        <time>2019-04-07T11:04:00.000Z</time>
      </trkpt>
      <trkpt lat="49.38558" lon="1.04379">
        <ele>66.800003051758</ele>
        <time>2019-04-07T11:04:03.000Z</time>
      </trkpt>
      <trkpt lat="49.38585" lon="1.04302">
        <ele>63.200000762939</ele>
        <time>2019-04-07T11:04:09.000Z</time>
      </trkpt>
      <trkpt lat="49.38607" lon="1.04222">
        <ele>60</ele>
        <time>2019-04-07T11:04:19.000Z</time>
      </trkpt>
      <trkpt lat="49.3862" lon="1.04177">
        <ele>62.799999237061</ele>
        <time>2019-04-07T11:04:31.000Z</time>
      </trkpt>
      <trkpt lat="49.38622" lon="1.04166">
        <ele>63.400001525879</ele>
        <time>2019-04-07T11:04:34.000Z</time>
      </trkpt>
      <trkpt lat="49.38629" lon="1.0415">
        <ele>64.599998474121</ele>
        <time>2019-04-07T11:04:40.000Z</time>
      </trkpt>
      <trkpt lat="49.38649" lon="1.04181">
        <ele>65</ele>
        <time>2019-04-07T11:04:51.000Z</time>
      </trkpt>
      <trkpt lat="49.38654" lon="1.04191">
        <ele>65</ele>
        <time>2019-04-07T11:04:54.000Z</time>
      </trkpt>
      <trkpt lat="49.38659" lon="1.04189">
        <ele>65.400001525879</ele>
        <time>2019-04-07T11:04:55.000Z</time>
      </trkpt>
      <trkpt lat="49.38662" lon="1.04186">
        <ele>65.800003051758</ele>
        <time>2019-04-07T11:04:57.000Z</time>
      </trkpt>
      <trkpt lat="49.38665" lon="1.04179">
        <ele>66.199996948242</ele>
        <time>2019-04-07T11:04:59.000Z</time>
      </trkpt>
      <trkpt lat="49.38674" lon="1.04166">
        <ele>67</ele>
        <time>2019-04-07T11:05:03.000Z</time>
      </trkpt>
      <trkpt lat="49.38678" lon="1.04163">
        <ele>67.199996948242</ele>
        <time>2019-04-07T11:05:05.000Z</time>
      </trkpt>
      <trkpt lat="49.38693" lon="1.04181">
        <ele>67.800003051758</ele>
        <time>2019-04-07T11:05:12.000Z</time>
      </trkpt>
      <trkpt lat="49.38703" lon="1.04184">
        <ele>68.199996948242</ele>
        <time>2019-04-07T11:05:16.000Z</time>
      </trkpt>
      <trkpt lat="49.38733" lon="1.04186">
        <ele>69.199996948242</ele>
        <time>2019-04-07T11:05:24.000Z</time>
      </trkpt>
      <trkpt lat="49.38768" lon="1.0422">
        <ele>69.599998474121</ele>
        <time>2019-04-07T11:05:33.000Z</time>
      </trkpt>
      <trkpt lat="49.38784" lon="1.04233">
        <ele>69.800003051758</ele>
        <time>2019-04-07T11:05:37.000Z</time>
      </trkpt>
      <trkpt lat="49.38816" lon="1.04262">
        <ele>68.400001525879</ele>
        <time>2019-04-07T11:05:44.000Z</time>
      </trkpt>
      <trkpt lat="49.3883" lon="1.04271">
        <ele>67.599998474121</ele>
        <time>2019-04-07T11:05:47.000Z</time>
      </trkpt>
      <trkpt lat="49.38841" lon="1.04276">
        <ele>67.199996948242</ele>
        <time>2019-04-07T11:05:49.000Z</time>
      </trkpt>
      <trkpt lat="49.38865" lon="1.04282">
        <ele>66.400001525879</ele>
        <time>2019-04-07T11:05:54.000Z</time>
      </trkpt>
      <trkpt lat="49.38915" lon="1.04301">
        <ele>64.800003051758</ele>
        <time>2019-04-07T11:06:07.000Z</time>
      </trkpt>
      <trkpt lat="49.38926" lon="1.04295">
        <ele>64.800003051758</ele>
        <time>2019-04-07T11:06:09.000Z</time>
      </trkpt>
      <trkpt lat="49.38938" lon="1.04286">
        <ele>64.599998474121</ele>
        <time>2019-04-07T11:06:12.000Z</time>
      </trkpt>
      <trkpt lat="49.38947" lon="1.04282">
        <ele>64.400001525879</ele>
        <time>2019-04-07T11:06:14.000Z</time>
      </trkpt>
      <trkpt lat="49.38974" lon="1.0427">
        <ele>63.200000762939</ele>
        <time>2019-04-07T11:06:20.000Z</time>
      </trkpt>
      <trkpt lat="49.38979" lon="1.04265">
        <ele>63</ele>
        <time>2019-04-07T11:06:21.000Z</time>
      </trkpt>
      <trkpt lat="49.39009" lon="1.04218">
        <ele>62.799999237061</ele>
        <time>2019-04-07T11:06:29.000Z</time>
      </trkpt>
      <trkpt lat="49.39045" lon="1.04155">
        <ele>60.599998474121</ele>
        <time>2019-04-07T11:06:38.000Z</time>
      </trkpt>
      <trkpt lat="49.39086" lon="1.04092">
        <ele>58.799999237061</ele>
        <time>2019-04-07T11:06:47.000Z</time>
      </trkpt>
      <trkpt lat="49.39123" lon="1.04031">
        <ele>58.599998474121</ele>
        <time>2019-04-07T11:06:55.000Z</time>
      </trkpt>
      <trkpt lat="49.3916" lon="1.03969">
        <ele>54.599998474121</ele>
        <time>2019-04-07T11:07:03.000Z</time>
      </trkpt>
      <trkpt lat="49.39173" lon="1.03944">
        <ele>53.400001525879</ele>
        <time>2019-04-07T11:07:06.000Z</time>
      </trkpt>
      <trkpt lat="49.39187" lon="1.03919">
        <ele>53.200000762939</ele>
        <time>2019-04-07T11:07:09.000Z</time>
      </trkpt>
      <trkpt lat="49.3921" lon="1.03878">
        <ele>52.400001525879</ele>
        <time>2019-04-07T11:07:14.000Z</time>
      </trkpt>
      <trkpt lat="49.39215" lon="1.03869">
        <ele>52</ele>
        <time>2019-04-07T11:07:15.000Z</time>
      </trkpt>
      <trkpt lat="49.3922" lon="1.0386">
        <ele>51.799999237061</ele>
        <time>2019-04-07T11:07:16.000Z</time>
      </trkpt>
      <trkpt lat="49.39229" lon="1.03842">
        <ele>51</ele>
        <time>2019-04-07T11:07:18.000Z</time>
      </trkpt>
      <trkpt lat="49.39234" lon="1.03833">
        <ele>50.799999237061</ele>
        <time>2019-04-07T11:07:19.000Z</time>
      </trkpt>
      <trkpt lat="49.39274" lon="1.03763">
        <ele>47.799999237061</ele>
        <time>2019-04-07T11:07:27.000Z</time>
      </trkpt>
      <trkpt lat="49.39283" lon="1.03746">
        <ele>47</ele>
        <time>2019-04-07T11:07:29.000Z</time>
      </trkpt>
      <trkpt lat="49.393" lon="1.03713">
        <ele>45.400001525879</ele>
        <time>2019-04-07T11:07:33.000Z</time>
      </trkpt>
      <trkpt lat="49.39318" lon="1.03683">
        <ele>44</ele>
        <time>2019-04-07T11:07:37.000Z</time>
      </trkpt>
      <trkpt lat="49.39356" lon="1.03619">
        <ele>44.400001525879</ele>
        <time>2019-04-07T11:07:45.000Z</time>
      </trkpt>
      <trkpt lat="49.39361" lon="1.0361">
        <ele>44.200000762939</ele>
        <time>2019-04-07T11:07:46.000Z</time>
      </trkpt>
      <trkpt lat="49.39398" lon="1.03549">
        <ele>42</ele>
        <time>2019-04-07T11:07:53.000Z</time>
      </trkpt>
      <trkpt lat="49.39435" lon="1.03483">
        <ele>41</ele>
        <time>2019-04-07T11:08:00.000Z</time>
      </trkpt>
      <trkpt lat="49.39468" lon="1.03428">
        <ele>39.200000762939</ele>
        <time>2019-04-07T11:08:06.000Z</time>
      </trkpt>
      <trkpt lat="49.39508" lon="1.03368">
        <ele>37.400001525879</ele>
        <time>2019-04-07T11:08:13.000Z</time>
      </trkpt>
      <trkpt lat="49.39547" lon="1.03309">
        <ele>36.799999237061</ele>
        <time>2019-04-07T11:08:20.000Z</time>
      </trkpt>
      <trkpt lat="49.39567" lon="1.03276">
        <ele>33.400001525879</ele>
        <time>2019-04-07T11:08:24.000Z</time>
      </trkpt>
      <trkpt lat="49.39611" lon="1.03212">
        <ele>28.200000762939</ele>
        <time>2019-04-07T11:08:31.000Z</time>
      </trkpt>
      <trkpt lat="49.39638" lon="1.03172">
        <ele>27.60000038147</ele>
        <time>2019-04-07T11:08:35.000Z</time>
      </trkpt>
      <trkpt lat="49.39654" lon="1.03138">
        <ele>27.60000038147</ele>
        <time>2019-04-07T11:08:39.000Z</time>
      </trkpt>
      <trkpt lat="49.39673" lon="1.03122">
        <ele>28.39999961853</ele>
        <time>2019-04-07T11:08:45.000Z</time>
      </trkpt>
      <trkpt lat="49.39692" lon="1.0314">
        <ele>28</ele>
        <time>2019-04-07T11:08:51.000Z</time>
      </trkpt>
      <trkpt lat="49.39748" lon="1.03151">
        <ele>28.200000762939</ele>
        <time>2019-04-07T11:09:05.000Z</time>
      </trkpt>
      <trkpt lat="49.39772" lon="1.03142">
        <ele>28</ele>
        <time>2019-04-07T11:09:10.000Z</time>
      </trkpt>
      <trkpt lat="49.39792" lon="1.03134">
        <ele>27.799999237061</ele>
        <time>2019-04-07T11:09:14.000Z</time>
      </trkpt>
      <trkpt lat="49.39844" lon="1.03106">
        <ele>26.799999237061</ele>
        <time>2019-04-07T11:09:23.000Z</time>
      </trkpt>
      <trkpt lat="49.39857" lon="1.03102">
        <ele>26.60000038147</ele>
        <time>2019-04-07T11:09:25.000Z</time>
      </trkpt>
      <trkpt lat="49.39871" lon="1.03103">
        <ele>26.200000762939</ele>
        <time>2019-04-07T11:09:27.000Z</time>
      </trkpt>
      <trkpt lat="49.39884" lon="1.03111">
        <ele>25.200000762939</ele>
        <time>2019-04-07T11:09:29.000Z</time>
      </trkpt>
      <trkpt lat="49.39896" lon="1.03127">
        <ele>24.60000038147</ele>
        <time>2019-04-07T11:09:31.000Z</time>
      </trkpt>
      <trkpt lat="49.39903" lon="1.03148">
        <ele>24.39999961853</ele>
        <time>2019-04-07T11:09:33.000Z</time>
      </trkpt>
      <trkpt lat="49.39917" lon="1.03223">
        <ele>24.60000038147</ele>
        <time>2019-04-07T11:09:39.000Z</time>
      </trkpt>
      <trkpt lat="49.39921" lon="1.03247">
        <ele>25</ele>
        <time>2019-04-07T11:09:41.000Z</time>
      </trkpt>
      <trkpt lat="49.39926" lon="1.03276">
        <ele>25.799999237061</ele>
        <time>2019-04-07T11:09:44.000Z</time>
      </trkpt>
      <trkpt lat="49.39942" lon="1.03346">
        <ele>26</ele>
        <time>2019-04-07T11:09:52.000Z</time>
      </trkpt>
      <trkpt lat="49.3995" lon="1.03367">
        <ele>26</ele>
        <time>2019-04-07T11:09:55.000Z</time>
      </trkpt>
      <trkpt lat="49.39972" lon="1.03442">
        <ele>27.200000762939</ele>
        <time>2019-04-07T11:10:05.000Z</time>
      </trkpt>
      <trkpt lat="49.39975" lon="1.03458">
        <ele>27.200000762939</ele>
        <time>2019-04-07T11:10:07.000Z</time>
      </trkpt>
      <trkpt lat="49.39977" lon="1.03481">
        <ele>27.39999961853</ele>
        <time>2019-04-07T11:10:10.000Z</time>
      </trkpt>
      <trkpt lat="49.39967" lon="1.03567">
        <ele>30.39999961853</ele>
        <time>2019-04-07T11:10:22.000Z</time>
      </trkpt>
      <trkpt lat="49.39958" lon="1.03615">
        <ele>31.799999237061</ele>
        <time>2019-04-07T11:10:30.000Z</time>
      </trkpt>
      <trkpt lat="49.3995" lon="1.03616">
        <ele>30.799999237061</ele>
        <time>2019-04-07T11:10:32.000Z</time>
      </trkpt>
      <trkpt lat="49.39932" lon="1.0361">
        <ele>31</ele>
        <time>2019-04-07T11:10:36.000Z</time>
      </trkpt>
      <trkpt lat="49.39907" lon="1.03611">
        <ele>31.39999961853</ele>
        <time>2019-04-07T11:10:43.000Z</time>
      </trkpt>
      <trkpt lat="49.39904" lon="1.03624">
        <ele>31.200000762939</ele>
        <time>2019-04-07T11:10:45.000Z</time>
      </trkpt>
      <trkpt lat="49.399" lon="1.03643">
        <ele>31</ele>
        <time>2019-04-07T11:10:48.000Z</time>
      </trkpt>
      <trkpt lat="49.39847" lon="1.0364">
        <ele>30.799999237061</ele>
        <time>2019-04-07T11:11:08.000Z</time>
      </trkpt>
      <trkpt lat="49.39826" lon="1.03629">
        <ele>31.799999237061</ele>
        <time>2019-04-07T11:11:14.000Z</time>
      </trkpt>
      <trkpt lat="49.39777" lon="1.03595">
        <ele>34.200000762939</ele>
        <time>2019-04-07T11:11:28.000Z</time>
      </trkpt>
      <trkpt lat="49.39767" lon="1.0355">
        <ele>34.599998474121</ele>
        <time>2019-04-07T11:11:49.000Z</time>
      </trkpt>
    </trkseg>
  </trk>
</gpx>